# Wetter Temperatur Luftdruck Luftfeuchtigkeit Sichtweite Windgeschwindigkeit Windrichtung Zeit
1 Clouds 8 1020 49 10000 6.69 290 13:40 22.04.2021
2 Clouds 8 1020 49 10000 6.69 310 13:20 22.04.2021
3 Clouds 8 1020 49 10000 6.69 310 12:45 22.04.2021
4 Clouds 7 1020 52 10000 7.72 310 12:20 22.04.2021
5 Clouds 6 1020 52 10000 7.2 300 11:45 22.04.2021
6 Clouds 6 1020 56 10000 5.66 300 11:23 22.04.2021
7 Clouds 6 1020 60 10000 7.2 310 10:45 22.04.2021
8 Clouds 6 1019 60 10000 6.17 300 10:24 22.04.2021
9 Clouds 5 1019 60 10000 5.66 300 09:45 22.04.2021
10 Clouds 5 1019 65 10000 6.17 300 09:24 22.04.2021
11 Clouds 5 1019 65 10000 4.63 280 08:39 22.04.2021
12 Clouds 4 1019 70 10000 3.6 280 08:21 22.04.2021
13 Clouds 3 1019 70 10000 3.6 280 07:45 22.04.2021
14 Clouds 2 1019 75 10000 3.09 270 07:24 22.04.2021
15 Clouds 2 1018 69 10000 3.09 260 06:27 22.04.2021
16 Clouds 3 1018 65 10000 4.12 290 05:26 22.04.2021
17 Clear 3 1018 65 10000 3.6 280 04:56 22.04.2021
18 Clouds 8 1016 57 10000 6.17 330 01:23 22.04.2021
19 Clouds 9 1014 66 10000 5.14 340 23:53 21.04.2021
20 Clouds 9 1014 66 10000 5.14 340 23:32 21.04.2021
21 Clear 10 1014 50 10000 3.09 310 22:44 21.04.2021
22 Clear 9 1013 47 10000 2.57 280 22:24 21.04.2021
23 Clear 10 1013 41 10000 1.54 260 21:50 21.04.2021
24 Clear 11 1013 43 10000 2.06 260 21:25 21.04.2021
25 Clear 12 1013 38 10000 2.06 270 20:59 21.04.2021
26 Clear 13 1013 38 10000 2.57 280 20:21 21.04.2021
27 Clear 13 1013 33 10000 4.12 290 19:45 21.04.2021
28 Clear 14 1013 33 10000 4.12 280 19:25 21.04.2021
29 Clear 14 1013 29 10000 4.63 300 18:49 21.04.2021
30 Clear 15 1013 38 10000 4.63 310 18:30 21.04.2021
31 Clear 14 1013 38 10000 4.63 320 17:49 21.04.2021
32 Clear 16 1013 41 10000 5.14 300 17:25 21.04.2021
33 Clear 16 1013 41 10000 4.12 310 16:57 21.04.2021
34 Clear 17 1013 39 10000 4.63 320 16:30 21.04.2021
35 Clear 17 1013 38 10000 4.63 320 15:42 21.04.2021
36 Clear 17 1013 38 10000 4.63 320 15:42 21.04.2021
37 Clear 16 1014 44 10000 3.6 350 15:18 21.04.2021
38 Clear 16 1014 44 10000 3.6 350 15:18 21.04.2021
39 Clear 17 1014 44 10000 3.6 350 14:44 21.04.2021
40 Clouds 16 1014 44 10000 3.6 340 14:23 21.04.2021
41 Clouds 16 1014 47 10000 4.12 350 13:45 21.04.2021
42 Clouds 16 1014 51 10000 3.6 340 13:21 21.04.2021
43 Clear 15 1014 51 10000 3.6 340 12:32 21.04.2021
44 Clear 15 1014 62 10000 3.09 300 11:58 21.04.2021
45 Clear 15 1014 62 10000 3.09 300 11:39 21.04.2021
46 Clear 14 1014 71 10000 3.6 320 11:21 21.04.2021
47 Clear 13 1014 71 10000 2.57 310 10:37 21.04.2021
48 Clear 12 1014 76 10000 3.6 280 09:56 21.04.2021
49 Clear 11 1014 71 10000 3.6 270 09:20 21.04.2021
50 Clear 10 1014 71 10000 4.12 270 08:42 21.04.2021
51 Clear 9 1014 76 10000 2.57 260 08:23 21.04.2021
52 Clear 7 1014 81 10000 1.54 270 07:43 21.04.2021
53 Clear 6 1014 76 10000 2.06 270 07:21 21.04.2021
54 Clear 6 1013 87 10000 2.57 240 05:53 21.04.2021
55 Clouds 7 1014 87 10000 2.57 220 01:50 21.04.2021
56 Clear 7 1014 87 10000 3.6 200 00:19 21.04.2021
57 Clear 7 1014 81 10000 3.09 200 23:38 20.04.2021
58 Clear 8 1014 76 10000 2.06 160 22:46 20.04.2021
59 Clouds 9 1014 81 10000 2.57 150 22:23 20.04.2021
60 Clouds 10 1014 71 10000 2.06 210 21:49 20.04.2021
61 Clouds 10 1014 76 10000 1.03 0 21:29 20.04.2021
62 Clouds 11 1014 82 10000 2.57 180 20:59 20.04.2021
63 Clouds 11 1014 82 10000 2.57 180 20:38 20.04.2021
64 Clouds 11 1014 82 10000 3.6 210 20:18 20.04.2021
65 Clouds 12 1014 58 10000 1.03 0 19:46 20.04.2021
66 Clouds 12 1014 62 10000 2.06 220 19:28 20.04.2021
67 Rain 13 1014 62 10000 2.57 220 18:44 20.04.2021
68 Rain 14 1014 58 10000 1.54 260 18:23 20.04.2021
69 Clouds 14 1014 58 10000 1.54 320 17:41 20.04.2021
70 Clouds 14 1014 58 10000 4.12 340 16:50 20.04.2021
71 Clouds 14 1014 58 10000 3.09 340 16:25 20.04.2021
72 Rain 15 1015 67 10000 4.12 300 15:30 20.04.2021
73 Clouds 14 1015 62 10000 3.09 320 14:59 20.04.2021
74 Clouds 14 1015 62 10000 3.09 320 14:39 20.04.2021
75 Clouds 15 1015 67 10000 3.6 340 14:20 20.04.2021
76 Clouds 15 1016 62 10000 1.54 0 13:27 20.04.2021
77 Clouds 14 1016 67 10000 2.06 300 12:53 20.04.2021
78 Clouds 12 1016 67 10000 2.06 280 12:23 20.04.2021
79 Clouds 11 1016 71 8000 1.54 0 11:46 20.04.2021
80 Clouds 11 1016 76 7000 2.06 180 11:25 20.04.2021
81 Clouds 11 1016 81 6000 2.06 260 10:47 20.04.2021
82 Mist 10 1016 81 5000 2.57 220 10:24 20.04.2021
83 Mist 10 1016 87 4800 2.57 230 09:45 20.04.2021
84 Mist 9 1016 93 3100 2.06 240 09:18 20.04.2021
85 Mist 9 1016 93 2900 2.06 220 08:42 20.04.2021
86 Mist 8 1016 93 3000 1.54 240 07:53 20.04.2021
87 Mist 8 1016 93 3200 1.54 250 07:22 20.04.2021
88 Mist 7 1016 93 4500 0.51 0 05:42 20.04.2021
89 Mist 7 1016 93 4300 2.06 250 04:43 20.04.2021
90 Mist 6 1016 93 4700 2.06 210 03:34 20.04.2021
91 Clouds 8 1017 93 9000 2.06 260 00:50 20.04.2021
92 Rain 8 1017 81 10000 1.03 0 23:52 19.04.2021
93 Clouds 8 1017 81 10000 2.06 280 23:29 19.04.2021
94 Clear 8 1017 81 10000 1.54 270 22:38 19.04.2021
95 Clear 8 1018 87 10000 2.06 310 22:19 19.04.2021
96 Clear 8 1018 81 10000 2.57 320 21:38 19.04.2021
97 Clear 9 1018 76 10000 2.57 320 21:20 19.04.2021
98 Clear 9 1017 76 10000 2.06 310 20:41 19.04.2021
99 Clear 10 1017 76 10000 2.57 330 20:20 19.04.2021
100 Clear 10 1017 71 10000 3.09 320 19:46 19.04.2021
101 Clouds 12 1017 66 10000 3.6 320 19:25 19.04.2021
102 Clouds 11 1017 71 10000 3.6 320 18:49 19.04.2021
103 Clouds 10 1017 66 10000 3.09 330 18:24 19.04.2021
104 Clouds 10 1018 62 10000 3.09 10 17:58 19.04.2021
105 Clouds 10 1018 62 10000 3.09 10 17:39 19.04.2021
106 Clouds 11 1017 62 10000 3.6 320 17:20 19.04.2021
107 Clouds 10 1018 62 10000 4.63 360 16:41 19.04.2021
108 Clouds 10 1018 54 10000 2.57 360 16:21 19.04.2021
109 Clouds 11 1018 58 10000 3.6 10 15:40 19.04.2021
110 Clouds 13 1018 66 10000 3.6 330 15:22 19.04.2021
111 Clouds 13 1018 54 10000 1.54 340 14:41 19.04.2021
112 Clouds 14 1018 54 10000 1.54 340 14:22 19.04.2021
113 Clouds 13 1019 62 10000 2.57 0 13:48 19.04.2021
114 Clouds 12 1019 66 10000 2.57 10 13:25 19.04.2021
115 Clouds 12 1019 71 10000 3.09 0 12:43 19.04.2021
116 Clouds 12 1019 76 10000 2.06 330 12:24 19.04.2021
117 Clouds 11 1019 81 10000 2.06 340 11:54 19.04.2021
118 Clouds 10 1020 87 10000 2.06 0 11:26 19.04.2021
119 Clouds 10 1019 87 10000 1.54 10 10:51 19.04.2021
120 Mist 9 1019 93 5000 1.03 0 10:26 19.04.2021
121 Fog 8 1019 100 500 1.03 0 09:57 19.04.2021
122 Fog 7 1019 100 500 1.03 0 09:36 19.04.2021
123 Fog 7 1019 100 1200 0.51 0 09:18 19.04.2021
124 Fog 6 1019 100 350 0.79 24 08:29 19.04.2021
125 Fog 5 1019 100 500 0.51 0 07:49 19.04.2021
126 Fog 5 1019 100 700 0.48 63 07:20 19.04.2021
127 Fog 5 1019 100 250 0.51 0 06:36 19.04.2021
128 Fog 4 1019 100 10000 0.51 220 02:36 19.04.2021
129 Clouds 5 1020 93 10000 0.51 0 01:27 19.04.2021
130 Fog 5 1020 100 500 1.54 90 00:23 19.04.2021
131 Fog 5 1020 100 10000 0.51 0 23:19 18.04.2021
132 Fog 6 1020 100 5000 1.54 40 22:49 18.04.2021
133 Clouds 6 1020 93 10000 0.51 0 22:30 18.04.2021
134 Clouds 6 1020 93 10000 0.51 0 22:30 18.04.2021
135 Clouds 7 1020 93 10000 0.51 0 21:41 18.04.2021
136 Clouds 7 1019 93 10000 1.03 30 21:20 18.04.2021
137 Clouds 7 1019 87 10000 1.03 10 20:40 18.04.2021
138 Clouds 8 1019 87 10000 1.03 0 20:21 18.04.2021
139 Clouds 8 1019 87 10000 1.54 340 19:49 18.04.2021
140 Clouds 8 1019 87 10000 1.54 330 19:30 18.04.2021
141 Clouds 9 1018 81 10000 0.51 0 18:54 18.04.2021
142 Clouds 9 1018 87 10000 1.54 330 18:31 18.04.2021
143 Clouds 9 1018 81 10000 1.03 0 17:59 18.04.2021
144 Clouds 9 1018 81 10000 1.03 0 17:41 18.04.2021
145 Clouds 9 1018 87 10000 2.06 360 17:23 18.04.2021
146 Clouds 8 1018 87 10000 2.06 360 16:41 18.04.2021
147 Clouds 9 1018 81 10000 1.54 340 16:18 18.04.2021
148 Clouds 9 1018 81 10000 1.03 0 15:39 18.04.2021
149 Clouds 9 1019 87 10000 1.03 0 15:20 18.04.2021
150 Rain 9 1019 87 10000 1.54 330 14:42 18.04.2021
151 Rain 8 1019 93 10000 2.06 340 14:19 18.04.2021
152 Rain 8 1019 93 8000 2.06 340 13:53 18.04.2021
153 Rain 9 1019 93 8000 2.06 340 13:31 18.04.2021
154 Rain 7 1019 93 6000 2.57 320 12:44 18.04.2021
155 Rain 7 1019 93 6000 2.57 320 12:44 18.04.2021
156 Rain 7 1019 87 6000 3.09 310 12:23 18.04.2021
157 Clouds 7 1019 87 9000 3.6 330 11:41 18.04.2021
158 Clouds 7 1019 87 10000 3.09 340 11:20 18.04.2021
159 Clouds 7 1019 87 10000 3.09 350 10:46 18.04.2021
160 Clouds 8 1019 81 10000 2.57 340 10:21 18.04.2021
161 Clouds 8 1019 81 10000 2.06 290 09:44 18.04.2021
162 Clouds 8 1019 87 10000 2.06 300 09:26 18.04.2021
163 Clouds 7 1019 81 10000 3.09 300 08:54 18.04.2021
164 Clouds 7 1019 81 10000 2.06 280 08:29 18.04.2021
165 Clouds 6 1019 81 10000 1.03 330 07:53 18.04.2021
166 Clouds 6 1019 81 10000 1.03 330 07:35 18.04.2021
167 Clouds 5 1019 87 10000 1.03 230 05:40 18.04.2021
168 Clouds 6 1019 81 10000 1.03 210 05:22 18.04.2021
169 Clouds 6 1020 81 10000 2.06 210 02:25 18.04.2021
170 Clouds 6 1020 81 10000 1.54 210 01:41 18.04.2021
171 Clouds 6 1020 87 10000 1.54 260 00:29 18.04.2021
172 Clouds 6 1020 81 10000 1.54 230 23:30 17.04.2021
173 Clouds 6 1020 81 10000 2.06 220 22:50 17.04.2021
174 Clouds 6 1020 81 10000 1.03 210 22:30 17.04.2021
175 Clouds 6 1020 81 10000 1.03 210 22:30 17.04.2021
176 Clouds 6 1020 76 10000 1.03 230 21:46 17.04.2021
177 Clouds 6 1020 76 10000 1.54 300 21:28 17.04.2021
178 Clouds 7 1020 76 10000 1.03 290 20:43 17.04.2021
179 Clouds 5 1020 76 10000 1.03 290 20:24 17.04.2021
180 Clouds 7 1020 76 10000 1.03 330 19:43 17.04.2021
181 Clouds 5 1020 70 10000 1.54 320 19:20 17.04.2021
182 Clouds 5 1020 70 10000 1.54 320 19:20 17.04.2021
183 Clouds 4 1020 70 10000 1.54 330 18:53 17.04.2021
184 Clouds 4 1020 70 10000 1.54 320 18:25 17.04.2021
185 Clouds 5 1020 70 10000 2.06 320 17:48 17.04.2021
186 Clouds 4 1020 70 10000 2.06 340 17:29 17.04.2021
187 Clouds 5 1020 66 10000 2.06 320 16:41 17.04.2021
188 Clouds 4 1020 70 10000 2.57 300 16:23 17.04.2021
189 Clouds 4 1020 70 10000 2.06 350 15:38 17.04.2021
190 Clouds 7 1020 65 10000 2.57 330 14:44 17.04.2021
191 Clouds 3 1020 75 10000 2.57 310 14:20 17.04.2021
192 Clouds 5 1020 75 10000 2.06 330 13:44 17.04.2021
193 Clouds 5 1020 75 10000 2.57 340 12:55 17.04.2021
194 Clouds 5 1020 75 10000 2.57 340 12:34 17.04.2021
195 Clouds 4 1020 81 10000 3.6 300 11:58 17.04.2021
196 Clouds 4 1020 81 10000 3.6 300 11:38 17.04.2021
197 Clouds 5 1021 81 10000 3.6 310 11:19 17.04.2021
198 Clouds 4 1021 81 10000 3.6 300 10:39 17.04.2021
199 Clouds 4 1021 81 10000 3.09 290 09:51 17.04.2021
200 Clouds 3 1021 87 10000 2.57 280 08:55 17.04.2021
201 Clouds 3 1021 87 10000 2.57 280 08:55 17.04.2021
202 Rain 3 1021 87 10000 2.57 280 08:33 17.04.2021
203 Rain 3 1021 87 10000 2.57 280 08:33 17.04.2021
204 Rain 2 1021 93 10000 2.06 280 07:54 17.04.2021
205 Rain 2 1021 93 10000 1.54 270 06:34 17.04.2021
206 Rain 4 1021 70 10000 2.57 350 03:48 17.04.2021
207 Clear 5 1022 65 10000 2.57 330 01:35 17.04.2021
208 Clear 5 1022 65 10000 3.09 350 00:40 17.04.2021
209 Clear 5 1022 70 10000 2.06 340 00:19 17.04.2021
210 Clear 5 1022 70 10000 1.54 350 23:43 16.04.2021
211 Clouds 3 1022 65 10000 2.06 320 22:52 16.04.2021
212 Clouds 5 1022 65 10000 2.06 300 22:25 16.04.2021
213 Clouds 5 1022 65 10000 2.06 290 21:58 16.04.2021
214 Clouds 4 1022 65 10000 2.06 290 21:40 16.04.2021
215 Clouds 5 1022 65 10000 2.06 280 21:21 16.04.2021
216 Rain 6 1022 65 10000 2.06 290 20:45 16.04.2021
217 Rain 6 1022 61 10000 2.57 290 20:20 16.04.2021
218 Clear 6 1022 61 10000 3.09 300 19:49 16.04.2021
219 Clear 6 1022 61 10000 3.6 310 19:21 16.04.2021
220 Clouds 7 1022 65 10000 4.63 320 18:28 16.04.2021
221 Clouds 7 1022 66 10000 5.14 310 17:53 16.04.2021
222 Clouds 7 1022 71 10000 4.12 290 17:20 16.04.2021
223 Clouds 6 1022 81 10000 3.6 320 16:57 16.04.2021
224 Clouds 6 1022 81 10000 3.6 320 16:38 16.04.2021
225 Clouds 6 1022 75 10000 3.6 310 16:20 16.04.2021
226 Clouds 5 1023 75 10000 3.09 310 15:39 16.04.2021
227 Clouds 4 1023 81 10000 3.6 310 14:56 16.04.2021
228 Clouds 4 1023 81 10000 3.6 310 14:37 16.04.2021
229 Clouds 3 1023 87 10000 3.09 300 13:58 16.04.2021
230 Clouds 3 1023 87 10000 3.09 300 13:37 16.04.2021
231 Clouds 3 1023 93 10000 3.6 300 13:18 16.04.2021
232 Clouds 3 1023 93 8000 2.57 290 12:44 16.04.2021
233 Clouds 2 1023 93 8000 2.57 300 12:23 16.04.2021
234 Clouds 2 1023 93 6000 2.57 290 11:43 16.04.2021
235 Rain 2 1023 100 7000 3.6 310 11:23 16.04.2021
236 Rain 1 1023 100 7000 3.6 310 10:43 16.04.2021
237 Snow 1 1023 93 7000 3.6 320 10:24 16.04.2021
238 Snow 1 1023 93 7000 3.09 320 09:49 16.04.2021
239 Snow 1 1023 93 6000 3.6 320 09:23 16.04.2021
240 Snow 1 1023 100 6000 3.6 320 08:45 16.04.2021
241 Snow 1 1023 100 2500 3.6 320 08:27 16.04.2021
242 Snow 1 1023 100 1500 3.09 310 07:47 16.04.2021
243 Snow 1 1022 100 1500 3.09 310 07:27 16.04.2021
244 Snow 1 1022 100 1500 3.09 310 06:46 16.04.2021
245 Snow 1 1022 100 2800 3.09 310 05:33 16.04.2021
246 Snow 1 1023 100 4500 3.6 310 03:59 16.04.2021
247 Snow 1 1024 93 8000 3.09 320 00:48 16.04.2021
248 Snow 1 1024 86 8000 4.12 340 00:22 16.04.2021
249 Snow 1 1024 86 10000 4.63 340 23:58 15.04.2021
250 Snow 1 1024 86 10000 4.63 340 23:35 15.04.2021
251 Snow 1 1024 93 10000 2.57 310 22:52 15.04.2021
252 Snow 2 1025 93 6000 2.06 320 22:26 15.04.2021
253 Snow 2 1025 93 5000 2.06 320 21:56 15.04.2021
254 Snow 2 1025 93 5000 2.06 320 21:37 15.04.2021
255 Snow 2 1025 93 10000 2.06 340 21:19 15.04.2021
256 Snow 2 1025 80 10000 2.57 360 20:40 15.04.2021
257 Snow 2 1024 80 10000 5.66 360 20:20 15.04.2021
258 Snow 2 1024 87 10000 3.09 350 19:42 15.04.2021
259 Snow 2 1024 87 10000 4.12 360 19:23 15.04.2021
260 Rain 3 1024 75 10000 6.17 360 18:42 15.04.2021
261 Rain 3 1024 70 10000 4.12 340 18:20 15.04.2021
262 Rain 3 1025 75 10000 5.14 360 17:54 15.04.2021
263 Rain 3 1025 75 10000 5.14 360 17:36 15.04.2021
264 Rain 3 1025 75 10000 4.12 330 17:36 15.04.2021
265 Rain 4 1025 81 10000 3.6 320 16:57 15.04.2021
266 Rain 4 1025 81 10000 3.6 320 16:38 15.04.2021
267 Rain 4 1025 81 10000 5.66 360 16:20 15.04.2021
268 Drizzle 5 1025 65 10000 5.66 350 15:44 15.04.2021
269 Clouds 5 1025 70 10000 5.14 360 15:25 15.04.2021
270 Clouds 4 1025 70 10000 5.14 360 14:39 15.04.2021
271 Drizzle 5 1025 65 10000 6.17 360 14:21 15.04.2021
272 Clouds 5 1025 52 10000 5.66 350 13:41 15.04.2021
273 Clouds 5 1025 60 10000 4.63 340 13:18 15.04.2021
274 Clouds 6 1025 48 10000 4.63 330 12:39 15.04.2021
275 Clouds 5 1026 65 10000 4.63 340 12:20 15.04.2021
276 Clouds 5 1026 65 10000 4.12 350 11:44 15.04.2021
277 Clouds 4 1026 75 10000 4.12 340 11:23 15.04.2021
278 Clouds 4 1026 75 10000 4.12 340 11:23 15.04.2021
279 Clouds 4 1026 75 10000 4.12 340 11:23 15.04.2021
280 Clouds 4 1026 75 10000 3.09 340 10:49 15.04.2021
281 Clouds 4 1026 80 10000 4.63 340 10:27 15.04.2021
282 Clouds 3 1026 75 10000 3.09 330 09:46 15.04.2021
283 Clear 3 1026 80 10000 3.6 340 09:18 15.04.2021
284 Clear 2 1026 80 10000 2.57 320 08:42 15.04.2021
285 Clear 1 1026 80 10000 2.57 320 07:53 15.04.2021
286 Clouds 0 1026 80 10000 2.57 320 07:24 15.04.2021
287 Clouds 0 1025 80 10000 2.06 300 06:39 15.04.2021
288 Clouds 0 1025 80 10000 2.57 310 06:20 15.04.2021
289 Clouds 1 1025 80 10000 2.57 310 04:51 15.04.2021
290 Clouds 2 1026 75 10000 2.06 290 01:24 15.04.2021
291 Clouds 3 1026 75 10000 2.06 320 23:42 14.04.2021
292 Clear 3 1026 75 10000 2.06 330 23:22 14.04.2021
293 Clear 3 1026 75 10000 2.06 320 22:46 14.04.2021
294 Clear 3 1026 75 10000 2.06 340 22:25 14.04.2021
295 Clouds 3 1026 70 10000 2.06 320 21:49 14.04.2021
296 Clouds 3 1025 65 10000 1.54 320 21:31 14.04.2021
297 Clouds 4 1025 60 10000 2.06 350 20:56 14.04.2021
298 Clouds 4 1025 60 10000 2.06 350 20:34 14.04.2021
299 Clouds 4 1025 60 10000 2.06 350 20:34 14.04.2021
300 Clear 5 1025 49 10000 2.06 330 19:54 14.04.2021
301 Clear 6 1025 49 10000 2.57 340 19:21 14.04.2021
302 Clear 6 1025 49 10000 4.12 350 18:57 14.04.2021
303 Clear 6 1025 49 10000 4.12 350 18:36 14.04.2021
304 Clouds 7 1025 42 10000 4.63 320 18:18 14.04.2021
305 Clouds 7 1025 42 10000 5.14 330 17:28 14.04.2021
306 Clouds 7 1025 49 10000 5.14 330 16:58 14.04.2021
307 Clouds 7 1025 49 10000 4.63 340 16:29 14.04.2021
308 Clouds 7 1026 52 10000 5.14 320 15:47 14.04.2021
309 Clouds 7 1026 52 10000 4.63 340 15:28 14.04.2021
310 Clouds 6 1026 56 10000 4.63 320 14:57 14.04.2021
311 Clouds 7 1026 56 10000 4.63 320 14:38 14.04.2021
312 Clouds 7 1026 56 10000 5.14 340 14:19 14.04.2021
313 Clouds 7 1026 52 10000 5.14 330 13:45 14.04.2021
314 Clouds 6 1027 56 10000 5.66 310 12:43 14.04.2021
315 Clouds 6 1027 60 10000 5.14 320 12:18 14.04.2021
316 Clouds 5 1027 65 10000 5.66 310 11:41 14.04.2021
317 Clouds 5 1027 65 10000 4.63 310 11:22 14.04.2021
318 Clouds 4 1027 75 10000 4.63 330 10:34 14.04.2021
319 Clouds 3 1027 80 10000 4.12 330 09:43 14.04.2021
320 Clouds 2 1027 86 10000 3.6 310 09:25 14.04.2021
321 Clouds 2 1027 93 10000 2.57 300 08:56 14.04.2021
322 Clear 1 1027 93 10000 2.57 290 08:30 14.04.2021
323 Clouds 1 1027 93 10000 2.57 300 07:41 14.04.2021
324 Clear 0 1027 93 10000 2.57 280 06:35 14.04.2021
325 Clear 1 1027 86 10000 2.06 280 05:36 14.04.2021
326 Clouds 2 1027 80 10000 2.06 280 02:31 14.04.2021
327 Clear 3 1027 80 10000 2.57 300 00:57 14.04.2021
328 Clear 3 1027 80 10000 2.57 300 00:32 14.04.2021
329 Clear 3 1027 75 10000 2.57 310 23:34 13.04.2021
330 Clear 3 1027 70 10000 3.09 310 22:45 13.04.2021
331 Clear 4 1027 65 10000 1.54 260 22:22 13.04.2021
332 Clear 3 1027 70 10000 1.54 260 21:50 13.04.2021
333 Clear 3 1027 70 10000 1.54 260 21:32 13.04.2021
334 Clouds 4 1026 70 10000 1.54 270 20:55 13.04.2021
335 Clouds 4 1026 70 10000 1.54 270 20:37 13.04.2021
336 Clouds 5 1026 65 10000 2.57 290 20:19 13.04.2021
337 Clouds 6 1026 56 10000 5.66 320 19:26 13.04.2021
338 Clouds 6 1026 61 10000 3.09 320 18:58 13.04.2021
339 Clouds 7 1026 61 10000 3.09 320 18:33 13.04.2021
340 Clouds 7 1026 56 10000 3.6 330 17:44 13.04.2021
341 Clouds 7 1027 53 10000 4.63 330 17:23 13.04.2021
342 Clouds 7 1027 53 10000 4.63 320 16:57 13.04.2021
343 Clouds 7 1027 53 10000 4.63 320 16:38 13.04.2021
344 Clouds 7 1027 49 10000 5.14 310 16:19 13.04.2021
345 Clouds 7 1027 52 10000 5.66 320 15:39 13.04.2021
346 Clouds 7 1028 52 10000 4.12 290 14:59 13.04.2021
347 Clouds 7 1028 52 10000 4.12 290 14:38 13.04.2021
348 Clouds 7 1028 52 10000 5.14 280 14:18 13.04.2021
349 Clouds 7 1028 56 10000 4.63 310 13:41 13.04.2021
350 Clouds 7 1028 61 10000 4.63 300 13:22 13.04.2021
351 Clouds 6 1028 60 10000 4.63 310 12:53 13.04.2021
352 Clouds 6 1028 60 10000 4.63 310 12:23 13.04.2021
353 Clouds 5 1028 75 10000 4.12 330 11:48 13.04.2021
354 Clouds 5 1028 70 10000 4.63 310 11:28 13.04.2021
355 Clouds 4 1029 70 10000 4.12 320 10:44 13.04.2021
356 Clouds 4 1028 75 10000 3.6 320 10:20 13.04.2021
357 Clouds 5 1028 75 10000 3.6 300 09:52 13.04.2021
358 Clouds 4 1028 75 10000 3.6 300 09:34 13.04.2021
359 Clouds 2 1028 80 10000 3.09 290 08:51 13.04.2021
360 Clouds 2 1028 86 10000 2.57 290 08:25 13.04.2021
361 Clear 1 1028 80 10000 2.06 290 07:52 13.04.2021
362 Clear 1 1028 80 10000 2.57 290 07:32 13.04.2021
363 Clear 0 1027 80 10000 1.03 0 06:28 13.04.2021
364 Clear 0 1027 80 10000 1.54 280 04:27 13.04.2021
365 Clouds 2 1027 70 10000 1.54 270 01:37 13.04.2021
366 Clear 2 1026 75 10000 2.06 270 23:59 12.04.2021
367 Clear 2 1026 75 10000 2.06 270 23:39 12.04.2021
368 Clear 3 1026 70 10000 2.06 260 23:18 12.04.2021
369 Clear 3 1026 70 10000 2.06 250 22:38 12.04.2021
370 Clear 3 1026 70 10000 1.03 250 21:56 12.04.2021
371 Clear 3 1026 70 10000 1.03 250 21:36 12.04.2021
372 Clear 4 1026 70 10000 1.54 270 21:18 12.04.2021
373 Rain 4 1025 70 10000 1.54 270 20:37 12.04.2021
374 Rain 4 1025 70 10000 2.57 290 20:19 12.04.2021
375 Rain 4 1025 70 10000 2.06 290 19:42 12.04.2021
376 Rain 4 1025 65 10000 2.06 290 19:21 12.04.2021
377 Rain 4 1025 65 10000 2.06 290 18:56 12.04.2021
378 Rain 4 1025 65 10000 2.06 290 18:37 12.04.2021
379 Rain 4 1025 70 10000 3.6 310 18:18 12.04.2021
380 Rain 4 1024 70 10000 3.6 310 17:42 12.04.2021
381 Clouds 4 1024 75 10000 2.06 290 17:20 12.04.2021
382 Rain 4 1024 81 10000 2.57 300 16:43 12.04.2021
383 Rain 4 1024 81 10000 2.06 290 16:24 12.04.2021
384 Rain 4 1024 87 10000 3.09 320 15:47 12.04.2021
385 Rain 4 1024 87 10000 3.6 280 15:21 12.04.2021
386 Rain 3 1023 87 10000 4.63 320 14:49 12.04.2021
387 Rain 3 1023 87 10000 1.54 300 14:29 12.04.2021
388 Snow 3 1023 93 5000 1.54 260 13:45 12.04.2021
389 Snow 3 1023 93 5000 1.54 270 13:22 12.04.2021
390 Snow 2 1023 93 5000 1.54 260 12:44 12.04.2021
391 Snow 2 1023 93 5000 2.06 320 12:24 12.04.2021
392 Snow 2 1022 93 5000 2.57 330 11:53 12.04.2021
393 Snow 2 1022 93 3000 3.6 310 10:56 12.04.2021
394 Snow 2 1022 93 3000 3.6 310 10:38 12.04.2021
395 Snow 2 1021 100 2000 3.6 320 10:20 12.04.2021
396 Snow 2 1021 100 3000 3.6 320 09:40 12.04.2021
397 Snow 1 1021 93 3000 4.12 320 09:18 12.04.2021
398 Snow 1 1020 93 3000 4.12 310 08:35 12.04.2021
399 Snow 2 1019 100 4000 4.12 310 07:38 12.04.2021
400 Snow 2 1019 93 6000 4.12 320 07:19 12.04.2021
401 Rain 3 1017 100 5000 4.63 320 05:52 12.04.2021
402 Drizzle 4 1017 93 4200 4.63 300 04:28 12.04.2021
403 Drizzle 6 1014 93 10000 5.14 290 00:52 12.04.2021
404 Clouds 7 1014 87 10000 5.66 310 00:24 12.04.2021
405 Clouds 8 1013 87 10000 6.69 310 23:46 11.04.2021
406 Clouds 8 1013 87 10000 6.69 310 23:46 11.04.2021
407 Clouds 9 1012 87 10000 6.69 300 23:27 11.04.2021
408 Rain 10 1011 87 10000 4.63 310 22:46 11.04.2021
409 Rain 13 1011 58 10000 2.57 0 22:23 11.04.2021
410 Clear 14 1010 47 10000 4.12 160 21:46 11.04.2021
411 Clear 14 1010 47 10000 4.12 160 21:46 11.04.2021
412 Clear 14 1010 47 10000 4.63 170 21:27 11.04.2021
413 Clear 14 1009 44 10000 4.12 150 20:57 11.04.2021
414 Clear 14 1009 47 10000 4.12 150 20:30 11.04.2021
415 Clear 15 1009 41 10000 4.63 160 19:56 11.04.2021
416 Clear 15 1009 41 10000 4.63 160 19:37 11.04.2021
417 Clear 16 1009 44 10000 6.17 170 19:19 11.04.2021
418 Clear 17 1009 42 10000 7.2 170 18:42 11.04.2021
419 Clear 18 1009 39 10000 5.14 170 18:24 11.04.2021
420 Clear 17 1009 39 10000 5.66 160 17:46 11.04.2021
421 Clear 18 1009 39 10000 6.17 170 17:28 11.04.2021
422 Clear 18 1009 36 10000 7.72 170 16:52 11.04.2021
423 Clear 18 1009 39 10000 6.17 160 16:23 11.04.2021
424 Clear 18 1009 36 10000 7.2 170 15:57 11.04.2021
425 Clear 18 1009 36 10000 7.2 170 15:38 11.04.2021
426 Clear 19 1009 36 10000 6.69 170 15:19 11.04.2021
427 Clear 19 1009 39 10000 6.69 160 14:46 11.04.2021
428 Clear 18 1009 39 10000 5.66 160 14:18 11.04.2021
429 Clear 18 1009 39 10000 6.69 170 13:36 11.04.2021
430 Clear 18 1009 39 10000 5.66 170 13:18 11.04.2021
431 Clear 17 1009 41 10000 6.17 160 12:22 11.04.2021
432 Clear 16 1010 44 10000 5.14 160 11:53 11.04.2021
433 Clear 16 1010 44 10000 5.14 160 11:53 11.04.2021
434 Clear 15 1010 41 10000 7.2 150 11:29 11.04.2021
435 Clear 15 1010 47 10000 6.69 160 10:56 11.04.2021
436 Clear 14 1010 47 10000 6.69 160 10:38 11.04.2021
437 Clear 11 1010 44 10000 8.23 160 10:19 11.04.2021
438 Clear 13 1010 47 10000 7.72 160 09:37 11.04.2021
439 Clear 10 1010 47 10000 8.23 160 09:19 11.04.2021
440 Clear 11 1010 54 10000 7.72 160 08:31 11.04.2021
441 Clear 9 1010 62 10000 6.69 150 07:25 11.04.2021
442 Clear 9 1010 62 10000 6.17 150 06:57 11.04.2021
443 Clouds 10 1010 58 10000 6.69 160 05:44 11.04.2021
444 Clouds 9 1010 58 10000 6.17 160 05:21 11.04.2021
445 Clear 10 1010 62 10000 5.66 150 04:35 11.04.2021
446 Clear 9 1012 66 10000 4.12 150 02:58 11.04.2021
447 Clear 7 1013 81 10000 2.57 130 00:40 11.04.2021
448 Clear 7 1013 81 10000 2.57 130 00:40 11.04.2021
449 Clear 7 1013 87 10000 3.09 100 23:52 10.04.2021
450 Clear 7 1014 87 10000 2.57 90 23:30 10.04.2021
451 Clear 6 1014 87 10000 2.06 80 22:51 10.04.2021
452 Clear 6 1014 87 10000 3.09 90 22:25 10.04.2021
453 Clear 7 1014 87 10000 3.09 100 21:52 10.04.2021
454 Clear 7 1015 81 10000 2.57 100 21:23 10.04.2021
455 Clear 8 1014 81 10000 2.57 90 20:53 10.04.2021
456 Clear 8 1014 81 10000 2.57 90 20:32 10.04.2021
457 Clouds 9 1015 81 10000 3.09 60 19:48 10.04.2021
458 Clouds 9 1015 76 10000 2.57 60 19:28 10.04.2021
459 Clouds 9 1015 76 10000 1.54 80 18:57 10.04.2021
460 Clouds 9 1015 76 10000 1.54 80 18:39 10.04.2021
461 Clouds 8 1015 76 10000 1.54 50 18:20 10.04.2021
462 Clouds 8 1015 76 10000 1.03 40 17:34 10.04.2021
463 Clouds 8 1015 76 10000 1.54 340 16:32 10.04.2021
464 Clouds 8 1015 76 10000 1.54 340 15:56 10.04.2021
465 Clouds 8 1015 76 10000 1.54 340 15:36 10.04.2021
466 Clouds 9 1015 71 10000 2.57 320 14:51 10.04.2021
467 Clouds 9 1015 71 10000 3.09 310 14:28 10.04.2021
468 Clouds 9 1015 66 10000 2.06 290 13:54 10.04.2021
469 Clouds 9 1015 66 10000 2.06 290 13:34 10.04.2021
470 Clouds 9 1015 71 10000 2.06 310 12:39 10.04.2021
471 Rain 9 1014 71 10000 1.54 180 12:18 10.04.2021
472 Clouds 9 1014 76 10000 1.03 0 11:44 10.04.2021
473 Clouds 8 1014 76 10000 0.51 0 11:20 10.04.2021
474 Clouds 7 1014 81 10000 0.51 0 10:44 10.04.2021
475 Clouds 7 1013 81 10000 1.54 300 10:26 10.04.2021
476 Clouds 6 1013 75 10000 2.06 290 09:37 10.04.2021
477 Clouds 6 1013 75 10000 2.06 320 09:18 10.04.2021
478 Rain 7 1013 70 10000 2.57 300 08:33 10.04.2021
479 Rain 6 1012 70 10000 2.57 160 07:55 10.04.2021
480 Rain 6 1011 70 10000 2.57 150 07:25 10.04.2021
481 Rain 6 1011 65 10000 3.6 150 06:27 10.04.2021
482 Clear 6 1011 56 10000 4.12 150 05:28 10.04.2021
483 Clear 5 1012 61 10000 2.57 160 03:36 10.04.2021
484 Clear 5 1013 65 10000 3.6 170 02:42 10.04.2021
485 Clear 5 1013 61 10000 2.57 180 01:27 10.04.2021
486 Clear 5 1013 61 10000 2.06 190 00:32 10.04.2021
487 Clear 5 1013 61 10000 2.06 190 00:32 10.04.2021
488 Clear 6 1013 49 10000 2.57 200 23:53 09.04.2021
489 Clear 6 1013 49 10000 1.54 170 23:30 09.04.2021
490 Clear 6 1013 49 10000 1.54 160 22:53 09.04.2021
491 Clear 6 1013 49 10000 1.54 160 22:34 09.04.2021
492 Clear 7 1013 49 10000 3.6 180 21:40 09.04.2021
493 Clear 7 1013 43 10000 3.09 200 21:22 09.04.2021
494 Clear 8 1013 49 10000 4.12 210 20:57 09.04.2021
495 Clear 8 1013 49 10000 4.12 210 20:39 09.04.2021
496 Clear 9 1013 46 10000 3.6 210 20:20 09.04.2021
497 Clear 10 1013 43 10000 3.6 230 19:43 09.04.2021
498 Clear 11 1013 37 10000 4.12 220 19:22 09.04.2021
499 Clear 11 1013 37 10000 4.12 240 18:43 09.04.2021
500 Clear 12 1013 37 10000 5.14 240 18:25 09.04.2021
501 Clear 12 1014 37 10000 5.66 230 17:49 09.04.2021
502 Clear 13 1014 33 10000 5.14 230 17:30 09.04.2021
503 Clear 13 1013 35 10000 4.63 220 16:48 09.04.2021
504 Clear 13 1014 40 10000 6.69 210 16:29 09.04.2021
505 Clear 12 1014 35 10000 7.72 210 15:47 09.04.2021
506 Clear 12 1014 35 10000 7.72 220 15:24 09.04.2021
507 Clear 12 1015 35 10000 6.17 240 14:47 09.04.2021
508 Clear 12 1015 37 10000 6.69 240 14:29 09.04.2021
509 Clouds 12 1015 35 10000 6.17 230 13:47 09.04.2021
510 Clouds 12 1015 37 10000 6.69 230 13:22 09.04.2021
511 Clouds 12 1016 40 10000 5.14 250 12:47 09.04.2021
512 Clouds 12 1016 40 10000 5.14 250 12:47 09.04.2021
513 Clear 11 1016 43 10000 6.17 230 12:24 09.04.2021
514 Clear 11 1016 43 10000 6.17 230 11:43 09.04.2021
515 Clear 9 1017 43 10000 6.17 220 11:20 09.04.2021
516 Clear 9 1017 46 10000 6.17 210 10:38 09.04.2021
517 Clear 7 1017 56 10000 5.66 180 09:59 09.04.2021
518 Clear 6 1017 56 10000 6.17 190 09:28 09.04.2021
519 Clear 5 1017 56 10000 5.66 180 08:56 09.04.2021
520 Clear 2 1018 64 10000 4.63 180 08:34 09.04.2021
521 Clear 1 1018 64 10000 5.14 180 07:34 09.04.2021
522 Clear 0 1018 64 10000 5.66 180 06:30 09.04.2021
523 Clear 0 1019 64 10000 6.17 180 05:44 09.04.2021
524 Clear 0 1020 69 10000 5.14 180 03:43 09.04.2021
525 Clear 1 1022 64 10000 4.12 210 00:39 09.04.2021
526 Clear 1 1022 69 10000 4.12 200 00:21 09.04.2021
527 Clouds 2 1022 69 10000 3.6 200 23:56 08.04.2021
528 Clear 2 1022 69 10000 4.12 190 22:58 08.04.2021
529 Clear 1 1022 69 10000 4.12 190 22:38 08.04.2021
530 Clear 1 1022 69 10000 3.6 210 22:20 08.04.2021
531 Clear 2 1022 65 10000 2.06 230 21:42 08.04.2021
532 Clear 2 1022 56 10000 2.57 250 21:23 08.04.2021
533 Clear 3 1022 56 10000 3.09 250 20:59 08.04.2021
534 Clear 3 1022 56 10000 3.09 250 20:40 08.04.2021
535 Clear 3 1022 60 10000 3.09 260 20:20 08.04.2021
536 Clouds 4 1022 56 10000 3.6 270 19:41 08.04.2021
537 Clouds 5 1022 56 10000 4.63 270 19:19 08.04.2021
538 Clouds 5 1022 56 10000 4.63 260 18:44 08.04.2021
539 Clouds 5 1022 56 10000 5.14 270 18:20 08.04.2021
540 Clouds 5 1022 60 10000 4.12 270 17:48 08.04.2021
541 Clouds 5 1022 56 10000 4.63 270 17:21 08.04.2021
542 Clouds 5 1022 60 10000 7.2 260 16:45 08.04.2021
543 Clouds 5 1022 56 10000 5.66 270 16:25 08.04.2021
544 Clouds 4 1022 65 10000 7.2 270 15:47 08.04.2021
545 Clouds 5 1022 60 10000 5.66 270 15:28 08.04.2021
546 Clouds 6 1022 60 10000 5.14 290 14:45 08.04.2021
547 Clouds 6 1021 56 10000 6.69 280 14:24 08.04.2021
548 Clouds 5 1021 65 10000 3.6 310 13:56 08.04.2021
549 Clouds 4 1021 65 10000 3.6 310 13:38 08.04.2021
550 Clouds 3 1021 65 10000 8.23 310 13:19 08.04.2021
551 Clouds 3 1021 65 10000 8.23 310 13:19 08.04.2021
552 Clouds 5 1021 60 10000 7.72 290 12:38 08.04.2021
553 Clouds 5 1020 70 10000 7.2 280 11:59 08.04.2021
554 Clouds 4 1020 70 10000 7.2 280 11:41 08.04.2021
555 Clouds 3 1020 75 10000 6.69 280 10:57 08.04.2021
556 Clouds 2 1020 75 10000 6.69 280 10:28 08.04.2021
557 Clouds 3 1019 75 10000 6.69 290 09:59 08.04.2021
558 Clouds 2 1019 75 10000 6.69 290 09:40 08.04.2021
559 Clouds 2 1018 80 10000 5.66 280 08:45 08.04.2021
560 Snow 1 1018 86 10000 5.14 280 08:27 08.04.2021
561 Snow 1 1018 93 6000 5.14 280 07:57 08.04.2021
562 Snow 1 1017 93 2000 5.66 280 07:27 08.04.2021
563 Snow 1 1015 86 10000 6.17 290 03:31 08.04.2021
564 Clouds 2 1013 87 10000 5.14 290 00:54 08.04.2021
565 Clouds 2 1013 87 10000 5.14 270 23:59 07.04.2021
566 Clouds 2 1013 87 10000 5.14 270 23:39 07.04.2021
567 Clouds 2 1012 87 10000 5.14 270 23:21 07.04.2021
568 Snow 2 1012 93 10000 5.66 260 22:47 07.04.2021
569 Snow 2 1012 93 10000 5.14 250 22:29 07.04.2021
570 Snow 2 1012 93 10000 5.66 250 21:44 07.04.2021
571 Snow 2 1012 80 10000 6.69 280 21:24 07.04.2021
572 Rain 3 1011 70 10000 4.63 230 20:43 07.04.2021
573 Clouds 3 1011 65 10000 4.63 240 20:21 07.04.2021
574 Clouds 3 1011 65 10000 4.63 240 20:21 07.04.2021
575 Clouds 3 1011 70 10000 5.66 250 19:44 07.04.2021
576 Clouds 3 1011 65 10000 6.69 250 19:26 07.04.2021
577 Clouds 4 1011 60 10000 6.69 260 18:47 07.04.2021
578 Clouds 4 1011 60 10000 7.2 260 18:20 07.04.2021
579 Clouds 4 1011 60 10000 6.69 260 17:55 07.04.2021
580 Clouds 4 1011 60 10000 6.69 260 17:36 07.04.2021
581 Clouds 5 1011 52 10000 8.23 270 16:58 07.04.2021
582 Clouds 6 1011 52 10000 8.23 270 16:38 07.04.2021
583 Clouds 5 1011 48 10000 8.23 260 16:19 07.04.2021
584 Clouds 5 1011 48 10000 7.72 290 15:39 07.04.2021
585 Clouds 5 1011 52 10000 6.69 260 14:58 07.04.2021
586 Clouds 5 1011 52 10000 6.69 260 14:32 07.04.2021
587 Clouds 4 1011 56 10000 6.69 270 13:53 07.04.2021
588 Clouds 4 1011 60 10000 6.69 270 13:27 07.04.2021
589 Clouds 4 1011 56 10000 6.17 280 12:56 07.04.2021
590 Clouds 3 1011 64 10000 5.66 280 12:25 07.04.2021
591 Clouds 3 1011 69 10000 6.17 280 11:57 07.04.2021
592 Clouds 3 1011 80 10000 5.14 270 11:28 07.04.2021
593 Clouds 2 1010 75 10000 5.66 280 10:59 07.04.2021
594 Clouds 1 1010 86 10000 5.14 290 10:30 07.04.2021
595 Snow 1 1010 86 6000 5.14 300 09:46 07.04.2021
596 Snow 0 1009 93 3500 5.66 290 09:27 07.04.2021
597 Snow 0 1009 86 6000 4.12 270 08:47 07.04.2021
598 Snow 0 1009 93 6000 3.6 280 08:22 07.04.2021
599 Snow 0 1008 93 6000 4.12 280 07:44 07.04.2021
600 Snow 0 1008 93 3000 4.63 280 07:25 07.04.2021
601 Snow -1 1007 93 3700 4.12 270 06:33 07.04.2021
602 Snow 0 1007 80 10000 4.12 270 04:24 07.04.2021
603 Clouds 0 1006 80 10000 3.09 260 00:45 07.04.2021
604 Clouds -1 1006 86 10000 3.09 240 23:47 06.04.2021
605 Clouds -1 1006 86 10000 2.57 250 23:22 06.04.2021
606 Clouds 0 1006 86 10000 3.6 260 22:48 06.04.2021
607 Snow 0 1006 86 7000 3.09 280 22:21 06.04.2021
608 Snow 0 1006 86 10000 1.54 270 21:43 06.04.2021
609 Snow 0 1005 93 10000 0.51 0 21:23 06.04.2021
610 Snow 0 1005 93 10000 2.57 220 20:55 06.04.2021
611 Snow 0 1005 93 10000 2.57 220 20:36 06.04.2021
612 Snow 0 1005 93 10000 3.6 220 20:18 06.04.2021
613 Snow 1 1005 93 10000 4.63 230 19:41 06.04.2021
614 Snow 1 1005 75 10000 5.66 230 19:23 06.04.2021
615 Clouds 1 1005 69 10000 4.12 230 18:43 06.04.2021
616 Snow 1 1005 75 10000 5.14 230 18:20 06.04.2021
617 Clouds 2 1005 75 10000 4.12 240 17:45 06.04.2021
618 Clouds 3 1005 65 10000 5.14 250 17:19 06.04.2021
619 Clouds 2 1005 69 10000 5.14 230 16:46 06.04.2021
620 Snow 2 1005 75 10000 3.09 230 16:27 06.04.2021
621 Rain 4 1006 75 10000 4.12 280 15:27 06.04.2021
622 Clouds 3 1006 86 10000 6.69 240 14:47 06.04.2021
623 Clouds 3 1006 93 10000 3.09 260 14:28 06.04.2021
624 Clouds 3 1006 65 10000 6.17 270 13:55 06.04.2021
625 Snow 4 1006 65 10000 6.17 270 13:37 06.04.2021
626 Clouds 4 1006 65 10000 4.63 280 13:18 06.04.2021
627 Clouds 3 1006 75 10000 5.14 290 12:38 06.04.2021
628 Clouds 3 1006 64 10000 5.14 300 12:19 06.04.2021
629 Clouds 3 1006 69 10000 4.12 280 11:45 06.04.2021
630 Snow 2 1006 80 10000 4.12 280 11:20 06.04.2021
631 Clouds 0 1006 80 10000 4.63 290 10:46 06.04.2021
632 Snow 1 1006 80 10000 4.63 290 10:22 06.04.2021
633 Snow 0 1006 80 10000 4.12 270 09:47 06.04.2021
634 Snow 0 1006 86 10000 3.09 240 09:26 06.04.2021
635 Snow -1 1006 93 2700 3.6 240 08:38 06.04.2021
636 Snow -1 1006 86 6000 3.6 230 07:47 06.04.2021
637 Snow -2 1006 74 10000 3.6 220 06:55 06.04.2021
638 Snow -2 1006 74 10000 3.6 220 06:55 06.04.2021
639 Clouds -2 1007 74 10000 4.12 240 05:18 06.04.2021
640 Clouds -2 1007 74 10000 3.6 240 01:57 06.04.2021
641 Clear -1 1006 74 10000 4.63 270 00:44 06.04.2021
642 Clouds -1 1006 80 10000 4.63 270 00:20 06.04.2021
643 Clear -1 1006 80 10000 5.14 270 23:42 05.04.2021
644 Clear -1 1005 69 10000 5.14 280 23:19 05.04.2021
645 Clear -1 1005 69 10000 5.14 280 22:48 05.04.2021
646 Clear -1 1005 69 10000 4.63 290 22:25 05.04.2021
647 Clouds 0 1005 74 10000 4.63 280 21:43 05.04.2021
648 Clouds 0 1004 74 10000 4.63 260 21:20 05.04.2021
649 Clouds 0 1004 80 10000 5.14 280 20:42 05.04.2021
650 Clouds 0 1004 75 10000 5.14 270 20:23 05.04.2021
651 Clouds 0 1003 69 10000 5.14 270 19:42 05.04.2021
652 Clouds 0 1003 69 10000 5.66 280 19:20 05.04.2021
653 Clouds 0 1002 80 10000 4.12 270 18:49 05.04.2021
654 Snow 0 1003 93 10000 5.14 280 18:31 05.04.2021
655 Snow 0 1002 93 2200 7.72 320 17:59 05.04.2021
656 Snow 0 1002 93 2200 7.72 320 17:41 05.04.2021
657 Snow 1 1001 93 1500 4.63 340 17:19 05.04.2021
658 Snow 2 1001 93 5000 5.14 290 16:42 05.04.2021
659 Rain 3 1001 87 10000 4.63 260 16:20 05.04.2021
660 Rain 2 1001 93 10000 4.63 250 15:50 05.04.2021
661 Clouds 2 1001 93 7000 4.12 320 15:27 05.04.2021
662 Snow 2 1000 100 5000 8.75 320 14:47 05.04.2021
663 Rain 6 999 93 10000 4.63 260 14:27 05.04.2021
664 Rain 6 999 70 10000 9.26 250 13:31 05.04.2021
665 Rain 9 999 61 10000 7.2 250 12:48 05.04.2021
666 Rain 9 1000 57 10000 8.23 270 12:26 05.04.2021
667 Rain 10 1000 53 10000 7.2 250 11:55 05.04.2021
668 Clouds 10 1000 53 10000 8.75 240 11:33 05.04.2021
669 Clouds 10 1000 53 10000 7.2 240 10:59 05.04.2021
670 Clouds 9 1000 53 10000 7.2 240 10:40 05.04.2021
671 Clouds 9 1001 49 10000 6.17 250 10:22 05.04.2021
672 Clear 9 1001 53 10000 6.17 250 09:47 05.04.2021
673 Clear 8 1002 53 10000 6.69 240 09:22 05.04.2021
674 Clear 6 1002 57 10000 5.66 240 08:42 05.04.2021
675 Clear 6 1003 61 10000 3.6 240 08:24 05.04.2021
676 Clear 5 1003 56 10000 4.63 240 07:35 05.04.2021
677 Clear 3 1006 70 10000 4.63 210 05:23 05.04.2021
678 Clear 2 1011 75 10000 3.6 210 01:35 05.04.2021
679 Clear 2 1011 75 10000 3.6 210 01:35 05.04.2021
680 Clear 2 1013 70 10000 2.57 230 00:38 05.04.2021
681 Clear 3 1014 70 10000 2.57 240 23:47 04.04.2021
682 Clear 4 1014 70 10000 3.6 230 23:23 04.04.2021
683 Clear 4 1014 65 10000 3.09 220 22:50 04.04.2021
684 Clear 4 1015 61 10000 3.09 240 22:29 04.04.2021
685 Clear 5 1016 61 10000 2.57 270 21:27 04.04.2021
686 Clear 6 1016 61 10000 2.06 290 20:56 04.04.2021
687 Clear 6 1016 61 10000 2.06 290 20:30 04.04.2021
688 Clear 6 1016 61 10000 2.06 290 20:30 04.04.2021
689 Clear 7 1016 57 10000 2.57 280 19:57 04.04.2021
690 Clear 8 1016 57 10000 2.57 280 19:36 04.04.2021
691 Clouds 9 1016 53 10000 3.6 270 19:18 04.04.2021
692 Clouds 9 1016 53 10000 3.6 270 19:18 04.04.2021
693 Clouds 9 1017 49 10000 4.12 270 18:42 04.04.2021
694 Clouds 10 1017 53 10000 4.12 250 18:21 04.04.2021
695 Clouds 10 1017 49 10000 4.12 280 17:44 04.04.2021
696 Clouds 10 1018 49 10000 4.63 300 17:23 04.04.2021
697 Clouds 10 1019 53 10000 5.14 310 16:44 04.04.2021
698 Clouds 10 1019 53 10000 5.14 270 16:19 04.04.2021
699 Clouds 10 1019 49 10000 4.63 310 15:34 04.04.2021
700 Clouds 10 1020 46 10000 4.12 300 14:46 04.04.2021
701 Clouds 9 1021 46 10000 3.6 320 14:27 04.04.2021
702 Clouds 10 1021 46 10000 5.14 350 13:52 04.04.2021
703 Clouds 9 1021 39 10000 4.12 290 13:25 04.04.2021
704 Clouds 9 1022 45 10000 2.57 0 12:44 04.04.2021
705 Clouds 9 1022 45 10000 3.09 320 12:25 04.04.2021
706 Clouds 8 1022 49 10000 3.6 290 11:42 04.04.2021
707 Clouds 8 1022 49 10000 3.09 290 11:24 04.04.2021
708 Clouds 7 1022 60 10000 2.06 270 10:46 04.04.2021
709 Clouds 5 1022 70 10000 1.54 210 09:57 04.04.2021
710 Clouds 3 1022 75 10000 2.06 210 09:26 04.04.2021
711 Clouds 3 1022 75 10000 2.06 210 09:26 04.04.2021
712 Clear 2 1022 80 10000 2.57 210 08:55 04.04.2021
713 Clear 1 1022 80 10000 2.57 210 08:37 04.04.2021
714 Clear 0 1022 86 10000 3.09 200 08:19 04.04.2021
715 Clouds -2 1022 93 10000 1.54 210 06:39 04.04.2021
716 Clouds -1 1023 93 10000 1.03 0 05:33 04.04.2021
717 Clear 0 1023 80 10000 0.51 0 01:33 04.04.2021
718 Clear 1 1023 75 10000 1.03 30 00:23 04.04.2021
719 Clear 2 1022 70 10000 1.54 40 23:52 03.04.2021
720 Clear 2 1022 70 10000 1.54 40 23:33 03.04.2021
721 Clouds 3 1022 75 10000 0.51 0 22:53 03.04.2021
722 Clouds 4 1022 70 10000 0.51 310 22:23 03.04.2021
723 Clouds 4 1022 70 10000 0.51 0 21:59 03.04.2021
724 Clouds 3 1022 70 10000 0.51 0 21:39 03.04.2021
725 Clouds 4 1022 70 10000 0.51 80 21:19 03.04.2021
726 Clouds 4 1022 70 10000 1.54 90 20:38 03.04.2021
727 Clouds 5 1022 70 10000 2.06 30 20:18 03.04.2021
728 Clouds 6 1021 65 10000 4.12 50 19:43 03.04.2021
729 Clouds 6 1021 56 10000 6.17 10 19:18 03.04.2021
730 Clouds 6 1021 52 10000 5.14 340 18:44 03.04.2021
731 Clouds 6 1021 56 10000 4.12 340 17:58 03.04.2021
732 Clouds 7 1021 52 10000 4.63 350 17:28 03.04.2021
733 Rain 7 1021 49 10000 6.17 350 16:58 03.04.2021
734 Clouds 7 1021 49 10000 6.17 350 16:32 03.04.2021
735 Clouds 8 1021 42 10000 4.63 340 15:57 03.04.2021
736 Clouds 8 1020 45 10000 5.66 340 15:39 03.04.2021
737 Clouds 8 1020 45 10000 5.66 340 15:18 03.04.2021
738 Clouds 8 1020 49 10000 6.69 340 14:37 03.04.2021
739 Clouds 8 1020 49 10000 6.69 340 14:18 03.04.2021
740 Clouds 8 1020 49 10000 6.69 340 13:42 03.04.2021
741 Clouds 7 1020 49 10000 6.17 330 13:20 03.04.2021
742 Clouds 8 1020 61 10000 6.69 310 12:41 03.04.2021
743 Clouds 8 1020 70 10000 6.69 320 12:19 03.04.2021
744 Clouds 5 1020 93 10000 4.12 330 11:32 03.04.2021
745 Rain 5 1020 87 10000 5.14 320 10:49 03.04.2021
746 Clouds 5 1020 87 10000 4.63 320 10:30 03.04.2021
747 Clouds 4 1019 87 10000 4.63 320 09:51 03.04.2021
748 Clouds 4 1019 93 10000 5.14 310 09:28 03.04.2021
749 Clouds 4 1019 93 10000 5.14 320 08:44 03.04.2021
750 Clouds 4 1018 87 10000 4.12 320 08:26 03.04.2021
751 Clouds 4 1018 87 10000 4.63 320 07:28 03.04.2021
752 Clouds 4 1017 93 10000 5.14 320 05:43 03.04.2021
753 Clouds 3 1017 93 10000 1.03 0 03:50 03.04.2021
754 Rain 3 1017 93 10000 4.12 300 02:49 03.04.2021
755 Rain 4 1017 93 10000 4.63 310 02:23 03.04.2021
756 Clouds 5 1017 70 10000 5.14 290 00:20 03.04.2021
757 Clouds 5 1017 70 10000 5.14 290 23:48 02.04.2021
758 Clear 6 1017 65 10000 4.63 300 23:24 02.04.2021
759 Clouds 6 1017 65 10000 4.63 320 22:53 02.04.2021
760 Clouds 6 1017 65 10000 4.63 320 22:34 02.04.2021
761 Clouds 6 1017 61 10000 5.66 310 21:46 02.04.2021
762 Clouds 7 1017 61 10000 5.66 310 21:24 02.04.2021
763 Clouds 7 1016 65 10000 6.17 320 20:52 02.04.2021
764 Clouds 7 1016 65 10000 6.17 320 20:33 02.04.2021
765 Clouds 8 1016 57 10000 3.6 290 19:59 02.04.2021
766 Clouds 8 1016 57 10000 3.6 290 19:39 02.04.2021
767 Clouds 8 1016 61 10000 3.09 300 19:21 02.04.2021
768 Clouds 8 1016 66 10000 2.57 270 18:39 02.04.2021
769 Clouds 8 1016 66 10000 3.6 240 18:20 02.04.2021
770 Clouds 8 1017 66 10000 4.12 280 17:40 02.04.2021
771 Clouds 8 1018 70 10000 5.14 310 16:53 02.04.2021
772 Clouds 8 1018 76 10000 4.12 300 16:22 02.04.2021
773 Clouds 8 1018 75 10000 4.63 310 15:42 02.04.2021
774 Clouds 7 1019 81 10000 4.12 290 14:57 02.04.2021
775 Clouds 7 1019 81 10000 4.12 290 14:33 02.04.2021
776 Clouds 6 1019 87 10000 3.6 300 13:44 02.04.2021
777 Drizzle 5 1020 93 10000 4.12 300 13:25 02.04.2021
778 Drizzle 5 1020 93 9000 4.63 300 12:41 02.04.2021
779 Drizzle 5 1020 93 8000 5.14 310 12:20 02.04.2021
780 Drizzle 5 1020 93 8000 3.6 310 11:57 02.04.2021
781 Clouds 5 1020 93 10000 3.09 330 11:21 02.04.2021
782 Clouds 5 1020 93 10000 3.09 310 10:51 02.04.2021
783 Clouds 5 1020 93 10000 3.09 310 10:32 02.04.2021
784 Clouds 5 1020 93 10000 2.57 340 09:53 02.04.2021
785 Clouds 5 1020 93 10000 2.06 340 09:27 02.04.2021
786 Clouds 4 1020 93 10000 2.57 350 08:59 02.04.2021
787 Drizzle 4 1019 93 9000 2.57 350 08:34 02.04.2021
788 Drizzle 5 1019 93 7000 2.57 10 07:42 02.04.2021
789 Clouds 5 1019 93 10000 3.6 360 06:58 02.04.2021
790 Clouds 5 1019 93 7000 4.12 360 05:59 02.04.2021
791 Clouds 7 1019 93 10000 4.12 320 02:51 02.04.2021
792 Clouds 7 1019 81 10000 5.66 320 00:54 02.04.2021
793 Clouds 8 1019 81 10000 5.66 320 00:24 02.04.2021
794 Clouds 8 1018 81 10000 5.14 310 23:41 01.04.2021
795 Clouds 8 1018 81 10000 5.14 320 23:21 01.04.2021
796 Clouds 10 1018 81 10000 5.66 320 22:22 01.04.2021
797 Clouds 10 1018 81 10000 5.66 320 22:22 01.04.2021
798 Clear 11 1017 76 10000 5.66 340 21:52 01.04.2021
799 Clear 11 1016 71 10000 6.17 350 21:29 01.04.2021
800 Clear 12 1016 62 10000 7.2 350 20:58 01.04.2021
801 Clear 14 1015 54 10000 7.2 340 20:29 01.04.2021
802 Clouds 14 1015 48 10000 4.12 310 19:57 01.04.2021
803 Clouds 14 1015 48 10000 4.12 310 19:39 01.04.2021
804 Clouds 16 1015 51 10000 2.57 320 18:49 01.04.2021
805 Clear 17 1014 45 10000 2.06 360 18:19 01.04.2021
806 Clear 17 1015 45 10000 3.09 340 17:58 01.04.2021
807 Clear 17 1015 45 10000 3.09 340 17:38 01.04.2021
808 Rain 18 1015 42 10000 4.63 350 17:19 01.04.2021
809 Rain 18 1015 39 10000 3.6 340 16:41 01.04.2021
810 Clear 19 1015 34 10000 3.09 360 15:49 01.04.2021
811 Clouds 19 1015 32 10000 0.51 0 15:23 01.04.2021
812 Clear 19 1016 36 10000 1.03 0 14:51 01.04.2021
813 Clear 19 1016 32 10000 1.03 0 14:29 01.04.2021
814 Rain 20 1016 39 10000 2.06 310 13:59 01.04.2021
815 Clear 19 1016 39 10000 2.06 310 13:32 01.04.2021
816 Clear 18 1016 42 10000 3.09 320 12:58 01.04.2021
817 Clear 18 1016 42 10000 3.09 320 12:58 01.04.2021
818 Clear 18 1016 42 10000 3.09 320 12:39 01.04.2021
819 Clear 17 1016 42 10000 2.57 280 12:20 01.04.2021
820 Clear 16 1016 44 10000 3.09 270 11:43 01.04.2021
821 Clear 15 1016 47 10000 4.12 270 11:19 01.04.2021
822 Clear 15 1017 47 10000 3.09 260 10:47 01.04.2021
823 Clear 14 1016 51 10000 2.57 260 10:28 01.04.2021
824 Clear 13 1016 66 10000 2.57 220 09:32 01.04.2021
825 Clear 12 1016 66 10000 2.57 220 08:58 01.04.2021
826 Clear 12 1016 66 10000 2.57 220 08:33 01.04.2021
827 Clear 10 1016 71 10000 2.06 220 07:23 01.04.2021
828 Clear 10 1016 71 10000 3.6 210 06:58 01.04.2021
829 Clear 10 1016 66 10000 3.6 200 06:24 01.04.2021
830 Clear 11 1018 66 10000 2.57 200 03:25 01.04.2021
831 Clear 12 1019 62 10000 1.54 180 00:28 01.04.2021
832 Clear 12 1019 58 10000 2.06 180 23:44 31.03.2021
833 Clear 12 1019 58 10000 2.06 180 23:44 31.03.2021
834 Clear 14 1019 44 10000 2.57 170 22:56 31.03.2021
835 Clear 14 1020 32 10000 1.03 170 22:38 31.03.2021
836 Clear 15 1020 32 10000 1.03 170 22:19 31.03.2021
837 Clear 15 1020 32 10000 0.51 160 21:44 31.03.2021
838 Clear 15 1020 32 10000 1.03 150 21:20 31.03.2021
839 Clear 16 1020 34 10000 0.51 110 20:42 31.03.2021
840 Clear 16 1020 34 10000 0.51 0 20:22 31.03.2021
841 Clear 18 1020 32 10000 0.51 320 19:46 31.03.2021
842 Clear 19 1020 32 10000 1.54 360 19:25 31.03.2021
843 Clear 21 1020 28 10000 2.57 350 18:59 31.03.2021
844 Clear 20 1020 28 10000 2.57 350 18:41 31.03.2021
845 Clear 23 1021 27 10000 2.57 20 17:53 31.03.2021
846 Clear 22 1021 27 10000 2.57 20 17:34 31.03.2021
847 Clear 23 1022 27 10000 3.09 0 16:57 31.03.2021
848 Clear 23 1022 27 10000 3.09 0 16:37 31.03.2021
849 Clear 24 1022 25 10000 2.06 260 16:19 31.03.2021
850 Clear 23 1022 28 10000 1.54 0 15:48 31.03.2021
851 Clear 23 1023 28 10000 2.57 10 15:19 31.03.2021
852 Clear 23 1023 30 10000 2.57 10 14:42 31.03.2021
853 Clear 23 1023 26 10000 2.57 310 14:20 31.03.2021
854 Clear 23 1024 26 10000 2.06 290 13:41 31.03.2021
855 Clear 22 1024 24 10000 1.54 0 12:42 31.03.2021
856 Clear 22 1025 26 10000 2.06 220 12:20 31.03.2021
857 Clear 20 1025 26 10000 1.54 200 11:51 31.03.2021
858 Clear 19 1025 31 10000 1.03 0 11:21 31.03.2021
859 Clear 17 1025 41 10000 2.57 210 10:47 31.03.2021
860 Clear 14 1025 47 10000 2.06 190 10:25 31.03.2021
861 Clear 14 1025 58 10000 1.54 170 09:42 31.03.2021
862 Clear 11 1026 76 10000 2.06 200 08:59 31.03.2021
863 Clear 10 1026 76 10000 2.06 200 08:38 31.03.2021
864 Clear 8 1026 81 10000 1.54 180 07:53 31.03.2021
865 Clear 8 1026 75 10000 1.54 160 06:49 31.03.2021
866 Clear 8 1027 71 10000 1.54 180 03:52 31.03.2021
867 Clear 10 1028 62 10000 2.57 190 01:43 31.03.2021
868 Clear 10 1028 62 10000 2.57 190 00:53 31.03.2021
869 Clear 10 1028 58 10000 3.09 200 00:21 31.03.2021
870 Clear 11 1028 54 10000 2.57 190 23:46 30.03.2021
871 Clear 11 1028 54 10000 2.06 180 23:19 30.03.2021
872 Clear 12 1029 39 10000 1.03 210 22:42 30.03.2021
873 Clear 13 1029 39 10000 0.51 200 22:24 30.03.2021
874 Clear 13 1029 39 10000 1.03 200 21:53 30.03.2021
875 Clear 14 1029 39 10000 0.51 230 21:23 30.03.2021
876 Clear 14 1029 39 10000 0.51 320 20:57 30.03.2021
877 Clear 14 1029 36 10000 1.03 320 20:29 30.03.2021
878 Clear 16 1029 32 10000 1.03 320 19:52 30.03.2021
879 Clear 17 1029 32 10000 1.54 320 19:28 30.03.2021
880 Clear 19 1029 28 10000 2.57 330 18:47 30.03.2021
881 Clear 20 1029 32 10000 2.57 340 18:24 30.03.2021
882 Clear 20 1029 26 10000 3.09 340 17:42 30.03.2021
883 Clear 21 1029 28 10000 3.09 340 17:24 30.03.2021
884 Clear 22 1029 26 10000 4.12 310 16:46 30.03.2021
885 Clear 22 1030 28 10000 4.12 300 16:25 30.03.2021
886 Clear 21 1030 26 10000 3.6 290 15:22 30.03.2021
887 Clear 21 1031 26 10000 4.12 270 14:59 30.03.2021
888 Clear 21 1031 26 10000 4.12 270 14:40 30.03.2021
889 Clear 21 1031 28 10000 4.12 250 14:19 30.03.2021
890 Clear 21 1031 30 10000 4.12 260 13:42 30.03.2021
891 Clear 20 1032 34 10000 3.09 260 12:58 30.03.2021
892 Clear 20 1032 34 10000 3.09 260 12:39 30.03.2021
893 Clear 19 1032 36 10000 3.09 280 12:20 30.03.2021
894 Clear 18 1032 36 10000 2.57 270 11:40 30.03.2021
895 Clear 17 1032 41 10000 2.57 270 11:18 30.03.2021
896 Clear 15 1032 39 10000 2.57 260 10:40 30.03.2021
897 Clear 14 1032 44 10000 4.12 260 10:18 30.03.2021
898 Clear 13 1032 47 10000 2.57 240 09:38 30.03.2021
899 Clear 11 1032 54 10000 3.09 220 09:20 30.03.2021
900 Clear 11 1031 57 10000 2.06 220 08:41 30.03.2021
901 Clear 8 1031 66 10000 3.6 220 07:53 30.03.2021
902 Clear 9 1031 57 10000 3.09 230 07:23 30.03.2021
903 Clear 8 1031 61 10000 2.06 230 06:23 30.03.2021
904 Clear 9 1030 53 10000 2.57 230 05:24 30.03.2021
905 Clear 10 1030 50 10000 3.09 250 01:37 30.03.2021
906 Clear 12 1029 47 10000 3.09 240 23:52 29.03.2021
907 Clear 12 1030 47 10000 3.09 230 23:21 29.03.2021
908 Clear 11 1029 58 10000 3.6 220 22:37 29.03.2021
909 Clear 13 1029 51 10000 2.06 240 21:55 29.03.2021
910 Clear 12 1029 51 10000 2.06 240 21:33 29.03.2021
911 Clear 13 1029 47 10000 2.57 250 20:51 29.03.2021
912 Clear 14 1028 44 10000 2.06 240 20:29 29.03.2021
913 Clear 15 1028 42 10000 2.57 260 19:53 29.03.2021
914 Clear 17 1028 39 10000 3.09 250 19:27 29.03.2021
915 Clear 17 1028 39 10000 3.09 250 19:27 29.03.2021
916 Clear 18 1028 39 10000 4.12 270 18:54 29.03.2021
917 Clear 18 1028 39 10000 4.63 260 18:30 29.03.2021
918 Clear 19 1028 39 10000 4.63 270 17:58 29.03.2021
919 Clear 18 1028 39 10000 4.63 270 17:35 29.03.2021
920 Clear 18 1028 42 10000 4.12 260 16:53 29.03.2021
921 Clear 18 1028 42 10000 4.63 250 16:30 29.03.2021
922 Clear 17 1028 44 10000 5.14 240 15:43 29.03.2021
923 Clear 16 1029 44 10000 4.12 260 15:24 29.03.2021
924 Clouds 16 1029 41 10000 5.14 240 14:48 29.03.2021
925 Clear 16 1029 41 10000 5.66 250 14:23 29.03.2021
926 Clear 16 1029 44 10000 4.63 240 13:45 29.03.2021
927 Clear 15 1029 47 10000 4.63 240 13:19 29.03.2021
928 Clear 15 1030 47 10000 4.63 260 12:49 29.03.2021
929 Clear 14 1030 47 10000 5.14 250 11:49 29.03.2021
930 Clear 14 1030 47 10000 4.63 250 11:29 29.03.2021
931 Clear 13 1029 47 10000 4.12 250 10:51 29.03.2021
932 Clear 13 1029 47 10000 4.12 250 10:31 29.03.2021
933 Clear 12 1029 50 10000 3.09 230 09:34 29.03.2021
934 Clear 11 1029 54 10000 4.12 210 08:51 29.03.2021
935 Clear 10 1028 61 10000 4.63 190 08:27 29.03.2021
936 Clear 9 1028 57 10000 2.57 220 07:28 29.03.2021
937 Clear 9 1028 57 10000 3.09 230 06:26 29.03.2021
938 Clear 10 1028 53 10000 3.6 240 03:43 29.03.2021
939 Clear 9 1028 57 10000 3.09 220 01:41 29.03.2021
940 Clear 9 1028 57 10000 3.09 240 00:21 29.03.2021
941 Clear 9 1028 61 10000 3.09 220 23:42 28.03.2021
942 Clear 8 1028 61 10000 2.57 200 23:19 28.03.2021
943 Clouds 8 1028 61 10000 4.12 200 22:39 28.03.2021
944 Clouds 8 1028 61 10000 4.12 190 22:20 28.03.2021
945 Clouds 9 1028 53 10000 3.6 210 21:41 28.03.2021
946 Clouds 9 1028 53 10000 4.12 190 21:22 28.03.2021
947 Clear 9 1027 57 10000 3.6 190 20:48 28.03.2021
948 Rain 9 1027 57 10000 4.12 200 20:29 28.03.2021
949 Clear 9 1027 57 10000 3.09 200 19:44 28.03.2021
950 Clear 10 1027 53 10000 3.09 230 19:23 28.03.2021
951 Clear 11 1027 50 10000 3.09 230 18:58 28.03.2021
952 Clear 11 1028 50 10000 3.6 240 18:27 28.03.2021
953 Clear 11 1028 50 10000 4.12 240 17:47 28.03.2021
954 Clouds 11 1028 50 10000 4.12 270 17:27 28.03.2021
955 Clouds 11 1028 53 10000 4.63 260 16:46 28.03.2021
956 Clouds 11 1028 50 10000 5.66 270 16:23 28.03.2021
957 Clouds 12 1028 50 10000 5.14 240 15:42 28.03.2021
958 Clouds 12 1028 50 10000 5.14 250 15:18 28.03.2021
959 Clouds 11 1029 46 10000 5.14 250 14:37 28.03.2021
960 Clouds 11 1029 50 10000 6.17 250 13:49 28.03.2021
961 Clouds 10 1029 53 10000 5.66 250 13:24 28.03.2021
962 Clouds 10 1029 57 10000 6.17 250 12:52 28.03.2021
963 Clouds 10 1029 57 10000 6.17 250 12:33 28.03.2021
964 Clear 10 1029 53 10000 4.63 240 11:49 28.03.2021
965 Clear 8 1029 61 10000 3.6 230 11:26 28.03.2021
966 Clear 8 1029 61 10000 3.6 210 10:45 28.03.2021
967 Clear 7 1029 65 10000 4.12 200 10:27 28.03.2021
968 Clear 6 1029 70 10000 4.12 200 09:49 28.03.2021
969 Clear 5 1029 75 10000 3.6 210 09:25 28.03.2021
970 Clear 4 1029 75 10000 3.6 210 08:47 28.03.2021
971 Clear 2 1028 80 10000 3.6 220 07:52 28.03.2021
972 Clear 2 1028 80 10000 3.6 220 07:33 28.03.2021
973 Clear 1 1028 80 10000 4.12 220 05:19 28.03.2021
974 Clouds 3 1028 81 10000 3.09 250 01:38 28.03.2021
975 Clear 2 1027 81 10000 4.12 250 00:25 28.03.2021
976 Clear 2 1027 81 10000 3.6 240 23:48 27.03.2021
977 Clear 3 1027 81 10000 4.12 250 23:29 27.03.2021
978 Clouds 3 1026 81 10000 4.63 260 22:38 27.03.2021
979 Clouds 3 1026 81 10000 5.14 250 22:18 27.03.2021
980 Clouds 3 1025 75 10000 3.6 250 21:41 27.03.2021
981 Clouds 3 1025 81 10000 2.57 230 21:20 27.03.2021
982 Clear 3 1025 81 10000 3.6 240 20:55 27.03.2021
983 Clear 3 1025 81 10000 3.6 240 20:55 27.03.2021
984 Clear 3 1025 81 10000 3.6 240 20:36 27.03.2021
985 Clouds 3 1024 81 10000 3.6 220 19:45 27.03.2021
986 Clouds 3 1024 87 10000 3.09 210 19:24 27.03.2021
987 Clouds 3 1024 81 10000 3.6 280 18:56 27.03.2021
988 Clouds 3 1024 81 10000 3.6 280 18:37 27.03.2021
989 Clouds 4 1023 87 10000 7.72 300 18:18 27.03.2021
990 Clear 6 1022 61 10000 6.69 240 17:28 27.03.2021
991 Clear 6 1022 61 10000 6.69 240 17:28 27.03.2021
992 Clear 6 1022 61 10000 5.14 250 16:54 27.03.2021
993 Clear 6 1022 61 10000 5.14 250 16:36 27.03.2021
994 Rain 7 1022 61 10000 7.2 260 16:18 27.03.2021
995 Rain 6 1022 81 10000 8.23 280 15:36 27.03.2021
996 Clouds 11 1019 46 10000 8.23 260 14:55 27.03.2021
997 Clouds 11 1019 46 10000 7.2 270 14:22 27.03.2021
998 Rain 11 1019 50 10000 6.69 290 13:36 27.03.2021
999 Rain 11 1019 43 10000 8.23 260 13:18 27.03.2021
1000 Clouds 10 1019 53 10000 8.23 280 12:35 27.03.2021
1001 Clouds 8 1018 71 10000 5.66 270 11:47 27.03.2021
1002 Clouds 8 1018 70 10000 6.17 270 11:28 27.03.2021
1003 Clouds 7 1018 76 10000 7.2 280 10:48 27.03.2021
1004 Rain 7 1016 71 10000 5.66 260 10:28 27.03.2021
1005 Clouds 9 1015 76 10000 6.17 230 09:42 27.03.2021
1006 Rain 9 1015 71 10000 10.8 250 09:18 27.03.2021
1007 Rain 10 1014 62 10000 5.14 200 08:36 27.03.2021
1008 Clear 9 1013 57 10000 5.14 180 07:42 27.03.2021
1009 Clear 8 1013 61 10000 4.63 190 06:59 27.03.2021
1010 Clear 8 1013 61 10000 4.63 190 06:39 27.03.2021
1011 Clear 8 1013 57 10000 3.6 170 04:41 27.03.2021
1012 Clear 9 1014 57 10000 4.63 160 01:36 27.03.2021
1013 Clear 8 1015 61 10000 4.63 160 00:32 27.03.2021
1014 Clear 7 1016 76 10000 4.12 160 23:59 26.03.2021
1015 Clear 8 1016 71 10000 4.12 150 23:24 26.03.2021
1016 Clear 8 1016 66 10000 3.09 160 22:39 26.03.2021
1017 Clear 8 1017 66 10000 2.57 140 21:42 26.03.2021
1018 Clear 9 1017 66 10000 2.06 130 21:23 26.03.2021
1019 Clear 9 1017 66 10000 2.06 120 20:54 26.03.2021
1020 Clear 9 1017 62 10000 2.57 110 20:31 26.03.2021
1021 Clear 10 1017 62 10000 1.03 90 19:51 26.03.2021
1022 Clear 10 1017 62 10000 1.03 90 19:32 26.03.2021
1023 Clear 12 1017 54 10000 1.54 10 18:50 26.03.2021
1024 Clear 12 1017 58 10000 2.57 360 18:30 26.03.2021
1025 Clear 14 1017 47 10000 2.06 310 17:50 26.03.2021
1026 Clear 15 1017 47 10000 2.06 280 17:28 26.03.2021
1027 Clear 16 1017 47 10000 2.06 280 16:36 26.03.2021
1028 Clear 16 1018 47 10000 4.12 280 15:59 26.03.2021
1029 Clear 16 1018 47 10000 4.12 280 15:36 26.03.2021
1030 Clear 16 1019 47 10000 5.14 250 14:45 26.03.2021
1031 Clear 15 1019 41 10000 5.66 250 13:52 26.03.2021
1032 Clear 16 1019 47 10000 3.6 250 13:26 26.03.2021
1033 Clear 15 1020 47 10000 4.63 280 12:40 26.03.2021
1034 Clouds 15 1020 51 10000 4.12 270 11:49 26.03.2021
1035 Clear 15 1020 51 10000 3.09 240 11:31 26.03.2021
1036 Clear 13 1020 58 10000 4.63 270 10:44 26.03.2021
1037 Clear 13 1020 58 10000 3.6 240 10:23 26.03.2021
1038 Clear 12 1020 62 10000 2.57 210 09:41 26.03.2021
1039 Clear 9 1020 71 10000 3.09 200 08:49 26.03.2021
1040 Clear 8 1020 81 10000 2.57 210 08:31 26.03.2021
1041 Clear 6 1020 81 10000 2.06 210 07:57 26.03.2021
1042 Clear 6 1020 75 10000 1.03 0 07:22 26.03.2021
1043 Clear 5 1020 81 10000 1.03 140 06:57 26.03.2021
1044 Clear 4 1019 87 10000 1.54 170 05:32 26.03.2021
1045 Clear 5 1019 87 10000 3.6 180 04:43 26.03.2021
1046 Clear 7 1020 71 10000 1.03 0 01:18 26.03.2021
1047 Clear 8 1020 66 10000 1.54 340 00:23 26.03.2021
1048 Clear 8 1019 66 10000 1.54 40 23:42 25.03.2021
1049 Clear 8 1020 62 10000 1.03 0 22:50 25.03.2021
1050 Clear 8 1020 62 10000 1.03 0 22:50 25.03.2021
1051 Clear 8 1019 66 10000 1.54 140 22:27 25.03.2021
1052 Clear 8 1019 66 10000 1.54 150 21:49 25.03.2021
1053 Clear 9 1019 62 10000 1.54 150 21:30 25.03.2021
1054 Clear 10 1019 62 10000 1.54 150 20:42 25.03.2021
1055 Clear 10 1019 58 10000 1.03 120 20:24 25.03.2021
1056 Clear 11 1019 58 10000 1.03 110 19:43 25.03.2021
1057 Clear 11 1019 58 10000 1.03 0 19:25 25.03.2021
1058 Clear 11 1019 54 10000 1.54 360 18:46 25.03.2021
1059 Clear 12 1018 54 10000 1.54 10 18:26 25.03.2021
1060 Clear 12 1018 54 10000 1.54 10 18:26 25.03.2021
1061 Clear 14 1018 51 10000 2.06 350 17:43 25.03.2021
1062 Clear 14 1018 44 10000 2.57 330 17:24 25.03.2021
1063 Clear 14 1018 44 10000 3.6 310 16:50 25.03.2021
1064 Clear 15 1018 44 10000 3.6 300 16:29 25.03.2021
1065 Clear 15 1019 47 10000 3.09 300 15:43 25.03.2021
1066 Clear 14 1019 44 10000 2.57 290 15:20 25.03.2021
1067 Clear 14 1019 44 10000 3.6 280 14:46 25.03.2021
1068 Clear 16 1019 47 10000 3.09 270 13:49 25.03.2021
1069 Clear 16 1019 47 10000 2.57 0 13:24 25.03.2021
1070 Clear 15 1020 47 10000 2.06 280 12:44 25.03.2021
1071 Clear 15 1020 47 10000 2.06 0 12:20 25.03.2021
1072 Clear 14 1020 50 10000 2.57 250 11:52 25.03.2021
1073 Clear 14 1020 54 10000 3.09 260 11:30 25.03.2021
1074 Clear 12 1020 58 10000 2.06 250 10:54 25.03.2021
1075 Clear 11 1020 57 10000 2.06 210 10:26 25.03.2021
1076 Clear 10 1020 66 10000 3.09 210 09:57 25.03.2021
1077 Clear 10 1020 66 10000 3.09 210 09:38 25.03.2021
1078 Clear 8 1020 75 10000 3.6 180 08:57 25.03.2021
1079 Clear 6 1020 81 10000 2.57 200 08:29 25.03.2021
1080 Clear 4 1020 87 10000 3.09 180 07:23 25.03.2021
1081 Clear 3 1019 93 10000 1.54 220 06:26 25.03.2021
1082 Clear 3 1019 87 10000 3.09 200 05:49 25.03.2021
1083 Clear 3 1020 87 10000 3.6 200 03:59 25.03.2021
1084 Clear 3 1020 93 10000 3.09 200 00:35 25.03.2021
1085 Clear 3 1020 93 10000 3.09 200 00:35 25.03.2021
1086 Clear 4 1021 87 10000 3.09 200 23:55 24.03.2021
1087 Clear 3 1021 87 10000 2.06 180 23:30 24.03.2021
1088 Clear 3 1021 87 10000 2.06 180 23:30 24.03.2021
1089 Clear 4 1021 81 10000 2.06 180 22:50 24.03.2021
1090 Clear 5 1021 75 10000 2.57 160 22:28 24.03.2021
1091 Clear 5 1021 70 10000 2.06 160 21:46 24.03.2021
1092 Clear 6 1021 66 10000 2.57 170 21:24 24.03.2021
1093 Clear 6 1021 66 10000 1.54 160 20:45 24.03.2021
1094 Clear 6 1021 66 10000 1.03 130 20:20 24.03.2021
1095 Clear 7 1021 66 10000 1.03 140 19:52 24.03.2021
1096 Clear 7 1021 66 10000 0.51 150 19:31 24.03.2021
1097 Clear 8 1021 62 10000 0.51 0 18:51 24.03.2021
1098 Clear 8 1021 62 10000 0.51 0 18:51 24.03.2021
1099 Clear 10 1021 58 10000 1.54 300 18:24 24.03.2021
1100 Clear 11 1021 62 10000 2.06 270 17:52 24.03.2021
1101 Clear 11 1021 62 10000 2.06 270 17:32 24.03.2021
1102 Clear 11 1021 62 10000 2.06 270 17:32 24.03.2021
1103 Clear 12 1022 58 10000 2.57 280 16:53 24.03.2021
1104 Clear 12 1022 58 10000 3.6 240 16:31 24.03.2021
1105 Clouds 12 1022 54 10000 3.6 260 15:55 24.03.2021
1106 Clouds 12 1022 58 10000 3.6 270 15:33 24.03.2021
1107 Clouds 12 1022 58 10000 4.63 290 14:55 24.03.2021
1108 Clouds 12 1022 58 10000 4.12 310 14:28 24.03.2021
1109 Clouds 12 1023 58 10000 4.12 250 13:57 24.03.2021
1110 Clouds 11 1023 62 10000 3.6 250 13:28 24.03.2021
1111 Clouds 11 1023 57 10000 4.12 270 12:48 24.03.2021
1112 Clouds 11 1024 61 10000 4.12 290 12:27 24.03.2021
1113 Clouds 10 1024 66 10000 4.12 300 11:54 24.03.2021
1114 Clouds 10 1024 66 10000 4.12 300 11:35 24.03.2021
1115 Clouds 9 1024 71 10000 2.57 260 10:46 24.03.2021
1116 Clouds 9 1024 70 10000 1.54 0 10:26 24.03.2021
1117 Clouds 8 1024 70 10000 3.09 260 09:54 24.03.2021
1118 Clouds 7 1024 75 10000 3.6 260 09:25 24.03.2021
1119 Clouds 6 1024 75 10000 3.6 260 08:57 24.03.2021
1120 Clouds 6 1024 81 10000 2.57 220 08:32 24.03.2021
1121 Clouds 4 1024 81 10000 2.57 220 07:44 24.03.2021
1122 Clouds 4 1024 81 10000 4.12 200 07:18 24.03.2021
1123 Clouds 4 1024 81 10000 2.06 210 06:41 24.03.2021
1124 Clouds 4 1024 87 10000 2.06 230 01:24 24.03.2021
1125 Clouds 4 1024 87 10000 2.57 250 00:33 24.03.2021
1126 Clouds 4 1024 75 10000 2.57 250 23:43 23.03.2021
1127 Clouds 4 1024 81 10000 2.06 240 23:18 23.03.2021
1128 Clouds 4 1024 87 10000 2.06 250 22:44 23.03.2021
1129 Clouds 4 1024 81 10000 1.54 260 22:24 23.03.2021
1130 Clouds 4 1024 81 10000 1.54 270 21:41 23.03.2021
1131 Clouds 5 1024 81 10000 1.54 260 21:22 23.03.2021
1132 Clouds 5 1024 81 10000 1.54 260 20:44 23.03.2021
1133 Clouds 5 1024 75 10000 1.54 260 20:25 23.03.2021
1134 Clouds 5 1024 81 10000 2.06 270 19:47 23.03.2021
1135 Clouds 5 1024 81 10000 1.54 270 19:25 23.03.2021
1136 Clouds 5 1024 81 10000 1.54 290 18:43 23.03.2021
1137 Clouds 5 1023 81 10000 2.06 290 18:22 23.03.2021
1138 Clouds 5 1023 81 10000 3.09 290 17:45 23.03.2021
1139 Clouds 5 1023 81 10000 3.6 300 17:21 23.03.2021
1140 Clouds 5 1023 75 10000 4.12 300 16:39 23.03.2021
1141 Clouds 6 1023 75 10000 3.6 280 16:19 23.03.2021
1142 Clouds 6 1023 75 10000 4.63 280 15:38 23.03.2021
1143 Clouds 6 1023 75 10000 4.63 310 14:52 23.03.2021
1144 Clouds 6 1023 70 10000 4.12 300 14:21 23.03.2021
1145 Clouds 6 1023 70 10000 4.12 300 14:21 23.03.2021
1146 Clouds 6 1024 81 10000 3.6 320 13:55 23.03.2021
1147 Clouds 6 1024 81 10000 3.6 320 13:37 23.03.2021
1148 Clouds 5 1024 81 10000 3.09 310 13:18 23.03.2021
1149 Clouds 6 1024 87 10000 4.12 320 12:41 23.03.2021
1150 Clouds 6 1024 81 10000 4.12 310 12:20 23.03.2021
1151 Clouds 5 1023 75 10000 4.12 300 11:44 23.03.2021
1152 Clouds 5 1023 81 10000 3.6 310 10:44 23.03.2021
1153 Clouds 5 1023 87 10000 4.12 310 10:25 23.03.2021
1154 Clouds 4 1023 87 10000 3.6 310 09:58 23.03.2021
1155 Clouds 4 1023 87 10000 3.6 310 09:39 23.03.2021
1156 Clouds 4 1023 87 10000 4.12 310 09:19 23.03.2021
1157 Clouds 4 1023 93 10000 4.63 310 08:40 23.03.2021
1158 Drizzle 3 1023 93 9000 4.12 300 08:22 23.03.2021
1159 Drizzle 3 1022 93 8000 3.6 300 07:40 23.03.2021
1160 Drizzle 3 1022 93 8000 4.12 310 07:19 23.03.2021
1161 Rain 4 1022 93 8000 4.12 300 06:33 23.03.2021
1162 Clouds 3 1021 81 10000 2.57 280 03:23 23.03.2021
1163 Clouds 3 1022 81 10000 2.57 280 02:18 23.03.2021
1164 Clear 3 1021 65 10000 2.57 260 23:43 22.03.2021
1165 Clear 2 1021 70 10000 2.06 250 22:56 22.03.2021
1166 Clear 2 1021 70 10000 2.06 250 22:38 22.03.2021
1167 Clear 3 1021 70 10000 1.54 260 22:20 22.03.2021
1168 Clear 3 1021 70 10000 2.06 270 21:41 22.03.2021
1169 Clear 3 1021 70 10000 2.06 290 21:22 22.03.2021
1170 Clear 4 1021 70 10000 2.57 290 20:41 22.03.2021
1171 Clear 4 1021 70 10000 2.06 270 20:22 22.03.2021
1172 Clouds 5 1020 65 10000 2.06 280 19:54 22.03.2021
1173 Clouds 5 1020 65 10000 2.06 280 19:34 22.03.2021
1174 Clear 5 1020 56 10000 2.57 280 18:58 22.03.2021
1175 Clear 5 1020 56 10000 2.57 280 18:39 22.03.2021
1176 Clear 5 1019 52 10000 2.57 320 18:20 22.03.2021
1177 Clear 6 1019 52 10000 3.09 310 17:42 22.03.2021
1178 Clear 7 1019 45 10000 4.12 320 17:20 22.03.2021
1179 Clear 8 1019 45 10000 3.6 330 16:45 22.03.2021
1180 Clear 8 1019 46 10000 5.66 320 16:20 22.03.2021
1181 Clouds 8 1019 49 10000 4.63 310 15:38 22.03.2021
1182 Clouds 8 1019 46 10000 5.66 320 15:19 22.03.2021
1183 Clouds 7 1019 52 10000 5.14 310 14:57 22.03.2021
1184 Clouds 8 1019 52 10000 5.14 310 14:34 22.03.2021
1185 Clouds 7 1019 61 10000 5.14 320 13:49 22.03.2021
1186 Clouds 7 1019 61 10000 5.14 320 13:28 22.03.2021
1187 Clouds 4 1019 70 10000 4.12 330 12:56 22.03.2021
1188 Clouds 4 1019 70 10000 4.12 330 12:26 22.03.2021
1189 Clouds 3 1019 70 10000 4.12 310 11:50 22.03.2021
1190 Clouds 3 1019 70 10000 4.12 310 11:29 22.03.2021
1191 Clouds 4 1019 81 10000 4.12 310 10:46 22.03.2021
1192 Clouds 4 1019 81 10000 4.12 320 10:26 22.03.2021
1193 Clouds 4 1018 87 10000 5.14 310 09:56 22.03.2021
1194 Clouds 3 1018 87 10000 5.14 310 09:34 22.03.2021
1195 Clouds 3 1018 87 10000 4.12 310 08:47 22.03.2021
1196 Clouds 3 1018 87 10000 4.12 310 08:47 22.03.2021
1197 Clouds 2 1018 93 10000 3.09 310 08:28 22.03.2021
1198 Clouds 2 1017 93 10000 3.6 310 07:54 22.03.2021
1199 Clouds 2 1017 93 10000 3.6 310 07:34 22.03.2021
1200 Clouds 1 1017 86 10000 3.09 290 06:51 22.03.2021
1201 Clear 0 1016 93 10000 2.57 290 03:24 22.03.2021
1202 Clear 1 1016 75 10000 2.57 310 00:53 22.03.2021
1203 Clear 1 1016 75 10000 3.09 320 00:19 22.03.2021
1204 Clear 2 1016 69 10000 3.09 320 23:47 21.03.2021
1205 Clear 2 1015 69 10000 2.57 320 23:18 21.03.2021
1206 Clear 2 1015 69 10000 3.09 320 22:53 21.03.2021
1207 Clear 2 1015 69 10000 3.09 320 22:53 21.03.2021
1208 Clear 3 1015 75 10000 3.6 320 21:43 21.03.2021
1209 Clear 4 1014 75 10000 4.12 320 21:25 21.03.2021
1210 Clear 4 1014 75 10000 4.12 320 20:57 21.03.2021
1211 Clear 3 1014 75 10000 4.12 320 20:39 21.03.2021
1212 Clear 5 1014 75 10000 3.6 310 20:21 21.03.2021
1213 Clouds 5 1013 81 10000 3.09 300 19:48 21.03.2021
1214 Clouds 5 1013 81 10000 3.6 300 19:20 21.03.2021
1215 Clouds 5 1013 81 10000 3.09 290 18:45 21.03.2021
1216 Clear 5 1012 81 10000 2.57 280 18:26 21.03.2021
1217 Clouds 5 1013 81 10000 4.12 310 17:44 21.03.2021
1218 Clouds 5 1012 81 10000 3.6 310 17:19 21.03.2021
1219 Clouds 5 1012 81 10000 3.09 300 16:51 21.03.2021
1220 Clouds 5 1012 75 10000 4.63 300 16:28 21.03.2021
1221 Clouds 5 1012 81 10000 5.14 310 15:49 21.03.2021
1222 Clouds 5 1012 81 10000 5.66 300 15:23 21.03.2021
1223 Clouds 5 1012 81 10000 6.17 310 14:59 21.03.2021
1224 Clouds 5 1012 81 10000 6.17 310 14:40 21.03.2021
1225 Clouds 5 1012 81 10000 6.69 310 14:21 21.03.2021
1226 Clouds 5 1012 81 10000 8.23 310 13:52 21.03.2021
1227 Clouds 5 1012 93 6000 6.17 280 12:46 21.03.2021
1228 Drizzle 4 1012 93 8000 5.66 270 12:26 21.03.2021
1229 Clouds 4 1012 93 10000 5.14 280 11:49 21.03.2021
1230 Drizzle 4 1012 93 3500 5.14 260 11:27 21.03.2021
1231 Drizzle 3 1012 93 2300 5.14 250 10:54 21.03.2021
1232 Drizzle 3 1012 93 2300 5.14 250 10:34 21.03.2021
1233 Drizzle 3 1013 93 3500 6.17 260 09:58 21.03.2021
1234 Drizzle 2 1013 93 3500 6.17 260 09:38 21.03.2021
1235 Clouds 2 1013 87 8000 5.14 250 09:19 21.03.2021
1236 Rain 2 1013 93 7000 5.14 250 08:39 21.03.2021
1237 Snow 2 1014 93 2900 5.66 250 08:20 21.03.2021
1238 Snow 2 1014 80 5000 5.66 250 07:36 21.03.2021
1239 Snow 2 1015 80 7000 5.66 250 06:50 21.03.2021
1240 Snow 1 1016 69 10000 4.63 250 04:59 21.03.2021
1241 Clouds 0 1019 64 10000 4.12 240 01:54 21.03.2021
1242 Clouds 0 1020 59 10000 3.6 240 00:41 21.03.2021
1243 Clouds 0 1021 59 10000 4.63 240 00:21 21.03.2021
1244 Clouds 0 1021 59 10000 4.63 240 23:47 20.03.2021
1245 Clouds 0 1021 64 10000 4.12 230 23:20 20.03.2021
1246 Clouds 0 1022 64 10000 4.12 220 22:55 20.03.2021
1247 Clouds 0 1022 64 10000 4.12 230 22:22 20.03.2021
1248 Clear 0 1022 64 10000 3.6 230 21:46 20.03.2021
1249 Clear 0 1023 64 10000 4.12 240 21:24 20.03.2021
1250 Clear 0 1023 64 10000 3.6 240 20:45 20.03.2021
1251 Clear 0 1023 64 10000 3.6 260 20:23 20.03.2021
1252 Clear 0 1024 64 10000 3.09 250 19:50 20.03.2021
1253 Clouds 0 1024 64 10000 3.6 240 19:27 20.03.2021
1254 Clouds 0 1024 64 10000 2.57 250 18:50 20.03.2021
1255 Clouds 0 1024 64 10000 3.09 260 18:27 20.03.2021
1256 Clouds 0 1024 64 10000 2.57 290 17:55 20.03.2021
1257 Clouds 0 1024 64 10000 2.57 290 17:33 20.03.2021
1258 Clouds 1 1025 64 10000 4.12 300 16:56 20.03.2021
1259 Clouds 1 1025 64 10000 4.12 300 16:37 20.03.2021
1260 Clouds 1 1025 60 10000 2.57 300 16:18 20.03.2021
1261 Clouds 1 1026 64 10000 3.6 270 15:39 20.03.2021
1262 Clouds 1 1026 59 10000 2.57 300 14:53 20.03.2021
1263 Clouds 0 1026 59 10000 3.09 310 14:29 20.03.2021
1264 Clouds 0 1026 64 10000 2.57 270 13:56 20.03.2021
1265 Clouds 0 1027 69 10000 3.6 310 13:24 20.03.2021
1266 Clouds 0 1027 59 10000 3.09 350 12:28 20.03.2021
1267 Snow 0 1027 64 10000 3.09 330 11:55 20.03.2021
1268 Snow 0 1027 64 10000 3.09 330 11:36 20.03.2021
1269 Clouds -1 1027 69 10000 3.09 360 11:18 20.03.2021
1270 Clouds 0 1027 74 10000 2.06 310 10:38 20.03.2021
1271 Clouds -1 1027 74 10000 2.06 310 10:19 20.03.2021
1272 Clouds -1 1027 74 10000 2.06 300 09:42 20.03.2021
1273 Clouds -1 1027 74 10000 1.54 310 09:21 20.03.2021
1274 Clouds -1 1027 74 10000 1.54 310 09:21 20.03.2021
1275 Clouds -2 1027 80 10000 1.03 0 08:48 20.03.2021
1276 Clear -3 1026 86 10000 1.54 310 07:58 20.03.2021
1277 Clear -4 1026 86 10000 1.54 310 07:39 20.03.2021
1278 Clear -4 1026 93 10000 1.54 290 07:20 20.03.2021
1279 Clouds -5 1026 86 10000 1.54 340 06:34 20.03.2021
1280 Clear -4 1025 86 10000 2.57 320 04:44 20.03.2021
1281 Clear -4 1025 80 10000 2.57 350 03:43 20.03.2021
1282 Clouds -2 1024 74 10000 4.12 10 00:48 20.03.2021
1283 Clouds -2 1024 69 10000 4.12 10 23:45 19.03.2021
1284 Clouds -2 1024 74 10000 3.6 10 23:18 19.03.2021
1285 Clouds -2 1024 74 10000 3.6 10 22:42 19.03.2021
1286 Clouds -2 1023 80 10000 4.12 360 22:22 19.03.2021
1287 Clouds -1 1023 80 10000 3.6 10 21:39 19.03.2021
1288 Snow -1 1023 80 10000 5.66 40 21:20 19.03.2021
1289 Snow -1 1022 86 10000 3.09 10 20:45 19.03.2021
1290 Snow -1 1022 80 10000 4.12 30 20:26 19.03.2021
1291 Snow -1 1022 80 10000 5.66 20 19:48 19.03.2021
1292 Snow 0 1022 74 10000 7.2 20 19:22 19.03.2021
1293 Clouds 0 1021 74 10000 5.66 20 18:49 19.03.2021
1294 Snow 0 1021 80 10000 3.09 20 18:27 19.03.2021
1295 Clouds 0 1020 86 10000 1.54 40 17:58 19.03.2021
1296 Clouds 0 1020 86 10000 1.54 40 17:38 19.03.2021
1297 Snow 1 1020 80 10000 3.09 30 17:18 19.03.2021
1298 Snow 1 1020 86 6000 4.12 20 16:44 19.03.2021
1299 Snow 1 1020 80 2800 7.2 20 16:24 19.03.2021
1300 Clouds 2 1019 86 10000 3.09 310 15:34 19.03.2021
1301 Snow 2 1020 86 1800 6.17 340 14:53 19.03.2021
1302 Snow 3 1020 86 1800 6.17 340 14:33 19.03.2021
1303 Clouds 3 1019 69 10000 4.63 20 13:50 19.03.2021
1304 Clouds 3 1019 70 10000 5.14 20 13:19 19.03.2021
1305 Clouds 3 1019 75 10000 5.14 20 12:42 19.03.2021
1306 Clouds 2 1019 86 10000 5.14 20 12:18 19.03.2021
1307 Clouds 2 1019 80 10000 5.14 30 11:33 19.03.2021
1308 Clouds 2 1019 86 10000 3.6 360 10:47 19.03.2021
1309 Clouds 1 1019 86 9000 4.12 360 10:23 19.03.2021
1310 Snow 1 1018 93 7000 3.09 10 09:44 19.03.2021
1311 Snow 1 1018 93 6000 2.57 360 09:26 19.03.2021
1312 Clouds 1 1018 93 6000 2.06 360 08:52 19.03.2021
1313 Snow 1 1018 100 4200 2.57 20 08:29 19.03.2021
1314 Snow 1 1018 100 4200 2.06 40 07:50 19.03.2021
1315 Snow 1 1018 100 4200 2.06 40 07:50 19.03.2021
1316 Snow 1 1017 93 2800 1.54 40 07:31 19.03.2021
1317 Snow 0 1017 100 1400 1.54 360 05:54 19.03.2021
1318 Snow 1 1016 100 300 1.03 0 02:36 19.03.2021
1319 Snow 0 1017 100 1200 1.03 320 23:57 18.03.2021
1320 Snow 0 1017 100 1200 1.54 300 23:29 18.03.2021
1321 Snow 1 1017 100 2300 1.03 0 22:57 18.03.2021
1322 Snow 1 1017 100 3200 1.03 0 22:27 18.03.2021
1323 Snow 1 1017 100 1400 1.03 0 21:55 18.03.2021
1324 Snow 1 1017 100 1400 1.03 0 21:36 18.03.2021
1325 Snow 1 1017 100 3300 1.54 340 20:43 18.03.2021
1326 Snow 1 1017 100 3100 1.54 300 20:23 18.03.2021
1327 Snow 1 1017 100 4200 1.54 270 19:45 18.03.2021
1328 Snow 1 1017 100 1000 1.54 220 19:24 18.03.2021
1329 Snow 1 1018 100 1000 2.06 320 18:53 18.03.2021
1330 Snow 1 1018 100 1000 2.06 320 18:53 18.03.2021
1331 Snow 2 1017 87 4900 2.57 310 18:26 18.03.2021
1332 Clouds 2 1018 87 10000 2.06 300 17:47 18.03.2021
1333 Clouds 2 1018 87 10000 1.54 320 17:25 18.03.2021
1334 Clouds 2 1018 93 10000 1.54 300 16:44 18.03.2021
1335 Snow 2 1018 93 5000 3.09 300 16:23 18.03.2021
1336 Clouds 3 1019 93 2000 2.06 320 15:43 18.03.2021
1337 Rain 3 1019 87 10000 4.12 20 15:23 18.03.2021
1338 Clouds 4 1019 75 10000 2.57 310 14:53 18.03.2021
1339 Clouds 4 1019 75 10000 2.57 310 14:29 18.03.2021
1340 Clouds 4 1020 75 10000 2.57 290 13:49 18.03.2021
1341 Clouds 4 1021 81 10000 2.06 290 13:26 18.03.2021
1342 Clouds 3 1021 87 10000 1.54 280 12:44 18.03.2021
1343 Clouds 3 1021 93 500 2.06 310 12:25 18.03.2021
1344 Clouds 3 1022 80 10000 3.6 310 11:52 18.03.2021
1345 Clouds 3 1022 80 10000 3.6 310 11:32 18.03.2021
1346 Clouds 3 1022 86 8000 3.09 280 10:45 18.03.2021
1347 Clouds 3 1022 86 8000 3.6 280 10:27 18.03.2021
1348 Clouds 2 1022 93 6000 2.06 270 09:54 18.03.2021
1349 Mist 1 1022 93 5000 2.06 250 09:29 18.03.2021
1350 Clouds 1 1022 93 10000 2.57 270 08:50 18.03.2021
1351 Clouds 1 1022 86 10000 1.54 290 08:31 18.03.2021
1352 Clouds 0 1022 86 6000 2.06 280 07:53 18.03.2021
1353 Mist 0 1022 100 4500 2.06 270 07:25 18.03.2021
1354 Mist 0 1022 100 5000 1.54 280 06:29 18.03.2021
1355 Mist 0 1022 93 5000 2.06 300 05:54 18.03.2021
1356 Fog 1 1022 100 500 2.57 310 02:35 18.03.2021
1357 Mist 1 1023 100 5000 1.54 270 23:59 17.03.2021
1358 Mist 1 1023 100 5000 1.03 0 22:56 17.03.2021
1359 Mist 1 1023 100 5000 1.03 0 22:36 17.03.2021
1360 Mist 1 1023 100 5000 1.03 0 22:36 17.03.2021
1361 Clouds 1 1023 100 6000 0.51 0 22:18 17.03.2021
1362 Clouds 1 1022 100 6000 1.03 0 21:42 17.03.2021
1363 Fog 1 1022 100 4000 1.03 0 21:23 17.03.2021
1364 Clouds 1 1022 100 10000 1.54 300 20:45 17.03.2021
1365 Clouds 1 1022 100 10000 1.54 360 20:25 17.03.2021
1366 Clouds 1 1022 100 10000 1.54 360 20:25 17.03.2021
1367 Clouds 1 1022 93 10000 2.06 330 19:51 17.03.2021
1368 Clouds 1 1022 93 10000 2.06 340 19:25 17.03.2021
1369 Clouds 1 1022 100 10000 3.09 350 18:57 17.03.2021
1370 Clouds 1 1022 100 10000 3.09 350 18:38 17.03.2021
1371 Clouds 2 1021 87 10000 1.03 0 17:57 17.03.2021
1372 Clouds 2 1021 93 10000 1.54 100 17:27 17.03.2021
1373 Snow 2 1021 93 2000 3.09 40 16:55 17.03.2021
1374 Snow 2 1021 93 2000 3.09 40 16:37 17.03.2021
1375 Clouds 3 1020 81 10000 5.14 320 16:18 17.03.2021
1376 Clouds 2 1020 93 10000 4.12 320 15:37 17.03.2021
1377 Clouds 2 1020 93 10000 4.63 320 14:46 17.03.2021
1378 Rain 2 1020 87 4600 4.12 340 14:27 17.03.2021
1379 Rain 2 1020 93 10000 3.6 320 13:56 17.03.2021
1380 Rain 2 1020 93 8000 3.6 340 13:37 17.03.2021
1381 Rain 3 1020 93 10000 4.63 330 12:59 17.03.2021
1382 Rain 3 1020 93 10000 4.63 330 12:34 17.03.2021
1383 Clouds 2 1020 87 10000 3.6 310 11:54 17.03.2021
1384 Clouds 2 1020 93 10000 4.63 310 11:27 17.03.2021
1385 Clouds 2 1020 87 10000 4.12 310 10:59 17.03.2021
1386 Clouds 2 1020 87 10000 4.12 310 10:40 17.03.2021
1387 Snow 2 1020 93 8000 4.12 310 09:59 17.03.2021
1388 Snow 2 1020 93 8000 4.12 310 09:41 17.03.2021
1389 Snow 2 1019 93 8000 4.63 320 09:20 17.03.2021
1390 Snow 1 1019 93 10000 3.6 320 08:43 17.03.2021
1391 Snow 1 1019 93 9000 3.6 300 08:24 17.03.2021
1392 Snow 1 1019 93 9000 3.6 290 07:37 17.03.2021
1393 Snow 2 1019 93 9000 3.09 300 06:48 17.03.2021
1394 Clouds 1 1018 93 10000 2.57 290 04:28 17.03.2021
1395 Clouds 2 1018 93 10000 2.57 300 03:31 17.03.2021
1396 Clouds 2 1018 87 10000 2.57 310 01:19 17.03.2021
1397 Clouds 2 1018 93 10000 1.54 310 00:33 17.03.2021
1398 Rain 3 1018 81 10000 4.12 360 23:25 16.03.2021
1399 Clouds 3 1018 81 10000 2.57 280 22:44 16.03.2021
1400 Clouds 3 1018 81 10000 2.06 280 22:26 16.03.2021
1401 Clouds 3 1018 81 10000 2.57 290 21:44 16.03.2021
1402 Clouds 3 1018 81 10000 1.54 260 21:25 16.03.2021
1403 Clouds 3 1018 87 10000 0.51 0 20:56 16.03.2021
1404 Clouds 3 1018 81 10000 1.03 0 20:19 16.03.2021
1405 Clouds 4 1018 75 10000 2.06 270 19:48 16.03.2021
1406 Clouds 4 1018 75 10000 2.06 280 19:29 16.03.2021
1407 Clouds 4 1017 75 10000 2.57 290 18:57 16.03.2021
1408 Clouds 4 1017 75 10000 2.57 290 18:38 16.03.2021
1409 Clouds 5 1017 70 10000 4.12 300 17:59 16.03.2021
1410 Clouds 5 1017 70 10000 4.12 300 17:40 16.03.2021
1411 Clouds 5 1017 70 10000 4.63 300 17:21 16.03.2021
1412 Clouds 5 1017 70 10000 4.12 300 16:47 16.03.2021
1413 Clouds 5 1017 70 10000 4.63 300 16:25 16.03.2021
1414 Clouds 5 1017 70 10000 5.66 300 15:46 16.03.2021
1415 Clouds 5 1017 70 10000 5.66 320 15:20 16.03.2021
1416 Clouds 5 1017 65 10000 6.69 310 14:57 16.03.2021
1417 Clouds 5 1017 65 10000 6.69 310 14:39 16.03.2021
1418 Clouds 5 1016 65 10000 6.17 320 14:19 16.03.2021
1419 Clouds 5 1016 65 10000 6.17 320 14:19 16.03.2021
1420 Clouds 5 1016 60 10000 6.69 320 13:45 16.03.2021
1421 Clouds 5 1016 60 10000 7.2 320 13:21 16.03.2021
1422 Clouds 5 1016 70 10000 7.2 310 12:48 16.03.2021
1423 Clouds 5 1016 70 10000 6.17 320 12:29 16.03.2021
1424 Clouds 4 1016 75 10000 7.2 330 11:41 16.03.2021
1425 Clouds 4 1016 75 10000 6.17 310 11:21 16.03.2021
1426 Clouds 3 1015 87 10000 4.63 320 10:27 16.03.2021
1427 Clouds 2 1015 93 9000 5.14 330 09:48 16.03.2021
1428 Clouds 2 1015 93 10000 4.12 340 09:29 16.03.2021
1429 Clouds 2 1015 93 10000 4.12 340 09:29 16.03.2021
1430 Clouds 2 1014 80 10000 6.17 310 08:59 16.03.2021
1431 Rain 2 1014 80 10000 6.17 310 08:40 16.03.2021
1432 Clouds 2 1014 80 10000 6.17 310 08:19 16.03.2021
1433 Clouds 2 1014 80 10000 5.66 310 07:36 16.03.2021
1434 Clouds 2 1013 87 10000 7.2 320 06:39 16.03.2021
1435 Clouds 2 1012 93 9000 6.17 310 05:52 16.03.2021
1436 Rain 2 1012 93 9000 6.17 310 05:34 16.03.2021
1437 Clouds 3 1010 87 10000 5.66 290 02:45 16.03.2021
1438 Rain 3 1010 87 10000 5.14 290 02:24 16.03.2021
1439 Rain 3 1009 87 10000 5.66 290 23:58 15.03.2021
1440 Rain 3 1009 87 10000 5.14 280 23:29 15.03.2021
1441 Rain 3 1009 87 10000 5.14 280 23:29 15.03.2021
1442 Clouds 3 1009 87 10000 3.6 280 22:53 15.03.2021
1443 Clouds 3 1009 87 10000 3.6 280 22:34 15.03.2021
1444 Clouds 3 1008 87 10000 3.6 280 21:55 15.03.2021
1445 Clouds 3 1008 87 10000 3.6 280 21:36 15.03.2021
1446 Clouds 3 1008 93 10000 5.14 270 21:18 15.03.2021
1447 Rain 3 1008 93 10000 3.09 310 20:40 15.03.2021
1448 Clouds 3 1008 93 10000 3.6 230 20:22 15.03.2021
1449 Rain 4 1007 87 9000 6.17 260 19:51 15.03.2021
1450 Rain 4 1007 87 9000 6.17 260 19:33 15.03.2021
1451 Clouds 5 1007 81 10000 4.63 260 18:57 15.03.2021
1452 Rain 5 1007 81 10000 4.63 260 18:32 15.03.2021
1453 Clouds 6 1007 70 10000 3.6 270 17:56 15.03.2021
1454 Rain 6 1007 70 10000 3.6 270 17:38 15.03.2021
1455 Clouds 6 1006 70 10000 3.09 250 17:19 15.03.2021
1456 Clouds 7 1006 70 10000 3.6 270 16:41 15.03.2021
1457 Clouds 6 1007 75 10000 3.6 260 15:48 15.03.2021
1458 Clouds 6 1007 81 10000 3.09 280 15:27 15.03.2021
1459 Clouds 5 1006 87 10000 4.63 270 14:46 15.03.2021
1460 Clouds 5 1006 87 10000 4.63 270 14:28 15.03.2021
1461 Rain 5 1006 87 10000 4.63 270 13:58 15.03.2021
1462 Rain 5 1006 87 10000 4.63 270 13:35 15.03.2021
1463 Rain 5 1007 87 10000 3.6 240 12:51 15.03.2021
1464 Rain 5 1007 87 10000 4.12 230 12:20 15.03.2021
1465 Rain 5 1007 87 10000 4.63 240 11:59 15.03.2021
1466 Clouds 5 1007 87 10000 4.63 240 11:40 15.03.2021
1467 Rain 5 1007 87 10000 5.14 240 11:21 15.03.2021
1468 Rain 5 1007 81 10000 4.63 230 10:41 15.03.2021
1469 Clouds 5 1007 81 10000 5.66 240 10:22 15.03.2021
1470 Rain 4 1007 81 10000 4.12 230 09:41 15.03.2021
1471 Clouds 4 1007 75 10000 4.12 230 09:21 15.03.2021
1472 Rain 4 1007 75 10000 5.14 240 08:45 15.03.2021
1473 Clouds 4 1007 75 10000 4.63 220 08:25 15.03.2021
1474 Clouds 3 1007 75 10000 4.12 230 07:40 15.03.2021
1475 Clouds 3 1007 75 10000 3.6 240 07:22 15.03.2021
1476 Clouds 3 1008 75 10000 3.09 230 05:37 15.03.2021
1477 Clouds 3 1008 81 10000 4.63 260 03:21 15.03.2021
1478 Clear 2 1009 75 10000 4.12 250 00:42 15.03.2021
1479 Clear 3 1009 75 10000 3.6 250 23:24 14.03.2021
1480 Clear 3 1009 75 10000 3.6 260 22:57 14.03.2021
1481 Clear 3 1009 75 10000 3.6 260 22:37 14.03.2021
1482 Clear 3 1009 70 10000 4.12 260 22:18 14.03.2021
1483 Clear 3 1009 70 10000 3.09 250 21:38 14.03.2021
1484 Clear 3 1009 70 10000 3.09 250 21:18 14.03.2021
1485 Clear 4 1009 70 10000 3.6 250 20:41 14.03.2021
1486 Clouds 4 1009 70 10000 3.09 260 20:23 14.03.2021
1487 Clouds 5 1009 70 10000 3.09 250 19:42 14.03.2021
1488 Clouds 5 1009 75 10000 3.09 250 19:19 14.03.2021
1489 Clouds 5 1008 70 10000 4.12 260 18:41 14.03.2021
1490 Rain 6 1008 65 10000 4.12 270 17:56 14.03.2021
1491 Clear 6 1008 65 10000 4.12 270 17:37 14.03.2021
1492 Clouds 6 1007 70 10000 4.63 280 17:19 14.03.2021
1493 Clouds 7 1007 65 10000 6.17 290 16:42 14.03.2021
1494 Clouds 7 1007 70 10000 5.14 290 16:23 14.03.2021
1495 Clouds 7 1007 70 10000 4.63 280 15:48 14.03.2021
1496 Clouds 7 1006 70 10000 6.69 290 15:24 14.03.2021
1497 Clouds 7 1006 70 10000 7.2 290 14:40 14.03.2021
1498 Clouds 7 1006 75 10000 7.72 270 14:20 14.03.2021
1499 Clouds 6 1006 81 10000 6.69 270 13:45 14.03.2021
1500 Clouds 6 1006 81 10000 7.2 270 13:26 14.03.2021
1501 Rain 6 1006 81 10000 5.66 290 12:43 14.03.2021
1502 Rain 6 1006 75 10000 7.72 270 12:23 14.03.2021
1503 Rain 5 1005 75 10000 8.23 260 11:41 14.03.2021
1504 Rain 5 1005 81 10000 10.29 270 11:23 14.03.2021
1505 Rain 6 1004 75 10000 8.75 270 10:38 14.03.2021
1506 Rain 6 1004 70 10000 7.72 270 10:20 14.03.2021
1507 Rain 6 1004 70 10000 7.72 270 09:59 14.03.2021
1508 Clouds 6 1004 70 10000 7.72 270 09:41 14.03.2021
1509 Rain 6 1003 65 10000 7.72 270 09:20 14.03.2021
1510 Clouds 6 1002 65 10000 8.23 260 08:40 14.03.2021
1511 Clouds 5 1001 70 10000 7.72 260 07:59 14.03.2021
1512 Clouds 5 1001 70 10000 7.72 260 07:33 14.03.2021
1513 Clear 4 1000 70 10000 6.69 250 05:42 14.03.2021
1514 Clear 5 998 65 10000 6.17 250 01:35 14.03.2021
1515 Clear 5 998 65 10000 7.72 240 00:49 14.03.2021
1516 Clear 6 998 61 10000 7.72 230 00:18 14.03.2021
1517 Clear 6 998 61 10000 7.72 230 23:42 13.03.2021
1518 Clear 6 998 61 10000 6.69 240 23:20 13.03.2021
1519 Clear 6 998 70 10000 7.72 220 22:49 13.03.2021
1520 Clear 6 998 70 10000 7.72 230 22:25 13.03.2021
1521 Clear 5 998 70 10000 6.69 230 21:40 13.03.2021
1522 Clear 5 998 70 10000 6.69 230 21:40 13.03.2021
1523 Clouds 6 998 65 10000 7.72 240 21:19 13.03.2021
1524 Clear 6 998 65 10000 8.23 240 20:48 13.03.2021
1525 Clear 6 998 65 10000 8.23 230 20:28 13.03.2021
1526 Clear 7 997 61 10000 7.72 230 19:45 13.03.2021
1527 Clear 7 997 61 10000 7.2 230 19:27 13.03.2021
1528 Clouds 7 997 61 10000 9.26 230 18:43 13.03.2021
1529 Clouds 7 997 65 10000 7.72 240 18:21 13.03.2021
1530 Clouds 8 997 61 10000 8.75 250 17:56 13.03.2021
1531 Clouds 8 996 57 10000 10.29 230 17:34 13.03.2021
1532 Clouds 8 996 57 10000 12.86 230 16:57 13.03.2021
1533 Rain 9 996 57 10000 12.86 230 16:39 13.03.2021
1534 Clouds 9 996 50 10000 11.83 230 15:58 13.03.2021
1535 Clouds 11 996 50 10000 12.86 230 15:22 13.03.2021
1536 Clouds 11 996 50 10000 9.77 230 14:46 13.03.2021
1537 Clouds 11 997 50 10000 9.26 230 14:25 13.03.2021
1538 Clouds 11 997 53 10000 8.75 220 13:45 13.03.2021
1539 Clouds 11 998 53 10000 10.29 210 13:21 13.03.2021
1540 Clouds 10 998 53 10000 11.83 220 12:42 13.03.2021
1541 Rain 10 999 57 10000 9.77 220 12:18 13.03.2021
1542 Rain 10 999 57 10000 10.29 210 11:42 13.03.2021
1543 Clouds 10 1000 57 10000 8.75 220 11:24 13.03.2021
1544 Clouds 9 1000 57 10000 8.23 210 10:49 13.03.2021
1545 Clouds 9 1001 57 10000 8.23 220 10:25 13.03.2021
1546 Clouds 8 1001 61 10000 7.72 200 09:42 13.03.2021
1547 Clouds 7 1002 70 10000 6.17 190 08:58 13.03.2021
1548 Rain 6 1002 70 10000 6.17 190 08:39 13.03.2021
1549 Clouds 6 1002 70 10000 6.69 190 08:19 13.03.2021
1550 Clear 5 1002 75 10000 7.2 200 07:41 13.03.2021
1551 Clouds 5 1003 70 10000 6.69 220 05:50 13.03.2021
1552 Clouds 5 1004 75 10000 4.63 230 02:54 13.03.2021
1553 Clouds 7 1003 53 10000 8.23 220 00:50 13.03.2021
1554 Clear 6 1004 53 10000 8.23 200 23:54 12.03.2021
1555 Clear 6 1004 53 10000 8.23 200 23:32 12.03.2021
1556 Clear 5 1005 56 10000 7.2 200 22:42 12.03.2021
1557 Clear 5 1005 53 10000 6.69 210 22:23 12.03.2021
1558 Clear 5 1005 56 10000 6.69 200 21:44 12.03.2021
1559 Clear 5 1005 56 10000 6.69 200 21:25 12.03.2021
1560 Clear 5 1006 56 10000 6.17 200 20:55 12.03.2021
1561 Clear 5 1006 56 10000 6.17 200 20:32 12.03.2021
1562 Clear 5 1006 52 10000 6.17 210 19:58 12.03.2021
1563 Clear 5 1006 52 10000 6.17 210 19:39 12.03.2021
1564 Clear 6 1006 49 10000 5.14 220 19:18 12.03.2021
1565 Clear 7 1006 49 10000 5.66 220 18:35 12.03.2021
1566 Clear 8 1006 49 10000 4.63 230 17:50 12.03.2021
1567 Clear 8 1007 46 10000 6.17 250 17:30 12.03.2021
1568 Clear 9 1007 46 10000 6.69 260 16:59 12.03.2021
1569 Clear 9 1007 46 10000 6.69 260 16:36 12.03.2021
1570 Clouds 9 1007 46 10000 6.69 250 15:52 12.03.2021
1571 Clouds 9 1007 49 10000 6.17 250 15:31 12.03.2021
1572 Clouds 9 1007 46 10000 7.72 260 14:48 12.03.2021
1573 Clouds 9 1008 53 10000 6.69 260 14:21 12.03.2021
1574 Clouds 9 1008 49 10000 7.72 260 13:44 12.03.2021
1575 Clouds 9 1008 53 10000 8.23 260 13:23 12.03.2021
1576 Clouds 9 1008 57 10000 7.72 260 12:57 12.03.2021
1577 Clouds 9 1008 57 10000 7.72 260 12:38 12.03.2021
1578 Clouds 8 1008 57 10000 8.23 250 12:19 12.03.2021
1579 Clouds 8 1008 65 10000 6.17 240 11:50 12.03.2021
1580 Clouds 8 1008 61 10000 6.17 250 11:22 12.03.2021
1581 Clouds 7 1008 61 10000 6.69 250 10:50 12.03.2021
1582 Clouds 7 1008 70 10000 6.17 250 10:25 12.03.2021
1583 Clouds 7 1007 70 10000 5.66 260 09:52 12.03.2021
1584 Clouds 6 1007 70 10000 6.69 270 09:20 12.03.2021
1585 Clouds 6 1006 70 10000 5.66 260 08:44 12.03.2021
1586 Clouds 6 1005 75 10000 8.23 260 07:57 12.03.2021
1587 Clouds 6 1005 75 10000 8.23 260 07:32 12.03.2021
1588 Clouds 6 1004 81 10000 8.23 280 06:49 12.03.2021
1589 Clouds 6 1003 81 10000 5.14 260 06:26 12.03.2021
1590 Clouds 7 1002 81 10000 4.63 280 02:21 12.03.2021
1591 Clear 8 999 66 10000 6.17 240 00:19 12.03.2021
1592 Rain 8 999 66 10000 5.66 240 23:25 11.03.2021
1593 Clouds 8 1000 71 10000 4.63 250 22:43 11.03.2021
1594 Clear 8 999 71 10000 4.63 260 22:24 11.03.2021
1595 Clear 8 999 66 10000 5.14 260 21:47 11.03.2021
1596 Clear 8 999 66 10000 4.63 250 21:27 11.03.2021
1597 Clear 8 999 71 10000 5.66 250 20:53 11.03.2021
1598 Clear 7 999 71 10000 5.66 250 20:35 11.03.2021
1599 Clouds 8 999 81 10000 8.75 220 19:59 11.03.2021
1600 Rain 8 999 81 10000 8.75 220 19:41 11.03.2021
1601 Clouds 8 998 76 10000 6.69 280 19:19 11.03.2021
1602 Rain 10 998 71 10000 7.72 240 18:43 11.03.2021
1603 Rain 11 997 66 10000 6.17 230 18:24 11.03.2021
1604 Clouds 11 997 62 10000 8.75 240 17:42 11.03.2021
1605 Clouds 12 998 62 10000 10.29 230 16:47 11.03.2021
1606 Clouds 11 998 66 10000 5.66 200 16:27 11.03.2021
1607 Clouds 10 999 71 10000 5.66 170 15:48 11.03.2021
1608 Clouds 9 1000 76 10000 5.14 180 15:21 11.03.2021
1609 Clouds 9 1000 76 10000 5.14 180 15:21 11.03.2021
1610 Clouds 9 1000 76 10000 5.14 180 15:21 11.03.2021
1611 Clouds 9 1000 76 10000 6.17 200 14:46 11.03.2021
1612 Clouds 9 1001 81 10000 6.69 200 14:19 11.03.2021
1613 Clouds 7 1001 87 10000 5.14 170 13:46 11.03.2021
1614 Clouds 7 1001 87 8000 4.63 160 13:28 11.03.2021
1615 Rain 6 1002 87 4200 5.14 170 12:57 11.03.2021
1616 Clouds 6 1002 87 4200 5.14 170 12:38 11.03.2021
1617 Rain 7 1002 75 10000 4.63 180 12:20 11.03.2021
1618 Clouds 6 1002 81 10000 6.17 170 11:43 11.03.2021
1619 Clouds 6 1003 81 10000 6.69 170 11:21 11.03.2021
1620 Clouds 5 1003 81 10000 6.69 170 10:42 11.03.2021
1621 Clouds 4 1003 87 10000 6.69 160 10:20 11.03.2021
1622 Clouds 4 1004 87 10000 7.72 170 09:41 11.03.2021
1623 Clouds 4 1004 87 9000 7.72 170 09:22 11.03.2021
1624 Clouds 3 1004 87 3800 7.2 160 08:47 11.03.2021
1625 Clouds 3 1005 81 6000 7.2 170 08:19 11.03.2021
1626 Rain 3 1006 75 10000 7.72 160 07:29 11.03.2021
1627 Clouds 3 1006 75 10000 8.75 170 06:50 11.03.2021
1628 Clouds 4 1007 70 10000 7.72 170 06:30 11.03.2021
1629 -273 0 0 0 0 0 03:44 11.03.2021
1630 Clear 2 1013 80 10000 5.66 170 01:18 11.03.2021
1631 Clear 2 1015 75 10000 5.66 170 23:32 10.03.2021
1632 Clear 2 1015 75 10000 5.66 170 23:32 10.03.2021
1633 Clouds 1 1016 75 10000 4.63 170 22:59 10.03.2021
1634 Clouds 2 1016 75 10000 4.63 170 22:33 10.03.2021
1635 Clouds 2 1017 75 10000 3.6 170 21:47 10.03.2021
1636 Clear 2 1017 69 10000 3.6 160 21:26 10.03.2021
1637 Clear 2 1017 70 10000 3.6 160 20:51 10.03.2021
1638 Clear 2 1017 70 10000 3.6 160 20:33 10.03.2021
1639 Clouds 2 1018 70 10000 3.6 150 19:54 10.03.2021
1640 Clouds 3 1018 70 10000 3.6 150 19:33 10.03.2021
1641 Clouds 3 1017 60 10000 2.57 170 18:56 10.03.2021
1642 Clouds 4 1017 60 10000 2.57 170 18:37 10.03.2021
1643 Clouds 5 1017 56 10000 2.57 180 18:18 10.03.2021
1644 Clouds 5 1017 56 10000 3.09 180 17:41 10.03.2021
1645 Clouds 6 1017 49 10000 3.09 190 17:19 10.03.2021
1646 Clouds 6 1018 52 10000 2.57 220 16:48 10.03.2021
1647 Clear 6 1018 52 10000 2.57 210 16:25 10.03.2021
1648 Clouds 6 1018 52 10000 2.06 230 15:51 10.03.2021
1649 Clear 6 1018 49 10000 3.09 210 15:25 10.03.2021
1650 Clear 6 1018 39 10000 2.57 160 14:57 10.03.2021
1651 Clouds 7 1018 45 10000 1.54 210 14:23 10.03.2021
1652 Clouds 7 1018 39 10000 1.03 0 13:58 10.03.2021
1653 Clouds 7 1019 42 10000 2.06 210 13:31 10.03.2021
1654 Clouds 7 1019 39 10000 3.09 170 12:53 10.03.2021
1655 Clouds 7 1019 39 10000 1.03 0 12:28 10.03.2021
1656 Clouds 6 1019 45 10000 1.54 0 11:56 10.03.2021
1657 Clouds 6 1019 48 10000 2.57 150 11:29 10.03.2021
1658 Clear 6 1019 48 10000 2.57 110 10:56 10.03.2021
1659 Clear 5 1019 48 10000 2.57 110 10:34 10.03.2021
1660 Clear 4 1019 56 10000 1.54 160 09:57 10.03.2021
1661 Clear 4 1019 56 10000 1.54 160 09:39 10.03.2021
1662 Clear 3 1019 55 10000 1.03 0 09:19 10.03.2021
1663 Clear 2 1019 60 10000 1.54 100 08:45 10.03.2021
1664 Clear 0 1018 69 10000 1.54 130 08:27 10.03.2021
1665 Clear 0 1018 69 10000 1.54 120 07:46 10.03.2021
1666 Clear -1 1018 69 10000 1.03 0 07:25 10.03.2021
1667 Clear -1 1018 64 10000 1.54 150 06:52 10.03.2021
1668 Clear 0 1018 64 10000 2.06 120 02:45 10.03.2021
1669 Clouds 0 1018 59 10000 2.06 90 00:42 10.03.2021
1670 Clouds 0 1018 55 10000 2.06 0 23:47 09.03.2021
1671 Clouds 0 1018 51 10000 3.09 170 22:58 09.03.2021
1672 Clouds 0 1018 51 10000 3.09 170 22:38 09.03.2021
1673 Clouds 1 1018 48 10000 4.12 160 22:18 09.03.2021
1674 Clear 1 1018 48 10000 3.09 150 21:42 09.03.2021
1675 Clear 1 1018 51 10000 3.09 160 21:22 09.03.2021
1676 Clear 1 1018 51 10000 2.06 130 20:56 09.03.2021
1677 Clear 1 1018 51 10000 2.06 130 20:37 09.03.2021
1678 Clear 1 1018 51 10000 2.06 150 20:19 09.03.2021
1679 Clear 1 1018 47 10000 1.54 130 19:45 09.03.2021
1680 Clear 1 1017 41 10000 2.06 140 19:25 09.03.2021
1681 Clear 2 1017 35 10000 2.06 130 18:42 09.03.2021
1682 Clear 3 1017 35 10000 2.57 140 18:23 09.03.2021
1683 Clear 4 1017 35 10000 2.06 120 17:49 09.03.2021
1684 Clear 5 1017 30 10000 2.06 150 17:28 09.03.2021
1685 Clear 5 1017 30 10000 2.57 140 16:41 09.03.2021
1686 Clear 6 1017 26 10000 2.57 160 16:23 09.03.2021
1687 Clear 6 1017 28 10000 1.54 0 15:59 09.03.2021
1688 Clear 6 1017 26 10000 3.6 130 15:30 09.03.2021
1689 Clear 6 1018 26 10000 2.57 170 14:55 09.03.2021
1690 Clear 6 1018 28 10000 3.6 0 14:28 09.03.2021
1691 Clear 5 1018 30 10000 3.6 180 13:43 09.03.2021
1692 Clear 5 1018 35 10000 4.12 180 13:22 09.03.2021
1693 Clear 5 1019 38 10000 4.63 190 12:56 09.03.2021
1694 Clear 5 1019 38 10000 4.63 190 12:38 09.03.2021
1695 Clear 4 1019 44 10000 4.63 170 11:59 09.03.2021
1696 Clear 4 1019 44 10000 4.63 170 11:39 09.03.2021
1697 Clear 4 1019 48 10000 3.6 170 11:20 09.03.2021
1698 Clear 2 1019 55 10000 3.09 160 10:41 09.03.2021
1699 Clear 2 1019 55 10000 3.09 140 10:23 09.03.2021
1700 Clear 1 1019 55 10000 2.06 150 09:58 09.03.2021
1701 Clear 1 1019 55 10000 2.06 150 09:39 09.03.2021
1702 Clear 0 1020 59 10000 2.06 140 09:21 09.03.2021
1703 Clear 0 1020 64 10000 1.54 140 08:35 09.03.2021
1704 Clear 0 1020 64 10000 1.54 140 08:35 09.03.2021
1705 Clear -2 1019 80 10000 3.6 150 07:50 09.03.2021
1706 Clear -3 1019 80 10000 1.03 0 07:31 09.03.2021
1707 Clear -3 1019 80 10000 0.51 0 06:59 09.03.2021
1708 Clear -3 1020 80 10000 2.57 160 05:54 09.03.2021
1709 Clear -3 1020 80 10000 2.57 160 05:34 09.03.2021
1710 Clear -3 1021 74 10000 2.06 170 00:18 09.03.2021
1711 Clear -3 1021 64 10000 2.57 170 23:42 08.03.2021
1712 Clear -3 1021 64 10000 2.57 170 23:23 08.03.2021
1713 Clear -2 1021 59 10000 2.06 150 22:44 08.03.2021
1714 Clear -2 1022 47 10000 1.54 120 22:26 08.03.2021
1715 Clear -1 1021 44 10000 1.03 120 21:55 08.03.2021
1716 Clear -1 1021 44 10000 1.03 120 21:35 08.03.2021
1717 Clear 0 1022 38 10000 0.51 0 20:47 08.03.2021
1718 Clear 0 1022 41 10000 0.51 330 20:26 08.03.2021
1719 Clear 0 1022 44 10000 0.51 0 19:59 08.03.2021
1720 Clear 0 1021 41 10000 0.8 66 19:28 08.03.2021
1721 Clear 1 1021 41 10000 1.03 40 18:42 08.03.2021
1722 Clear 1 1021 41 10000 1.03 40 18:42 08.03.2021
1723 Clear 2 1021 41 10000 2.06 10 18:21 08.03.2021
1724 Clear 3 1021 38 10000 2.06 20 17:51 08.03.2021
1725 Clear 4 1021 41 10000 3.09 360 17:26 08.03.2021
1726 Clear 3 1021 45 10000 3.09 10 16:49 08.03.2021
1727 Clear 5 1021 36 10000 2.06 360 16:29 08.03.2021
1728 Clouds 6 1021 38 10000 4.12 360 15:52 08.03.2021
1729 Clouds 5 1021 38 10000 3.6 360 15:29 08.03.2021
1730 Clouds 6 1021 48 10000 3.09 10 14:49 08.03.2021
1731 Clouds 5 1021 45 10000 2.06 0 14:20 08.03.2021
1732 Clouds 5 1021 48 10000 2.57 50 13:44 08.03.2021
1733 Clouds 4 1021 56 10000 2.57 360 13:21 08.03.2021
1734 Clouds 4 1021 48 10000 2.06 40 12:49 08.03.2021
1735 Clouds 2 1021 60 10000 3.6 20 12:28 08.03.2021
1736 Clouds 2 1021 60 10000 2.57 20 11:44 08.03.2021
1737 Clouds 1 1021 60 10000 2.06 20 11:20 08.03.2021
1738 Clouds 0 1021 75 10000 2.06 10 10:45 08.03.2021
1739 Clouds 2 1021 80 10000 2.57 10 10:27 08.03.2021
1740 Clouds 1 1020 86 10000 2.57 10 09:45 08.03.2021
1741 Clouds 1 1020 93 7000 2.57 20 09:23 08.03.2021
1742 Mist 1 1020 100 2500 2.06 340 08:30 08.03.2021
1743 Fog 1 1019 100 700 2.06 350 07:48 08.03.2021
1744 Snow 1 1019 100 600 2.06 320 07:20 08.03.2021
1745 Snow 0 1018 93 4000 2.57 290 05:19 08.03.2021
1746 Snow 1 1018 75 10000 4.12 280 01:28 08.03.2021
1747 Snow 1 1018 75 10000 4.12 280 01:28 08.03.2021
1748 Snow 1 1018 75 10000 3.6 280 00:38 08.03.2021
1749 Snow 1 1019 75 10000 3.09 270 23:53 07.03.2021
1750 Clouds 1 1019 69 10000 2.57 260 23:20 07.03.2021
1751 Clouds 1 1019 75 10000 2.57 270 22:45 07.03.2021
1752 Clouds 1 1019 69 10000 2.57 280 22:26 07.03.2021
1753 Clouds 1 1019 69 10000 2.57 260 21:49 07.03.2021
1754 Clouds 1 1019 69 10000 2.57 250 21:31 07.03.2021
1755 Clouds 0 1019 69 10000 1.03 0 20:58 07.03.2021
1756 Clouds 1 1019 69 10000 1.03 0 20:40 07.03.2021
1757 Clouds 1 1019 69 10000 2.06 270 20:18 07.03.2021
1758 Clouds 2 1019 64 10000 2.57 320 19:40 07.03.2021
1759 Clouds 2 1019 69 10000 3.09 320 19:22 07.03.2021
1760 Clouds 2 1019 64 10000 4.12 330 18:54 07.03.2021
1761 Clouds 2 1019 64 10000 3.09 340 18:21 07.03.2021
1762 Clouds 3 1019 64 10000 3.6 320 17:59 07.03.2021
1763 Clouds 3 1019 64 10000 3.6 320 17:38 07.03.2021
1764 Clouds 4 1019 65 10000 4.63 330 17:18 07.03.2021
1765 Clouds 5 1019 60 10000 4.63 330 16:42 07.03.2021
1766 Clouds 5 1019 56 10000 4.63 290 16:21 07.03.2021
1767 Clouds 5 1019 56 10000 4.63 290 16:21 07.03.2021
1768 Clouds 5 1019 56 10000 4.63 280 15:50 07.03.2021
1769 Clouds 6 1020 60 10000 4.63 290 15:31 07.03.2021
1770 Clouds 4 1021 65 10000 4.63 290 14:51 07.03.2021
1771 Clouds 4 1021 65 10000 4.63 290 14:29 07.03.2021
1772 Clouds 4 1022 65 10000 6.17 300 13:51 07.03.2021
1773 Clouds 4 1022 65 10000 5.66 280 13:29 07.03.2021
1774 Clouds 4 1022 70 10000 5.14 280 12:56 07.03.2021
1775 Clouds 4 1022 70 10000 5.14 280 12:37 07.03.2021
1776 Clouds 3 1023 69 10000 4.63 270 12:18 07.03.2021
1777 Clouds 3 1023 69 10000 4.12 270 11:24 07.03.2021
1778 Clouds 3 1023 69 10000 4.12 270 10:55 07.03.2021
1779 Clouds 3 1023 69 10000 4.12 270 10:37 07.03.2021
1780 Clouds 3 1023 64 10000 3.09 270 09:54 07.03.2021
1781 Clouds 2 1024 69 10000 3.09 280 09:29 07.03.2021
1782 Clouds 2 1023 64 10000 3.09 250 08:59 07.03.2021
1783 Clouds 2 1023 64 10000 3.09 250 08:40 07.03.2021
1784 Clouds 1 1023 69 10000 2.06 240 08:21 07.03.2021
1785 Clouds 0 1024 69 10000 2.06 250 06:51 07.03.2021
1786 Clouds 1 1026 80 10000 2.06 240 02:40 07.03.2021
1787 Clouds 2 1028 75 10000 1.54 270 00:34 07.03.2021
1788 Clouds 2 1028 75 10000 1.54 260 23:40 06.03.2021
1789 Clouds 2 1028 75 10000 1.54 260 23:20 06.03.2021
1790 Clouds 2 1028 75 10000 1.54 220 22:46 06.03.2021
1791 Clouds 2 1028 75 10000 2.06 240 22:24 06.03.2021
1792 Clouds 2 1028 75 10000 1.54 240 21:52 06.03.2021
1793 Clouds 2 1029 75 10000 1.03 0 21:21 06.03.2021
1794 Clouds 2 1029 75 10000 1.54 290 20:45 06.03.2021
1795 Clouds 2 1029 69 10000 1.54 320 20:26 06.03.2021
1796 Clouds 2 1029 69 10000 2.06 300 19:41 06.03.2021
1797 Clouds 2 1029 60 10000 2.06 290 19:19 06.03.2021
1798 Clouds 3 1029 60 10000 2.06 300 18:45 06.03.2021
1799 Clouds 3 1029 56 10000 3.09 290 18:23 06.03.2021
1800 Clouds 3 1029 52 10000 3.6 290 17:56 06.03.2021
1801 Clouds 3 1029 52 10000 3.6 290 17:56 06.03.2021
1802 Clouds 4 1029 52 10000 3.6 290 17:38 06.03.2021
1803 Clouds 4 1029 48 10000 5.14 300 17:18 06.03.2021
1804 Clouds 5 1029 48 10000 4.12 300 16:41 06.03.2021
1805 Clouds 5 1029 48 10000 4.12 300 16:41 06.03.2021
1806 Clouds 5 1030 48 10000 5.14 310 16:21 06.03.2021
1807 Clouds 5 1030 48 10000 4.63 290 15:47 06.03.2021
1808 Clouds 6 1030 45 10000 5.66 280 15:29 06.03.2021
1809 Clouds 6 1030 48 10000 6.17 290 14:51 06.03.2021
1810 Clouds 5 1030 48 10000 5.66 290 14:28 06.03.2021
1811 Clouds 5 1031 48 10000 5.66 290 13:40 06.03.2021
1812 Clouds 5 1031 48 10000 5.14 280 13:20 06.03.2021
1813 Clouds 5 1032 48 10000 5.66 300 12:44 06.03.2021
1814 Clouds 5 1032 52 10000 5.14 270 12:20 06.03.2021
1815 Clouds 4 1032 56 10000 5.14 300 11:54 06.03.2021
1816 Clouds 4 1032 56 10000 4.63 270 11:21 06.03.2021
1817 Clouds 4 1032 56 10000 4.63 270 10:48 06.03.2021
1818 Clouds 4 1032 60 10000 3.6 270 10:24 06.03.2021
1819 Clear 2 1032 64 10000 3.09 270 09:47 06.03.2021
1820 Clear 1 1032 69 10000 3.6 260 09:20 06.03.2021
1821 Clear -2 1032 74 10000 2.06 240 08:46 06.03.2021
1822 Clear -3 1031 80 10000 3.09 210 07:59 06.03.2021
1823 Clear -4 1031 80 10000 3.09 210 07:41 06.03.2021
1824 Clear -4 1031 80 10000 4.12 210 07:20 06.03.2021
1825 Clear -5 1031 86 10000 2.57 230 05:38 06.03.2021
1826 Clear -4 1031 69 10000 2.06 260 02:39 06.03.2021
1827 Clear -2 1031 64 10000 2.06 240 01:20 06.03.2021
1828 Clear -2 1031 64 10000 1.54 260 00:36 06.03.2021
1829 Clear -2 1030 64 10000 1.54 270 23:31 05.03.2021
1830 Clear -2 1030 64 10000 2.06 270 22:58 05.03.2021
1831 Clear -2 1030 64 10000 2.06 270 22:39 05.03.2021
1832 Clear -2 1030 64 10000 1.54 280 22:20 05.03.2021
1833 Clear -1 1029 64 10000 1.54 270 21:41 05.03.2021
1834 Clear -1 1029 59 10000 2.06 280 21:22 05.03.2021
1835 Clear -1 1029 59 10000 2.06 300 20:42 05.03.2021
1836 Clear -1 1028 60 10000 2.06 300 20:23 05.03.2021
1837 Clear 0 1028 60 10000 1.54 300 19:44 05.03.2021
1838 Clear 0 1028 60 10000 2.06 310 19:22 05.03.2021
1839 Clear 1 1027 60 10000 2.06 310 18:44 05.03.2021
1840 Clear 1 1027 55 10000 1.54 290 18:25 05.03.2021
1841 Clear 2 1026 55 10000 1.54 290 17:49 05.03.2021
1842 Clear 2 1026 60 10000 2.06 330 17:31 05.03.2021
1843 Clear 4 1026 48 10000 3.6 360 16:42 05.03.2021
1844 Clouds 4 1025 48 10000 5.14 360 16:23 05.03.2021
1845 Clouds 4 1025 48 10000 3.09 340 15:54 05.03.2021
1846 Clouds 4 1025 48 10000 5.14 360 15:27 05.03.2021
1847 Clouds 3 1025 48 10000 3.09 350 14:43 05.03.2021
1848 Clouds 4 1024 48 10000 4.63 10 14:24 05.03.2021
1849 Clouds 3 1024 52 10000 4.63 30 13:43 05.03.2021
1850 Clouds 3 1024 51 10000 4.63 360 13:21 05.03.2021
1851 Clouds 3 1024 51 10000 5.66 20 12:43 05.03.2021
1852 Clouds 2 1023 55 10000 5.66 60 11:39 05.03.2021
1853 Clouds 2 1023 64 10000 5.14 20 11:19 05.03.2021
1854 Clouds 3 1023 64 10000 6.17 40 10:57 05.03.2021
1855 Clouds 3 1023 64 10000 6.17 40 10:37 05.03.2021
1856 Clouds 2 1022 69 10000 5.14 360 10:18 05.03.2021
1857 Clouds 1 1022 80 10000 5.14 20 09:38 05.03.2021
1858 Clouds 1 1022 86 10000 6.17 30 09:20 05.03.2021
1859 Clouds 1 1021 86 10000 6.17 360 08:39 05.03.2021
1860 Snow 0 1021 86 10000 4.63 10 08:20 05.03.2021
1861 Snow 1 1020 86 10000 5.14 10 07:34 05.03.2021
1862 Snow 1 1019 86 10000 4.12 360 06:35 05.03.2021
1863 Snow 1 1018 93 4000 3.6 350 05:42 05.03.2021
1864 Snow 1 1017 93 4200 2.06 330 01:35 05.03.2021
1865 Clouds 1 1016 93 9000 2.06 330 23:55 04.03.2021
1866 Snow 1 1016 93 7000 2.06 330 23:24 04.03.2021
1867 Snow 2 1016 93 6000 2.06 350 22:31 04.03.2021
1868 Mist 2 1016 93 4500 2.57 360 21:54 04.03.2021
1869 Mist 2 1016 93 4500 2.57 360 21:33 04.03.2021
1870 Rain 2 1015 93 7000 2.06 320 20:58 04.03.2021
1871 Rain 3 1015 93 7000 2.06 320 20:39 04.03.2021
1872 Rain 3 1015 93 6000 2.57 340 20:21 04.03.2021
1873 Rain 3 1016 87 6000 2.57 350 19:50 04.03.2021
1874 Rain 4 1016 93 4700 3.6 360 19:23 04.03.2021
1875 Mist 4 1015 93 3500 3.09 360 18:52 04.03.2021
1876 Mist 4 1015 93 3500 3.09 360 18:52 04.03.2021
1877 Rain 4 1015 87 3500 2.57 300 18:30 04.03.2021
1878 Rain 4 1015 87 3500 2.57 300 18:30 04.03.2021
1879 Mist 4 1015 93 3500 3.6 300 17:48 04.03.2021
1880 Mist 4 1015 93 3000 4.12 310 17:30 04.03.2021
1881 Mist 5 1015 93 2500 3.09 320 16:50 04.03.2021
1882 Mist 5 1015 93 2500 3.09 320 16:32 04.03.2021
1883 Mist 6 1015 93 1700 3.09 340 15:57 04.03.2021
1884 Rain 6 1015 93 1700 3.09 340 15:38 04.03.2021
1885 Rain 6 1015 93 1500 4.12 340 15:20 04.03.2021
1886 Rain 7 1015 93 2000 4.63 340 14:39 04.03.2021
1887 Mist 8 1016 87 3500 2.06 270 13:57 04.03.2021
1888 Mist 8 1016 87 3500 2.06 270 13:36 04.03.2021
1889 Clouds 8 1016 87 5000 2.57 310 13:18 04.03.2021
1890 Rain 9 1016 87 4800 3.09 280 12:40 04.03.2021
1891 Clouds 9 1016 71 10000 5.14 290 11:49 04.03.2021
1892 Clear 10 1017 71 10000 4.63 280 11:28 04.03.2021
1893 Clear 10 1017 71 10000 4.12 290 10:58 04.03.2021
1894 Clear 9 1017 71 10000 4.12 290 10:36 04.03.2021
1895 Clear 8 1017 71 10000 2.57 240 09:51 04.03.2021
1896 Clear 7 1018 81 10000 2.57 220 09:27 04.03.2021
1897 Clear 5 1018 87 10000 3.09 220 08:49 04.03.2021
1898 Clear 6 1018 81 10000 2.57 230 08:24 04.03.2021
1899 Clear 5 1018 81 10000 2.57 230 07:36 04.03.2021
1900 Clear 4 1019 87 10000 3.09 220 06:31 04.03.2021
1901 Clear 4 1019 81 10000 3.09 210 05:57 04.03.2021
1902 Clear 4 1021 80 10000 3.6 220 02:29 04.03.2021
1903 Clear 5 1022 80 10000 3.6 210 23:42 03.03.2021
1904 Clear 5 1022 80 10000 4.63 210 22:38 03.03.2021
1905 Clear 5 1023 80 10000 4.63 210 22:20 03.03.2021
1906 Clear 5 1023 80 10000 3.6 200 21:41 03.03.2021
1907 Clear 5 1023 87 10000 2.06 180 21:23 03.03.2021
1908 Clear 5 1023 87 10000 3.6 180 20:53 03.03.2021
1909 Clear 5 1023 81 10000 2.06 200 20:35 03.03.2021
1910 Clear 5 1024 81 10000 2.57 200 19:48 03.03.2021
1911 Clear 6 1024 75 10000 2.57 200 19:30 03.03.2021
1912 Clear 7 1024 70 10000 3.09 180 18:56 03.03.2021
1913 Clear 7 1024 70 10000 3.09 180 18:38 03.03.2021
1914 Clear 8 1024 70 10000 3.6 190 17:58 03.03.2021
1915 Clear 8 1025 65 10000 3.6 180 17:22 03.03.2021
1916 Clear 9 1025 61 10000 3.6 200 16:55 03.03.2021
1917 Clear 10 1025 57 10000 2.57 190 16:27 03.03.2021
1918 Clear 11 1026 57 10000 3.09 200 15:57 03.03.2021
1919 Clear 11 1026 57 10000 3.09 200 15:33 03.03.2021
1920 Clear 11 1026 57 10000 3.6 200 14:50 03.03.2021
1921 Clear 11 1026 54 10000 3.09 210 14:27 03.03.2021
1922 Clear 12 1027 50 10000 2.57 250 13:47 03.03.2021
1923 Clear 11 1027 50 10000 2.57 200 13:28 03.03.2021
1924 Clear 12 1028 50 10000 3.6 200 12:43 03.03.2021
1925 Clear 11 1028 50 10000 3.09 220 12:23 03.03.2021
1926 Clear 11 1028 53 10000 3.6 210 11:45 03.03.2021
1927 Clear 10 1028 57 10000 3.6 210 11:27 03.03.2021
1928 Clear 9 1028 65 10000 3.09 190 10:46 03.03.2021
1929 Clear 8 1028 70 10000 4.12 190 10:22 03.03.2021
1930 Clear 7 1029 75 10000 3.09 190 09:44 03.03.2021
1931 Clear 4 1029 93 10000 3.09 180 08:57 03.03.2021
1932 Clear 3 1029 86 10000 2.57 170 08:39 03.03.2021
1933 Clear 3 1029 86 10000 2.57 170 08:18 03.03.2021
1934 Clear 1 1029 93 10000 4.12 190 07:39 03.03.2021
1935 Clear 1 1029 93 10000 3.09 180 06:46 03.03.2021
1936 Clear 1 1029 93 10000 2.57 160 05:45 03.03.2021
1937 Clear 1 1029 93 10000 2.57 180 04:50 03.03.2021
1938 Clear 2 1029 86 10000 2.57 170 04:24 03.03.2021
1939 Clear 3 1031 86 10000 3.6 200 00:44 03.03.2021
1940 Clear 3 1031 86 10000 2.06 200 23:53 02.03.2021
1941 Clear 4 1031 87 10000 2.06 160 23:21 02.03.2021
1942 Clear 4 1031 87 10000 2.57 210 22:41 02.03.2021
1943 Clear 4 1031 81 10000 2.06 170 22:18 02.03.2021
1944 Clear 3 1031 81 10000 3.09 150 21:39 02.03.2021
1945 Clear 5 1032 75 10000 3.09 160 21:19 02.03.2021
1946 Clear 5 1032 65 10000 3.09 160 20:45 02.03.2021
1947 Clear 6 1032 61 10000 1.54 130 20:22 02.03.2021
1948 Clear 6 1032 61 10000 1.54 130 19:51 02.03.2021
1949 Clear 6 1032 61 10000 1.54 130 19:32 02.03.2021
1950 Clear 8 1032 53 10000 2.57 130 18:58 02.03.2021
1951 Clear 8 1032 53 10000 2.57 130 18:39 02.03.2021
1952 Clear 9 1032 50 10000 2.57 130 18:20 02.03.2021
1953 Clear 10 1032 46 10000 3.6 130 17:49 02.03.2021
1954 Clear 11 1032 41 10000 3.09 130 17:29 02.03.2021
1955 Clear 13 1032 44 10000 3.6 130 16:49 02.03.2021
1956 Clear 13 1032 58 10000 2.57 70 16:20 02.03.2021
1957 Clear 13 1032 58 10000 2.57 70 16:20 02.03.2021
1958 Clear 14 1032 62 10000 2.57 10 15:48 02.03.2021
1959 Clear 14 1032 62 10000 3.09 360 15:22 02.03.2021
1960 Clear 13 1033 66 10000 2.06 0 14:22 02.03.2021
1961 Clear 13 1033 62 10000 1.03 0 13:49 02.03.2021
1962 Clear 12 1033 71 10000 1.03 0 13:30 02.03.2021
1963 Clear 11 1034 81 10000 1.03 0 12:51 02.03.2021
1964 Clear 10 1034 81 10000 1.03 0 12:29 02.03.2021
1965 Clear 9 1034 81 10000 1.03 0 11:53 02.03.2021
1966 Clear 9 1034 81 10000 1.03 0 11:32 02.03.2021
1967 Fog 7 1034 100 500 2.06 220 10:57 02.03.2021
1968 Fog 6 1034 100 500 2.06 220 10:32 02.03.2021
1969 Fog 5 1034 100 50 1.54 220 09:57 02.03.2021
1970 Fog 5 1034 100 50 1.54 220 09:39 02.03.2021
1971 Fog 0 1034 100 50 1.03 0 09:18 02.03.2021
1972 Fog 0 1034 100 50 1.54 180 08:36 02.03.2021
1973 Fog 2 1034 100 50 1.54 190 07:52 02.03.2021
1974 Fog 2 1033 100 150 2.57 200 06:59 02.03.2021
1975 Fog 1 1034 100 100 1.54 190 06:32 02.03.2021
1976 Fog 0 1033 100 100 1.54 200 05:44 02.03.2021
1977 Fog 0 1033 100 150 1.54 190 05:24 02.03.2021
1978 Mist 1 1034 100 5000 1.03 160 01:44 02.03.2021
1979 Fog 1 1034 100 4300 1.03 80 01:23 02.03.2021
1980 Fog 2 1034 100 10000 0.51 0 23:55 01.03.2021
1981 Clear 2 1034 100 10000 1.03 0 23:22 01.03.2021
1982 Clear 2 1034 100 10000 1.54 160 22:40 01.03.2021
1983 Clear 2 1034 93 10000 1.54 130 22:21 01.03.2021
1984 Clear 2 1034 100 10000 0.51 70 21:45 01.03.2021
1985 Clear 3 1034 93 10000 1.03 40 21:23 01.03.2021
1986 Clear 3 1034 93 10000 1.03 360 20:47 01.03.2021
1987 Clear 3 1034 93 10000 0.51 0 20:27 01.03.2021
1988 Clear 3 1034 87 10000 0.51 0 19:53 01.03.2021
1989 Clear 3 1034 87 10000 0.51 0 19:33 01.03.2021
1990 Clear 4 1034 87 10000 1.03 330 18:45 01.03.2021
1991 Clear 5 1034 87 10000 1.03 340 18:24 01.03.2021
1992 Clear 6 1034 81 10000 1.54 360 17:52 01.03.2021
1993 Clear 7 1034 81 10000 1.54 330 17:28 01.03.2021
1994 Clear 7 1034 75 10000 2.06 320 16:59 01.03.2021
1995 Clear 7 1034 75 10000 2.06 320 16:59 01.03.2021
1996 Clear 7 1034 75 10000 2.06 320 16:40 01.03.2021
1997 Clouds 7 1034 70 10000 1.54 10 16:22 01.03.2021
1998 Clouds 7 1034 76 10000 1.54 30 15:39 01.03.2021
1999 Clouds 6 1035 81 10000 1.03 0 15:19 01.03.2021
2000 Clouds 7 1035 81 10000 1.03 0 14:44 01.03.2021
2001 Clouds 6 1035 81 10000 2.06 70 14:26 01.03.2021
2002 Clouds 3 1035 87 10000 1.03 0 13:39 01.03.2021
2003 Clouds 3 1036 87 10000 2.06 20 13:21 01.03.2021
2004 Clouds 3 1036 87 10000 1.03 0 12:51 01.03.2021
2005 Clouds 2 1036 93 10000 1.54 140 12:30 01.03.2021
2006 Clouds 2 1036 93 10000 1.54 90 11:58 01.03.2021
2007 Clouds 2 1036 93 10000 1.54 90 11:34 01.03.2021
2008 Clouds 2 1036 100 10000 1.54 290 10:44 01.03.2021
2009 Clouds 2 1036 100 8000 1.03 0 10:23 01.03.2021
2010 Clouds 2 1036 100 8000 1.03 0 09:56 01.03.2021
2011 Clouds 2 1036 100 8000 1.03 0 09:38 01.03.2021
2012 Drizzle 2 1036 100 9000 1.54 350 09:20 01.03.2021
2013 Clouds 2 1035 100 9000 1.54 0 08:44 01.03.2021
2014 Clouds 2 1035 100 8000 1.54 270 07:50 01.03.2021
2015 Clouds 2 1035 100 9000 1.03 0 06:51 01.03.2021
2016 Fog 3 1035 100 600 2.06 360 02:49 01.03.2021
2017 Fog 4 1035 100 200 3.6 350 00:44 01.03.2021
2018 Mist 5 1035 93 5000 3.6 330 23:26 28.02.2021
2019 Clouds 5 1035 100 9000 2.06 330 22:45 28.02.2021
2020 Clouds 5 1035 93 9000 2.57 330 22:22 28.02.2021
2021 Clouds 5 1035 93 9000 2.57 330 22:22 28.02.2021
2022 Clouds 6 1035 93 10000 2.06 310 21:49 28.02.2021
2023 Clouds 6 1034 93 10000 2.06 310 21:28 28.02.2021
2024 Clouds 6 1035 87 10000 2.06 340 20:56 28.02.2021
2025 Clouds 6 1035 87 10000 2.06 340 20:36 28.02.2021
2026 Clouds 6 1034 81 10000 2.57 330 19:47 28.02.2021
2027 Clouds 6 1034 81 10000 2.57 330 19:47 28.02.2021
2028 Clouds 6 1034 76 10000 1.54 310 19:28 28.02.2021
2029 Clouds 6 1034 76 10000 1.54 310 18:57 28.02.2021
2030 Clouds 6 1034 76 10000 1.54 310 18:57 28.02.2021
2031 Clouds 6 1034 76 10000 1.54 310 18:37 28.02.2021
2032 Clouds 6 1034 76 10000 3.09 300 18:18 28.02.2021
2033 Clouds 7 1034 76 10000 2.57 320 17:45 28.02.2021
2034 Clouds 7 1034 76 10000 3.09 320 17:27 28.02.2021
2035 Clouds 8 1034 76 10000 3.6 330 16:50 28.02.2021
2036 Clouds 8 1034 71 10000 3.6 320 16:30 28.02.2021
2037 Clouds 9 1034 71 10000 3.09 320 15:53 28.02.2021
2038 Clouds 9 1035 71 10000 3.6 330 15:31 28.02.2021
2039 Clouds 9 1035 66 10000 3.09 290 14:59 28.02.2021
2040 Clouds 9 1035 66 10000 3.09 290 14:40 28.02.2021
2041 Clouds 8 1035 71 10000 3.6 310 14:20 28.02.2021
2042 Clouds 8 1036 76 10000 3.09 280 13:47 28.02.2021
2043 Clouds 8 1036 70 10000 3.09 290 13:19 28.02.2021
2044 Clouds 8 1036 70 10000 3.09 290 13:19 28.02.2021
2045 Clouds 7 1036 75 10000 3.6 310 12:55 28.02.2021
2046 Clouds 7 1036 75 10000 3.6 310 12:55 28.02.2021
2047 Clouds 7 1036 75 10000 3.6 310 12:37 28.02.2021
2048 Clouds 7 1037 75 10000 3.09 280 12:19 28.02.2021
2049 Clouds 6 1037 75 10000 3.6 300 11:42 28.02.2021
2050 Clouds 6 1037 75 10000 3.6 290 11:24 28.02.2021
2051 Clouds 6 1037 75 10000 3.6 290 10:54 28.02.2021
2052 Clouds 6 1037 81 10000 3.09 260 10:28 28.02.2021
2053 Clouds 5 1037 87 10000 2.06 270 09:51 28.02.2021
2054 Clouds 5 1037 87 10000 2.06 270 09:32 28.02.2021
2055 Clouds 3 1036 93 6000 2.57 210 08:50 28.02.2021
2056 Clouds 2 1036 100 6000 2.57 230 08:31 28.02.2021
2057 Fog 1 1037 100 4000 1.54 230 07:54 28.02.2021
2058 Fog 1 1037 100 4000 1.54 230 07:36 28.02.2021
2059 Fog 1 1037 100 4000 1.03 0 06:43 28.02.2021
2060 Clouds 2 1037 93 6000 1.54 230 05:25 28.02.2021
2061 Clouds 3 1037 93 7000 1.03 0 03:44 28.02.2021
2062 Clouds 3 1038 93 6000 1.54 300 01:55 28.02.2021
2063 Clouds 3 1038 93 8000 1.54 260 00:53 28.02.2021
2064 Clouds 3 1038 93 8000 1.54 260 00:34 28.02.2021
2065 Clouds 3 1038 100 8000 1.54 270 23:47 27.02.2021
2066 Clouds 4 1038 100 10000 1.54 270 23:20 27.02.2021
2067 Clouds 3 1038 100 10000 2.06 300 22:49 27.02.2021
2068 Clouds 4 1038 100 10000 1.54 280 22:21 27.02.2021
2069 Clouds 4 1038 93 10000 1.03 0 21:50 27.02.2021
2070 Clouds 4 1038 93 10000 1.03 0 21:32 27.02.2021
2071 Drizzle 4 1038 93 10000 1.54 290 20:52 27.02.2021
2072 Drizzle 4 1038 93 10000 1.54 290 20:33 27.02.2021
2073 Clouds 4 1038 93 10000 2.06 290 19:48 27.02.2021
2074 Drizzle 4 1038 93 10000 2.57 300 19:29 27.02.2021
2075 Clouds 4 1038 93 10000 3.09 300 18:56 27.02.2021
2076 Clouds 4 1038 93 10000 3.09 300 18:36 27.02.2021
2077 Clouds 4 1037 93 10000 2.57 310 18:18 27.02.2021
2078 Clouds 4 1037 93 10000 3.6 320 17:42 27.02.2021
2079 Clouds 4 1037 93 10000 3.6 300 17:19 27.02.2021
2080 Clouds 5 1037 93 10000 2.06 300 16:50 27.02.2021
2081 Clouds 5 1037 93 10000 3.09 310 16:30 27.02.2021
2082 Clouds 5 1037 93 10000 3.09 310 16:30 27.02.2021
2083 Clouds 5 1037 81 10000 3.6 320 15:47 27.02.2021
2084 Clouds 5 1037 87 10000 2.57 300 15:20 27.02.2021
2085 Clouds 5 1037 87 10000 3.09 310 14:41 27.02.2021
2086 Clouds 5 1037 87 10000 4.12 320 14:22 27.02.2021
2087 Clouds 5 1037 87 10000 3.6 300 13:47 27.02.2021
2088 Clouds 4 1037 87 10000 3.6 310 13:25 27.02.2021
2089 Clouds 4 1037 93 10000 3.6 300 12:49 27.02.2021
2090 Clouds 4 1037 93 10000 3.6 300 12:27 27.02.2021
2091 Clouds 4 1037 100 10000 4.12 300 11:55 27.02.2021
2092 Drizzle 4 1037 100 8000 3.09 280 11:31 27.02.2021
2093 Drizzle 4 1036 93 4200 3.09 280 10:59 27.02.2021
2094 Drizzle 3 1036 93 4200 3.09 280 10:41 27.02.2021
2095 Drizzle 3 1036 100 3700 3.09 270 10:18 27.02.2021
2096 Drizzle 2 1036 100 3200 3.09 260 09:37 27.02.2021
2097 Drizzle 2 1036 93 7000 3.09 300 08:58 27.02.2021
2098 Drizzle 2 1036 93 7000 3.09 300 08:39 27.02.2021
2099 Clouds 2 1035 100 9000 4.63 320 08:18 27.02.2021
2100 Clouds 2 1034 93 9000 4.12 310 07:32 27.02.2021
2101 Clear 2 1032 93 10000 3.6 290 02:56 27.02.2021
2102 Clouds 3 1032 93 10000 2.06 270 00:35 27.02.2021
2103 Clouds 2 1032 100 10000 2.57 270 23:50 26.02.2021
2104 Clouds 2 1031 100 10000 2.57 280 23:25 26.02.2021
2105 Clouds 3 1031 93 10000 2.57 270 22:44 26.02.2021
2106 Clouds 3 1031 93 10000 2.57 270 22:23 26.02.2021
2107 Clouds 3 1031 93 10000 3.09 270 21:39 26.02.2021
2108 Clouds 3 1031 93 10000 3.09 260 21:18 26.02.2021
2109 Clouds 3 1031 93 10000 2.57 260 20:43 26.02.2021
2110 Clouds 3 1030 100 10000 2.57 250 20:20 26.02.2021
2111 Clouds 4 1031 93 10000 2.06 260 19:41 26.02.2021
2112 Clear 4 1030 93 10000 2.57 250 19:18 26.02.2021
2113 Clouds 4 1030 93 10000 3.09 250 18:41 26.02.2021
2114 Rain 4 1030 93 10000 2.06 250 18:21 26.02.2021
2115 Rain 4 1030 93 10000 2.57 290 17:40 26.02.2021
2116 Rain 4 1030 93 10000 3.09 330 17:22 26.02.2021
2117 Drizzle 5 1030 93 10000 2.57 320 16:52 26.02.2021
2118 Rain 5 1030 93 9000 3.09 350 16:31 26.02.2021
2119 Clouds 5 1029 93 6000 3.6 320 15:57 26.02.2021
2120 Rain 6 1029 93 6000 3.6 320 15:38 26.02.2021
2121 Clouds 6 1029 93 10000 2.06 290 15:19 26.02.2021
2122 Clouds 6 1029 87 10000 3.6 310 14:45 26.02.2021
2123 Clouds 6 1029 93 10000 3.6 320 14:25 26.02.2021
2124 Clouds 7 1029 93 10000 5.66 340 13:42 26.02.2021
2125 Clouds 7 1029 100 10000 4.12 350 13:23 26.02.2021
2126 Clouds 8 1029 93 7000 5.14 330 12:39 26.02.2021
2127 Clouds 8 1029 93 9000 4.12 300 11:55 26.02.2021
2128 Clouds 8 1029 93 9000 4.12 300 11:37 26.02.2021
2129 Clouds 9 1028 87 10000 3.09 310 10:48 26.02.2021
2130 Clouds 9 1028 81 10000 2.57 290 09:59 26.02.2021
2131 Clouds 8 1028 81 10000 2.57 290 09:39 26.02.2021
2132 Clear 7 1028 81 10000 3.09 300 09:21 26.02.2021
2133 Clear 7 1027 76 10000 2.06 260 08:29 26.02.2021
2134 Clouds 7 1026 81 9000 1.54 250 07:52 26.02.2021
2135 Clear 6 1026 93 10000 3.6 220 06:43 26.02.2021
2136 Clear 6 1026 93 10000 3.6 220 06:43 26.02.2021
2137 Clear 6 1026 93 10000 3.6 200 05:32 26.02.2021
2138 Clear 7 1026 87 10000 2.57 180 03:49 26.02.2021
2139 Clear 8 1027 81 10000 2.06 190 02:36 26.02.2021
2140 Clear 8 1027 81 10000 2.06 190 00:23 26.02.2021
2141 Clear 9 1027 76 10000 2.06 210 23:29 25.02.2021
2142 Clear 9 1027 76 10000 4.12 210 22:50 25.02.2021
2143 Clear 9 1027 76 10000 3.6 200 22:31 25.02.2021
2144 Clear 9 1027 76 10000 5.14 180 21:47 25.02.2021
2145 Clear 9 1027 76 10000 2.06 200 21:28 25.02.2021
2146 Clear 10 1027 71 10000 3.09 200 20:42 25.02.2021
2147 Clear 10 1027 66 10000 2.57 170 20:23 25.02.2021
2148 Clear 11 1027 66 10000 1.54 160 19:53 25.02.2021
2149 Clear 11 1027 62 10000 2.57 200 19:22 25.02.2021
2150 Clear 11 1027 54 10000 3.09 210 18:59 25.02.2021
2151 Clear 12 1027 54 10000 3.09 210 18:33 25.02.2021
2152 Clear 14 1026 48 10000 2.57 230 17:51 25.02.2021
2153 Clear 15 1026 39 10000 3.09 250 17:29 25.02.2021
2154 Clear 16 1026 39 10000 4.63 290 16:54 25.02.2021
2155 Clear 17 1026 37 10000 4.12 260 16:31 25.02.2021
2156 Clear 19 1026 40 10000 3.09 220 15:36 25.02.2021
2157 Clear 19 1026 37 10000 3.09 210 15:18 25.02.2021
2158 Clear 19 1027 42 10000 2.57 220 14:29 25.02.2021
2159 Clear 18 1027 45 10000 3.09 220 13:57 25.02.2021
2160 Clear 18 1027 45 10000 3.09 220 13:39 25.02.2021
2161 Clear 18 1027 48 10000 3.6 200 13:18 25.02.2021
2162 Clear 15 1028 55 10000 2.06 160 12:23 25.02.2021
2163 Clear 16 1028 62 10000 2.57 160 11:51 25.02.2021
2164 Clear 13 1028 62 10000 2.06 190 11:31 25.02.2021
2165 Clear 12 1028 71 10000 1.54 210 10:51 25.02.2021
2166 Clear 14 1028 71 10000 1.54 210 10:32 25.02.2021
2167 Clear 12 1028 81 10000 2.06 180 09:45 25.02.2021
2168 Clear 8 1028 81 10000 1.54 180 09:22 25.02.2021
2169 Clear 9 1028 87 10000 2.06 190 08:30 25.02.2021
2170 Clear 7 1028 87 10000 2.57 180 07:58 25.02.2021
2171 Clear 8 1028 87 10000 2.57 180 07:38 25.02.2021
2172 Clear 5 1029 87 10000 3.6 170 06:57 25.02.2021
2173 Clear 5 1029 87 10000 3.6 170 06:57 25.02.2021
2174 Clear 8 1029 87 10000 4.63 160 05:24 25.02.2021
2175 Clear 9 1030 87 10000 2.57 170 01:43 25.02.2021
2176 Clear 8 1030 87 10000 3.09 180 00:48 25.02.2021
2177 Clear 8 1030 87 10000 3.6 170 00:19 25.02.2021
2178 Clear 9 1030 81 10000 2.06 190 23:35 24.02.2021
2179 Clear 9 1030 81 10000 2.57 170 22:47 24.02.2021
2180 Clear 9 1031 81 10000 1.54 190 22:29 24.02.2021
2181 Clear 9 1031 76 10000 2.06 160 21:49 24.02.2021
2182 Clear 9 1031 76 10000 2.06 170 21:30 24.02.2021
2183 Clear 10 1031 71 10000 0.51 0 20:49 24.02.2021
2184 Clear 10 1031 71 10000 3.09 180 20:26 24.02.2021
2185 Clear 10 1031 71 10000 1.54 180 19:42 24.02.2021
2186 Clear 10 1031 71 10000 2.06 210 19:20 24.02.2021
2187 Clear 11 1031 66 10000 1.54 190 18:53 24.02.2021
2188 Clear 12 1031 62 10000 2.06 180 18:30 24.02.2021
2189 Clear 12 1031 62 10000 2.57 200 17:42 24.02.2021
2190 Clear 14 1031 55 10000 2.57 200 17:23 24.02.2021
2191 Clear 15 1031 51 10000 2.57 200 16:48 24.02.2021
2192 Clear 17 1031 48 10000 2.57 210 16:21 24.02.2021
2193 Clear 17 1031 45 10000 1.54 250 15:55 24.02.2021
2194 Clear 17 1031 45 10000 1.54 250 15:32 24.02.2021
2195 Clear 17 1032 48 10000 2.57 220 14:50 24.02.2021
2196 Clear 18 1032 45 10000 3.09 200 14:29 24.02.2021
2197 Clear 17 1032 48 10000 3.09 200 13:44 24.02.2021
2198 Clear 17 1033 51 10000 3.6 210 13:24 24.02.2021
2199 Clear 17 1033 51 10000 3.6 190 12:58 24.02.2021
2200 Clear 17 1033 51 10000 3.6 190 12:38 24.02.2021
2201 Clear 16 1033 58 10000 3.09 180 12:20 24.02.2021
2202 Clear 14 1033 66 10000 2.06 210 11:33 24.02.2021
2203 Clear 13 1033 76 10000 2.06 180 10:47 24.02.2021
2204 Clear 11 1033 81 10000 3.09 160 10:26 24.02.2021
2205 Clear 9 1033 87 10000 2.06 170 09:30 24.02.2021
2206 Clear 8 1034 93 10000 1.54 0 08:51 24.02.2021
2207 Clear 6 1034 93 10000 4.63 160 08:32 24.02.2021
2208 Clear 7 1034 87 10000 2.57 180 07:42 24.02.2021
2209 Clear 7 1034 87 10000 1.54 180 07:18 24.02.2021
2210 Clear 7 1034 87 10000 2.57 160 05:49 24.02.2021
2211 Clear 8 1034 87 10000 5.14 170 02:35 24.02.2021
2212 Clear 8 1035 81 10000 1.54 180 23:39 23.02.2021
2213 Clear 8 1034 81 10000 3.6 190 22:51 23.02.2021
2214 Clear 8 1034 81 10000 2.06 190 22:23 23.02.2021
2215 Clear 9 1034 76 10000 4.12 170 21:56 23.02.2021
2216 Clear 9 1034 76 10000 4.12 210 21:37 23.02.2021
2217 Clear 9 1034 76 10000 4.12 210 21:18 23.02.2021
2218 Clear 9 1034 81 10000 1.54 210 20:45 23.02.2021
2219 Clear 9 1034 76 10000 2.06 200 20:27 23.02.2021
2220 Clear 10 1034 71 10000 1.54 190 19:47 23.02.2021
2221 Clear 11 1034 76 10000 1.54 160 19:26 23.02.2021
2222 Clear 10 1033 71 10000 1.54 190 18:47 23.02.2021
2223 Clear 11 1033 66 10000 2.06 170 18:29 23.02.2021
2224 Clear 12 1033 62 10000 2.06 200 17:54 23.02.2021
2225 Clear 13 1033 58 10000 1.03 180 17:28 23.02.2021
2226 Clear 14 1033 55 10000 1.54 190 16:47 23.02.2021
2227 Clear 15 1033 51 10000 1.54 210 16:24 23.02.2021
2228 Clear 15 1033 51 10000 2.06 210 15:52 23.02.2021
2229 Clear 15 1033 51 10000 2.06 210 15:34 23.02.2021
2230 Clear 15 1033 51 10000 2.57 200 14:58 23.02.2021
2231 Clear 15 1033 51 10000 2.57 200 14:40 23.02.2021
2232 Clear 15 1033 51 10000 2.57 200 14:19 23.02.2021
2233 Clear 16 1033 51 10000 2.57 210 13:39 23.02.2021
2234 Clear 15 1033 51 10000 3.09 210 13:21 23.02.2021
2235 Clear 15 1033 47 10000 1.54 220 12:49 23.02.2021
2236 Clear 14 1033 47 10000 1.03 0 12:20 23.02.2021
2237 Clear 13 1033 58 10000 1.54 90 11:46 23.02.2021
2238 Clear 11 1033 62 10000 1.03 0 11:20 23.02.2021
2239 Clear 7 1032 76 10000 3.09 320 10:40 23.02.2021
2240 Clear 6 1032 75 10000 1.54 200 10:21 23.02.2021
2241 Clear 9 1031 87 10000 2.06 190 09:42 23.02.2021
2242 Clear 8 1031 87 10000 3.09 150 09:22 23.02.2021
2243 Clear 7 1031 87 10000 1.03 0 08:48 23.02.2021
2244 Clear 2 1030 93 10000 4.63 160 08:21 23.02.2021
2245 Clouds 5 1031 100 9000 2.57 160 07:49 23.02.2021
2246 Clear 5 1030 100 10000 1.03 0 05:30 23.02.2021
2247 Clear 5 1030 100 10000 2.06 160 04:32 23.02.2021
2248 Clear 4 1029 93 10000 3.6 220 02:34 23.02.2021
2249 Clear 4 1027 93 10000 3.09 160 00:20 23.02.2021
2250 Clear 4 1027 93 10000 1.54 180 23:47 22.02.2021
2251 Clear 4 1027 93 10000 2.57 170 23:20 22.02.2021
2252 Clear 5 1026 93 10000 3.6 190 22:41 22.02.2021
2253 Clear 4 1026 93 10000 2.57 180 22:20 22.02.2021
2254 Clear 4 1026 93 10000 2.57 160 21:45 22.02.2021
2255 Clear 4 1026 93 10000 2.57 160 21:23 22.02.2021
2256 Clear 4 1025 93 10000 3.09 170 20:51 22.02.2021
2257 Clear 4 1025 93 10000 2.57 180 20:29 22.02.2021
2258 Clear 4 1025 87 10000 2.57 180 19:53 22.02.2021
2259 Clear 4 1025 87 10000 2.57 180 19:35 22.02.2021
2260 Clear 4 1024 81 10000 1.03 0 18:56 22.02.2021
2261 Clear 5 1024 81 10000 1.03 0 18:37 22.02.2021
2262 Clear 5 1024 75 10000 5.14 160 18:19 22.02.2021
2263 Clear 7 1023 71 10000 3.6 150 17:26 22.02.2021
2264 Clear 8 1023 71 10000 3.6 150 16:55 22.02.2021
2265 Clear 9 1023 66 10000 4.63 150 16:35 22.02.2021
2266 Clear 10 1022 58 10000 4.12 150 15:47 22.02.2021
2267 Clear 10 1022 58 10000 3.09 150 15:28 22.02.2021
2268 Clear 10 1022 58 10000 4.12 140 14:47 22.02.2021
2269 Clear 10 1022 58 10000 3.6 130 14:28 22.02.2021
2270 Clear 10 1022 58 10000 4.12 150 13:47 22.02.2021
2271 Clear 10 1022 62 10000 4.12 160 12:58 22.02.2021
2272 Clear 10 1022 62 10000 4.12 160 12:40 22.02.2021
2273 Clear 10 1022 57 10000 5.66 150 12:20 22.02.2021
2274 Clear 9 1022 61 10000 5.14 150 11:42 22.02.2021
2275 Clear 8 1022 66 10000 6.17 150 11:24 22.02.2021
2276 Clear 9 1021 66 10000 6.17 160 10:46 22.02.2021
2277 Clear 8 1021 70 10000 6.69 160 10:26 22.02.2021
2278 Clear 7 1021 75 10000 7.2 160 09:45 22.02.2021
2279 Clear 6 1021 81 10000 6.69 150 09:25 22.02.2021
2280 Clear 5 1021 81 10000 7.2 150 08:51 22.02.2021
2281 Clear 4 1021 81 10000 6.69 150 08:29 22.02.2021
2282 Clear 3 1020 87 10000 5.66 150 07:58 22.02.2021
2283 Clear 2 1020 87 10000 6.17 160 07:26 22.02.2021
2284 Clear 3 1020 87 10000 5.66 150 06:45 22.02.2021
2285 Clear 3 1020 87 10000 6.69 160 05:45 22.02.2021
2286 Clouds 3 1020 87 10000 7.72 150 03:29 22.02.2021
2287 Clouds 3 1020 87 10000 7.72 150 03:29 22.02.2021
2288 Clouds 3 1020 87 10000 7.72 150 03:29 22.02.2021
2289 Clouds 3 1020 87 10000 7.72 150 02:51 22.02.2021
2290 Clouds 3 1020 87 10000 10.29 160 00:46 22.02.2021
2291 Clouds 3 1020 87 10000 8.75 150 00:23 22.02.2021
2292 Clouds 3 1020 87 10000 9.77 160 23:33 21.02.2021
2293 Clear 3 1020 87 10000 8.75 160 22:54 21.02.2021
2294 Clear 3 1020 87 10000 8.75 150 22:24 21.02.2021
2295 Clear 3 1020 87 10000 9.26 150 21:48 21.02.2021
2296 Clear 3 1020 87 10000 8.75 150 21:30 21.02.2021
2297 Clear 3 1020 87 10000 8.75 150 20:49 21.02.2021
2298 Clear 3 1020 87 10000 9.26 150 20:20 21.02.2021
2299 Clear 3 1020 87 10000 7.72 150 19:57 21.02.2021
2300 Clear 3 1020 87 10000 7.72 150 19:36 21.02.2021
2301 Clear 3 1020 87 10000 7.72 140 19:18 21.02.2021
2302 Clear 3 1020 87 10000 7.2 150 18:26 21.02.2021
2303 Clear 4 1020 81 10000 8.23 150 17:47 21.02.2021
2304 Clear 5 1020 81 10000 8.75 150 17:21 21.02.2021
2305 Clear 6 1020 75 10000 6.17 150 16:50 21.02.2021
2306 Clear 6 1020 75 10000 6.69 140 16:29 21.02.2021
2307 Clear 8 1020 71 10000 6.17 140 15:25 21.02.2021
2308 Clear 8 1020 71 10000 8.75 140 14:58 21.02.2021
2309 Clear 8 1020 71 10000 8.75 140 14:39 21.02.2021
2310 Clear 8 1020 66 10000 6.17 150 13:59 21.02.2021
2311 Clear 9 1020 66 10000 7.2 140 13:30 21.02.2021
2312 Clear 8 1020 71 10000 8.75 140 12:50 21.02.2021
2313 Clear 8 1020 71 10000 7.72 140 12:26 21.02.2021
2314 Clear 8 1020 66 10000 7.2 140 11:42 21.02.2021
2315 Clear 7 1020 70 10000 8.23 150 10:52 21.02.2021
2316 Clear 6 1020 75 10000 7.72 150 10:22 21.02.2021
2317 Clear 6 1020 81 10000 7.72 150 09:52 21.02.2021
2318 Clear 5 1020 81 10000 8.75 150 09:26 21.02.2021
2319 Clear 4 1019 81 10000 8.75 150 08:43 21.02.2021
2320 Clear 3 1019 87 10000 8.23 150 08:19 21.02.2021
2321 Clear 3 1019 87 10000 7.72 150 07:30 21.02.2021
2322 Clear 3 1019 87 10000 7.72 150 06:47 21.02.2021
2323 Clear 4 1019 81 10000 7.72 150 02:48 21.02.2021
2324 Clear 4 1019 81 10000 7.72 150 02:29 21.02.2021
2325 Clear 5 1019 75 10000 7.2 150 00:42 21.02.2021
2326 Clear 6 1019 70 10000 7.72 150 00:18 21.02.2021
2327 Clear 6 1019 81 10000 6.69 140 23:18 20.02.2021
2328 Clear 6 1019 76 10000 6.17 150 22:41 20.02.2021
2329 Clear 7 1019 71 10000 6.69 150 22:23 20.02.2021
2330 Clear 7 1019 76 10000 6.17 140 21:44 20.02.2021
2331 Clear 7 1019 71 10000 6.69 150 21:23 20.02.2021
2332 Clear 7 1019 71 10000 7.72 150 20:42 20.02.2021
2333 Clear 7 1019 71 10000 7.72 150 20:21 20.02.2021
2334 Clear 7 1020 66 10000 7.2 150 19:52 20.02.2021
2335 Clear 7 1020 71 10000 7.2 150 19:27 20.02.2021
2336 Clear 7 1020 71 10000 6.17 160 18:41 20.02.2021
2337 Clear 8 1019 66 10000 6.17 150 18:21 20.02.2021
2338 Clear 9 1019 62 10000 6.17 150 17:38 20.02.2021
2339 Clear 12 1019 54 10000 6.69 160 16:56 20.02.2021
2340 Clear 13 1019 54 10000 6.69 150 16:32 20.02.2021
2341 Clear 13 1019 54 10000 6.17 150 15:55 20.02.2021
2342 Clear 13 1019 54 10000 6.17 150 15:36 20.02.2021
2343 Clear 13 1019 50 10000 5.66 140 14:48 20.02.2021
2344 Clear 13 1020 50 10000 6.69 160 14:24 20.02.2021
2345 Clear 13 1020 50 10000 6.69 160 13:48 20.02.2021
2346 Clear 12 1020 50 10000 6.17 150 13:27 20.02.2021
2347 Clouds 11 1020 54 10000 6.17 160 12:51 20.02.2021
2348 Clouds 12 1020 54 10000 6.17 160 12:32 20.02.2021
2349 Clear 10 1021 58 10000 6.69 160 11:44 20.02.2021
2350 Clear 10 1021 58 10000 6.69 160 11:26 20.02.2021
2351 Clear 10 1020 62 10000 5.14 150 10:50 20.02.2021
2352 Clear 7 1020 70 10000 4.63 160 09:59 20.02.2021
2353 Clear 6 1020 70 10000 4.63 160 09:40 20.02.2021
2354 Clear 4 1020 75 10000 6.17 150 08:49 20.02.2021
2355 Clear 3 1020 75 10000 6.17 150 08:19 20.02.2021
2356 Clear 1 1020 80 10000 4.63 160 03:40 20.02.2021
2357 Clear 2 1020 75 10000 4.63 160 02:30 20.02.2021
2358 Clear 2 1020 80 10000 4.12 150 01:51 20.02.2021
2359 Clear 2 1020 80 10000 3.6 170 00:48 20.02.2021
2360 Clear 2 1020 75 10000 3.09 160 00:24 20.02.2021
2361 Clear 2 1020 80 10000 4.63 170 23:19 19.02.2021
2362 Clear 2 1020 75 10000 4.12 170 22:42 19.02.2021
2363 Clear 2 1020 80 10000 3.09 160 22:19 19.02.2021
2364 Clear 2 1020 75 10000 1.54 160 21:39 19.02.2021
2365 Clear 2 1020 75 10000 2.06 160 21:20 19.02.2021
2366 Clear 3 1020 70 10000 2.57 160 20:40 19.02.2021
2367 Clear 3 1020 65 10000 2.57 170 20:22 19.02.2021
2368 Clear 3 1020 61 10000 2.06 190 19:44 19.02.2021
2369 Clear 4 1020 61 10000 2.06 170 19:20 19.02.2021
2370 Clear 4 1020 65 10000 1.03 250 18:46 19.02.2021
2371 Clear 4 1020 61 10000 1.54 250 18:26 19.02.2021
2372 Clear 6 1019 61 10000 1.54 250 17:35 19.02.2021
2373 Clear 8 1019 53 10000 3.09 270 16:41 19.02.2021
2374 Clouds 9 1019 53 10000 3.09 290 16:21 19.02.2021
2375 Clouds 8 1019 57 10000 4.12 270 15:53 19.02.2021
2376 Clouds 10 1019 57 10000 4.63 260 15:27 19.02.2021
2377 Clouds 10 1019 57 10000 4.63 270 14:46 19.02.2021
2378 Clouds 10 1019 57 10000 5.66 270 14:26 19.02.2021
2379 Clouds 9 1019 61 10000 4.63 260 13:53 19.02.2021
2380 Clouds 9 1019 61 10000 5.14 260 13:30 19.02.2021
2381 Clouds 9 1019 61 10000 4.63 280 12:52 19.02.2021
2382 Clouds 9 1019 66 10000 5.66 250 12:25 19.02.2021
2383 Clouds 8 1019 66 10000 5.14 260 11:54 19.02.2021
2384 Clouds 8 1019 66 10000 5.14 270 11:26 19.02.2021
2385 Clouds 9 1019 70 10000 5.66 260 10:55 19.02.2021
2386 Clouds 8 1019 70 10000 5.66 260 10:32 19.02.2021
2387 Clouds 6 1018 75 10000 4.12 260 09:52 19.02.2021
2388 Clouds 6 1018 75 10000 4.12 260 09:52 19.02.2021
2389 Clouds 6 1018 75 10000 3.6 270 09:27 19.02.2021
2390 Clouds 6 1018 75 10000 3.6 270 09:27 19.02.2021
2391 Clouds 6 1017 75 10000 5.14 270 08:55 19.02.2021
2392 Clouds 6 1017 75 10000 5.14 270 08:28 19.02.2021
2393 Clouds 6 1016 76 10000 3.6 270 07:54 19.02.2021
2394 Clouds 6 1016 76 10000 3.6 270 07:36 19.02.2021
2395 Clouds 7 1015 76 10000 6.17 280 06:58 19.02.2021
2396 Clouds 7 1014 76 10000 5.66 260 06:29 19.02.2021
2397 Clouds 6 1013 75 10000 3.6 180 04:42 19.02.2021
2398 Rain 6 1012 65 10000 8.23 170 02:31 19.02.2021
2399 Clear 6 1012 65 10000 8.23 150 01:26 19.02.2021
2400 Clear 6 1012 70 10000 8.23 150 00:27 19.02.2021
2401 Clear 6 1012 65 10000 8.75 160 23:45 18.02.2021
2402 Clear 6 1013 65 10000 8.23 150 23:27 18.02.2021
2403 Clear 6 1013 65 10000 6.69 150 22:37 18.02.2021
2404 Rain 6 1014 65 10000 6.17 150 22:18 18.02.2021
2405 Clear 6 1014 65 10000 7.2 160 21:37 18.02.2021
2406 Clear 6 1014 70 10000 6.69 150 21:19 18.02.2021
2407 Clear 6 1014 70 10000 6.69 150 20:39 18.02.2021
2408 Clear 6 1015 70 10000 5.66 150 20:20 18.02.2021
2409 Clear 5 1015 70 10000 5.14 160 19:43 18.02.2021
2410 Clear 5 1015 70 10000 5.66 160 19:20 18.02.2021
2411 Clear 6 1015 75 10000 4.12 160 18:50 18.02.2021
2412 Clear 6 1015 70 10000 4.12 140 18:26 18.02.2021
2413 Clear 5 1016 66 10000 4.12 150 17:49 18.02.2021
2414 Clear 6 1016 66 10000 5.14 150 17:24 18.02.2021
2415 Clear 6 1016 66 10000 5.66 160 16:47 18.02.2021
2416 Clear 7 1017 62 10000 5.14 150 16:29 18.02.2021
2417 Clear 8 1017 58 10000 5.14 160 15:43 18.02.2021
2418 Clear 7 1017 58 10000 5.66 160 15:24 18.02.2021
2419 Clear 8 1017 58 10000 5.66 160 14:55 18.02.2021
2420 Clear 8 1017 58 10000 5.66 160 14:34 18.02.2021
2421 Clear 8 1018 58 10000 5.14 160 13:50 18.02.2021
2422 Clear 8 1018 58 10000 5.14 160 13:50 18.02.2021
2423 Clear 7 1018 62 10000 6.17 160 13:22 18.02.2021
2424 Clear 8 1018 66 10000 5.66 170 12:56 18.02.2021
2425 Clear 10 1018 66 10000 5.66 170 12:33 18.02.2021
2426 Clear 9 1018 66 10000 4.12 150 11:48 18.02.2021
2427 Clear 8 1018 76 10000 2.57 140 11:28 18.02.2021
2428 Clear 7 1019 76 10000 2.57 160 10:58 18.02.2021
2429 Clear 7 1019 76 10000 2.57 160 10:40 18.02.2021
2430 Clear 6 1019 76 10000 3.6 160 10:20 18.02.2021
2431 Clear 5 1019 87 10000 3.09 180 09:39 18.02.2021
2432 Clear 4 1019 81 10000 1.54 160 09:19 18.02.2021
2433 Clouds 3 1019 87 10000 3.6 170 08:31 18.02.2021
2434 Clouds 2 1019 93 10000 4.63 170 07:58 18.02.2021
2435 Clouds 3 1019 93 10000 3.09 190 07:30 18.02.2021
2436 Clouds 3 1019 87 10000 2.06 200 06:20 18.02.2021
2437 Clear 4 1019 81 10000 2.06 230 00:53 18.02.2021
2438 Clouds 4 1019 75 10000 2.06 240 23:48 17.02.2021
2439 Clouds 5 1019 75 10000 3.6 260 23:20 17.02.2021
2440 Clear 5 1019 75 10000 2.57 250 22:44 17.02.2021
2441 Clear 5 1019 75 10000 2.57 260 22:22 17.02.2021
2442 Clouds 5 1019 75 10000 2.06 260 21:48 17.02.2021
2443 Clouds 5 1019 75 10000 2.06 300 21:21 17.02.2021
2444 Clouds 5 1018 81 10000 1.54 260 20:45 17.02.2021
2445 Clouds 5 1019 75 10000 2.06 280 20:25 17.02.2021
2446 Clouds 5 1019 75 10000 3.6 270 19:46 17.02.2021
2447 Clouds 5 1018 81 10000 3.6 260 19:27 17.02.2021
2448 Clouds 6 1018 81 10000 3.09 260 18:41 17.02.2021
2449 Clouds 5 1018 81 10000 3.6 260 18:22 17.02.2021
2450 Clouds 6 1018 75 10000 3.6 270 17:40 17.02.2021
2451 Clouds 6 1018 75 10000 4.12 260 17:19 17.02.2021
2452 Clouds 6 1017 75 10000 4.63 270 16:45 17.02.2021
2453 Clouds 6 1017 75 10000 5.66 270 16:24 17.02.2021
2454 Clouds 6 1017 75 10000 4.63 270 15:44 17.02.2021
2455 Clouds 6 1017 81 10000 5.14 270 15:25 17.02.2021
2456 Clouds 6 1016 81 10000 6.17 260 14:46 17.02.2021
2457 Clouds 6 1016 81 10000 5.14 260 14:28 17.02.2021
2458 Clouds 6 1016 81 10000 5.14 260 13:47 17.02.2021
2459 Clouds 6 1016 81 10000 6.17 260 13:29 17.02.2021
2460 Clouds 6 1016 81 10000 6.69 260 12:47 17.02.2021
2461 Clouds 6 1016 81 10000 5.66 260 12:23 17.02.2021
2462 Clouds 6 1016 81 10000 5.14 260 11:44 17.02.2021
2463 Clouds 5 1016 87 10000 5.14 260 11:20 17.02.2021
2464 Clouds 5 1015 87 10000 5.14 260 10:46 17.02.2021
2465 Clouds 5 1015 87 10000 5.14 250 10:26 17.02.2021
2466 Clouds 5 1015 87 10000 5.14 250 09:52 17.02.2021
2467 Clouds 4 1014 87 10000 4.63 250 09:29 17.02.2021
2468 Clouds 4 1014 93 10000 4.12 250 08:45 17.02.2021
2469 Clouds 4 1014 93 10000 4.63 250 08:22 17.02.2021
2470 Clouds 4 1013 93 6000 3.6 250 07:34 17.02.2021
2471 Rain 4 1013 93 4500 6.69 270 06:36 17.02.2021
2472 Clouds 2 1011 93 10000 4.63 200 03:47 17.02.2021
2473 Rain 2 1012 93 7000 4.12 180 02:30 17.02.2021
2474 Rain 2 1011 87 7000 2.57 180 01:33 17.02.2021
2475 Rain 2 1012 93 6000 4.12 160 00:25 17.02.2021
2476 Clouds 2 1013 93 6000 4.63 160 23:38 16.02.2021
2477 Clouds 2 1013 100 6000 5.14 150 22:46 16.02.2021
2478 Clouds 2 1013 93 7000 4.63 140 22:26 16.02.2021
2479 Clouds 2 1014 100 8000 5.66 140 21:59 16.02.2021
2480 Clouds 2 1014 100 8000 5.66 140 21:39 16.02.2021
2481 Clouds 2 1014 100 9000 5.14 150 21:21 16.02.2021
2482 Clouds 2 1014 100 10000 5.14 150 20:50 16.02.2021
2483 Clouds 2 1014 93 10000 4.63 150 20:24 16.02.2021
2484 Clouds 2 1015 93 10000 4.12 150 19:49 16.02.2021
2485 Clouds 3 1016 87 10000 2.57 160 19:29 16.02.2021
2486 Clouds 2 1016 93 10000 3.09 160 18:53 16.02.2021
2487 Clouds 2 1016 87 9000 2.06 200 18:26 16.02.2021
2488 Clouds 2 1016 87 9000 3.6 160 17:58 16.02.2021
2489 Clouds 2 1016 87 9000 3.6 160 17:38 16.02.2021
2490 Clouds 2 1017 87 9000 3.09 200 17:20 16.02.2021
2491 Clouds 3 1017 87 10000 3.09 200 16:44 16.02.2021
2492 Clouds 3 1017 87 10000 1.03 0 16:21 16.02.2021
2493 Rain 3 1018 87 10000 2.57 180 15:42 16.02.2021
2494 Rain 3 1018 81 10000 2.57 200 15:24 16.02.2021
2495 Clouds 3 1018 81 10000 3.6 160 14:42 16.02.2021
2496 Clouds 3 1019 80 10000 3.6 200 14:24 16.02.2021
2497 Clouds 2 1019 86 8000 3.09 210 13:47 16.02.2021
2498 Clouds 2 1019 86 6000 2.57 190 13:24 16.02.2021
2499 Clouds 2 1019 93 6000 3.09 180 12:43 16.02.2021
2500 Clouds 2 1019 86 6000 2.57 170 12:20 16.02.2021
2501 Mist 1 1020 93 5000 2.57 170 11:44 16.02.2021
2502 Mist 1 1020 93 4000 3.09 170 11:22 16.02.2021
2503 Rain 1 1020 100 3000 3.09 180 10:50 16.02.2021
2504 Mist 0 1021 100 2500 3.09 180 10:31 16.02.2021
2505 Rain 0 1021 100 2500 3.09 180 09:56 16.02.2021
2506 Rain -1 1021 100 2500 3.09 180 09:36 16.02.2021
2507 Rain -1 1021 93 2500 2.57 190 09:18 16.02.2021
2508 Mist -2 1021 100 3000 3.09 190 08:39 16.02.2021
2509 Rain -2 1020 100 3000 4.12 170 08:18 16.02.2021
2510 Rain -2 1020 93 3000 3.09 180 07:20 16.02.2021
2511 Snow -3 1021 93 2300 2.57 180 04:33 16.02.2021
2512 Snow -2 1023 93 4500 3.09 150 00:44 16.02.2021
2513 Snow -3 1023 100 2300 5.14 150 23:31 15.02.2021
2514 Snow -3 1023 100 700 6.69 150 22:59 15.02.2021
2515 Snow -3 1023 100 700 6.69 150 22:41 15.02.2021
2516 Snow -2 1024 64 10000 7.2 150 21:59 15.02.2021
2517 Snow -2 1024 64 10000 7.2 150 21:38 15.02.2021
2518 Snow -2 1025 69 10000 7.2 160 21:19 15.02.2021
2519 Snow -2 1025 69 10000 6.69 150 20:45 15.02.2021
2520 Snow -2 1026 59 10000 6.17 180 20:24 15.02.2021
2521 Snow -2 1027 59 10000 4.63 150 19:44 15.02.2021
2522 Snow -2 1027 59 10000 5.14 150 19:22 15.02.2021
2523 Snow -2 1027 54 10000 4.63 140 18:44 15.02.2021
2524 Snow -2 1028 54 10000 3.6 160 18:26 15.02.2021
2525 Snow -2 1028 50 10000 4.12 150 17:42 15.02.2021
2526 Clear -2 1028 47 10000 4.12 150 17:22 15.02.2021
2527 Clear -2 1028 47 10000 6.17 150 16:55 15.02.2021
2528 Snow -1 1029 47 10000 6.17 140 16:27 15.02.2021
2529 Clear -1 1029 47 10000 4.12 140 15:51 15.02.2021
2530 Clear -1 1030 47 10000 5.66 150 15:25 15.02.2021
2531 Clear -1 1031 51 10000 5.14 150 14:59 15.02.2021
2532 Clear -3 1031 51 10000 5.14 150 14:36 15.02.2021
2533 Clear -3 1031 47 10000 5.14 150 14:18 15.02.2021
2534 Clear -1 1032 51 10000 5.14 160 13:45 15.02.2021
2535 Clear -1 1032 51 10000 4.63 150 13:19 15.02.2021
2536 Clear 0 1033 59 10000 4.63 150 12:44 15.02.2021
2537 Clear -1 1033 64 10000 3.6 150 12:21 15.02.2021
2538 Clear -4 1033 68 10000 4.63 150 11:45 15.02.2021
2539 Clear -5 1033 86 10000 3.6 140 11:22 15.02.2021
2540 Clear -7 1034 93 10000 4.12 150 10:49 15.02.2021
2541 Clear -7 1034 86 10000 3.6 140 10:25 15.02.2021
2542 Clear -8 1034 85 10000 1.03 0 09:55 15.02.2021
2543 Clear -9 1034 85 10000 1.03 0 09:33 15.02.2021
2544 Clear -11 1035 85 10000 3.09 160 08:50 15.02.2021
2545 Clear -12 1035 85 10000 1.54 170 07:40 15.02.2021
2546 Clear -12 1035 92 10000 2.57 160 06:59 15.02.2021
2547 Clear -12 1035 92 10000 2.57 160 06:39 15.02.2021
2548 Clear -11 1037 92 10000 2.57 180 02:32 15.02.2021
2549 Clear -11 1037 92 10000 2.57 180 02:32 15.02.2021
2550 Clear -10 1038 92 10000 1.54 150 00:55 15.02.2021
2551 Clear -10 1038 92 10000 2.57 170 23:42 14.02.2021
2552 Clear -10 1039 100 10000 1.54 160 23:22 14.02.2021
2553 Clear -8 1039 92 10000 1.54 170 22:39 14.02.2021
2554 Clear -8 1039 92 10000 1.03 0 22:19 14.02.2021
2555 Clear -8 1039 86 10000 1.54 170 21:48 14.02.2021
2556 Clear -8 1039 93 10000 2.57 160 21:29 14.02.2021
2557 Clear -7 1040 86 10000 1.54 160 20:52 14.02.2021
2558 Clear -7 1040 86 10000 1.03 140 20:27 14.02.2021
2559 Clear -8 1040 86 10000 0.51 90 19:49 14.02.2021
2560 Clear -7 1039 86 10000 1.03 120 18:58 14.02.2021
2561 Clear -7 1039 86 10000 1.03 120 18:37 14.02.2021
2562 Clear -6 1039 79 10000 0.51 0 17:57 14.02.2021
2563 Clear -5 1039 79 10000 0.51 0 17:39 14.02.2021
2564 Clear -4 1040 74 10000 1.03 30 16:57 14.02.2021
2565 Clear -4 1040 74 10000 1.03 30 16:38 14.02.2021
2566 Clear -3 1040 63 10000 1.54 360 16:18 14.02.2021
2567 Clear -2 1040 63 10000 1.03 30 15:40 14.02.2021
2568 Clear -2 1040 64 10000 1.54 30 14:51 14.02.2021
2569 Clear -2 1040 59 10000 1.54 10 14:27 14.02.2021
2570 Clear -3 1040 63 10000 2.06 350 13:55 14.02.2021
2571 Clear -4 1041 68 10000 2.57 280 13:31 14.02.2021
2572 Clouds -4 1041 68 10000 2.06 260 12:45 14.02.2021
2573 Clouds -4 1041 74 10000 2.06 280 12:21 14.02.2021
2574 Clouds -5 1041 74 10000 2.57 210 11:50 14.02.2021
2575 Clouds -6 1041 79 10000 3.09 210 11:22 14.02.2021
2576 Clouds -6 1041 79 10000 1.54 220 10:45 14.02.2021
2577 Clouds -7 1041 93 10000 0.76 257 09:57 14.02.2021
2578 Clouds -7 1041 93 10000 0.74 258 09:38 14.02.2021
2579 Snow -8 1041 93 8000 1.03 0 09:20 14.02.2021
2580 Snow -8 1041 92 10000 1.03 0 08:40 14.02.2021
2581 Snow -9 1041 92 10000 1.54 230 07:56 14.02.2021
2582 Snow -9 1041 92 7000 2.06 230 06:51 14.02.2021
2583 Snow -11 1041 93 8000 1.54 250 05:42 14.02.2021
2584 Clouds -10 1040 93 10000 1.03 0 03:32 14.02.2021
2585 Clouds -8 1041 93 10000 2.06 230 02:21 14.02.2021
2586 Mist -9 1041 92 5000 2.06 250 00:47 14.02.2021
2587 Mist -9 1041 92 4500 2.06 250 00:27 14.02.2021
2588 Mist -9 1041 92 4500 2.06 260 23:41 13.02.2021
2589 Clouds -9 1041 92 6000 2.06 250 23:21 13.02.2021
2590 Clouds -9 1041 92 8000 2.06 260 22:43 13.02.2021
2591 Clouds -9 1041 100 8000 2.06 250 22:20 13.02.2021
2592 Clouds -8 1040 100 8000 2.06 250 21:42 13.02.2021
2593 Clouds -9 1040 93 9000 2.06 250 21:21 13.02.2021
2594 Clouds -9 1040 93 10000 2.06 260 20:30 13.02.2021
2595 Clouds -8 1040 93 10000 1.54 270 19:57 13.02.2021
2596 Clouds -7 1040 93 10000 1.54 270 19:38 13.02.2021
2597 Clouds -7 1040 93 10000 1.03 0 19:18 13.02.2021
2598 Clouds -7 1040 86 10000 2.57 280 18:44 13.02.2021
2599 Clouds -7 1039 86 10000 2.06 280 18:22 13.02.2021
2600 Clouds -7 1039 93 10000 3.6 300 17:42 13.02.2021
2601 Clouds -7 1039 86 10000 2.57 300 17:22 13.02.2021
2602 Clouds -6 1039 80 10000 2.06 330 16:42 13.02.2021
2603 Clouds -5 1039 80 10000 2.57 310 16:21 13.02.2021
2604 Clouds -6 1039 80 10000 3.09 290 15:39 13.02.2021
2605 Clouds -6 1039 80 10000 2.06 330 14:58 13.02.2021
2606 Clouds -6 1039 80 10000 2.06 330 14:32 13.02.2021
2607 Snow -5 1039 80 10000 2.06 350 13:48 13.02.2021
2608 Snow -5 1039 80 10000 2.06 350 13:25 13.02.2021
2609 Snow -5 1039 86 10000 3.09 300 12:46 13.02.2021
2610 Snow -6 1039 93 8000 2.06 270 12:19 13.02.2021
2611 Snow -6 1039 93 7000 2.06 300 11:45 13.02.2021
2612 Snow -6 1039 93 8000 1.54 300 11:20 13.02.2021
2613 Snow -7 1039 92 8000 2.06 300 10:46 13.02.2021
2614 Snow -7 1038 92 10000 2.57 300 10:26 13.02.2021
2615 Clouds -7 1038 86 10000 2.06 290 09:56 13.02.2021
2616 Clouds -8 1038 92 10000 2.06 280 09:30 13.02.2021
2617 Clouds -9 1038 92 10000 2.06 290 08:59 13.02.2021
2618 Clouds -9 1038 92 10000 2.06 290 08:39 13.02.2021
2619 Snow -10 1038 92 6000 2.06 270 07:52 13.02.2021
2620 Mist -10 1037 92 2000 1.03 0 06:41 13.02.2021
2621 Snow -11 1037 92 1800 2.57 260 05:27 13.02.2021
2622 Mist -12 1036 100 5000 0.51 0 03:59 13.02.2021
2623 Clouds -10 1036 92 7000 2.06 290 01:49 13.02.2021
2624 Fog -10 1036 92 10000 2.06 280 00:51 13.02.2021
2625 Clouds -8 1036 92 10000 2.57 300 23:54 12.02.2021
2626 Clouds -9 1036 92 10000 2.57 310 23:28 12.02.2021
2627 Clouds -8 1036 86 10000 2.57 290 22:58 12.02.2021
2628 Clouds -9 1036 86 10000 2.57 280 22:29 12.02.2021
2629 Clouds -9 1035 86 10000 2.57 280 21:50 12.02.2021
2630 Clouds -10 1035 92 10000 2.57 270 21:29 12.02.2021
2631 Clouds -10 1035 92 10000 1.54 260 20:55 12.02.2021
2632 Clouds -9 1035 92 10000 1.54 260 20:37 12.02.2021
2633 Clouds -9 1035 92 10000 1.54 260 20:18 12.02.2021
2634 Clouds -8 1035 86 10000 1.54 250 19:43 12.02.2021
2635 Clouds -8 1035 86 10000 2.06 250 19:25 12.02.2021
2636 Clouds -7 1034 79 10000 1.03 250 18:30 12.02.2021
2637 Clouds -6 1034 86 10000 0.51 0 17:48 12.02.2021
2638 Clouds -6 1034 86 10000 1.54 360 17:25 12.02.2021
2639 Clouds -6 1034 86 10000 1.03 0 16:39 12.02.2021
2640 Clouds -6 1034 86 10000 2.06 320 15:47 12.02.2021
2641 Snow -6 1033 86 10000 2.57 330 15:21 12.02.2021
2642 Clouds -5 1034 86 10000 3.09 350 14:53 12.02.2021
2643 Snow -6 1033 86 10000 1.54 330 14:30 12.02.2021
2644 Snow -6 1033 86 10000 1.54 330 14:30 12.02.2021
2645 Snow -5 1033 93 4700 2.06 340 13:41 12.02.2021
2646 Snow -6 1033 93 4000 2.57 10 13:23 12.02.2021
2647 Fog -9 1033 100 700 2.57 320 12:50 12.02.2021
2648 Mist -6 1033 93 1200 3.09 330 12:31 12.02.2021
2649 Mist -7 1033 100 2700 3.09 320 11:46 12.02.2021
2650 Clouds -8 1032 93 6000 2.06 330 11:20 12.02.2021
2651 Snow -6 1032 93 4000 2.57 330 10:47 12.02.2021
2652 Fog -8 1032 93 600 2.57 350 09:53 12.02.2021
2653 Mist -9 1032 100 3000 2.57 350 09:29 12.02.2021
2654 Mist -7 1031 93 3500 1.03 0 08:57 12.02.2021
2655 Mist -7 1031 93 3500 1.03 0 08:39 12.02.2021
2656 Mist -9 1031 93 3500 1.54 270 08:18 12.02.2021
2657 Mist -9 1031 93 3500 2.06 290 07:50 12.02.2021
2658 Snow -9 1031 93 5000 0.51 270 06:57 12.02.2021
2659 Snow -9 1030 100 6000 0.51 80 05:49 12.02.2021
2660 Snow -9 1030 93 6000 0.51 0 05:24 12.02.2021
2661 Clouds -8 1030 93 8000 0.51 170 01:56 12.02.2021
2662 Clouds -9 1029 100 10000 1.03 260 23:45 11.02.2021
2663 Clouds -9 1029 100 10000 1.03 0 23:22 11.02.2021
2664 Clouds -9 1029 93 10000 2.06 280 22:58 11.02.2021
2665 Clouds -8 1029 93 10000 2.06 280 22:39 11.02.2021
2666 Clouds -8 1029 93 10000 2.06 290 22:21 11.02.2021
2667 Snow -8 1029 93 10000 1.03 280 21:39 11.02.2021
2668 Snow -7 1029 93 10000 1.54 270 21:20 11.02.2021
2669 Snow -7 1029 93 9000 0.51 0 20:46 11.02.2021
2670 Snow -6 1028 93 8000 1.03 0 20:22 11.02.2021
2671 Snow -6 1028 93 10000 1.54 290 19:50 11.02.2021
2672 Snow -6 1028 93 10000 1.54 290 19:31 11.02.2021
2673 Snow -5 1028 93 10000 1.54 280 18:58 11.02.2021
2674 Snow -5 1027 93 10000 1.03 0 18:30 11.02.2021
2675 Snow -5 1027 93 9000 2.06 300 17:58 11.02.2021
2676 Snow -5 1027 93 9000 2.06 300 17:36 11.02.2021
2677 Snow -4 1027 93 3800 3.09 320 17:18 11.02.2021
2678 Snow -4 1026 86 6000 3.09 320 16:41 11.02.2021
2679 Snow -4 1026 86 4700 4.12 310 16:22 11.02.2021
2680 Snow -4 1026 86 7000 4.12 310 15:44 11.02.2021
2681 Snow -4 1026 86 10000 4.12 310 15:26 11.02.2021
2682 Snow -4 1025 86 5000 4.63 310 14:51 11.02.2021
2683 Snow -4 1025 86 10000 4.12 300 14:30 11.02.2021
2684 Snow -4 1025 86 10000 3.6 310 13:42 11.02.2021
2685 Snow -4 1024 86 10000 4.12 310 13:19 11.02.2021
2686 Snow -4 1024 86 10000 3.09 320 12:53 11.02.2021
2687 Snow -5 1024 86 10000 3.6 310 12:30 11.02.2021
2688 Snow -5 1024 93 9000 3.6 320 11:47 11.02.2021
2689 Snow -5 1024 93 5000 3.6 320 11:25 11.02.2021
2690 Snow -5 1023 93 3800 3.6 310 10:45 11.02.2021
2691 Snow -6 1023 93 6000 3.09 310 10:26 11.02.2021
2692 Snow -6 1023 93 5000 3.09 300 09:54 11.02.2021
2693 Snow -9 1022 93 4200 2.06 290 09:24 11.02.2021
2694 Snow -7 1022 100 3500 2.57 300 08:54 11.02.2021
2695 Mist -8 1022 93 3500 2.57 290 08:28 11.02.2021
2696 Snow -9 1021 93 4000 2.06 280 07:39 11.02.2021
2697 Snow -10 1020 92 5000 2.57 280 06:41 11.02.2021
2698 Snow -9 1020 86 8000 2.06 280 05:38 11.02.2021
2699 Clouds -11 1017 85 6000 2.06 290 02:29 11.02.2021
2700 Clouds -12 1017 92 6000 2.57 280 01:29 11.02.2021
2701 Mist -11 1016 92 5000 1.54 300 00:22 11.02.2021
2702 Clouds -10 1016 92 6000 2.06 300 23:45 10.02.2021
2703 Clouds -10 1015 92 6000 2.57 290 23:18 10.02.2021
2704 Snow -10 1015 85 7000 2.57 280 22:42 10.02.2021
2705 Snow -10 1015 85 7000 2.06 280 22:18 10.02.2021
2706 Clouds -10 1014 85 7000 2.06 270 21:39 10.02.2021
2707 Clouds -10 1014 92 7000 2.06 290 21:19 10.02.2021
2708 Clouds -10 1013 85 8000 2.06 290 20:47 10.02.2021
2709 Snow -10 1013 85 7000 2.06 270 20:24 10.02.2021
2710 Snow -9 1013 85 8000 2.06 280 19:48 10.02.2021
2711 Snow -10 1013 85 7000 1.54 290 19:27 10.02.2021
2712 Clouds -10 1012 79 8000 2.06 280 18:47 10.02.2021
2713 Clouds -10 1012 79 8000 1.54 280 18:26 10.02.2021
2714 Clouds -10 1011 79 8000 0.51 270 17:57 10.02.2021
2715 Clouds -9 1011 85 8000 1.54 300 17:26 10.02.2021
2716 Clouds -9 1010 79 8000 2.06 310 16:57 10.02.2021
2717 Clouds -9 1010 79 8000 2.06 310 16:38 10.02.2021
2718 Clouds -9 1010 79 8000 2.57 330 16:19 10.02.2021
2719 Clouds -10 1009 79 8000 3.09 340 15:24 10.02.2021
2720 Clouds -8 1009 73 8000 2.06 350 14:53 10.02.2021
2721 Clouds -10 1009 73 8000 2.06 350 14:34 10.02.2021
2722 Clouds -9 1009 73 8000 0.51 0 13:55 10.02.2021
2723 Clouds -9 1009 79 8000 1.54 360 13:30 10.02.2021
2724 Clouds -9 1008 85 8000 1.54 260 12:54 10.02.2021
2725 Clouds -10 1008 85 8000 1.54 290 12:31 10.02.2021
2726 Clouds -10 1008 79 8000 1.54 210 11:59 10.02.2021
2727 Clouds -10 1008 79 8000 1.54 210 11:39 10.02.2021
2728 Clouds -11 1008 85 8000 2.06 310 11:21 10.02.2021
2729 Mist -12 1008 79 3500 1.54 210 10:25 10.02.2021
2730 Snow -14 1008 85 5000 1.03 230 09:57 10.02.2021
2731 Snow -14 1008 85 5000 1.03 230 09:33 10.02.2021
2732 Clouds -15 1007 85 6000 1.03 190 08:57 10.02.2021
2733 Clouds -15 1007 85 6000 1.03 190 08:39 10.02.2021
2734 Mist -15 1007 92 5000 1.03 270 07:52 10.02.2021
2735 Snow -15 1007 85 5000 1.54 220 06:44 10.02.2021
2736 Mist -16 1007 92 5000 1.03 230 02:26 10.02.2021
2737 Clouds -15 1007 92 8000 2.57 220 00:24 10.02.2021
2738 Clouds -14 1007 92 8000 2.57 220 23:34 09.02.2021
2739 Clouds -13 1007 85 8000 2.06 250 22:54 09.02.2021
2740 Snow -13 1007 92 8000 2.06 250 22:24 09.02.2021
2741 Snow -13 1007 85 9000 1.54 260 21:52 09.02.2021
2742 Snow -14 1007 85 9000 1.54 260 21:32 09.02.2021
2743 Snow -14 1007 85 10000 1.54 260 20:49 09.02.2021
2744 Clouds -14 1007 85 10000 1.54 250 20:26 09.02.2021
2745 Clouds -13 1007 85 10000 2.06 260 19:58 09.02.2021
2746 Clouds -13 1007 85 10000 2.06 260 19:36 09.02.2021
2747 Clouds -13 1007 85 10000 1.54 260 18:58 09.02.2021
2748 Clouds -13 1007 85 10000 1.54 260 18:58 09.02.2021
2749 Clouds -13 1007 85 10000 1.54 260 18:58 09.02.2021
2750 Clouds -13 1007 85 10000 1.54 260 18:58 09.02.2021
2751 Clouds -13 1007 85 10000 1.54 260 18:36 09.02.2021
2752 Clouds -12 1006 79 10000 1.03 310 17:57 09.02.2021
2753 Clouds -12 1006 79 10000 1.03 310 17:39 09.02.2021
2754 Clouds -12 1006 79 10000 1.54 320 17:20 09.02.2021
2755 Clouds -11 1005 79 10000 1.54 340 16:42 09.02.2021
2756 Clouds -9 1005 79 10000 1.54 330 16:18 09.02.2021
2757 Snow -11 1005 79 9000 1.54 330 15:50 09.02.2021
2758 Clouds -8 1004 79 10000 1.54 340 15:25 09.02.2021
2759 Snow -10 1004 79 9000 2.06 350 14:54 09.02.2021
2760 Snow -9 1004 79 9000 2.06 350 14:28 09.02.2021
2761 Clouds -10 1004 79 10000 2.06 350 13:52 09.02.2021
2762 Clouds -11 1004 79 10000 2.06 340 13:25 09.02.2021
2763 Clouds -10 1004 79 9000 2.06 350 12:54 09.02.2021
2764 Clouds -9 1004 79 9000 2.06 350 12:36 09.02.2021
2765 Snow -10 1004 73 7000 1.54 320 11:58 09.02.2021
2766 Snow -8 1004 73 7000 1.54 320 11:39 09.02.2021
2767 Snow -9 1004 79 5000 1.03 0 11:20 09.02.2021
2768 Snow -10 1004 85 3000 1.54 300 10:50 09.02.2021
2769 Snow -11 1003 85 2000 1.54 340 10:19 09.02.2021
2770 Snow -11 1003 85 4500 1.54 310 09:43 09.02.2021
2771 Snow -12 1003 92 5000 1.03 320 09:25 09.02.2021
2772 Snow -12 1003 92 6000 1.54 320 08:47 09.02.2021
2773 Snow -12 1002 92 5000 1.54 310 08:26 09.02.2021
2774 Snow -13 1002 92 7000 1.54 310 06:49 09.02.2021
2775 Snow -12 1001 85 1200 1.54 320 04:53 09.02.2021
2776 Snow -12 1000 92 1500 1.54 330 03:41 09.02.2021
2777 Clouds -12 1000 85 10000 1.03 20 00:39 09.02.2021
2778 Clouds -12 1000 85 10000 2.06 30 23:57 08.02.2021
2779 Clouds -12 1000 85 10000 1.54 40 23:22 08.02.2021
2780 Clouds -12 1000 85 10000 2.06 30 22:44 08.02.2021
2781 Clouds -12 1000 85 10000 2.06 40 22:26 08.02.2021
2782 Snow -12 1000 85 9000 2.06 40 21:58 08.02.2021
2783 Snow -12 1000 85 9000 2.06 40 21:36 08.02.2021
2784 Snow -12 1000 85 8000 1.54 20 21:18 08.02.2021
2785 Snow -12 1000 85 9000 1.54 20 20:42 08.02.2021
2786 Snow -10 1000 85 10000 1.54 340 20:21 08.02.2021
2787 Snow -10 1000 85 10000 1.54 330 19:48 08.02.2021
2788 Snow -10 1000 85 10000 1.54 360 19:26 08.02.2021
2789 Snow -10 1000 85 10000 2.06 30 18:49 08.02.2021
2790 Snow -9 1000 85 6000 1.54 30 18:25 08.02.2021
2791 Snow -9 1000 85 8000 1.54 350 17:47 08.02.2021
2792 Snow -8 999 85 10000 1.54 10 17:26 08.02.2021
2793 Snow -8 999 79 10000 1.54 10 16:57 08.02.2021
2794 Snow -8 999 79 10000 1.54 10 16:39 08.02.2021
2795 Clouds -8 999 73 10000 2.06 50 16:18 08.02.2021
2796 Clouds -7 999 73 10000 2.06 60 15:37 08.02.2021
2797 Snow -7 999 73 10000 2.57 70 15:18 08.02.2021
2798 Snow -7 999 73 10000 3.6 60 14:48 08.02.2021
2799 Snow -7 999 73 9000 3.6 60 14:28 08.02.2021
2800 Snow -7 999 73 8000 3.6 40 13:46 08.02.2021
2801 Snow -7 999 73 8000 4.12 30 13:27 08.02.2021
2802 Snow -8 999 79 10000 3.6 40 12:39 08.02.2021
2803 Snow -8 1000 79 8000 4.12 40 11:59 08.02.2021
2804 Snow -8 1000 79 8000 4.12 40 11:35 08.02.2021
2805 Snow -8 999 79 10000 4.63 60 10:47 08.02.2021
2806 Snow -9 999 85 4500 4.12 40 10:26 08.02.2021
2807 Snow -9 999 85 2000 4.12 50 09:56 08.02.2021
2808 Snow -9 999 85 2000 4.12 50 09:36 08.02.2021
2809 Snow -9 999 85 2000 4.12 50 09:36 08.02.2021
2810 Snow -9 999 85 2000 4.12 50 09:36 08.02.2021
2811 Snow -9 999 85 1100 3.09 50 08:57 08.02.2021
2812 Snow -9 999 85 1300 4.12 60 08:26 08.02.2021
2813 Snow -9 999 85 1200 5.66 60 07:42 08.02.2021
2814 Snow -9 999 92 1200 5.66 50 06:38 08.02.2021
2815 Snow -9 999 86 700 5.66 60 05:18 08.02.2021
2816 Snow -8 1000 86 1400 6.17 70 02:27 08.02.2021
2817 Snow -7 1000 86 1600 8.75 80 00:25 08.02.2021
2818 Snow -7 1000 86 1300 10.8 70 23:55 07.02.2021
2819 Snow -7 1000 79 3300 11.32 70 23:28 07.02.2021
2820 Snow -7 1001 79 4000 11.32 80 22:59 07.02.2021
2821 Snow -7 1001 79 4000 11.32 80 22:41 07.02.2021
2822 Snow -7 1002 86 2900 9.26 70 22:22 07.02.2021
2823 Snow -7 1001 86 7000 9.77 70 21:50 07.02.2021
2824 Snow -7 1002 86 10000 10.29 70 21:25 07.02.2021
2825 Snow -7 1002 79 8000 9.77 70 20:51 07.02.2021
2826 Snow -7 1002 79 8000 9.77 70 20:32 07.02.2021
2827 Snow -7 1002 79 5000 10.29 80 19:54 07.02.2021
2828 Clouds -7 1003 79 10000 9.77 80 19:29 07.02.2021
2829 Clouds -7 1003 79 10000 9.77 80 18:51 07.02.2021
2830 Clouds -7 1003 79 10000 9.77 80 18:31 07.02.2021
2831 Clouds -7 1003 79 10000 8.75 80 17:59 07.02.2021
2832 Clouds -7 1003 79 10000 8.75 80 17:40 07.02.2021
2833 Clouds -6 1003 79 10000 8.75 80 17:18 07.02.2021
2834 Clouds -6 1003 79 10000 8.75 80 17:18 07.02.2021
2835 Clouds -6 1003 79 10000 8.75 90 16:44 07.02.2021
2836 Clouds -6 1003 79 10000 9.26 80 16:22 07.02.2021
2837 Clouds -6 1003 79 10000 10.29 80 15:47 07.02.2021
2838 Clouds -6 1003 79 10000 9.77 90 15:28 07.02.2021
2839 Clouds -6 1003 79 10000 9.77 90 14:47 07.02.2021
2840 Clouds -6 1003 79 10000 11.32 80 14:29 07.02.2021
2841 Clouds -6 1004 79 10000 10.8 80 13:52 07.02.2021
2842 Clouds -5 1004 79 10000 10.8 80 13:34 07.02.2021
2843 Snow -6 1004 79 10000 9.77 90 12:46 07.02.2021
2844 Snow -6 1004 79 5000 10.8 90 12:23 07.02.2021
2845 Snow -6 1004 79 5000 10.8 90 12:23 07.02.2021
2846 Snow -6 1004 79 6000 10.8 80 11:53 07.02.2021
2847 Snow -5 1005 86 4000 10.29 90 11:27 07.02.2021
2848 Snow -6 1005 86 2300 9.26 80 10:51 07.02.2021
2849 Snow -6 1006 86 1800 8.75 90 10:27 07.02.2021
2850 Snow -6 1006 86 2500 10.29 90 09:49 07.02.2021
2851 Snow -6 1006 86 4000 9.26 90 09:24 07.02.2021
2852 Snow -6 1006 86 4000 9.77 80 08:36 07.02.2021
2853 Snow -6 1007 86 3500 8.75 90 07:47 07.02.2021
2854 Snow -5 1007 86 2000 9.77 70 05:58 07.02.2021
2855 Snow -4 1008 86 3400 8.75 80 03:59 07.02.2021
2856 Snow -3 1010 86 1000 9.77 70 01:51 07.02.2021
2857 Snow -3 1010 80 7000 10.29 80 00:36 07.02.2021
2858 Snow -2 1011 86 6000 9.77 80 23:50 06.02.2021
2859 Snow -2 1012 93 1800 8.23 80 22:52 06.02.2021
2860 Snow -2 1012 93 2800 9.77 80 21:57 06.02.2021
2861 Snow -2 1012 93 2800 9.77 80 21:36 06.02.2021
2862 Snow -2 1012 86 2600 8.23 90 21:18 06.02.2021
2863 Snow -2 1013 86 2600 9.26 80 20:43 06.02.2021
2864 Snow -2 1013 86 2800 8.23 80 20:20 06.02.2021
2865 Snow -2 1013 86 4000 7.2 90 19:45 06.02.2021
2866 Snow -2 1013 80 4000 8.23 90 19:22 06.02.2021
2867 Snow -2 1013 80 4500 9.26 80 18:43 06.02.2021
2868 Snow -1 1013 74 7000 9.26 80 18:24 06.02.2021
2869 Snow -1 1013 74 8000 7.72 90 17:41 06.02.2021
2870 Snow -1 1013 74 8000 8.75 80 17:21 06.02.2021
2871 Snow -1 1013 80 6000 9.26 80 16:50 06.02.2021
2872 Snow -1 1014 80 3000 8.75 80 16:30 06.02.2021
2873 Snow -1 1014 86 2500 8.75 80 15:52 06.02.2021
2874 Snow 0 1014 86 2500 8.75 80 15:33 06.02.2021
2875 Snow 0 1014 86 4800 8.75 80 14:59 06.02.2021
2876 Snow 0 1014 86 4800 8.75 80 14:39 06.02.2021
2877 Snow 0 1014 86 2500 8.23 80 14:21 06.02.2021
2878 Snow 0 1014 86 2000 7.72 90 13:44 06.02.2021
2879 Snow 0 1014 86 8000 8.23 80 12:41 06.02.2021
2880 Snow 0 1014 86 8000 8.23 70 12:20 06.02.2021
2881 Clouds 0 1015 86 8000 7.2 70 11:40 06.02.2021
2882 Clouds 0 1015 86 8000 7.2 80 11:20 06.02.2021
2883 Clouds 0 1015 93 8000 6.69 80 10:53 06.02.2021
2884 Clouds 0 1015 93 8000 5.66 80 10:27 06.02.2021
2885 Clouds 0 1015 93 8000 6.69 90 09:38 06.02.2021
2886 Mist 0 1015 93 5000 5.66 80 09:19 06.02.2021
2887 Snow 0 1015 93 3000 5.66 80 08:59 06.02.2021
2888 Snow 0 1014 93 3000 6.17 80 08:29 06.02.2021
2889 Mist 0 1014 100 4500 5.14 90 07:20 06.02.2021
2890 Mist 1 1014 93 4000 5.66 70 05:42 06.02.2021
2891 Mist 2 1014 93 4000 5.66 70 03:47 06.02.2021
2892 Mist 2 1014 100 4500 4.63 100 01:30 06.02.2021
2893 Mist 2 1014 100 4500 4.12 100 00:45 06.02.2021
2894 Mist 2 1014 100 5000 5.14 80 00:18 06.02.2021
2895 Clouds 2 1015 100 6000 4.63 90 23:42 05.02.2021
2896 Clouds 2 1014 100 6000 4.63 90 23:24 05.02.2021
2897 Clouds 2 1015 100 6000 4.12 90 22:45 05.02.2021
2898 Clouds 2 1015 100 6000 4.12 80 22:18 05.02.2021
2899 Clouds 3 1015 100 6000 4.12 80 21:40 05.02.2021
2900 Mist 3 1015 93 4500 3.6 90 20:59 05.02.2021
2901 Rain 3 1015 93 4500 3.6 90 20:39 05.02.2021
2902 Rain 3 1015 93 3000 5.14 90 19:50 05.02.2021
2903 Rain 3 1015 93 3000 5.14 100 19:19 05.02.2021
2904 Rain 3 1015 93 3000 5.14 100 19:19 05.02.2021
2905 Rain 3 1015 100 3000 5.66 90 18:52 05.02.2021
2906 Rain 3 1015 100 3000 4.12 100 18:20 05.02.2021
2907 Mist 4 1015 100 3000 4.63 90 17:44 05.02.2021
2908 Mist 4 1015 93 3000 5.14 80 17:21 05.02.2021
2909 Rain 4 1014 93 6000 5.66 80 16:49 05.02.2021
2910 Rain 5 1015 93 7000 5.14 90 16:24 05.02.2021
2911 Rain 5 1015 93 8000 5.66 90 15:54 05.02.2021
2912 Clouds 5 1015 93 10000 6.17 90 15:26 05.02.2021
2913 Clouds 5 1015 93 10000 4.63 90 14:41 05.02.2021
2914 Clouds 5 1015 93 10000 5.14 80 14:23 05.02.2021
2915 Clouds 5 1015 93 10000 5.14 80 14:23 05.02.2021
2916 Clouds 5 1015 93 10000 5.66 90 13:59 05.02.2021
2917 Clouds 5 1015 93 10000 5.66 90 13:59 05.02.2021
2918 Clouds 5 1015 93 10000 5.66 90 13:36 05.02.2021
2919 Clouds 5 1016 93 10000 4.63 80 12:56 05.02.2021
2920 Clouds 5 1016 93 10000 4.63 80 12:37 05.02.2021
2921 Clouds 5 1016 93 10000 4.63 90 11:42 05.02.2021
2922 Clouds 4 1016 100 8000 4.12 100 11:22 05.02.2021
2923 Clouds 4 1016 93 6000 4.12 100 10:59 05.02.2021
2924 Clouds 3 1016 100 6000 4.12 90 10:27 05.02.2021
2925 Mist 2 1016 100 4000 3.6 100 09:57 05.02.2021
2926 Mist 2 1016 100 4000 3.6 100 09:39 05.02.2021
2927 Mist 1 1016 100 3000 3.6 90 09:20 05.02.2021
2928 Mist 1 1016 100 2000 3.09 90 08:36 05.02.2021
2929 Mist 1 1016 100 1200 3.09 80 07:39 05.02.2021
2930 Fog 1 1016 100 250 3.09 80 06:58 05.02.2021
2931 Fog 2 1015 100 350 2.57 80 05:40 05.02.2021
2932 Fog 2 1015 100 400 2.06 90 04:50 05.02.2021
2933 Fog 2 1016 100 250 1.54 90 02:25 05.02.2021
2934 Clouds 3 1016 100 10000 2.06 50 00:41 05.02.2021
2935 Clouds 3 1016 100 10000 1.54 60 00:21 05.02.2021
2936 Clouds 4 1016 93 10000 1.03 0 23:59 04.02.2021
2937 Clouds 4 1016 93 10000 1.03 0 23:40 04.02.2021
2938 Clouds 4 1016 93 10000 1.03 0 23:40 04.02.2021
2939 Clouds 4 1016 100 10000 0.51 130 23:22 04.02.2021
2940 Clouds 4 1016 100 10000 1.54 160 22:52 04.02.2021
2941 Clouds 4 1016 93 10000 1.54 130 22:30 04.02.2021
2942 Clouds 4 1016 93 10000 0.51 0 21:43 04.02.2021
2943 Clouds 4 1016 93 10000 0.51 0 21:23 04.02.2021
2944 Clouds 4 1016 100 10000 1.54 190 20:56 04.02.2021
2945 Clouds 4 1016 100 10000 0.51 0 20:34 04.02.2021
2946 Clouds 5 1016 93 10000 1.03 0 19:51 04.02.2021
2947 Clouds 5 1016 93 10000 2.06 40 19:23 04.02.2021
2948 Clouds 5 1016 100 4000 2.06 40 18:41 04.02.2021
2949 Clouds 5 1015 100 6000 2.06 20 18:22 04.02.2021
2950 Clouds 6 1015 100 10000 1.54 20 17:45 04.02.2021
2951 Clouds 6 1015 100 10000 2.06 340 17:22 04.02.2021
2952 Clouds 7 1014 87 4500 3.6 300 16:49 04.02.2021
2953 Clouds 7 1014 87 10000 2.06 330 16:20 04.02.2021
2954 Clouds 7 1014 93 10000 5.14 350 15:41 04.02.2021
2955 Clouds 8 1014 76 10000 2.06 0 15:21 04.02.2021
2956 Clouds 8 1013 76 10000 3.09 300 14:58 04.02.2021
2957 Clouds 8 1013 76 10000 3.09 300 14:40 04.02.2021
2958 Clouds 7 1013 87 10000 3.6 310 14:20 04.02.2021
2959 Clouds 8 1013 81 10000 5.66 270 13:44 04.02.2021
2960 Clouds 8 1012 81 10000 5.66 270 12:58 04.02.2021
2961 Clouds 7 1012 81 10000 5.66 270 12:33 04.02.2021
2962 Clouds 7 1012 87 10000 5.14 270 11:53 04.02.2021
2963 Clouds 7 1012 87 10000 5.14 270 11:33 04.02.2021
2964 Clouds 7 1011 87 10000 4.12 260 10:50 04.02.2021
2965 Clouds 7 1010 87 10000 5.14 270 10:21 04.02.2021
2966 Clouds 6 1010 93 10000 5.66 270 09:44 04.02.2021
2967 Clouds 6 1009 93 10000 4.63 280 09:19 04.02.2021
2968 Rain 6 1009 93 10000 6.69 280 08:48 04.02.2021
2969 Rain 6 1008 93 10000 7.2 270 08:24 04.02.2021
2970 Rain 6 1007 93 10000 6.17 270 07:50 04.02.2021
2971 Clouds 6 1007 93 10000 6.17 270 07:32 04.02.2021
2972 Rain 6 1006 93 10000 5.14 270 06:43 04.02.2021
2973 Clouds 5 1004 93 10000 3.6 270 05:31 04.02.2021
2974 Rain 8 998 87 10000 7.72 270 02:29 04.02.2021
2975 Rain 8 997 87 10000 4.63 240 01:20 04.02.2021
2976 Rain 8 997 76 10000 8.23 230 23:53 03.02.2021
2977 Clear 8 996 76 10000 8.23 230 23:30 03.02.2021
2978 Clouds 8 997 81 10000 7.2 230 22:37 03.02.2021
2979 Clouds 8 997 87 10000 6.69 220 22:19 03.02.2021
2980 Clouds 7 997 87 10000 6.17 220 21:42 03.02.2021
2981 Clouds 8 997 87 10000 5.66 230 21:23 03.02.2021
2982 Clouds 8 997 76 10000 5.14 240 20:50 03.02.2021
2983 Rain 8 997 81 10000 6.69 230 20:31 03.02.2021
2984 Clouds 8 996 87 10000 6.69 200 19:55 03.02.2021
2985 Clouds 8 996 87 10000 6.17 220 19:25 03.02.2021
2986 Clouds 8 995 93 10000 7.2 180 18:57 03.02.2021
2987 Rain 8 996 93 10000 6.17 170 18:37 03.02.2021
2988 Rain 8 996 93 10000 6.17 170 18:19 03.02.2021
2989 Rain 8 996 93 10000 5.66 160 17:44 03.02.2021
2990 Rain 8 997 93 10000 5.14 170 17:24 03.02.2021
2991 Rain 8 997 87 10000 3.6 150 16:43 03.02.2021
2992 Rain 9 998 81 10000 3.6 130 16:23 03.02.2021
2993 Clouds 8 998 81 10000 2.57 160 15:41 03.02.2021
2994 Clouds 9 999 87 10000 3.09 160 15:22 03.02.2021
2995 Clouds 9 999 87 10000 5.14 180 14:47 03.02.2021
2996 Clouds 9 999 87 10000 3.6 180 14:24 03.02.2021
2997 Rain 9 1000 81 10000 2.57 140 13:49 03.02.2021
2998 Rain 9 1001 81 10000 3.09 160 13:21 03.02.2021
2999 Rain 9 1001 76 10000 3.6 220 12:46 03.02.2021
3000 Rain 9 1001 76 10000 5.14 210 12:21 03.02.2021
3001 Clouds 9 1002 81 10000 4.12 200 11:43 03.02.2021
3002 Rain 9 1001 81 10000 5.14 190 11:24 03.02.2021
3003 Clear 9 1001 76 10000 4.63 190 10:52 03.02.2021
3004 Clear 9 1001 81 10000 5.14 190 10:21 03.02.2021
3005 Clear 9 1002 81 10000 5.14 190 09:46 03.02.2021
3006 Clear 8 1002 87 10000 6.17 200 09:27 03.02.2021
3007 Clear 7 1002 87 10000 5.66 190 08:49 03.02.2021
3008 Clear 6 1002 87 10000 3.6 180 08:24 03.02.2021
3009 Clear 7 1001 87 10000 4.12 200 07:39 03.02.2021
3010 Clear 6 1001 93 10000 5.66 180 06:40 03.02.2021
3011 Clouds 6 1002 93 10000 3.6 170 04:52 03.02.2021
3012 Clouds 6 1002 87 10000 3.6 200 04:29 03.02.2021
3013 Clouds 5 1001 93 10000 3.6 220 02:53 03.02.2021
3014 Clouds 7 1001 93 10000 4.12 220 02:26 03.02.2021
3015 Clouds 6 1000 87 10000 4.12 210 00:30 03.02.2021
3016 Clouds 6 1000 93 10000 3.6 200 23:53 02.02.2021
3017 Clouds 6 1000 100 10000 3.09 200 23:29 02.02.2021
3018 Clouds 6 1000 100 10000 3.6 210 22:59 02.02.2021
3019 Clouds 5 1000 93 7000 4.12 220 22:22 02.02.2021
3020 Clouds 5 1000 87 10000 4.12 200 21:55 02.02.2021
3021 Clouds 5 1000 87 10000 3.6 200 21:30 02.02.2021
3022 Clouds 5 1000 81 10000 5.66 180 20:59 02.02.2021
3023 Clouds 4 1000 81 10000 5.66 180 20:41 02.02.2021
3024 Clouds 4 1000 87 10000 4.63 170 20:19 02.02.2021
3025 Clouds 4 1000 87 10000 5.66 160 19:47 02.02.2021
3026 Clouds 4 1000 87 10000 5.14 150 19:29 02.02.2021
3027 Clouds 4 1000 87 10000 4.12 160 18:44 02.02.2021
3028 Clouds 4 1000 87 10000 4.63 150 18:25 02.02.2021
3029 Clouds 4 1000 87 10000 4.63 150 18:25 02.02.2021
3030 Clouds 3 1000 93 10000 4.63 140 17:50 02.02.2021
3031 Clear 3 1001 93 10000 3.6 150 17:23 02.02.2021
3032 Clouds 3 1001 93 10000 4.12 160 16:57 02.02.2021
3033 Clouds 3 1001 93 10000 4.12 160 16:38 02.02.2021
3034 Rain 4 1001 87 10000 3.09 150 16:18 02.02.2021
3035 Rain 4 1002 81 10000 4.12 150 15:42 02.02.2021
3036 Rain 4 1002 87 10000 4.12 150 15:21 02.02.2021
3037 Rain 4 1002 81 10000 0.51 0 14:41 02.02.2021
3038 Clouds 4 1003 81 10000 1.54 140 14:19 02.02.2021
3039 Clouds 4 1003 81 10000 2.06 170 13:54 02.02.2021
3040 Clouds 4 1003 81 10000 2.06 170 13:36 02.02.2021
3041 Clouds 4 1003 81 10000 2.06 200 13:18 02.02.2021
3042 Clouds 4 1004 87 10000 3.6 200 12:31 02.02.2021
3043 Clouds 4 1003 87 10000 3.09 200 11:44 02.02.2021
3044 Clouds 3 1004 87 10000 3.09 190 11:22 02.02.2021
3045 Clouds 3 1004 93 10000 4.12 200 10:53 02.02.2021
3046 Clouds 3 1004 93 10000 2.57 210 10:27 02.02.2021
3047 Clouds 2 1003 93 10000 3.09 200 09:46 02.02.2021
3048 Clouds 2 1004 100 10000 3.6 210 09:25 02.02.2021
3049 Clouds 2 1003 93 8000 3.09 220 08:54 02.02.2021
3050 Clouds 2 1003 93 8000 2.57 210 08:25 02.02.2021
3051 Rain 2 1003 87 10000 3.09 210 07:29 02.02.2021
3052 Clouds 2 1002 87 10000 3.09 210 06:43 02.02.2021
3053 Snow 2 1002 93 10000 3.6 200 05:53 02.02.2021
3054 Snow 2 1001 93 9000 3.09 220 04:57 02.02.2021
3055 Rain 2 1000 86 10000 1.54 170 02:26 02.02.2021
3056 Rain 2 1000 80 10000 3.09 170 01:55 02.02.2021
3057 Clouds 1 999 80 10000 4.63 160 00:34 02.02.2021
3058 Clouds 1 999 75 10000 5.14 160 23:19 01.02.2021
3059 Clouds 1 999 75 10000 5.14 160 22:50 01.02.2021
3060 Clouds 1 999 75 10000 5.14 160 22:32 01.02.2021
3061 Clouds 1 998 69 10000 6.17 160 21:53 01.02.2021
3062 Clouds 1 998 69 10000 6.17 160 21:34 01.02.2021
3063 Snow 1 998 69 10000 6.69 170 20:57 01.02.2021
3064 Snow 1 998 69 10000 6.69 170 20:37 01.02.2021
3065 Snow 1 998 69 10000 7.72 170 20:19 01.02.2021
3066 Snow 1 998 69 10000 8.23 160 19:39 01.02.2021
3067 Snow 1 997 60 10000 7.72 160 19:20 01.02.2021
3068 Rain 1 997 55 10000 8.23 170 18:49 01.02.2021
3069 Clear 1 997 60 10000 7.2 170 18:27 01.02.2021
3070 Clear 1 997 55 10000 6.69 170 17:47 01.02.2021
3071 Clear 1 996 55 10000 4.63 160 17:24 01.02.2021
3072 Clear 1 996 55 10000 6.17 150 16:55 01.02.2021
3073 Clear 1 996 60 10000 5.66 150 16:29 01.02.2021
3074 Clear 1 996 60 10000 6.17 140 15:44 01.02.2021
3075 Clear 1 996 55 10000 6.69 130 15:19 01.02.2021
3076 Clear 2 996 55 10000 5.14 140 14:52 01.02.2021
3077 Clear 2 996 55 10000 5.14 140 14:33 01.02.2021
3078 Clear 2 996 60 10000 9.77 140 13:50 01.02.2021
3079 Clear 2 996 60 10000 8.75 150 13:27 01.02.2021
3080 Clear 1 996 60 10000 9.26 140 12:58 01.02.2021
3081 Clear 1 996 60 10000 9.26 140 12:40 01.02.2021
3082 Clear 1 997 60 10000 9.26 150 12:21 01.02.2021
3083 Clear 1 997 64 10000 8.23 150 11:40 01.02.2021
3084 Clear 0 997 64 10000 8.23 150 11:19 01.02.2021
3085 Clear -1 997 69 10000 7.2 140 10:44 01.02.2021
3086 Clear -1 997 64 10000 7.72 150 10:19 01.02.2021
3087 Clear -3 997 68 10000 7.2 140 09:43 01.02.2021
3088 Clear -3 997 63 10000 7.72 150 09:20 01.02.2021
3089 Clouds -4 997 68 10000 6.69 140 08:44 01.02.2021
3090 Clear -4 997 68 10000 6.17 140 07:37 01.02.2021
3091 Clear -5 997 68 10000 6.17 130 05:59 01.02.2021
3092 Clear -5 999 74 10000 5.66 140 02:49 01.02.2021
3093 Clear -6 1000 80 10000 5.14 140 00:58 01.02.2021
3094 Clear -6 1001 80 10000 5.66 140 23:42 31.01.2021
3095 Clear -5 1002 74 10000 5.66 150 22:43 31.01.2021
3096 Clear -5 1002 74 10000 6.69 150 22:24 31.01.2021
3097 Clear -5 1002 74 10000 5.66 140 21:52 31.01.2021
3098 Clear -5 1002 74 10000 5.14 150 21:25 31.01.2021
3099 Clear -5 1002 74 10000 4.63 140 20:57 31.01.2021
3100 Clear -5 1002 74 10000 4.63 140 20:37 31.01.2021
3101 Clear -5 1002 74 10000 4.12 140 20:18 31.01.2021
3102 Clear -5 1003 74 10000 4.12 150 19:37 31.01.2021
3103 Clear -4 1003 68 10000 3.6 140 19:19 31.01.2021
3104 Clear -4 1003 68 10000 3.6 140 19:19 31.01.2021
3105 Clear -4 1003 68 10000 2.57 140 18:41 31.01.2021
3106 Clear -3 1003 68 10000 2.57 130 18:23 31.01.2021
3107 Clear -3 1003 69 10000 1.54 120 17:49 31.01.2021
3108 Clear -2 1004 69 10000 1.54 110 17:24 31.01.2021
3109 Clear -2 1004 69 10000 2.06 120 16:52 31.01.2021
3110 Clear -1 1004 69 10000 3.09 130 16:34 31.01.2021
3111 Clear 0 1004 69 10000 2.06 60 15:54 31.01.2021
3112 Clear 0 1004 69 10000 2.06 60 15:35 31.01.2021
3113 Clear 0 1005 69 10000 1.54 40 14:50 31.01.2021
3114 Clear -1 1005 69 10000 1.03 20 14:28 31.01.2021
3115 Clear -1 1005 69 10000 1.54 360 13:57 31.01.2021
3116 Clear -1 1005 69 10000 1.54 360 13:38 31.01.2021
3117 Clear -1 1005 69 10000 1.03 0 12:57 31.01.2021
3118 Clear -1 1005 69 10000 1.03 0 12:38 31.01.2021
3119 Clear -2 1005 74 10000 1.54 210 12:20 31.01.2021
3120 Clear -4 1006 74 10000 1.54 160 11:38 31.01.2021
3121 Clear -4 1006 74 10000 2.57 170 11:19 31.01.2021
3122 Clear -4 1006 80 10000 1.54 150 10:44 31.01.2021
3123 Clear -5 1006 86 10000 1.03 0 10:25 31.01.2021
3124 Clear -6 1006 86 10000 1.03 180 09:34 31.01.2021
3125 Clear -7 1006 93 10000 1.03 160 08:34 31.01.2021
3126 Clear -7 1006 93 10000 1.03 160 08:34 31.01.2021
3127 Clear -7 1005 93 10000 1.03 140 07:50 31.01.2021
3128 Clear -6 1005 93 10000 1.54 150 06:36 31.01.2021
3129 Clouds -4 1004 74 10000 1.03 0 02:19 31.01.2021
3130 Clouds -4 1004 69 10000 1.03 0 00:28 31.01.2021
3131 Clouds -3 1004 69 10000 1.03 140 23:52 30.01.2021
3132 Clouds -3 1004 74 10000 1.03 0 23:24 30.01.2021
3133 Clouds -3 1004 80 10000 1.03 0 22:40 30.01.2021
3134 Clouds -3 1004 80 10000 1.03 0 22:22 30.01.2021
3135 Clouds -3 1004 80 10000 2.06 130 21:39 30.01.2021
3136 Clouds -3 1004 80 10000 1.54 130 21:18 30.01.2021
3137 Clouds -3 1004 80 10000 2.06 90 20:41 30.01.2021
3138 Clouds -3 1004 74 10000 2.57 70 20:23 30.01.2021
3139 Clouds -3 1003 86 10000 2.06 50 19:40 30.01.2021
3140 Clouds -3 1004 86 10000 2.06 60 19:22 30.01.2021
3141 Clouds -3 1003 93 10000 1.54 40 18:40 30.01.2021
3142 Clouds -3 1003 93 10000 1.03 360 18:21 30.01.2021
3143 Clouds -3 1003 93 10000 2.06 10 17:53 30.01.2021
3144 Clouds -3 1003 93 10000 2.06 340 17:19 30.01.2021
3145 Snow -3 1003 93 10000 1.54 320 16:43 30.01.2021
3146 Snow -1 1002 93 10000 1.54 330 16:23 30.01.2021
3147 Clouds -1 1002 93 10000 2.06 310 15:50 30.01.2021
3148 Clouds -1 1002 86 10000 2.06 300 15:25 30.01.2021
3149 Clouds -1 1002 93 10000 2.06 320 14:59 30.01.2021
3150 Clouds -1 1002 93 10000 2.06 320 14:40 30.01.2021
3151 Clouds -1 1002 93 10000 2.57 310 14:19 30.01.2021
3152 Clouds -1 1002 93 10000 3.09 300 13:25 30.01.2021
3153 Clouds -1 1002 93 10000 3.6 310 12:48 30.01.2021
3154 Snow -1 1002 93 10000 3.6 320 12:28 30.01.2021
3155 Snow -1 1002 93 10000 3.09 320 11:54 30.01.2021
3156 Clouds -1 1001 93 10000 3.6 320 11:24 30.01.2021
3157 Snow -1 1001 93 9000 4.12 320 10:46 30.01.2021
3158 Snow -2 1000 93 10000 3.6 320 09:44 30.01.2021
3159 Snow -2 1000 100 10000 3.6 330 09:26 30.01.2021
3160 Snow -2 1000 100 4800 3.6 330 08:47 30.01.2021
3161 Snow -2 998 100 1600 4.12 340 07:45 30.01.2021
3162 Snow 0 996 93 3700 5.14 350 06:36 30.01.2021
3163 Snow 4 992 93 8000 7.2 250 04:29 30.01.2021
3164 Rain 3 992 93 10000 4.12 240 03:34 30.01.2021
3165 Rain 3 993 87 10000 3.6 230 02:23 30.01.2021
3166 Clouds 2 993 93 10000 3.09 230 01:28 30.01.2021
3167 Rain 1 994 100 8000 2.57 220 00:36 30.01.2021
3168 Snow 1 994 100 4000 0.51 0 00:18 30.01.2021
3169 Snow 1 994 93 4500 1.03 30 23:44 29.01.2021
3170 Clouds 1 994 100 10000 1.03 40 23:20 29.01.2021
3171 Clouds 1 994 100 8000 1.54 60 22:40 29.01.2021
3172 Clouds 1 994 93 8000 1.54 200 22:19 29.01.2021
3173 Rain 1 994 100 4000 2.06 150 21:28 29.01.2021
3174 Snow 0 994 100 3500 2.57 140 20:46 29.01.2021
3175 Snow 0 994 100 8000 1.03 0 20:26 29.01.2021
3176 Snow 0 994 100 5000 2.57 100 19:57 29.01.2021
3177 Snow 0 994 100 5000 2.57 100 19:38 29.01.2021
3178 Rain 0 994 100 2800 2.57 70 19:18 29.01.2021
3179 Snow 0 994 93 1300 2.06 70 18:28 29.01.2021
3180 Snow 0 994 100 1300 1.54 80 17:40 29.01.2021
3181 Snow 0 994 93 1200 2.06 90 17:21 29.01.2021
3182 Snow 0 994 93 1200 2.06 90 17:21 29.01.2021
3183 Snow 0 993 93 1000 2.57 90 16:45 29.01.2021
3184 Snow 0 993 100 1200 3.09 110 16:23 29.01.2021
3185 Snow 0 993 100 1500 3.6 110 15:51 29.01.2021
3186 Snow 0 993 100 1300 3.6 110 15:31 29.01.2021
3187 Snow 0 993 93 1300 4.12 110 14:47 29.01.2021
3188 Snow 0 993 93 600 4.63 110 14:18 29.01.2021
3189 Snow 0 994 93 1300 4.12 110 13:41 29.01.2021
3190 Snow 0 994 93 2300 5.14 110 13:22 29.01.2021
3191 Snow 0 994 93 1000 5.66 100 12:28 29.01.2021
3192 Snow 0 995 93 1000 5.14 100 11:50 29.01.2021
3193 Snow 0 995 93 2000 5.66 100 11:20 29.01.2021
3194 Snow 0 996 93 1800 5.66 100 10:51 29.01.2021
3195 Snow 0 996 86 4000 4.63 100 10:31 29.01.2021
3196 Snow 0 997 100 10000 4.12 110 09:49 29.01.2021
3197 Snow 0 997 93 10000 3.09 110 09:28 29.01.2021
3198 Snow 0 998 93 10000 3.09 130 08:46 29.01.2021
3199 Clouds 0 998 93 10000 3.09 110 08:22 29.01.2021
3200 Clouds 0 999 93 10000 3.6 110 07:42 29.01.2021
3201 Clouds 0 999 93 10000 2.57 110 07:22 29.01.2021
3202 Clouds 0 1001 93 10000 2.06 80 05:38 29.01.2021
3203 Mist -1 1002 100 5000 0.51 0 03:50 29.01.2021
3204 Clouds 0 1003 93 6000 1.03 0 00:45 29.01.2021
3205 Mist 0 1003 93 5000 1.54 340 00:22 29.01.2021
3206 Mist 0 1003 100 4500 2.06 300 23:47 28.01.2021
3207 Snow 1 1003 93 8000 0.51 0 23:27 28.01.2021
3208 Snow 1 1003 93 8000 2.06 10 22:57 28.01.2021
3209 Snow 1 1003 93 8000 2.06 10 22:38 28.01.2021
3210 Snow 1 1002 100 4000 3.09 20 22:18 28.01.2021
3211 Snow 1 1002 100 3500 3.09 20 21:41 28.01.2021
3212 Snow 1 1001 100 2500 3.6 10 21:20 28.01.2021
3213 Snow 1 1001 100 2000 2.57 350 20:40 28.01.2021
3214 Snow 1 1001 100 2000 2.06 350 20:19 28.01.2021
3215 Snow 1 1001 100 2000 1.54 360 19:49 28.01.2021
3216 Snow 1 1000 100 3000 1.54 360 19:27 28.01.2021
3217 Snow 2 1000 100 4000 1.54 20 18:49 28.01.2021
3218 Snow 2 1000 100 4900 1.54 350 18:29 28.01.2021
3219 Clouds 2 1000 100 5000 1.54 360 17:53 28.01.2021
3220 Clouds 2 1000 100 5000 1.54 360 17:32 28.01.2021
3221 Rain 3 999 100 8000 1.03 10 16:58 28.01.2021
3222 Rain 3 999 100 8000 1.03 10 16:39 28.01.2021
3223 Rain 3 1000 100 8000 0.51 0 16:20 28.01.2021
3224 Rain 3 1000 93 6000 0.51 320 15:25 28.01.2021
3225 Rain 3 1001 93 6000 1.03 0 14:48 28.01.2021
3226 Rain 4 1001 87 8000 1.54 250 14:26 28.01.2021
3227 Rain 4 1002 87 10000 1.54 250 13:59 28.01.2021
3228 Clouds 4 1002 87 10000 2.06 240 13:25 28.01.2021
3229 Clouds 3 1002 87 10000 2.06 240 12:50 28.01.2021
3230 Clouds 3 1002 87 10000 2.06 240 12:32 28.01.2021
3231 Clouds 3 1004 87 10000 2.06 250 11:58 28.01.2021
3232 Clouds 3 1004 87 10000 2.06 250 11:39 28.01.2021
3233 Drizzle 3 1004 87 10000 2.57 240 11:18 28.01.2021
3234 Clouds 3 1004 87 10000 3.6 260 10:49 28.01.2021
3235 Clouds 3 1004 87 10000 4.12 250 10:26 28.01.2021
3236 Clouds 3 1004 87 10000 3.6 250 09:42 28.01.2021
3237 Clouds 3 1005 87 10000 4.12 250 09:20 28.01.2021
3238 Clouds 2 1005 93 10000 3.6 250 08:46 28.01.2021
3239 Clouds 2 1006 93 10000 4.12 240 07:54 28.01.2021
3240 Clouds 2 1006 93 10000 4.12 240 07:36 28.01.2021
3241 Clouds 2 1006 87 10000 4.12 240 06:48 28.01.2021
3242 Clouds 2 1007 87 10000 4.63 250 04:33 28.01.2021
3243 Rain 2 1008 93 10000 4.63 240 03:42 28.01.2021
3244 Clouds 1 1009 80 10000 4.12 220 00:50 28.01.2021
3245 Snow 0 1010 86 10000 4.63 200 23:43 27.01.2021
3246 Clouds 0 1010 80 10000 4.63 190 23:23 27.01.2021
3247 Clouds 0 1010 80 10000 4.12 180 22:41 27.01.2021
3248 Clouds 0 1010 80 10000 4.63 180 22:21 27.01.2021
3249 Clouds 0 1010 80 10000 4.63 180 21:42 27.01.2021
3250 Clouds -1 1011 80 10000 4.63 180 21:22 27.01.2021
3251 Clouds -1 1011 80 10000 4.12 190 20:47 27.01.2021
3252 Clouds -1 1011 80 10000 4.63 180 20:20 27.01.2021
3253 Clouds -1 1011 80 10000 4.12 170 19:43 27.01.2021
3254 Clouds -1 1011 74 10000 4.63 180 19:21 27.01.2021
3255 Clouds 0 1012 69 10000 3.6 230 18:45 27.01.2021
3256 Clear -1 1012 80 10000 2.06 200 18:24 27.01.2021
3257 Clear 0 1012 74 10000 3.09 220 17:52 27.01.2021
3258 Clear -2 1012 74 10000 3.09 210 17:32 27.01.2021
3259 Clear -1 1012 69 10000 3.09 220 16:56 27.01.2021
3260 Clear -1 1012 69 10000 3.09 220 16:38 27.01.2021
3261 Clouds 0 1012 69 10000 4.12 220 16:20 27.01.2021
3262 Clouds 0 1012 69 10000 3.09 230 15:48 27.01.2021
3263 Clouds 3 1013 65 10000 2.57 230 15:27 27.01.2021
3264 Clouds 3 1013 69 10000 3.6 260 14:24 27.01.2021
3265 Clouds 3 1013 69 10000 4.12 250 13:50 27.01.2021
3266 Clouds 3 1013 69 10000 4.63 240 13:32 27.01.2021
3267 Clouds 3 1014 75 10000 2.57 230 12:42 27.01.2021
3268 Clouds 3 1014 80 10000 3.09 220 12:23 27.01.2021
3269 Clouds 2 1014 80 10000 3.6 240 11:47 27.01.2021
3270 Clouds 2 1014 80 10000 4.12 230 11:23 27.01.2021
3271 Clouds 1 1014 86 10000 3.6 250 10:45 27.01.2021
3272 Clouds 1 1015 86 10000 3.09 250 10:22 27.01.2021
3273 Clouds 1 1015 86 10000 3.6 250 09:53 27.01.2021
3274 Snow 0 1014 86 10000 2.57 250 09:27 27.01.2021
3275 Snow 0 1014 86 10000 3.09 250 08:42 27.01.2021
3276 Snow 0 1014 80 10000 2.57 260 07:46 27.01.2021
3277 Clouds -1 1014 86 10000 2.57 250 07:26 27.01.2021
3278 Snow -1 1015 86 10000 2.57 250 06:25 27.01.2021
3279 Snow -1 1015 86 10000 3.09 250 05:53 27.01.2021
3280 Snow -1 1015 86 10000 3.09 250 05:33 27.01.2021
3281 Clouds 0 1015 86 10000 4.12 290 02:46 27.01.2021
3282 Clouds 1 1015 86 10000 4.12 280 02:20 27.01.2021
3283 Clouds 1 1015 86 10000 4.12 290 00:56 27.01.2021
3284 Clouds 1 1015 86 10000 5.14 280 00:18 27.01.2021
3285 Clouds 1 1015 86 10000 4.63 270 23:38 26.01.2021
3286 Snow 1 1015 86 10000 5.14 280 23:19 26.01.2021
3287 Snow 1 1014 86 10000 5.66 270 22:38 26.01.2021
3288 Snow 1 1014 80 10000 5.14 270 22:19 26.01.2021
3289 Snow 1 1014 86 10000 4.12 280 21:51 26.01.2021
3290 Snow 1 1014 86 10000 4.63 260 21:23 26.01.2021
3291 Snow 1 1014 93 10000 4.12 280 20:43 26.01.2021
3292 Snow 1 1014 93 8000 5.14 280 20:24 26.01.2021
3293 Snow 1 1014 93 8000 4.63 290 19:51 26.01.2021
3294 Clouds 1 1014 93 8000 5.14 300 19:30 26.01.2021
3295 Clouds 1 1014 93 8000 5.14 300 19:30 26.01.2021
3296 Clouds 1 1014 93 8000 4.63 290 18:59 26.01.2021
3297 Clouds -1 1014 93 8000 4.63 290 18:41 26.01.2021
3298 Snow 1 1013 93 9000 3.6 290 18:22 26.01.2021
3299 Clouds 1 1013 86 10000 4.63 300 17:47 26.01.2021
3300 Snow 1 1012 86 10000 5.14 310 17:22 26.01.2021
3301 Snow 1 1012 86 10000 3.6 290 16:51 26.01.2021
3302 Snow 1 1012 93 10000 4.63 300 16:21 26.01.2021
3303 Snow 1 1011 93 10000 4.12 300 15:53 26.01.2021
3304 Snow 1 1011 93 10000 4.12 300 15:35 26.01.2021
3305 Snow 1 1011 93 10000 3.09 300 14:49 26.01.2021
3306 Snow 0 1010 93 10000 2.06 270 14:30 26.01.2021
3307 Snow 0 1010 93 10000 1.54 250 13:51 26.01.2021
3308 Snow 1 1010 86 10000 1.54 230 13:28 26.01.2021
3309 Snow 0 1010 86 9000 1.54 240 12:46 26.01.2021
3310 Snow 1 1010 86 9000 1.54 240 12:46 26.01.2021
3311 Snow 0 1010 86 10000 1.54 260 12:25 26.01.2021
3312 Snow 0 1010 80 10000 1.54 240 11:59 26.01.2021
3313 Snow 0 1010 80 10000 1.54 240 11:40 26.01.2021
3314 Snow 0 1010 86 10000 3.09 220 10:56 26.01.2021
3315 Snow 0 1010 86 10000 3.09 220 10:33 26.01.2021
3316 Snow -1 1010 80 10000 3.09 210 09:50 26.01.2021
3317 Snow -1 1010 80 10000 3.09 210 09:32 26.01.2021
3318 Snow -2 1009 80 10000 3.6 220 08:56 26.01.2021
3319 Snow -2 1009 80 10000 3.6 220 08:38 26.01.2021
3320 Clear -2 1010 80 10000 3.6 230 07:54 26.01.2021
3321 Clear -2 1009 80 10000 3.6 230 06:56 26.01.2021
3322 Clouds -1 1009 80 10000 3.09 240 05:46 26.01.2021
3323 Clouds -1 1009 80 10000 4.63 250 05:24 26.01.2021
3324 Clear -1 1009 93 10000 3.6 250 02:58 26.01.2021
3325 Clear 0 1008 86 10000 2.57 260 00:59 26.01.2021
3326 Clouds -1 1008 86 10000 3.09 250 23:46 25.01.2021
3327 Clouds -1 1008 86 10000 2.06 260 23:26 25.01.2021
3328 Clouds -1 1007 86 10000 2.06 250 22:40 25.01.2021
3329 Clouds -1 1007 86 10000 2.57 250 22:21 25.01.2021
3330 Clouds -1 1007 86 10000 2.57 250 21:40 25.01.2021
3331 Clouds -1 1007 86 10000 3.09 240 21:18 25.01.2021
3332 Clear -1 1006 86 10000 2.06 240 20:40 25.01.2021
3333 Clear -1 1006 80 10000 1.54 250 20:20 25.01.2021
3334 Clouds -1 1006 80 10000 2.06 250 19:47 25.01.2021
3335 Clouds -1 1005 86 10000 2.57 250 19:22 25.01.2021
3336 Clouds -2 1005 86 10000 2.06 240 18:44 25.01.2021
3337 Clouds -2 1005 80 10000 1.54 260 18:24 25.01.2021
3338 Clear -1 1005 80 10000 1.54 280 17:44 25.01.2021
3339 Clear -1 1004 80 10000 1.54 250 17:24 25.01.2021
3340 Clouds -1 1004 80 10000 1.54 250 16:49 25.01.2021
3341 Clouds 1 1003 80 10000 1.54 260 16:25 25.01.2021
3342 Clouds 0 1003 75 10000 1.54 250 15:55 25.01.2021
3343 Clouds 0 1003 75 10000 1.54 250 15:34 25.01.2021
3344 Clouds 1 1003 80 10000 2.57 250 14:59 25.01.2021
3345 Clouds 1 1003 80 10000 2.57 250 14:38 25.01.2021
3346 Clouds 2 1002 75 10000 3.09 250 14:18 25.01.2021
3347 Clouds 1 1002 75 10000 1.54 270 13:43 25.01.2021
3348 Clouds 2 1002 80 10000 2.57 250 13:20 25.01.2021
3349 Clouds 2 1002 80 10000 2.06 250 12:41 25.01.2021
3350 Clouds 2 1002 80 10000 1.54 310 12:18 25.01.2021
3351 Clouds 1 1002 86 10000 1.03 0 11:29 25.01.2021
3352 Clouds 1 1002 86 10000 1.03 0 10:52 25.01.2021
3353 Clouds 1 1001 86 10000 1.54 230 10:22 25.01.2021
3354 Clouds 0 1001 93 10000 2.06 210 09:53 25.01.2021
3355 Clouds 0 1001 86 10000 1.54 220 09:30 25.01.2021
3356 Clouds 0 1001 86 10000 1.54 210 08:38 25.01.2021
3357 Clouds 0 1000 93 10000 0.51 0 07:58 25.01.2021
3358 Clouds 0 1000 93 10000 1.03 0 07:29 25.01.2021
3359 Clouds 0 1000 93 10000 1.54 270 06:38 25.01.2021
3360 Snow 1 999 93 7000 2.57 280 02:32 25.01.2021
3361 Snow 1 998 100 5000 2.06 270 00:45 25.01.2021
3362 Snow 1 998 100 10000 2.57 280 23:39 24.01.2021
3363 Snow 1 998 100 3300 3.09 280 23:18 24.01.2021
3364 Snow 1 998 100 3500 3.09 290 22:40 24.01.2021
3365 Snow 1 998 100 3500 3.09 290 22:18 24.01.2021
3366 Snow 1 997 100 3000 4.12 290 21:44 24.01.2021
3367 Mist 1 997 100 2600 4.12 300 21:19 24.01.2021
3368 Snow 1 997 100 2800 4.12 300 20:41 24.01.2021
3369 Snow 1 996 100 2800 4.63 300 20:19 24.01.2021
3370 Mist 1 996 100 2800 3.6 290 19:50 24.01.2021
3371 Snow 1 995 100 2800 2.57 250 19:26 24.01.2021
3372 Snow 1 995 100 2500 2.57 220 18:57 24.01.2021
3373 Snow 1 995 100 2500 2.57 220 18:38 24.01.2021
3374 Snow 1 995 100 2500 2.57 220 18:19 24.01.2021
3375 Snow 1 995 100 4500 2.57 220 17:48 24.01.2021
3376 Snow 1 995 100 5000 3.09 210 17:21 24.01.2021
3377 Snow 1 995 100 4000 3.09 220 16:43 24.01.2021
3378 Snow 1 994 100 2000 4.12 200 16:25 24.01.2021
3379 Snow 1 994 100 2000 4.63 190 15:58 24.01.2021
3380 Snow 1 994 100 2000 4.63 190 15:40 24.01.2021
3381 Snow 1 994 100 1000 4.12 200 15:18 24.01.2021
3382 Snow 1 994 100 1000 4.63 180 14:38 24.01.2021
3383 Snow 1 994 100 1000 4.63 180 14:38 24.01.2021
3384 Snow 1 994 100 1400 3.09 160 13:46 24.01.2021
3385 Snow 1 994 100 2000 3.6 170 13:26 24.01.2021
3386 Snow 1 994 100 700 2.57 170 12:49 24.01.2021
3387 Snow 1 994 100 2000 2.06 160 12:20 24.01.2021
3388 Snow 1 994 100 3000 1.03 0 11:51 24.01.2021
3389 Snow 1 994 93 2500 1.54 210 11:24 24.01.2021
3390 Mist 0 994 100 3000 2.57 180 10:49 24.01.2021
3391 Clouds 0 994 93 6000 1.03 120 10:26 24.01.2021
3392 Clear -1 994 93 10000 1.03 0 09:23 24.01.2021
3393 Clear -1 993 93 10000 0.51 0 08:59 24.01.2021
3394 Clear -1 993 100 10000 1.03 120 08:26 24.01.2021
3395 Clouds 0 995 100 10000 1.54 140 03:37 24.01.2021
3396 Snow 1 995 100 10000 1.54 150 02:18 24.01.2021
3397 Snow 0 995 100 10000 2.57 150 00:27 24.01.2021
3398 Snow 1 995 100 10000 4.12 170 23:59 23.01.2021
3399 Snow 1 995 100 10000 4.12 170 23:33 23.01.2021
3400 Snow 1 996 100 10000 2.06 140 22:58 23.01.2021
3401 Snow 1 996 100 10000 2.06 140 22:40 23.01.2021
3402 Clouds 1 996 100 7000 2.06 160 21:58 23.01.2021
3403 Clouds 1 996 100 6000 1.54 150 21:23 23.01.2021
3404 Clouds 1 997 100 6000 0.51 0 20:51 23.01.2021
3405 Clouds 1 997 100 8000 1.54 210 20:30 23.01.2021
3406 Clouds 0 997 100 10000 2.06 200 19:56 23.01.2021
3407 Clouds 0 997 100 10000 2.06 200 19:38 23.01.2021
3408 Clouds 1 997 100 8000 1.54 220 19:20 23.01.2021
3409 Snow 1 997 100 8000 2.06 220 18:42 23.01.2021
3410 Snow 1 997 100 6000 2.06 220 18:20 23.01.2021
3411 Snow 1 997 100 5000 1.54 230 17:29 23.01.2021
3412 Clouds 1 997 93 8000 1.54 250 16:53 23.01.2021
3413 Clouds 1 997 93 8000 1.54 250 16:32 23.01.2021
3414 Snow 1 997 100 3500 2.06 270 15:56 23.01.2021
3415 Snow 1 996 100 3000 2.06 280 15:29 23.01.2021
3416 Snow 1 996 100 1700 2.06 280 14:45 23.01.2021
3417 Snow 1 996 100 1700 2.57 280 14:24 23.01.2021
3418 Snow 1 996 100 1500 3.09 290 13:49 23.01.2021
3419 Snow 1 996 100 1500 3.6 300 13:24 23.01.2021
3420 Snow 1 996 100 1500 4.63 300 12:45 23.01.2021
3421 Snow 1 995 100 1500 5.14 310 12:25 23.01.2021
3422 Snow 1 995 100 1500 5.66 310 11:42 23.01.2021
3423 Snow 1 994 100 1500 4.12 320 10:59 23.01.2021
3424 Snow 1 994 100 500 4.12 330 10:26 23.01.2021
3425 Fog 0 994 100 400 3.6 330 09:53 23.01.2021
3426 Snow 0 994 100 400 4.63 330 09:29 23.01.2021
3427 Fog 1 993 100 500 4.63 330 08:44 23.01.2021
3428 Snow 2 993 100 5000 6.69 20 07:49 23.01.2021
3429 Rain 2 993 100 8000 6.17 30 06:59 23.01.2021
3430 Rain 3 995 93 10000 3.6 20 03:34 23.01.2021
3431 Clear 3 996 100 10000 2.57 60 00:34 23.01.2021
3432 Clouds 3 996 100 10000 2.06 110 23:36 22.01.2021
3433 Rain 4 996 100 10000 0.51 0 22:45 22.01.2021
3434 Rain 4 997 100 10000 2.06 320 22:22 22.01.2021
3435 Clouds 4 997 100 10000 1.03 190 21:45 22.01.2021
3436 Clouds 4 997 100 10000 1.03 0 21:25 22.01.2021
3437 Rain 5 997 93 10000 1.54 240 20:54 22.01.2021
3438 Rain 5 997 93 10000 1.54 240 20:32 22.01.2021
3439 Clouds 4 997 93 10000 1.54 230 19:48 22.01.2021
3440 Clouds 5 997 87 10000 2.06 280 19:21 22.01.2021
3441 Clouds 5 996 81 10000 3.6 290 18:50 22.01.2021
3442 Clouds 5 996 81 10000 3.09 300 18:27 22.01.2021
3443 Clouds 6 995 81 10000 3.09 320 17:56 22.01.2021
3444 Clouds 6 995 81 10000 3.09 320 17:38 22.01.2021
3445 Clouds 7 994 76 10000 4.12 300 16:56 22.01.2021
3446 Clouds 7 994 76 10000 4.12 290 16:31 22.01.2021
3447 Clouds 8 994 81 10000 3.09 290 15:53 22.01.2021
3448 Clouds 8 993 81 10000 2.57 320 15:25 22.01.2021
3449 Clouds 6 993 81 10000 3.6 330 14:43 22.01.2021
3450 Clouds 7 992 62 10000 4.12 190 14:25 22.01.2021
3451 Clouds 7 993 62 10000 5.14 190 13:46 22.01.2021
3452 Clouds 7 993 62 10000 5.14 180 13:26 22.01.2021
3453 Clouds 10 993 62 10000 6.17 190 12:42 22.01.2021
3454 Clear 10 993 62 10000 6.69 190 12:19 22.01.2021
3455 Clear 10 993 62 10000 5.66 180 11:42 22.01.2021
3456 Clear 9 993 61 10000 8.23 190 10:49 22.01.2021
3457 Clear 8 992 66 10000 8.23 180 10:29 22.01.2021
3458 Clear 7 992 65 10000 8.75 180 09:55 22.01.2021
3459 Clear 6 993 65 10000 6.69 170 09:20 22.01.2021
3460 Clear 5 993 65 10000 6.69 160 08:45 22.01.2021
3461 Clear 4 993 70 10000 6.17 160 08:22 22.01.2021
3462 Clear 4 993 70 10000 7.72 160 07:23 22.01.2021
3463 Clear 7 995 61 10000 6.17 170 02:42 22.01.2021
3464 Clear 6 997 62 10000 7.2 190 00:38 22.01.2021
3465 Clear 7 997 61 10000 4.12 170 23:51 21.01.2021
3466 Clear 6 998 66 10000 4.63 150 23:29 21.01.2021
3467 Clear 7 998 61 10000 4.63 160 22:50 21.01.2021
3468 Clouds 6 998 65 10000 5.66 180 22:24 21.01.2021
3469 Clouds 6 999 61 10000 6.17 180 21:43 21.01.2021
3470 Clouds 6 999 65 10000 5.66 180 21:20 21.01.2021
3471 Clouds 7 999 61 10000 7.2 180 20:48 21.01.2021
3472 Clouds 7 999 57 10000 6.69 190 20:29 21.01.2021
3473 Clear 7 1000 61 10000 8.23 190 19:52 21.01.2021
3474 Clear 6 999 61 10000 8.23 180 19:30 21.01.2021
3475 Clear 6 999 61 10000 8.23 180 19:30 21.01.2021
3476 Clear 6 999 57 10000 7.2 180 18:59 21.01.2021
3477 Clear 6 999 61 10000 6.17 170 18:39 21.01.2021
3478 Clear 6 999 61 10000 6.17 170 18:20 21.01.2021
3479 Clear 6 999 57 10000 6.17 160 17:51 21.01.2021
3480 Clear 6 999 65 10000 6.17 170 17:20 21.01.2021
3481 Clear 7 999 57 10000 7.2 180 16:48 21.01.2021
3482 Clear 8 999 57 10000 7.2 180 16:26 21.01.2021
3483 Clear 8 999 53 10000 5.66 160 15:59 21.01.2021
3484 Clear 8 999 53 10000 5.66 160 15:34 21.01.2021
3485 Clear 5 999 53 10000 7.2 180 14:53 21.01.2021
3486 Clear 5 999 53 10000 7.2 180 14:35 21.01.2021
3487 Clear 8 999 53 10000 9.26 180 13:51 21.01.2021
3488 Clear 7 999 53 10000 9.26 180 13:32 21.01.2021
3489 Clear 5 999 53 10000 8.23 180 12:58 21.01.2021
3490 Clear 6 999 53 10000 8.23 180 12:39 21.01.2021
3491 Clear 4 1000 65 10000 8.23 170 12:20 21.01.2021
3492 Clear 3 1000 70 10000 10.29 170 11:48 21.01.2021
3493 Clear 5 1000 70 10000 11.32 170 11:25 21.01.2021
3494 Clear 5 1000 70 10000 10.8 170 10:51 21.01.2021
3495 Clear 5 1000 65 10000 9.26 150 10:30 21.01.2021
3496 Clear 4 1000 70 10000 8.23 150 09:44 21.01.2021
3497 Clear 4 1000 70 10000 9.26 150 09:25 21.01.2021
3498 Clear 3 1000 75 10000 10.29 160 08:45 21.01.2021
3499 Clear 4 1000 70 10000 9.77 150 08:24 21.01.2021
3500 Clear 4 1000 65 10000 8.75 160 07:28 21.01.2021
3501 Clear 4 1001 70 10000 8.75 160 06:54 21.01.2021
3502 Clear 4 1001 65 10000 9.26 160 05:22 21.01.2021
3503 Clear 5 1001 65 10000 7.72 160 02:40 21.01.2021
3504 Clear 6 1002 57 10000 5.66 150 00:54 21.01.2021
3505 Clear 5 1003 61 10000 4.63 150 23:54 20.01.2021
3506 Clear 5 1003 61 10000 4.63 150 23:33 20.01.2021
3507 Clear 5 1003 61 10000 3.6 150 22:59 20.01.2021
3508 Clear 5 1003 61 10000 3.6 150 22:41 20.01.2021
3509 Clear 5 1003 61 10000 4.12 70 22:21 20.01.2021
3510 Clear 6 1003 61 10000 2.57 140 21:41 20.01.2021
3511 Clear 5 1003 65 10000 5.14 160 21:22 20.01.2021
3512 Clear 6 1003 61 10000 5.14 160 20:50 20.01.2021
3513 Clear 6 1003 61 10000 5.66 160 20:19 20.01.2021
3514 Clear 6 1004 65 10000 5.14 160 19:46 20.01.2021
3515 Clear 6 1004 65 10000 5.66 170 19:27 20.01.2021
3516 Clear 5 1004 65 10000 6.69 170 18:42 20.01.2021
3517 Clear 5 1004 65 10000 4.63 160 18:19 20.01.2021
3518 Clear 6 1004 65 10000 3.6 140 17:43 20.01.2021
3519 Clear 6 1005 65 10000 3.6 160 17:24 20.01.2021
3520 Clear 6 1005 61 10000 4.12 180 16:45 20.01.2021
3521 Clear 7 1005 61 10000 4.63 180 15:56 20.01.2021
3522 Clear 7 1005 61 10000 3.6 170 15:36 20.01.2021
3523 Clear 8 1005 53 10000 5.14 190 14:57 20.01.2021
3524 Clear 7 1005 53 10000 5.14 190 14:38 20.01.2021
3525 Clear 8 1005 49 10000 5.66 210 14:18 20.01.2021
3526 Clear 5 1005 49 10000 4.63 200 13:36 20.01.2021
3527 Clear 5 1006 57 10000 3.6 180 12:55 20.01.2021
3528 Clear 8 1006 57 10000 4.12 200 12:22 20.01.2021
3529 Clear 7 1006 61 10000 4.12 190 11:40 20.01.2021
3530 Clear 7 1006 61 10000 4.12 190 11:20 20.01.2021
3531 Clouds 6 1006 57 10000 3.6 230 10:46 20.01.2021
3532 Clear 6 1006 57 10000 6.17 220 10:25 20.01.2021
3533 Clear 5 1006 61 10000 6.17 220 09:38 20.01.2021
3534 Clear 5 1006 61 10000 5.66 220 09:19 20.01.2021
3535 Clear 5 1006 61 10000 6.69 220 08:43 20.01.2021
3536 Clear 5 1006 65 10000 7.2 210 08:22 20.01.2021
3537 Clear 4 1005 70 10000 8.23 200 07:48 20.01.2021
3538 Clear 4 1005 70 10000 7.72 200 07:20 20.01.2021
3539 Clear 3 1007 75 10000 5.14 220 04:33 20.01.2021
3540 Clouds 4 1007 81 10000 2.57 240 02:57 20.01.2021
3541 Clouds 5 1007 87 10000 6.17 230 00:58 20.01.2021
3542 Clouds 4 1008 87 10000 5.66 240 23:57 19.01.2021
3543 Clouds 4 1008 87 10000 5.66 240 23:38 19.01.2021
3544 Clouds 5 1007 81 10000 5.66 240 22:59 19.01.2021
3545 Clouds 5 1007 81 10000 5.66 240 22:40 19.01.2021
3546 Clouds 4 1007 87 10000 7.2 250 22:21 19.01.2021
3547 Drizzle 4 1007 87 10000 6.69 240 21:55 19.01.2021
3548 Drizzle 4 1007 87 10000 6.69 240 21:36 19.01.2021
3549 Rain 4 1006 87 10000 7.2 250 20:55 19.01.2021
3550 Rain 4 1006 87 10000 7.2 250 20:36 19.01.2021
3551 Rain 3 1006 87 10000 7.72 250 20:18 19.01.2021
3552 Clouds 3 1006 87 10000 7.2 240 19:41 19.01.2021
3553 Rain 3 1006 87 10000 6.69 240 19:19 19.01.2021
3554 Rain 2 1006 87 10000 6.17 240 18:39 19.01.2021
3555 Rain 2 1006 87 10000 5.66 230 18:21 19.01.2021
3556 Clouds 2 1006 81 10000 6.69 230 17:45 19.01.2021
3557 Rain 2 1006 87 10000 6.17 230 17:23 19.01.2021
3558 Clouds 2 1006 93 10000 5.66 230 16:45 19.01.2021
3559 Rain 2 1006 93 10000 6.17 230 16:25 19.01.2021
3560 Rain 3 1006 93 10000 6.17 220 15:55 19.01.2021
3561 Rain 3 1006 93 10000 6.17 220 15:34 19.01.2021
3562 Snow 3 1006 87 10000 5.66 190 14:51 19.01.2021
3563 Snow 3 1007 87 8000 7.72 190 14:31 19.01.2021
3564 Snow 3 1008 75 8000 7.2 200 13:56 19.01.2021
3565 Snow 4 1008 75 8000 7.2 200 13:37 19.01.2021
3566 Rain 4 1009 70 10000 6.69 200 13:19 19.01.2021
3567 Rain 4 1010 75 10000 7.72 210 12:38 19.01.2021
3568 Clouds 4 1011 70 10000 6.69 220 12:19 19.01.2021
3569 Clouds 3 1011 70 10000 7.2 230 11:43 19.01.2021
3570 Clouds 3 1012 75 10000 6.17 230 11:22 19.01.2021
3571 Clouds 3 1012 75 10000 6.69 220 10:50 19.01.2021
3572 Clouds 3 1013 75 10000 7.2 210 10:30 19.01.2021
3573 Clouds 3 1013 81 10000 5.14 210 09:52 19.01.2021
3574 Clouds 3 1013 75 10000 5.66 220 09:21 19.01.2021
3575 Clouds 3 1014 75 10000 5.66 240 08:48 19.01.2021
3576 Clouds 3 1015 81 10000 5.66 240 07:58 19.01.2021
3577 Clear 3 1015 75 10000 5.14 240 07:28 19.01.2021
3578 Clouds 3 1015 81 10000 4.63 250 05:42 19.01.2021
3579 Clouds 2 1017 87 10000 5.14 250 02:27 19.01.2021
3580 Clouds 2 1017 87 10000 5.14 250 00:47 19.01.2021
3581 Rain 2 1017 87 10000 5.66 250 23:58 18.01.2021
3582 Snow 2 1017 93 9000 5.14 250 23:31 18.01.2021
3583 Snow 2 1017 87 10000 5.66 250 22:51 18.01.2021
3584 Snow 2 1018 87 10000 5.14 250 22:24 18.01.2021
3585 Rain 2 1018 87 10000 5.66 250 21:49 18.01.2021
3586 Rain 2 1018 87 10000 5.14 250 21:24 18.01.2021
3587 Rain 1 1018 87 10000 5.66 250 20:59 18.01.2021
3588 Rain 1 1018 87 10000 5.66 250 20:39 18.01.2021
3589 Snow 1 1018 87 10000 5.14 250 20:20 18.01.2021
3590 Snow 1 1018 93 8000 4.63 250 19:48 18.01.2021
3591 Snow 1 1018 93 7000 4.12 240 19:29 18.01.2021
3592 Snow 1 1018 93 8000 4.12 240 18:44 18.01.2021
3593 Snow 2 1018 87 10000 5.14 250 18:22 18.01.2021
3594 Snow 2 1018 87 10000 4.12 250 17:41 18.01.2021
3595 Clouds 2 1018 87 10000 4.12 240 17:19 18.01.2021
3596 Clouds 2 1018 87 10000 4.12 250 16:46 18.01.2021
3597 Clouds 2 1019 87 10000 4.12 260 16:20 18.01.2021
3598 Rain 2 1019 87 10000 4.12 260 15:45 18.01.2021
3599 Clouds 2 1019 87 10000 3.6 260 15:25 18.01.2021
3600 Clouds 2 1019 87 10000 3.6 260 14:44 18.01.2021
3601 Snow 2 1019 87 10000 3.09 260 14:26 18.01.2021
3602 Snow 1 1019 93 10000 3.09 270 13:47 18.01.2021
3603 Snow 0 1019 93 5000 4.12 270 13:27 18.01.2021
3604 Snow 0 1019 93 5000 3.09 270 12:53 18.01.2021
3605 Snow -1 1019 93 6000 3.6 260 12:21 18.01.2021
3606 Snow -2 1019 100 2000 2.06 230 11:57 18.01.2021
3607 Snow -2 1019 100 2000 2.06 230 11:39 18.01.2021
3608 Mist -3 1020 100 2000 2.57 220 11:20 18.01.2021
3609 Snow -3 1020 93 1500 3.6 220 10:44 18.01.2021
3610 Mist -4 1019 93 3000 3.09 210 09:50 18.01.2021
3611 Snow -4 1019 93 3000 3.09 210 09:32 18.01.2021
3612 Snow -5 1019 93 5000 3.09 210 08:54 18.01.2021
3613 Snow -5 1019 93 3000 3.09 210 08:25 18.01.2021
3614 Snow -5 1019 93 6000 3.09 210 07:37 18.01.2021
3615 Snow -6 1019 93 10000 2.57 200 05:45 18.01.2021
3616 Snow -6 1019 86 10000 2.06 200 04:40 18.01.2021
3617 Clouds -6 1019 86 10000 4.63 160 04:18 18.01.2021
3618 Clouds -7 1019 86 10000 2.57 180 03:43 18.01.2021
3619 Clouds -7 1019 86 10000 3.6 170 03:20 18.01.2021
3620 Clouds -7 1020 86 10000 4.12 170 02:51 18.01.2021
3621 Clouds -7 1020 86 10000 3.09 180 01:56 18.01.2021
3622 Clear -8 1020 86 10000 3.09 170 00:39 18.01.2021
3623 Clouds -9 1021 86 10000 1.54 160 23:49 17.01.2021
3624 Clouds -9 1021 93 10000 2.57 170 23:24 17.01.2021
3625 Clear -9 1021 93 10000 2.06 170 22:50 17.01.2021
3626 Clear -8 1021 93 10000 1.54 170 22:22 17.01.2021
3627 Clear -8 1021 93 10000 3.09 180 21:43 17.01.2021
3628 Clear -8 1021 100 10000 1.54 200 21:24 17.01.2021
3629 Clear -7 1021 93 10000 1.54 180 20:51 17.01.2021
3630 Clear -7 1021 93 10000 1.54 180 20:32 17.01.2021
3631 Clouds -6 1021 86 10000 1.03 180 19:52 17.01.2021
3632 Clouds -6 1021 86 10000 1.03 170 19:31 17.01.2021
3633 Clouds -5 1020 86 10000 1.03 180 18:53 17.01.2021
3634 Clouds -4 1020 80 10000 0.51 130 18:29 17.01.2021
3635 Clouds -6 1020 86 10000 0.51 0 17:50 17.01.2021
3636 Clouds -5 1019 80 10000 1.03 120 17:29 17.01.2021
3637 Clouds -5 1019 80 10000 0.51 0 16:45 17.01.2021
3638 Clouds -4 1019 74 10000 0.51 0 16:25 17.01.2021
3639 Clouds -4 1019 80 10000 0.51 0 15:53 17.01.2021
3640 Clouds -3 1019 74 10000 1.54 20 15:27 17.01.2021
3641 Clouds -3 1019 74 10000 1.54 20 14:59 17.01.2021
3642 Clouds -3 1019 74 10000 1.54 20 14:39 17.01.2021
3643 Clouds -2 1018 74 10000 2.06 350 14:21 17.01.2021
3644 Clouds -1 1019 69 10000 1.54 360 13:41 17.01.2021
3645 Clouds -2 1018 74 10000 1.54 10 13:23 17.01.2021
3646 Clouds -2 1018 74 10000 0.51 0 12:44 17.01.2021
3647 Clouds -3 1018 74 10000 1.54 310 12:24 17.01.2021
3648 Clouds -3 1018 80 10000 0.51 0 11:26 17.01.2021
3649 Clouds -2 1018 80 10000 1.54 20 10:54 17.01.2021
3650 Clouds -2 1018 80 10000 1.54 20 10:36 17.01.2021
3651 Clouds -5 1017 80 10000 1.03 0 10:18 17.01.2021
3652 Clouds -4 1017 93 10000 1.54 210 08:59 17.01.2021
3653 Clouds -4 1017 93 10000 1.54 210 08:41 17.01.2021
3654 Clouds -4 1017 80 10000 0.51 0 04:36 17.01.2021
3655 Clouds -4 1017 86 10000 1.03 220 03:44 17.01.2021
3656 Clouds -4 1018 74 10000 2.06 320 01:29 17.01.2021
3657 Clouds -4 1018 74 10000 1.54 290 00:21 17.01.2021
3658 Clouds -4 1019 74 10000 1.54 280 23:53 16.01.2021
3659 Clouds -4 1018 80 10000 1.54 290 23:25 16.01.2021
3660 Clouds -4 1019 74 10000 2.06 260 22:55 16.01.2021
3661 Clouds -4 1019 74 10000 1.54 260 22:26 16.01.2021
3662 Snow -4 1019 74 10000 2.06 270 21:50 16.01.2021
3663 Clouds -4 1019 74 10000 2.06 270 21:23 16.01.2021
3664 Clouds -3 1019 80 10000 2.06 260 20:52 16.01.2021
3665 Clouds -5 1019 80 10000 2.57 280 20:28 16.01.2021
3666 Clouds -5 1020 80 10000 3.09 290 19:50 16.01.2021
3667 Clouds -5 1019 80 10000 3.09 280 19:31 16.01.2021
3668 Clouds -5 1020 80 10000 3.09 280 18:47 16.01.2021
3669 Clouds -5 1020 80 10000 3.09 280 18:28 16.01.2021
3670 Snow -5 1020 80 10000 3.6 280 17:59 16.01.2021
3671 Snow -5 1020 80 10000 3.6 280 17:39 16.01.2021
3672 Snow -3 1020 80 10000 4.12 280 17:21 16.01.2021
3673 Snow -3 1020 80 10000 3.6 280 16:42 16.01.2021
3674 Snow -3 1021 80 10000 4.63 280 16:20 16.01.2021
3675 Snow -3 1021 80 10000 4.63 280 15:43 16.01.2021
3676 Snow -3 1021 80 10000 5.66 270 14:39 16.01.2021
3677 Snow -3 1022 74 10000 3.6 280 13:54 16.01.2021
3678 Snow -3 1022 74 10000 3.6 280 13:33 16.01.2021
3679 Snow -3 1022 80 10000 5.14 290 12:58 16.01.2021
3680 Snow -3 1022 80 10000 5.14 290 12:37 16.01.2021
3681 Snow -3 1023 80 8000 3.6 290 12:19 16.01.2021
3682 Snow -3 1023 80 6000 3.6 280 11:45 16.01.2021
3683 Snow -3 1023 86 4500 3.6 280 11:20 16.01.2021
3684 Snow -4 1023 93 4200 3.09 280 10:42 16.01.2021
3685 Snow -4 1023 86 3700 2.57 260 09:57 16.01.2021
3686 Snow -6 1024 86 5000 2.57 250 09:22 16.01.2021
3687 Snow -5 1024 86 5000 2.57 260 08:32 16.01.2021
3688 Clouds -5 1024 80 10000 2.06 280 07:28 16.01.2021
3689 Snow -5 1024 74 10000 4.12 310 05:46 16.01.2021
3690 Snow -5 1024 80 10000 4.12 310 04:38 16.01.2021
3691 Snow -6 1024 74 10000 3.09 310 02:55 16.01.2021
3692 Snow -4 1024 80 10000 5.66 340 00:49 16.01.2021
3693 Snow -4 1024 80 10000 5.66 350 00:26 16.01.2021
3694 Snow -3 1024 86 10000 4.12 330 23:49 15.01.2021
3695 Snow -2 1024 93 10000 3.6 310 22:56 15.01.2021
3696 Snow -2 1024 93 10000 3.6 320 22:24 15.01.2021
3697 Snow -2 1023 93 10000 4.63 320 21:46 15.01.2021
3698 Snow -2 1023 93 6000 4.12 320 20:59 15.01.2021
3699 Snow -2 1023 93 6000 4.12 320 20:40 15.01.2021
3700 Snow -1 1023 93 4600 4.12 320 20:21 15.01.2021
3701 Snow -1 1023 93 6000 4.12 320 19:40 15.01.2021
3702 Snow -1 1023 93 6000 3.6 330 19:22 15.01.2021
3703 Snow -1 1022 93 4500 4.12 320 18:43 15.01.2021
3704 Snow -1 1022 93 4200 3.09 320 18:19 15.01.2021
3705 Snow -1 1022 93 10000 4.63 320 17:51 15.01.2021
3706 Snow -1 1022 93 10000 4.12 320 17:26 15.01.2021
3707 Snow -1 1022 86 10000 3.6 320 16:54 15.01.2021
3708 Snow -1 1022 93 10000 4.12 320 16:25 15.01.2021
3709 Snow -1 1021 86 7000 4.63 320 15:43 15.01.2021
3710 Snow -1 1021 93 3000 5.66 320 15:23 15.01.2021
3711 Snow 0 1021 100 2300 4.63 320 14:56 15.01.2021
3712 Snow 0 1021 100 2300 4.63 320 14:37 15.01.2021
3713 Snow 0 1021 93 2000 4.12 320 14:18 15.01.2021
3714 Snow 0 1021 93 2000 4.12 320 13:40 15.01.2021
3715 Snow 0 1021 93 3100 5.14 320 13:19 15.01.2021
3716 Snow 0 1021 93 3200 2.57 330 12:37 15.01.2021
3717 Snow 0 1021 93 3700 3.6 340 12:19 15.01.2021
3718 Snow 0 1021 100 2200 4.12 320 11:42 15.01.2021
3719 Snow 0 1021 100 3300 3.09 330 10:59 15.01.2021
3720 Snow 0 1021 100 3300 3.09 330 10:41 15.01.2021
3721 Snow 0 1020 100 5000 3.09 340 10:21 15.01.2021
3722 Snow 0 1020 100 3200 3.09 330 09:48 15.01.2021
3723 Snow 0 1020 100 3000 2.06 330 09:28 15.01.2021
3724 Snow 0 1020 100 5000 2.57 330 08:28 15.01.2021
3725 Snow 0 1019 93 6000 2.57 330 07:44 15.01.2021
3726 Snow 0 1019 93 6000 3.09 340 07:23 15.01.2021
3727 Snow 0 1019 93 6000 3.09 330 06:36 15.01.2021
3728 Clouds 0 1019 93 10000 2.57 310 02:44 15.01.2021
3729 Snow 0 1018 100 10000 2.57 310 00:42 15.01.2021
3730 Snow 0 1018 100 10000 3.09 310 23:31 14.01.2021
3731 Snow 0 1019 100 10000 2.57 320 22:58 14.01.2021
3732 Snow 0 1019 100 10000 2.57 320 22:37 14.01.2021
3733 Snow 0 1018 93 10000 2.57 340 22:19 14.01.2021
3734 Snow 0 1018 100 10000 3.6 310 21:40 14.01.2021
3735 Snow 0 1018 100 10000 3.6 320 21:20 14.01.2021
3736 Snow 0 1018 100 7000 5.14 310 20:48 14.01.2021
3737 Snow 0 1018 100 2500 4.12 300 20:18 14.01.2021
3738 Snow 0 1018 93 4000 4.12 290 19:41 14.01.2021
3739 Snow 0 1018 93 4000 3.6 290 19:23 14.01.2021
3740 Snow 0 1017 93 6000 4.63 300 18:49 14.01.2021
3741 Clouds 0 1017 93 10000 4.12 290 18:18 14.01.2021
3742 Clouds 0 1017 93 10000 3.6 290 17:44 14.01.2021
3743 Snow 0 1017 86 10000 3.09 310 17:25 14.01.2021
3744 Snow 1 1017 93 10000 5.14 320 16:39 14.01.2021
3745 Snow 1 1016 93 8000 3.6 300 15:57 14.01.2021
3746 Snow 1 1016 93 8000 3.6 300 15:39 14.01.2021
3747 Clouds 1 1016 86 10000 4.12 300 14:58 14.01.2021
3748 Clouds 1 1016 86 10000 4.12 300 14:37 14.01.2021
3749 Clouds 1 1016 86 10000 3.6 330 14:18 14.01.2021
3750 Clouds 1 1015 86 10000 4.12 320 13:48 14.01.2021
3751 Snow 1 1015 86 10000 5.14 330 13:20 14.01.2021
3752 Snow 1 1015 93 10000 4.63 320 12:38 14.01.2021
3753 Snow 1 1015 93 10000 4.63 320 12:18 14.01.2021
3754 Snow 0 1014 93 10000 4.63 320 11:42 14.01.2021
3755 Snow 0 1014 93 10000 4.63 320 11:20 14.01.2021
3756 Snow 0 1013 93 9000 4.63 330 10:50 14.01.2021
3757 Snow 0 1012 100 3500 5.14 320 10:25 14.01.2021
3758 Snow 0 1011 93 8000 4.63 310 09:48 14.01.2021
3759 Snow -1 1011 93 10000 4.12 320 09:23 14.01.2021
3760 Snow -1 1010 93 10000 4.63 330 08:49 14.01.2021
3761 Snow -1 1009 93 10000 6.17 340 08:27 14.01.2021
3762 Snow -1 1008 100 5000 5.66 340 07:49 14.01.2021
3763 Snow -1 1006 100 1500 6.69 330 06:53 14.01.2021
3764 Snow -1 1005 93 6000 7.2 300 05:56 14.01.2021
3765 Snow -1 1004 74 10000 7.72 290 01:42 14.01.2021
3766 Snow 0 1004 86 10000 4.63 280 23:55 13.01.2021
3767 Snow -1 1004 100 10000 5.14 280 23:23 13.01.2021
3768 Snow 0 1003 100 2500 5.66 290 22:30 13.01.2021
3769 Snow 0 1004 100 200 9.26 300 21:59 13.01.2021
3770 Snow 0 1004 100 200 9.26 300 21:59 13.01.2021
3771 Snow 1 1004 100 200 9.26 300 21:41 13.01.2021
3772 Snow 1 1003 86 6000 7.2 250 21:19 13.01.2021
3773 Snow 1 1003 93 5000 8.23 240 20:42 13.01.2021
3774 Snow 1 1004 75 10000 8.75 250 20:20 13.01.2021
3775 Snow 2 1004 69 10000 6.69 240 19:43 13.01.2021
3776 Clouds 2 1005 69 10000 6.69 240 19:22 13.01.2021
3777 Clouds 2 1005 69 10000 6.69 240 18:42 13.01.2021
3778 Snow 2 1006 75 10000 6.69 240 18:18 13.01.2021
3779 Snow 2 1007 80 10000 6.17 250 17:40 13.01.2021
3780 Snow 2 1007 80 10000 5.66 250 17:18 13.01.2021
3781 Snow 2 1007 80 10000 5.66 250 16:36 13.01.2021
3782 Clouds 2 1008 80 4000 6.17 250 16:18 13.01.2021
3783 Clouds 2 1008 80 10000 7.2 260 15:40 13.01.2021
3784 Clouds 2 1008 80 10000 7.72 260 14:59 13.01.2021
3785 Snow 1 1008 86 10000 5.14 260 14:27 13.01.2021
3786 Snow 1 1009 86 10000 4.63 260 13:39 13.01.2021
3787 Snow 1 1009 86 6000 5.14 260 13:19 13.01.2021
3788 Snow 2 1009 80 10000 5.66 260 12:45 13.01.2021
3789 Snow 2 1010 86 10000 7.2 260 12:24 13.01.2021
3790 Snow 2 1010 86 6000 6.17 250 11:50 13.01.2021
3791 Snow 2 1010 86 6000 6.17 250 11:32 13.01.2021
3792 Snow 2 1010 86 10000 5.66 260 10:48 13.01.2021
3793 Snow 2 1010 80 10000 6.17 260 10:27 13.01.2021
3794 Snow 2 1010 80 10000 5.14 260 09:40 13.01.2021
3795 Snow 1 1010 80 10000 6.17 270 08:59 13.01.2021
3796 Snow 1 1010 80 10000 6.17 270 08:41 13.01.2021
3797 Snow 1 1010 80 10000 6.17 270 08:23 13.01.2021
3798 Snow 1 1010 80 10000 5.66 260 07:29 13.01.2021
3799 Snow 1 1010 80 10000 6.17 270 06:21 13.01.2021
3800 Clouds 1 1009 86 10000 5.66 270 04:19 13.01.2021
3801 Clouds 1 1009 86 10000 5.14 270 03:44 13.01.2021
3802 Clouds 1 1009 80 10000 5.66 280 03:22 13.01.2021
3803 Clouds 1 1008 86 10000 5.14 280 00:54 13.01.2021
3804 Clouds 1 1007 80 10000 5.66 290 23:44 12.01.2021
3805 Snow 1 1007 86 10000 6.17 290 23:19 12.01.2021
3806 Snow 1 1006 86 10000 6.69 280 22:45 12.01.2021
3807 Snow 1 1006 93 10000 5.14 270 22:23 12.01.2021
3808 Snow 1 1006 93 2800 4.12 260 21:49 12.01.2021
3809 Snow 1 1005 86 10000 4.12 250 21:26 12.01.2021
3810 Clouds 0 1005 93 10000 3.09 260 20:49 12.01.2021
3811 Clouds 1 1005 86 10000 3.6 280 20:27 12.01.2021
3812 Clouds 1 1005 86 10000 5.14 290 19:47 12.01.2021
3813 Snow 1 1004 93 10000 5.14 290 19:27 12.01.2021
3814 Rain 1 1003 93 10000 5.14 280 18:44 12.01.2021
3815 Rain 2 1003 93 10000 5.14 280 18:24 12.01.2021
3816 Snow 2 1002 93 10000 6.69 270 17:43 12.01.2021
3817 Snow 2 1002 87 10000 5.66 270 17:24 12.01.2021
3818 Clouds 2 1002 87 10000 5.66 260 16:43 12.01.2021
3819 Clouds 2 1002 87 7000 6.69 250 16:24 12.01.2021
3820 Snow 2 1001 87 10000 5.14 240 15:41 12.01.2021
3821 Clouds 2 1001 87 10000 6.69 240 15:21 12.01.2021
3822 Snow 2 1001 87 10000 6.69 240 14:43 12.01.2021
3823 Clouds 2 1001 87 10000 7.2 240 14:23 12.01.2021
3824 Rain 2 1002 87 10000 6.69 240 13:52 12.01.2021
3825 Clouds 2 1002 87 10000 7.2 240 13:18 12.01.2021
3826 Snow 2 1003 87 10000 5.66 240 12:26 12.01.2021
3827 Snow 1 1003 93 10000 6.17 230 11:41 12.01.2021
3828 Snow 1 1004 100 6000 4.63 230 10:55 12.01.2021
3829 Snow 1 1004 100 6000 4.63 230 10:55 12.01.2021
3830 Snow 1 1004 100 6000 4.63 230 10:55 12.01.2021
3831 Snow 0 1004 100 1400 5.14 210 10:26 12.01.2021
3832 Snow 0 1005 100 1600 5.14 190 09:58 12.01.2021
3833 Snow 0 1005 100 1600 5.14 190 09:38 12.01.2021
3834 Snow 0 1005 100 1300 5.66 190 09:20 12.01.2021
3835 Snow 0 1006 100 1600 5.66 190 08:26 12.01.2021
3836 Snow 0 1006 100 2100 5.66 200 07:37 12.01.2021
3837 Snow -1 1007 100 1200 6.69 200 06:59 12.01.2021
3838 Snow 1 1008 86 1800 4.63 220 05:35 12.01.2021
3839 Clouds 2 1009 75 10000 6.17 210 03:33 12.01.2021
3840 Clouds 1 1011 75 10000 7.2 210 02:21 12.01.2021
3841 Clouds 1 1012 75 10000 5.66 200 01:36 12.01.2021
3842 Snow -1 1013 80 10000 5.14 180 00:30 12.01.2021
3843 Snow -1 1013 80 10000 5.66 190 23:39 11.01.2021
3844 Clear 0 1013 74 10000 5.66 200 23:18 11.01.2021
3845 Snow 0 1014 69 10000 6.17 200 22:45 11.01.2021
3846 Clouds 0 1014 69 10000 6.17 200 22:27 11.01.2021
3847 Snow 0 1015 69 10000 5.14 200 21:44 11.01.2021
3848 Clear 0 1015 69 10000 5.14 220 21:25 11.01.2021
3849 Clear 0 1015 69 10000 5.14 230 20:56 11.01.2021
3850 Clear 0 1015 69 10000 5.14 230 20:36 11.01.2021
3851 Clouds 0 1016 69 10000 4.63 220 20:18 11.01.2021
3852 Clouds 0 1016 74 10000 4.12 230 19:41 11.01.2021
3853 Clouds 0 1016 74 10000 4.63 220 19:21 11.01.2021
3854 Clear 0 1016 80 10000 5.14 200 18:42 11.01.2021
3855 Clear -2 1016 80 10000 4.63 190 18:23 11.01.2021
3856 Clouds -1 1017 74 10000 4.63 190 17:42 11.01.2021
3857 Clouds 0 1017 74 10000 4.63 210 17:24 11.01.2021
3858 Clear -1 1017 69 10000 4.63 210 16:48 11.01.2021
3859 Clear 1 1017 74 10000 4.63 220 16:29 11.01.2021
3860 Clear 1 1017 74 10000 5.66 210 15:54 11.01.2021
3861 Snow 1 1017 74 10000 5.66 210 15:34 11.01.2021
3862 Clear 1 1018 69 10000 5.66 210 14:51 11.01.2021
3863 Clear 1 1018 69 10000 5.66 210 14:32 11.01.2021
3864 Clear 1 1019 69 10000 6.17 210 13:46 11.01.2021
3865 Clear 1 1019 69 10000 5.14 230 13:22 11.01.2021
3866 Clear 1 1020 74 10000 6.17 220 12:44 11.01.2021
3867 Clear 0 1020 74 10000 5.14 230 12:25 11.01.2021
3868 Clear 0 1020 69 10000 5.14 220 11:47 11.01.2021
3869 Clear -1 1020 80 10000 5.66 210 10:59 11.01.2021
3870 Clear -1 1020 80 10000 5.66 210 10:39 11.01.2021
3871 Clear -4 1020 80 10000 4.63 200 09:59 11.01.2021
3872 Clear -4 1020 80 10000 4.63 200 09:37 11.01.2021
3873 Clear -5 1020 86 10000 4.12 210 09:19 11.01.2021
3874 Clear -5 1021 86 10000 4.12 200 08:38 11.01.2021
3875 Clear -6 1020 86 10000 4.63 190 07:50 11.01.2021
3876 Clear -6 1020 86 10000 4.12 190 07:25 11.01.2021
3877 Clear -6 1020 86 10000 5.14 190 06:49 11.01.2021
3878 Clear -4 1022 93 10000 4.12 200 02:57 11.01.2021
3879 Clear -4 1022 93 10000 3.09 200 01:25 11.01.2021
3880 Clear -3 1022 93 10000 3.09 190 23:51 10.01.2021
3881 Clear -4 1022 100 10000 3.6 200 23:26 10.01.2021
3882 Mist -3 1022 100 4500 3.09 190 22:47 10.01.2021
3883 Fog -3 1023 93 100 2.57 190 22:20 10.01.2021
3884 Clear -4 1023 100 10000 2.06 180 21:44 10.01.2021
3885 Clear -3 1023 100 10000 2.06 210 21:20 10.01.2021
3886 Clear -3 1023 93 10000 2.06 210 20:50 10.01.2021
3887 Clear -3 1023 93 10000 2.06 210 20:32 10.01.2021
3888 Clear -3 1023 100 10000 2.57 190 19:43 10.01.2021
3889 Clear -2 1023 93 10000 1.03 160 19:25 10.01.2021
3890 Clouds -3 1023 93 10000 2.06 150 18:49 10.01.2021
3891 Clouds -2 1023 93 10000 2.06 150 18:21 10.01.2021
3892 Clouds -2 1023 93 10000 2.06 150 18:21 10.01.2021
3893 Clouds -1 1023 93 10000 1.54 130 17:28 10.01.2021
3894 Clouds -1 1023 93 10000 1.03 0 16:59 10.01.2021
3895 Clouds -1 1023 93 10000 1.03 0 16:32 10.01.2021
3896 Clouds -1 1023 86 10000 2.06 360 15:56 10.01.2021
3897 Clouds 1 1023 86 10000 1.03 360 15:25 10.01.2021
3898 Clouds 1 1023 86 10000 1.03 0 14:50 10.01.2021
3899 Clouds 1 1023 86 10000 1.03 0 14:31 10.01.2021
3900 Clouds 0 1023 100 6000 1.54 330 13:55 10.01.2021
3901 Clouds 0 1023 100 6000 1.54 330 13:55 10.01.2021
3902 Clouds 0 1023 100 6000 1.54 330 13:37 10.01.2021
3903 Clouds 1 1023 100 6000 2.06 290 13:18 10.01.2021
3904 Clouds 0 1024 100 6000 2.06 270 12:47 10.01.2021
3905 Mist 0 1024 100 5000 1.03 0 12:27 10.01.2021
3906 Mist 0 1024 100 4500 1.54 270 11:39 10.01.2021
3907 Mist 0 1024 100 4500 1.54 290 11:18 10.01.2021
3908 Mist 0 1024 100 4000 1.03 0 10:38 10.01.2021
3909 Snow 0 1024 100 4000 2.06 310 10:20 10.01.2021
3910 Snow 0 1023 100 4000 1.54 290 09:27 10.01.2021
3911 Snow 0 1023 100 1300 1.54 270 08:21 10.01.2021
3912 Snow 0 1023 100 600 2.57 290 07:31 10.01.2021
3913 Snow 0 1023 100 1800 2.06 290 06:20 10.01.2021
3914 Snow 0 1023 100 1400 2.57 300 05:37 10.01.2021
3915 Snow 1 1022 100 200 2.06 290 03:26 10.01.2021
3916 Snow 0 1022 100 150 2.57 280 01:28 10.01.2021
3917 Snow 1 1022 100 2600 2.57 290 23:55 09.01.2021
3918 Snow 1 1022 100 2600 2.57 290 23:36 09.01.2021
3919 Snow 1 1022 100 600 2.06 270 22:50 09.01.2021
3920 Snow 1 1022 100 600 1.54 270 22:19 09.01.2021
3921 Snow 1 1022 100 400 1.54 280 21:58 09.01.2021
3922 Fog 1 1022 100 400 1.54 280 21:39 09.01.2021
3923 Snow 1 1021 100 250 2.06 300 21:20 09.01.2021
3924 Fog 1 1021 100 100 2.57 300 20:46 09.01.2021
3925 Snow 1 1021 100 100 2.57 310 20:27 09.01.2021
3926 Snow 1 1021 100 200 3.09 300 19:39 09.01.2021
3927 Snow 1 1021 100 700 1.54 290 19:19 09.01.2021
3928 Snow 1 1021 100 150 1.54 280 18:36 09.01.2021
3929 Snow 0 1021 100 400 2.57 290 17:51 09.01.2021
3930 Snow 0 1021 100 400 2.57 290 17:32 09.01.2021
3931 Snow 0 1020 93 10000 3.09 280 16:55 09.01.2021
3932 Clouds 0 1020 93 10000 2.57 260 16:22 09.01.2021
3933 Snow 0 1020 93 10000 2.06 270 15:41 09.01.2021
3934 Clouds 0 1019 93 10000 2.06 280 15:19 09.01.2021
3935 Clouds 0 1019 93 8000 2.06 270 14:37 09.01.2021
3936 Snow 0 1019 93 7000 2.06 290 14:18 09.01.2021
3937 Snow 0 1019 100 4500 3.09 280 13:43 09.01.2021
3938 Snow 0 1019 93 6000 3.09 290 13:24 09.01.2021
3939 Snow 0 1019 93 7000 3.6 270 12:28 09.01.2021
3940 Snow 0 1019 93 5000 2.06 260 11:58 09.01.2021
3941 Snow 0 1019 93 5000 2.06 260 11:38 09.01.2021
3942 Snow 0 1019 86 4000 2.06 270 11:18 09.01.2021
3943 Snow 0 1019 86 8000 2.57 260 10:43 09.01.2021
3944 Snow 0 1019 93 8000 2.06 260 10:23 09.01.2021
3945 Snow 0 1018 93 8000 3.09 250 09:44 09.01.2021
3946 Snow 0 1018 100 5000 2.57 250 09:20 09.01.2021
3947 Snow -1 1017 100 3500 2.06 240 07:49 09.01.2021
3948 Snow -1 1017 100 3500 2.06 240 07:49 09.01.2021
3949 Snow -1 1017 100 3500 2.06 260 06:54 09.01.2021
3950 Snow -1 1017 93 6000 1.54 250 06:34 09.01.2021
3951 Snow 0 1016 93 8000 2.06 260 03:53 09.01.2021
3952 Snow 0 1016 93 8000 2.06 270 02:46 09.01.2021
3953 Snow 0 1016 93 6000 1.54 280 02:27 09.01.2021
3954 Snow 0 1016 93 5000 1.54 270 01:25 09.01.2021
3955 Snow 0 1015 93 4000 2.06 280 00:34 09.01.2021
3956 Snow 0 1015 93 5000 1.54 310 23:49 08.01.2021
3957 Snow 0 1015 93 9000 2.06 310 22:48 08.01.2021
3958 Snow 0 1014 100 7000 2.06 310 21:57 08.01.2021
3959 Snow 0 1014 100 5000 2.57 300 21:27 08.01.2021
3960 Snow 1 1014 100 3500 2.06 290 20:41 08.01.2021
3961 Snow 1 1014 100 3500 1.54 270 20:21 08.01.2021
3962 Snow 1 1013 100 8000 2.06 260 19:38 08.01.2021
3963 Snow 1 1013 100 8000 2.57 260 19:19 08.01.2021
3964 Snow 1 1013 86 8000 2.57 250 18:34 08.01.2021
3965 Snow 1 1012 86 10000 2.06 250 17:55 08.01.2021
3966 Snow 1 1012 86 10000 2.57 250 17:30 08.01.2021
3967 Snow 1 1012 86 10000 1.54 250 16:51 08.01.2021
3968 Snow 2 1012 86 10000 2.57 240 15:57 08.01.2021
3969 Snow 2 1011 93 10000 3.09 250 15:38 08.01.2021
3970 Snow 2 1011 86 8000 2.57 250 14:42 08.01.2021
3971 Snow 2 1011 86 8000 3.09 270 14:23 08.01.2021
3972 Snow 1 1011 93 5000 3.09 250 13:23 08.01.2021
3973 Snow 1 1011 100 2000 3.09 250 12:57 08.01.2021
3974 Snow 1 1011 100 2000 3.09 250 12:39 08.01.2021
3975 Snow 1 1011 100 2700 3.09 260 12:19 08.01.2021
3976 Snow 1 1011 100 2700 2.57 250 11:41 08.01.2021
3977 Snow 1 1011 100 3500 2.06 220 11:22 08.01.2021
3978 Snow 1 1011 100 3500 2.06 230 10:46 08.01.2021
3979 Snow 1 1011 100 5000 2.06 200 10:24 08.01.2021
3980 Snow 1 1011 93 2700 2.57 210 09:44 08.01.2021
3981 Snow 0 1010 93 8000 3.09 220 09:21 08.01.2021
3982 Snow 0 1010 93 5000 3.09 210 08:19 08.01.2021
3983 Snow 0 1010 93 8000 3.09 220 07:25 08.01.2021
3984 Snow 0 1010 86 8000 4.63 220 04:47 08.01.2021
3985 Clouds 0 1011 80 10000 4.12 220 23:46 07.01.2021
3986 Snow 0 1011 80 10000 4.12 210 23:28 07.01.2021
3987 Snow 0 1011 80 10000 3.6 220 22:44 07.01.2021
3988 Snow 0 1011 80 10000 4.12 220 22:25 07.01.2021
3989 Clouds 0 1011 80 10000 3.09 220 21:42 07.01.2021
3990 Clouds 0 1011 80 10000 3.09 220 21:24 07.01.2021
3991 Clouds 1 1011 75 10000 3.09 230 20:46 07.01.2021
3992 Clouds 0 1011 80 10000 3.6 220 20:28 07.01.2021
3993 Clouds 0 1011 80 10000 4.12 230 19:43 07.01.2021
3994 Clouds 0 1011 80 10000 3.6 230 19:20 07.01.2021
3995 Clouds 1 1011 75 10000 2.57 230 18:30 07.01.2021
3996 Clouds 0 1011 80 10000 3.09 220 17:47 07.01.2021
3997 Clouds 1 1011 80 10000 4.12 220 17:27 07.01.2021
3998 Clouds 1 1011 75 10000 3.09 220 16:53 07.01.2021
3999 Clouds 1 1011 80 10000 3.6 230 16:27 07.01.2021
4000 Clouds 1 1010 75 10000 4.12 240 15:41 07.01.2021
4001 Clouds 1 1010 80 10000 4.12 250 14:57 07.01.2021
4002 Clouds 1 1010 80 10000 4.12 240 14:27 07.01.2021
4003 Clouds 1 1010 80 10000 4.12 250 13:46 07.01.2021
4004 Clouds 1 1010 80 10000 3.6 260 13:18 07.01.2021
4005 Clouds 1 1011 83 10000 3.6 250 12:43 07.01.2021
4006 Clouds 1 1011 85 10000 3.6 250 11:57 07.01.2021
4007 Clouds 1 1011 85 10000 3.6 250 11:57 07.01.2021
4008 Snow 1 1011 85 10000 4.1 260 11:36 07.01.2021
4009 Snow 1 1011 88 10000 3.6 250 10:51 07.01.2021
4010 Snow 0 1011 88 10000 3.6 250 10:32 07.01.2021
4011 Snow 0 1010 92 10000 3.6 250 09:48 07.01.2021
4012 Snow 0 1010 94 10000 3.6 250 09:22 07.01.2021
4013 Snow 0 1010 94 10000 3.1 260 08:30 07.01.2021
4014 Snow 0 1010 94 10000 3.6 260 07:53 07.01.2021
4015 Snow 0 1010 94 10000 3.1 260 07:32 07.01.2021
4016 Snow 0 1010 95 10000 2.6 260 05:44 07.01.2021
4017 Clouds 0 1010 95 10000 1.5 250 00:58 07.01.2021
4018 Clouds 0 1010 96 10000 2.6 270 23:52 06.01.2021
4019 Clouds 0 1010 93 10000 3.6 270 22:50 06.01.2021
4020 Clouds 0 1010 92 10000 2.1 280 21:59 06.01.2021
4021 Clouds 0 1010 92 10000 2.1 280 21:41 06.01.2021
4022 Snow 0 1010 93 10000 2.1 280 21:21 06.01.2021
4023 Snow 0 1010 93 10000 2.6 280 20:40 06.01.2021
4024 Snow 0 1010 93 10000 2.6 290 20:19 06.01.2021
4025 Snow 0 1010 93 10000 3.1 280 19:42 06.01.2021
4026 Snow 0 1010 93 10000 3.1 280 19:24 06.01.2021
4027 Snow 1 1010 93 10000 3.1 270 18:45 06.01.2021
4028 Snow 1 1010 91 10000 1 0 18:26 06.01.2021
4029 Snow 1 1009 91 8000 2.1 280 17:43 06.01.2021
4030 Snow 1 1009 92 8000 2.1 280 17:25 06.01.2021
4031 Drizzle 1 1009 92 9000 1.5 280 16:51 06.01.2021
4032 Drizzle 1 1009 90 7000 1.5 260 16:20 06.01.2021
4033 Drizzle 1 1009 90 10000 1.5 280 15:57 06.01.2021
4034 Clouds 1 1009 90 10000 2.6 300 15:32 06.01.2021
4035 Snow 1 1009 89 10000 3.6 320 14:56 06.01.2021
4036 Snow 1 1009 89 10000 3.6 290 14:30 06.01.2021
4037 Snow 1 1009 89 10000 3.6 290 14:30 06.01.2021
4038 Clouds 1 1009 87 10000 2.6 290 13:51 06.01.2021
4039 Clouds 1 1010 87 10000 3.1 300 13:25 06.01.2021
4040 Clouds 1 1010 87 10000 4.1 310 12:54 06.01.2021
4041 Clouds 1 1010 90 10000 3.1 320 12:30 06.01.2021
4042 Clouds 1 1010 90 10000 2.6 300 11:44 06.01.2021
4043 Clouds 1 1010 91 10000 2.6 300 11:21 06.01.2021
4044 Clouds 1 1010 91 10000 3.1 320 10:35 06.01.2021
4045 Clouds 1 1010 100 8000 3.1 320 09:52 06.01.2021
4046 Rain 1 1010 100 5000 2.1 300 09:27 06.01.2021
4047 Mist 1 1010 100 1500 2.6 280 08:51 06.01.2021
4048 Snow 1 1010 93 150 2.1 280 08:18 06.01.2021
4049 Fog 1 1010 93 150 2.1 280 07:49 06.01.2021
4050 Snow 1 1010 93 400 2.1 280 06:44 06.01.2021
4051 Snow 1 1010 94 300 2.1 270 05:28 06.01.2021
4052 Snow 1 1011 94 400 2.1 290 02:59 06.01.2021
4053 Snow 1 1011 94 300 2.1 290 02:40 06.01.2021
4054 Snow 1 1011 94 300 2.1 290 02:19 06.01.2021
4055 Snow 0 1012 94 1000 2.6 300 23:51 05.01.2021
4056 Snow 0 1013 94 1500 2.1 300 22:57 05.01.2021
4057 Snow 0 1013 94 1000 2.1 310 22:38 05.01.2021
4058 Snow 0 1013 94 1200 2.1 320 22:19 05.01.2021
4059 Mist 0 1013 94 1000 2.1 310 21:21 05.01.2021
4060 Snow 0 1013 94 1200 2.1 320 20:30 05.01.2021
4061 Snow 0 1013 93 900 2.1 330 19:55 05.01.2021
4062 Snow 0 1013 93 900 2.1 330 19:36 05.01.2021
4063 Rain 0 1013 93 700 2.6 330 19:18 05.01.2021
4064 Snow 0 1013 93 1400 2.6 340 18:42 05.01.2021
4065 Mist 0 1013 93 2500 2.6 340 18:18 05.01.2021
4066 Snow 0 1013 93 2000 2.6 340 17:40 05.01.2021
4067 Rain 0 1013 93 1400 2.6 350 17:20 05.01.2021
4068 Rain 1 1013 92 2500 2.6 350 16:39 05.01.2021
4069 Rain 1 1013 92 2500 2.6 350 16:20 05.01.2021
4070 Fog 1 1013 92 300 3.6 10 15:44 05.01.2021
4071 Snow 1 1013 92 500 3.6 10 14:49 05.01.2021
4072 Snow 1 1013 92 600 3.6 10 14:19 05.01.2021
4073 Snow 1 1013 92 600 3.6 10 13:44 05.01.2021
4074 Mist 1 1013 91 1000 3.1 20 13:21 05.01.2021
4075 Drizzle 1 1014 92 1000 3.6 10 12:47 05.01.2021
4076 Snow 1 1014 92 600 3.6 20 12:22 05.01.2021
4077 Snow 1 1014 92 400 3.1 20 11:39 05.01.2021
4078 Snow 1 1014 92 400 3.1 20 11:39 05.01.2021
4079 Fog 1 1014 91 800 3.1 40 10:46 05.01.2021
4080 Fog 1 1014 91 800 3.1 40 10:27 05.01.2021
4081 Snow 1 1014 91 800 4.1 30 09:49 05.01.2021
4082 Snow 1 1014 92 400 4.1 40 09:29 05.01.2021
4083 Snow 1 1014 92 400 3.1 30 08:27 05.01.2021
4084 Snow 1 1013 92 400 3.6 50 07:45 05.01.2021
4085 Snow 1 1013 92 500 2.6 50 04:58 05.01.2021
4086 Fog 1 1014 90 200 2.1 30 00:59 05.01.2021
4087 Snow 1 1014 90 200 2.1 20 00:21 05.01.2021
4088 Fog 1 1014 90 300 2.1 30 23:38 04.01.2021
4089 Fog 1 1014 92 200 3.6 40 23:19 04.01.2021
4090 Fog 1 1014 92 200 3.1 50 22:41 04.01.2021
4091 Fog 1 1015 93 200 3.1 60 21:56 04.01.2021
4092 Fog 1 1014 93 250 3.1 50 21:37 04.01.2021
4093 Fog 1 1014 93 300 2.1 50 20:52 04.01.2021
4094 Fog 1 1014 93 200 2.1 60 20:32 04.01.2021
4095 Fog 1 1014 93 200 2.1 60 20:32 04.01.2021
4096 Fog 1 1014 92 200 2.1 30 19:55 04.01.2021
4097 Snow 1 1014 92 200 2.1 40 19:29 04.01.2021
4098 Snow 1 1014 92 200 2.6 40 18:58 04.01.2021
4099 Fog 1 1014 92 200 2.1 20 18:31 04.01.2021
4100 Fog 1 1014 92 200 1.5 30 17:45 04.01.2021
4101 Fog 1 1014 92 200 1.5 30 17:27 04.01.2021
4102 Fog 1 1014 92 200 2.6 40 16:48 04.01.2021
4103 Fog 1 1014 91 200 2.6 40 16:28 04.01.2021
4104 Fog 1 1014 91 300 2.6 30 15:52 04.01.2021
4105 Fog 1 1014 91 300 2.6 30 15:52 04.01.2021
4106 Fog 1 1014 91 300 2.6 30 15:34 04.01.2021
4107 Fog 1 1014 91 200 1.5 30 14:52 04.01.2021
4108 Fog 1 1014 92 200 2.1 10 13:55 04.01.2021
4109 Fog 1 1014 92 200 2.1 10 13:35 04.01.2021
4110 Fog 1 1014 92 200 1.5 20 12:50 04.01.2021
4111 Snow 1 1014 93 200 1.5 10 12:25 04.01.2021
4112 Fog 1 1014 93 200 1.5 10 11:39 04.01.2021
4113 Rain 1 1014 92 200 1.5 20 11:18 04.01.2021
4114 Fog 1 1014 92 200 1.5 30 10:42 04.01.2021
4115 Rain 1 1014 92 200 1.5 30 10:21 04.01.2021
4116 Fog 1 1014 93 200 1.5 40 09:25 04.01.2021
4117 Fog 1 1014 93 200 1 10 08:57 04.01.2021
4118 Fog 1 1014 93 200 1.5 10 08:22 04.01.2021
4119 Fog 1 1013 93 200 2.1 20 07:46 04.01.2021
4120 Fog 1 1013 94 200 1.5 360 05:37 04.01.2021
4121 Snow 1 1013 93 200 1.5 20 05:19 04.01.2021
4122 Fog 1 1013 93 450 1.5 40 02:24 04.01.2021
4123 Fog 1 1013 93 500 1.5 30 00:20 04.01.2021
4124 Fog 1 1013 93 800 2.6 60 23:37 03.01.2021
4125 Fog 1 1013 93 800 2.1 40 22:58 03.01.2021
4126 Mist 1 1013 93 1100 2.6 50 22:39 03.01.2021
4127 Mist 1 1013 93 1100 2.6 50 22:39 03.01.2021
4128 Mist 1 1013 93 1100 2.6 50 22:21 03.01.2021
4129 Snow 1 1012 93 3300 2.6 50 21:41 03.01.2021
4130 Snow 1 1012 93 3300 2.6 50 21:23 03.01.2021
4131 Mist 1 1012 93 4000 2.1 50 20:41 03.01.2021
4132 Mist 1 1012 93 4000 2.1 50 20:19 03.01.2021
4133 Drizzle 1 1011 93 3200 1.5 40 19:46 03.01.2021
4134 Drizzle 1 1011 94 3200 1.5 40 19:27 03.01.2021
4135 Mist 1 1011 94 3500 3.6 70 18:50 03.01.2021
4136 Mist 1 1011 94 3500 3.6 70 18:30 03.01.2021
4137 Mist 1 1011 94 2800 3.1 60 17:53 03.01.2021
4138 Mist 1 1011 94 2300 3.1 60 17:27 03.01.2021
4139 Mist 1 1011 100 1800 2.6 50 16:57 03.01.2021
4140 Mist 1 1010 100 1600 2.6 60 16:38 03.01.2021
4141 Mist 1 1010 94 1800 3.1 60 16:18 03.01.2021
4142 Drizzle 1 1010 94 1800 3.6 60 15:41 03.01.2021
4143 Drizzle 1 1010 94 1400 3.1 60 15:19 03.01.2021
4144 Drizzle 1 1010 94 1400 3.6 50 14:41 03.01.2021
4145 Drizzle 1 1010 93 2100 3.1 50 13:57 03.01.2021
4146 Rain 1 1010 93 4500 2.6 50 13:37 03.01.2021
4147 Mist 1 1010 93 5000 2.6 50 13:19 03.01.2021
4148 Clouds 1 1010 93 8000 3.1 60 11:46 03.01.2021
4149 Rain 1 1010 93 7000 4.1 60 11:27 03.01.2021
4150 Clouds 1 1010 93 7000 4.1 60 10:58 03.01.2021
4151 Snow 1 1010 93 6000 3.6 60 10:33 03.01.2021
4152 Snow 1 1010 93 4000 3.6 70 09:52 03.01.2021
4153 Snow 0 1010 93 3200 3.6 60 09:28 03.01.2021
4154 Snow 0 1010 93 2500 4.1 60 08:32 03.01.2021
4155 Snow 0 1010 93 3500 4.1 60 06:57 03.01.2021
4156 Snow 1 1010 93 1000 4.1 60 05:23 03.01.2021
4157 Snow 2 1011 90 8000 6.2 60 02:26 03.01.2021
4158 Clouds 2 1012 89 8000 5.7 60 00:54 03.01.2021
4159 Clouds 2 1013 90 10000 4.1 70 23:53 02.01.2021
4160 Clouds 2 1013 90 10000 3.6 60 23:20 02.01.2021
4161 Clouds 2 1013 90 10000 3.6 60 22:49 02.01.2021
4162 Clouds 2 1013 89 10000 3.6 50 22:31 02.01.2021
4163 Clouds 2 1013 89 10000 2.6 60 21:49 02.01.2021
4164 Clouds 2 1013 89 10000 2.6 60 21:29 02.01.2021
4165 Clouds 2 1013 89 10000 2.1 60 20:46 02.01.2021
4166 Clouds 2 1013 89 10000 2.1 60 20:26 02.01.2021
4167 Clouds 2 1013 89 10000 2.1 60 19:49 02.01.2021
4168 Clouds 2 1013 90 10000 2.1 70 19:20 02.01.2021
4169 Clouds 2 1013 90 10000 2.1 60 18:52 02.01.2021
4170 Clouds 2 1013 90 10000 2.1 60 18:33 02.01.2021
4171 Clouds 2 1013 93 10000 2.1 40 17:56 02.01.2021
4172 Clouds 2 1013 93 10000 2.6 40 17:37 02.01.2021
4173 Clouds 2 1013 91 10000 1.5 60 16:49 02.01.2021
4174 Clouds 2 1013 80 10000 1.5 60 16:23 02.01.2021
4175 Clouds 3 1013 80 10000 1.5 60 15:51 02.01.2021
4176 Clouds 3 1013 80 10000 1.5 110 15:28 02.01.2021
4177 Clouds 2 1013 80 10000 1.5 100 14:53 02.01.2021
4178 Clouds 2 1013 80 10000 1.5 100 14:33 02.01.2021
4179 Clouds 3 1013 77 10000 1.5 100 13:44 02.01.2021
4180 Clouds 3 1013 77 10000 1.5 100 12:59 02.01.2021
4181 Clouds 3 1013 78 10000 1 0 12:41 02.01.2021
4182 Clouds 3 1013 79 10000 1 0 12:22 02.01.2021
4183 Clouds 2 1014 80 10000 2.1 150 11:42 02.01.2021
4184 Clouds 2 1014 86 10000 0.5 0 11:20 02.01.2021
4185 Clouds 2 1014 86 10000 2.1 150 10:42 02.01.2021
4186 Clouds 1 1014 86 10000 1.5 150 10:24 02.01.2021
4187 Clouds 1 1013 86 9000 2.1 140 09:43 02.01.2021
4188 Clouds 1 1013 92 9000 1.5 150 09:21 02.01.2021
4189 Clouds 1 1013 92 9000 1.5 150 08:49 02.01.2021
4190 Clouds 1 1013 94 9000 1.5 150 08:19 02.01.2021
4191 Clouds 1 1013 94 10000 1 170 07:43 02.01.2021
4192 Clouds 1 1013 95 10000 1 170 07:19 02.01.2021
4193 Clouds 1 1012 94 10000 1.5 140 06:25 02.01.2021
4194 Clouds 2 1012 93 10000 0.5 0 04:27 02.01.2021
4195 Clouds 1 1011 91 10000 1.5 190 00:55 02.01.2021
4196 Clouds 2 1011 92 10000 1.5 200 00:35 02.01.2021
4197 Clouds 2 1011 89 10000 1.5 190 23:49 01.01.2021
4198 Clouds 2 1011 86 10000 1 0 23:20 01.01.2021
4199 Clouds 2 1010 86 10000 1.5 180 22:47 01.01.2021
4200 Clouds 2 1010 86 10000 1.5 180 22:22 01.01.2021
4201 Clouds 2 1010 86 10000 0.5 0 21:44 01.01.2021
4202 Clouds 2 1010 85 10000 1 0 21:22 01.01.2021
4203 Clouds 2 1010 85 10000 1 0 20:52 01.01.2021
4204 Clouds 2 1009 84 10000 1.5 270 20:22 01.01.2021
4205 Clouds 3 1009 84 10000 2.1 220 19:43 01.01.2021
4206 Clouds 3 1009 85 10000 2.1 220 19:24 01.01.2021
4207 Clouds 2 1009 85 10000 1.5 200 18:57 01.01.2021
4208 Clouds 2 1009 85 10000 1.5 240 18:39 01.01.2021
4209 Clouds 3 1008 86 10000 2.1 200 18:19 01.01.2021
4210 Clouds 3 1008 85 10000 1 0 17:42 01.01.2021
4211 Clouds 3 1008 86 10000 1 0 17:18 01.01.2021
4212 Clouds 3 1008 86 10000 1.5 230 16:40 01.01.2021
4213 Clouds 3 1008 86 10000 1.5 250 15:57 01.01.2021
4214 Clouds 4 1007 86 10000 2.1 250 15:39 01.01.2021
4215 Clouds 3 1007 85 10000 3.6 220 14:42 01.01.2021
4216 Clouds 4 1007 88 10000 3.6 220 14:21 01.01.2021
4217 Clouds 3 1007 88 10000 3.1 220 13:37 01.01.2021
4218 Clouds 3 1007 84 10000 2.6 200 12:51 01.01.2021
4219 Clouds 3 1007 80 10000 2.1 190 12:26 01.01.2021
4220 Clouds 2 1007 76 10000 3.1 190 11:42 01.01.2021
4221 Clouds 2 1006 80 10000 1.5 170 11:19 01.01.2021
4222 Clouds 2 1006 86 10000 2.1 160 10:56 01.01.2021
4223 Clouds 2 1006 86 10000 2.1 160 10:26 01.01.2021
4224 Clouds 1 1006 86 10000 2.1 160 09:31 01.01.2021
4225 Clouds 1 1005 86 7000 3.1 140 08:30 01.01.2021
4226 Snow 1 1005 89 7000 2.1 120 07:22 01.01.2021
4227 Clouds 1 1005 80 10000 3.6 140 04:51 01.01.2021
4228 Clouds 1 1005 80 10000 4.1 150 01:58 01.01.2021
4229 Clouds 1 1005 80 10000 4.1 150 00:35 01.01.2021
4230 Clear 0 1005 80 10000 4.6 150 23:43 31.12.2020
4231 Clear 1 1005 74 10000 5.7 150 23:21 31.12.2020
4232 Clear 1 1005 74 10000 5.7 150 22:55 31.12.2020
4233 Clear 1 1005 80 10000 5.1 150 22:37 31.12.2020
4234 Clear 0 1005 80 10000 5.1 150 22:19 31.12.2020
4235 Clear 0 1005 86 10000 4.1 150 21:44 31.12.2020
4236 Clear 0 1005 85 10000 4.1 160 21:21 31.12.2020
4237 Clear 0 1005 85 10000 4.6 160 20:31 31.12.2020
4238 Clear 0 1005 85 10000 4.6 150 19:59 31.12.2020
4239 Clear -1 1005 85 10000 4.1 150 19:38 31.12.2020
4240 Clear 0 1005 80 10000 4.1 150 19:20 31.12.2020
4241 Clear 0 1005 74 10000 4.1 150 18:42 31.12.2020
4242 Clear 0 1005 74 10000 4.1 150 18:23 31.12.2020
4243 Clear 0 1005 80 10000 3.1 150 17:42 31.12.2020
4244 Clear 1 1005 80 10000 2.6 140 17:21 31.12.2020
4245 Clouds 2 1005 74 10000 3.1 160 16:40 31.12.2020
4246 Clouds 2 1005 69 10000 4.1 160 16:21 31.12.2020
4247 Clouds 3 1005 69 10000 5.1 180 15:45 31.12.2020
4248 Clouds 3 1005 69 10000 5.1 180 15:21 31.12.2020
4249 Clouds 4 1005 64 10000 4.6 190 14:56 31.12.2020
4250 Clouds 4 1005 60 10000 5.7 200 14:37 31.12.2020
4251 Clouds 4 1005 60 10000 5.1 200 14:19 31.12.2020
4252 Clouds 4 1005 60 10000 5.1 200 14:19 31.12.2020
4253 Clouds 4 1006 60 10000 4.6 180 13:38 31.12.2020
4254 Clear 4 1006 64 10000 5.1 190 13:19 31.12.2020
4255 Clear 4 1006 64 10000 5.1 190 12:53 31.12.2020
4256 Clear 4 1006 69 10000 4.6 180 12:34 31.12.2020
4257 Clear 3 1007 74 10000 3.6 180 11:51 31.12.2020
4258 Clear 3 1007 74 10000 4.1 160 11:32 31.12.2020
4259 Clear 3 1007 74 10000 4.1 160 11:32 31.12.2020
4260 Clear 2 1007 80 10000 4.1 160 10:49 31.12.2020
4261 Clear 2 1007 80 10000 3.6 150 10:29 31.12.2020
4262 Clouds 1 1007 80 10000 3.6 160 09:57 31.12.2020
4263 Clouds 0 1007 74 10000 4.1 150 09:35 31.12.2020
4264 Clouds 0 1007 86 10000 3.6 150 08:51 31.12.2020
4265 Clouds -1 1007 86 10000 3.6 150 08:32 31.12.2020
4266 Clouds 0 1007 87 10000 4.1 170 07:59 31.12.2020
4267 Clear -1 1006 86 10000 3.1 160 07:32 31.12.2020
4268 Clouds 0 1006 87 10000 3.6 180 05:56 31.12.2020
4269 Clouds 0 1006 86 10000 3.1 210 05:28 31.12.2020
4270 Clear 0 1006 80 10000 3.6 210 02:57 31.12.2020
4271 Clear 1 1006 80 10000 4.6 200 02:25 31.12.2020
4272 Clear 1 1005 74 10000 3.1 210 01:46 31.12.2020
4273 Clear 1 1005 74 10000 3.1 210 01:27 31.12.2020
4274 Clear 1 1005 74 10000 3.1 210 01:27 31.12.2020
4275 Clouds 1 1005 74 10000 4.1 220 00:48 31.12.2020
4276 Clear 1 1006 86 10000 5.1 200 23:53 30.12.2020
4277 Clear 1 1005 80 10000 5.1 190 23:20 30.12.2020
4278 Clouds 1 1005 80 10000 5.1 200 22:52 30.12.2020
4279 Clouds 2 1005 74 10000 4.6 190 22:32 30.12.2020
4280 Clouds 2 1005 74 10000 4.6 200 21:48 30.12.2020
4281 Clouds 2 1005 74 10000 4.6 200 21:25 30.12.2020
4282 Clouds 2 1005 74 10000 3.6 190 20:52 30.12.2020
4283 Clouds 2 1005 80 10000 4.1 200 20:24 30.12.2020
4284 Clouds 3 1004 80 10000 4.1 210 19:42 30.12.2020
4285 Clouds 3 1004 78 10000 4.1 210 19:23 30.12.2020
4286 Clouds 3 1004 78 10000 3.6 210 18:57 30.12.2020
4287 Clouds 3 1004 77 10000 3.6 220 18:37 30.12.2020
4288 Clouds 3 1004 76 10000 3.1 230 18:19 30.12.2020
4289 Clouds 3 1003 76 10000 2.1 230 17:41 30.12.2020
4290 Clouds 3 1003 73 10000 1.5 210 17:21 30.12.2020
4291 Clouds 4 1003 73 10000 1.5 210 16:43 30.12.2020
4292 Clear 4 1002 65 10000 0.5 0 15:51 30.12.2020
4293 Clear 4 1002 65 10000 0.5 0 15:30 30.12.2020
4294 Clear 5 1002 65 10000 1.5 200 14:52 30.12.2020
4295 Clear 5 1002 60 10000 1.5 200 14:29 30.12.2020
4296 Clear 5 1002 65 10000 2.1 200 13:59 30.12.2020
4297 Clear 5 1002 67 10000 2.1 190 13:18 30.12.2020
4298 Clear 4 1002 69 10000 1 0 12:26 30.12.2020
4299 Clear 3 1002 80 10000 2.6 140 11:44 30.12.2020
4300 Clear 3 1002 80 10000 2.6 140 11:21 30.12.2020
4301 Clear 2 1002 80 10000 2.6 140 10:57 30.12.2020
4302 Clear 3 1002 69 10000 2.6 150 10:37 30.12.2020
4303 Clear 1 1001 74 10000 3.1 180 10:18 30.12.2020
4304 Clear 0 1001 80 10000 5.7 180 09:41 30.12.2020
4305 Clear 0 1001 80 10000 5.7 180 09:41 30.12.2020
4306 Clear 0 1001 74 10000 3.1 190 08:36 30.12.2020
4307 Clear -1 1000 80 10000 3.1 200 07:51 30.12.2020
4308 Clear 0 1000 80 10000 3.6 190 07:24 30.12.2020
4309 Clear 0 999 80 10000 4.1 170 06:40 30.12.2020
4310 Clear 1 999 80 10000 3.1 160 05:48 30.12.2020
4311 Clear 1 999 80 10000 3.1 160 05:29 30.12.2020
4312 Clouds 1 999 80 10000 5.7 180 03:43 30.12.2020
4313 Clouds 1 999 80 10000 5.7 180 03:23 30.12.2020
4314 Clear 1 999 74 10000 5.7 180 02:34 30.12.2020
4315 Clear 0 999 74 10000 3.1 150 01:46 30.12.2020
4316 Clear 0 999 74 10000 3.1 150 01:28 30.12.2020
4317 Clear 0 999 83 10000 1.5 150 00:45 30.12.2020
4318 Clear -1 999 84 10000 1.5 150 00:26 30.12.2020
4319 Clear -1 999 84 10000 3.1 100 23:50 29.12.2020
4320 Clear 0 998 74 10000 1.5 150 23:32 29.12.2020
4321 Clear 0 998 80 10000 4.1 160 22:49 29.12.2020
4322 Clear 0 998 80 10000 4.1 160 22:31 29.12.2020
4323 Clouds 1 997 74 10000 3.1 180 21:56 29.12.2020
4324 Clouds 1 997 74 10000 3.1 180 21:37 29.12.2020
4325 Clouds 2 997 69 10000 4.1 200 21:19 29.12.2020
4326 Clouds 2 996 69 10000 5.1 220 20:42 29.12.2020
4327 Clouds 3 996 69 10000 4.6 210 20:22 29.12.2020
4328 Clouds 3 996 69 10000 4.6 210 19:45 29.12.2020
4329 Clouds 4 996 69 10000 4.6 210 19:21 29.12.2020
4330 Clouds 4 995 69 10000 5.1 210 18:50 29.12.2020
4331 Clouds 4 995 69 10000 5.1 210 18:28 29.12.2020
4332 Clouds 4 993 74 10000 5.1 220 17:47 29.12.2020
4333 Clouds 4 993 74 10000 5.1 220 17:21 29.12.2020
4334 Clouds 4 993 69 10000 4.1 230 16:54 29.12.2020
4335 Clouds 4 992 76 10000 6.7 240 16:26 29.12.2020
4336 Clouds 5 991 76 10000 5.7 240 15:46 29.12.2020
4337 Clouds 5 991 76 10000 5.7 240 15:26 29.12.2020
4338 Clouds 5 989 76 10000 4.6 200 14:45 29.12.2020
4339 Clouds 6 989 78 10000 4.6 200 14:27 29.12.2020
4340 Rain 5 989 80 10000 4.6 170 13:56 29.12.2020
4341 Clouds 5 988 75 10000 5.7 180 13:25 29.12.2020
4342 Clear 6 988 64 10000 7.2 210 12:45 29.12.2020
4343 Clouds 6 987 66 10000 7.2 190 12:26 29.12.2020
4344 Clear 6 988 66 10000 7.2 210 12:26 29.12.2020
4345 Clouds 5 987 66 10000 7.2 190 11:59 29.12.2020
4346 Clouds 5 987 66 10000 4.6 190 11:32 29.12.2020
4347 Clear 4 987 74 10000 6.7 190 10:52 29.12.2020
4348 Clear 2 986 80 10000 7.7 200 10:20 29.12.2020
4349 Clear 1 985 86 10000 6.2 190 09:41 29.12.2020
4350 Clear 0 985 80 10000 7.2 190 09:19 29.12.2020
4351 Clear 0 985 80 10000 7.2 190 08:49 29.12.2020
4352 Clear 0 984 92 10000 3.1 140 07:40 29.12.2020
4353 Clear 0 984 84 10000 3.6 160 07:18 29.12.2020
4354 Clear 0 983 86 10000 4.1 200 05:44 29.12.2020
4355 Clouds 1 983 86 10000 3.1 170 02:33 29.12.2020
4356 Snow 1 982 90 4500 4.6 160 00:43 29.12.2020
4357 Snow 2 982 92 5000 4.6 170 23:39 28.12.2020
4358 Snow 2 982 80 10000 3.6 140 22:56 28.12.2020
4359 Rain 2 982 80 10000 2.6 140 22:22 28.12.2020
4360 Rain 2 982 74 10000 3.1 140 21:42 28.12.2020
4361 Rain 2 982 74 10000 3.1 140 21:21 28.12.2020
4362 Rain 2 983 74 10000 2.6 140 20:40 28.12.2020
4363 Clouds 2 983 74 10000 3.6 130 20:21 28.12.2020
4364 Rain 2 983 74 10000 4.6 140 19:42 28.12.2020
4365 Rain 2 983 74 10000 4.6 140 19:23 28.12.2020
4366 Rain 2 983 74 10000 6.2 150 18:50 28.12.2020
4367 Rain 2 983 74 10000 6.2 150 18:28 28.12.2020
4368 Rain 2 983 74 10000 7.7 150 17:42 28.12.2020
4369 Rain 2 983 74 10000 7.7 150 17:23 28.12.2020
4370 Rain 2 983 80 10000 7.7 160 16:38 28.12.2020
4371 Rain 2 982 80 10000 7.2 150 16:20 28.12.2020
4372 Rain 2 982 80 10000 7.2 150 15:45 28.12.2020
4373 Rain 2 983 74 10000 6.2 140 14:57 28.12.2020
4374 Rain 2 983 74 10000 7.7 160 13:56 28.12.2020
4375 Clear 3 983 74 10000 8.2 160 13:35 28.12.2020
4376 Clear 3 983 74 10000 7.2 150 12:55 28.12.2020
4377 Clear 3 983 74 10000 7.7 160 12:24 28.12.2020
4378 Clear 2 984 74 10000 7.2 170 11:47 28.12.2020
4379 Clear 2 984 74 10000 7.2 170 11:25 28.12.2020
4380 Clear 2 984 74 10000 9.3 170 10:52 28.12.2020
4381 Clear 2 984 74 10000 8.2 170 10:28 28.12.2020
4382 Clear 2 984 74 10000 8.2 160 09:49 28.12.2020
4383 Clear 2 984 74 10000 8.2 160 09:21 28.12.2020
4384 Clear 2 984 74 10000 9.3 160 08:58 28.12.2020
4385 Clear 2 983 74 10000 8.2 170 06:52 28.12.2020
4386 Clouds 2 984 74 10000 6.2 180 04:56 28.12.2020
4387 Clouds 2 985 74 10000 9.3 170 03:26 28.12.2020
4388 Clear 2 986 74 10000 11.3 170 01:52 28.12.2020
4389 Clear 1 988 69 10000 11.3 160 23:52 27.12.2020
4390 Clear 1 989 81 10000 10.8 150 23:20 27.12.2020
4391 Clear 0 989 80 10000 9.8 160 22:28 27.12.2020
4392 Clear 0 990 80 10000 10.3 160 21:49 27.12.2020
4393 Clear 1 990 64 10000 10.3 160 21:21 27.12.2020
4394 Clear 1 991 64 10000 12.3 160 20:25 27.12.2020
4395 Clear 1 992 64 10000 11.3 160 19:24 27.12.2020
4396 Clear 1 992 59 10000 10.8 170 18:50 27.12.2020
4397 Clear 1 993 59 10000 9.8 170 18:21 27.12.2020
4398 Clear 0 994 72 10000 10.8 170 17:57 27.12.2020
4399 Clear 0 995 72 10000 9.8 180 17:35 27.12.2020
4400 Clear 1 995 71 10000 9.8 170 16:57 27.12.2020
4401 Clear 1 996 71 10000 11.3 170 16:23 27.12.2020
4402 Clear 0 996 71 10000 10.3 150 15:34 27.12.2020
4403 Clear 1 997 70 10000 9.3 150 14:54 27.12.2020
4404 Clear 1 998 70 10000 7.7 160 14:36 27.12.2020
4405 Clear 1 1000 68 10000 10.3 180 13:37 27.12.2020
4406 Clear 0 1001 69 10000 11.8 170 12:56 27.12.2020
4407 Clear 0 1002 70 10000 10.8 180 12:28 27.12.2020
4408 Clear 0 1003 70 10000 11.8 170 11:42 27.12.2020
4409 Clear 0 1003 73 10000 11.8 170 11:21 27.12.2020
4410 Clear 1 1004 73 10000 8.7 170 10:45 27.12.2020
4411 Clear 0 1004 77 10000 8.7 170 10:21 27.12.2020
4412 Clear 0 1005 63 10000 8.2 170 09:39 27.12.2020
4413 Clear -1 1006 68 10000 10.3 170 08:29 27.12.2020
4414 Clear -1 1007 68 10000 5.7 160 07:46 27.12.2020
4415 Clear -1 1008 68 10000 6.2 170 07:18 27.12.2020
4416 Clear -2 1009 74 10000 5.1 170 05:39 27.12.2020
4417 Clear -2 1012 80 10000 4.6 170 03:26 27.12.2020
4418 Clouds -2 1013 80 10000 5.7 180 02:40 27.12.2020
4419 Clear -2 1015 80 10000 5.1 180 01:21 27.12.2020
4420 Clear -1 1017 80 10000 3.6 180 23:45 26.12.2020
4421 Clear -1 1017 80 10000 3.6 180 23:26 26.12.2020
4422 Clear -1 1018 80 10000 3.6 200 22:47 26.12.2020
4423 Clear -1 1018 80 10000 3.6 200 22:20 26.12.2020
4424 Clear -1 1018 86 10000 5.7 200 21:55 26.12.2020
4425 Clear 0 1018 86 10000 5.1 210 21:33 26.12.2020
4426 Clouds 0 1018 86 10000 4.6 210 20:58 26.12.2020
4427 Clouds 0 1018 86 10000 5.7 210 20:36 26.12.2020
4428 Clouds 0 1018 86 10000 5.7 210 20:36 26.12.2020
4429 Clouds 0 1019 86 10000 4.6 210 20:18 26.12.2020
4430 Clouds 0 1019 74 10000 3.6 220 19:25 26.12.2020
4431 Clouds 0 1019 80 10000 6.7 210 18:49 26.12.2020
4432 Clouds 1 1019 80 10000 6.7 210 18:27 26.12.2020
4433 Clouds 1 1020 80 10000 5.1 210 17:40 26.12.2020
4434 Clouds 1 1020 80 10000 5.1 210 17:20 26.12.2020
4435 Clouds 2 1020 74 10000 4.6 220 16:35 26.12.2020
4436 Clouds 2 1021 74 10000 4.1 230 15:27 26.12.2020
4437 Clouds 2 1021 74 10000 4.1 230 15:27 26.12.2020
4438 Clouds 2 1021 80 10000 4.1 250 14:50 26.12.2020
4439 Clouds 2 1021 80 10000 4.1 250 14:28 26.12.2020
4440 Clouds 2 1021 80 10000 4.1 260 13:47 26.12.2020
4441 Clouds 2 1021 80 10000 4.1 260 13:28 26.12.2020
4442 Clouds 2 1022 74 10000 4.1 250 12:48 26.12.2020
4443 Clouds 2 1022 74 10000 4.1 250 12:30 26.12.2020
4444 Clouds 2 1022 74 10000 4.1 250 12:30 26.12.2020
4445 Clouds 1 1022 74 10000 3.6 240 11:51 26.12.2020
4446 Clouds 1 1022 74 10000 3.6 230 11:22 26.12.2020
4447 Clouds 1 1022 82 10000 3.1 220 10:55 26.12.2020
4448 Clouds 1 1022 86 10000 4.1 220 10:27 26.12.2020
4449 Clouds 0 1022 86 10000 3.1 260 09:51 26.12.2020
4450 Clouds -1 1022 86 10000 3.1 230 09:29 26.12.2020
4451 Clouds -1 1022 86 10000 3.1 250 08:39 26.12.2020
4452 Clouds 0 1022 86 10000 3.1 260 07:55 26.12.2020
4453 Clouds 0 1022 94 10000 3.1 280 06:47 26.12.2020
4454 Clouds 0 1021 95 10000 2.6 270 03:52 26.12.2020
4455 Clouds 1 1021 95 10000 3.6 290 01:49 26.12.2020
4456 Clouds 1 1021 92 10000 3.1 290 00:27 26.12.2020
4457 Clouds 1 1021 86 10000 3.1 280 23:41 25.12.2020
4458 Clouds 1 1021 86 10000 3.1 280 23:41 25.12.2020
4459 Clouds 1 1020 86 10000 3.1 280 23:23 25.12.2020
4460 Clouds 1 1020 86 10000 3.1 280 22:50 25.12.2020
4461 Snow 1 1020 86 10000 3.1 280 22:23 25.12.2020
4462 Snow 1 1020 91 10000 3.1 280 21:37 25.12.2020
4463 Snow 1 1020 86 10000 3.1 310 21:19 25.12.2020
4464 Snow 1 1020 86 10000 3.1 290 20:38 25.12.2020
4465 Snow 1 1020 87 10000 4.1 310 19:52 25.12.2020
4466 Snow 1 1020 87 10000 4.1 310 19:33 25.12.2020
4467 Clouds 1 1019 86 10000 3.6 290 18:39 25.12.2020
4468 Clouds 1 1019 86 10000 2.6 300 17:58 25.12.2020
4469 Clouds 1 1019 86 10000 2.6 300 17:35 25.12.2020
4470 Clouds 1 1018 86 10000 3.1 300 16:49 25.12.2020
4471 Clouds 2 1018 86 10000 2.6 320 16:21 25.12.2020
4472 Clouds 2 1018 86 10000 3.1 330 15:49 25.12.2020
4473 Snow 2 1018 86 1400 3.6 330 15:25 25.12.2020
4474 Snow 2 1018 81 1400 5.1 340 14:32 25.12.2020
4475 Clouds 2 1017 80 10000 4.6 320 13:49 25.12.2020
4476 Clouds 2 1017 80 10000 4.6 320 13:26 25.12.2020
4477 Clouds 2 1017 80 10000 4.6 330 12:58 25.12.2020
4478 Rain 2 1017 81 10000 5.1 320 12:27 25.12.2020
4479 Clouds 2 1017 93 10000 4.1 320 11:47 25.12.2020
4480 Rain 2 1017 100 10000 4.6 320 11:24 25.12.2020
4481 Rain 2 1017 100 10000 4.6 320 11:24 25.12.2020
4482 Rain 2 1017 100 10000 4.6 320 11:24 25.12.2020
4483 Clouds 2 1016 93 10000 3.6 330 10:47 25.12.2020
4484 Clouds 2 1016 93 10000 3.6 340 10:19 25.12.2020
4485 Rain 2 1015 93 10000 5.1 340 09:26 25.12.2020
4486 Clouds 2 1014 100 10000 3.6 330 08:40 25.12.2020
4487 Rain 2 1013 100 10000 2.6 340 07:45 25.12.2020
4488 Rain 2 1013 93 10000 3.6 340 06:44 25.12.2020
4489 Rain 3 1011 93 10000 2.6 310 02:36 25.12.2020
4490 Clouds 3 1010 93 10000 4.1 310 00:38 25.12.2020
4491 Rain 3 1010 93 10000 4.1 300 23:58 24.12.2020
4492 Clouds 3 1010 93 10000 4.1 310 23:22 24.12.2020
4493 Clouds 3 1010 93 10000 4.1 320 22:37 24.12.2020
4494 Clouds 3 1010 93 10000 4.6 310 22:18 24.12.2020
4495 Clouds 3 1010 93 10000 5.1 310 21:32 24.12.2020
4496 Clouds 3 1009 93 10000 5.7 300 20:19 24.12.2020
4497 Clouds 3 1008 86 10000 6.2 300 18:39 24.12.2020
4498 Rain 3 1007 86 10000 6.2 300 18:18 24.12.2020
4499 Clouds 3 1006 86 10000 6.2 290 17:36 24.12.2020
4500 Rain 4 1005 93 10000 6.7 290 16:28 24.12.2020
4501 Clouds 5 1005 93 10000 7.2 290 15:59 24.12.2020
4502 Clouds 6 1003 70 10000 7.2 250 15:41 24.12.2020
4503 Clouds 8 1003 70 10000 6.2 240 15:19 24.12.2020
4504 Clouds 8 1004 70 10000 7.7 240 14:42 24.12.2020
4505 Clouds 8 1004 70 10000 7.7 240 14:24 24.12.2020
4506 Clouds 8 1004 66 10000 7.7 250 13:42 24.12.2020
4507 Clouds 9 1004 66 10000 6.7 240 13:22 24.12.2020
4508 Clouds 9 1005 66 10000 6.2 230 12:43 24.12.2020
4509 Clouds 9 1005 66 10000 6.2 230 12:21 24.12.2020
4510 Clear 9 1005 70 10000 5.7 230 11:41 24.12.2020
4511 Clear 9 1005 65 10000 8.2 220 11:20 24.12.2020
4512 Clear 9 1005 65 10000 8.2 220 10:53 24.12.2020
4513 Clouds 8 1006 70 10000 5.7 230 10:34 24.12.2020
4514 Clouds 7 1006 75 10000 5.7 230 09:52 24.12.2020
4515 Clouds 7 1006 70 10000 4.1 240 09:25 24.12.2020
4516 Clouds 8 1005 66 10000 5.1 240 08:25 24.12.2020
4517 Clouds 8 1005 76 10000 6.7 240 07:41 24.12.2020
4518 Rain 9 1005 76 10000 5.1 230 07:20 24.12.2020
4519 Clouds 10 1005 76 10000 5.7 220 05:40 24.12.2020
4520 Clouds 10 1006 81 10000 5.7 240 02:26 24.12.2020
4521 Clouds 10 1006 81 10000 5.7 240 01:43 24.12.2020
4522 Clouds 11 1006 81 10000 5.1 240 01:18 24.12.2020
4523 Rain 11 1007 93 10000 3.6 260 00:22 24.12.2020
4524 Rain 10 1007 93 10000 3.6 260 23:49 23.12.2020
4525 Rain 10 1007 93 10000 3.6 260 23:49 23.12.2020
4526 Clouds 11 1007 93 10000 4.6 230 23:30 23.12.2020
4527 Rain 10 1006 93 10000 3.6 230 22:57 23.12.2020
4528 Clouds 11 1007 93 10000 3.1 230 22:39 23.12.2020
4529 Clouds 10 1007 100 6000 4.1 190 22:18 23.12.2020
4530 Rain 10 1007 100 3700 5.1 190 21:31 23.12.2020
4531 Rain 10 1007 100 9000 5.1 170 20:56 23.12.2020
4532 Rain 10 1007 100 8000 5.7 170 20:37 23.12.2020
4533 Rain 10 1008 100 8000 5.1 160 20:19 23.12.2020
4534 Clouds 10 1008 100 6000 5.1 150 19:40 23.12.2020
4535 Rain 10 1009 93 6000 4.1 150 19:21 23.12.2020
4536 Rain 10 1009 93 6000 4.1 150 18:51 23.12.2020
4537 Rain 10 1009 93 10000 4.1 150 18:33 23.12.2020
4538 Rain 10 1009 87 10000 4.1 150 17:43 23.12.2020
4539 Rain 10 1011 93 10000 4.1 150 17:22 23.12.2020
4540 Clouds 10 1011 93 10000 4.1 150 16:52 23.12.2020
4541 Clear 10 1011 100 10000 3.1 160 16:30 23.12.2020
4542 Clear 10 1011 100 10000 3.1 140 15:59 23.12.2020
4543 Clear 11 1011 93 10000 2.6 140 15:39 23.12.2020
4544 Clouds 11 1012 93 10000 2.1 150 15:21 23.12.2020
4545 Clouds 11 1012 87 10000 2.6 140 14:45 23.12.2020
4546 Clouds 11 1012 87 10000 2.6 140 14:22 23.12.2020
4547 Clouds 11 1013 93 10000 2.6 180 13:46 23.12.2020
4548 Clouds 11 1013 93 10000 2.6 180 13:20 23.12.2020
4549 Clouds 11 1013 93 10000 2.6 180 12:58 23.12.2020
4550 Clouds 10 1013 93 10000 2.6 170 12:37 23.12.2020
4551 Clouds 10 1014 93 10000 2.1 220 12:18 23.12.2020
4552 Clouds 9 1014 100 10000 3.6 200 11:43 23.12.2020
4553 Mist 9 1014 100 5000 1.5 180 10:57 23.12.2020
4554 Drizzle 9 1014 100 1600 2.6 180 10:39 23.12.2020
4555 Fog 8 1014 100 800 1.5 160 09:45 23.12.2020
4556 Fog 8 1014 100 800 1.5 160 09:25 23.12.2020
4557 Fog 8 1014 100 4200 0.5 140 08:42 23.12.2020
4558 Rain 8 1014 100 800 1.5 130 07:51 23.12.2020
4559 Rain 8 1014 100 500 1.5 40 07:20 23.12.2020
4560 Fog 8 1014 100 900 1.5 180 06:38 23.12.2020
4561 Mist 8 1014 100 1100 1 0 05:25 23.12.2020
4562 Rain 9 1014 100 5000 1 0 04:28 23.12.2020
4563 Clouds 10 1015 93 10000 2.6 310 00:34 23.12.2020
4564 Rain 10 1015 93 10000 0.5 10 23:46 22.12.2020
4565 Clouds 10 1015 93 10000 0.5 10 23:27 22.12.2020
4566 Clouds 11 1015 87 10000 3.6 320 22:44 22.12.2020
4567 Clouds 11 1015 87 10000 3.6 320 22:25 22.12.2020
4568 Clouds 12 1014 81 10000 3.6 270 21:57 22.12.2020
4569 Clouds 11 1014 81 10000 3.6 250 21:38 22.12.2020
4570 Clouds 11 1014 81 10000 3.6 260 21:18 22.12.2020
4571 Clouds 11 1014 76 10000 3.6 260 20:47 22.12.2020
4572 Clouds 11 1014 76 10000 3.6 260 20:21 22.12.2020
4573 Clouds 11 1014 81 10000 4.1 250 19:44 22.12.2020
4574 Clouds 12 1014 81 10000 4.1 250 19:21 22.12.2020
4575 Clouds 12 1013 81 10000 4.1 250 18:50 22.12.2020
4576 Clouds 12 1013 76 10000 4.6 260 18:29 22.12.2020
4577 Rain 13 1013 82 10000 6.2 260 17:51 22.12.2020
4578 Clouds 13 1013 82 10000 7.7 250 17:25 22.12.2020
4579 Clouds 13 1013 82 10000 7.7 250 16:56 22.12.2020
4580 Rain 13 1012 71 10000 5.7 250 16:37 22.12.2020
4581 Clouds 14 1012 71 10000 6.2 250 16:19 22.12.2020
4582 Clouds 14 1011 71 10000 6.2 260 15:42 22.12.2020
4583 Clouds 14 1011 71 10000 6.2 260 15:21 22.12.2020
4584 Clouds 14 1011 71 10000 6.2 250 14:45 22.12.2020
4585 Clouds 14 1011 71 10000 6.2 250 14:26 22.12.2020
4586 Clouds 14 1011 71 10000 7.2 250 13:48 22.12.2020
4587 Clouds 14 1011 71 10000 7.7 240 13:20 22.12.2020
4588 Clouds 14 1011 71 10000 7.7 240 12:58 22.12.2020
4589 Clouds 13 1011 71 10000 6.2 240 12:39 22.12.2020
4590 Clouds 12 1011 76 10000 6.2 250 12:19 22.12.2020
4591 Clouds 10 1011 81 10000 7.2 240 11:42 22.12.2020
4592 Clouds 10 1011 81 10000 7.2 240 11:22 22.12.2020
4593 Clouds 9 1011 76 10000 6.7 230 10:55 22.12.2020
4594 Clouds 9 1011 93 10000 4.6 210 10:27 22.12.2020
4595 Clouds 8 1011 93 10000 6.2 190 09:58 22.12.2020
4596 Clouds 8 1011 93 10000 5.7 180 09:30 22.12.2020
4597 Clouds 7 1010 93 10000 5.7 170 08:59 22.12.2020
4598 Clouds 7 1010 100 6000 6.2 170 08:40 22.12.2020
4599 Clouds 7 1011 93 10000 6.2 160 08:19 22.12.2020
4600 Rain 7 1011 93 10000 5.7 160 07:46 22.12.2020
4601 Clouds 6 1011 100 10000 5.1 160 06:36 22.12.2020
4602 Rain 5 1012 100 10000 6.7 160 05:34 22.12.2020
4603 Clear 5 1014 86 10000 8.2 160 02:35 22.12.2020
4604 Clear 4 1016 86 10000 8.2 160 00:43 22.12.2020
4605 Clear 4 1016 86 10000 7.7 160 23:51 21.12.2020
4606 Clear 4 1017 86 10000 7.7 160 23:23 21.12.2020
4607 Clear 4 1018 86 10000 7.2 160 22:37 21.12.2020
4608 Clear 4 1018 86 10000 7.7 160 22:19 21.12.2020
4609 Clear 4 1018 86 10000 7.7 160 21:48 21.12.2020
4610 Clear 4 1019 86 10000 7.7 160 21:30 21.12.2020
4611 Clear 4 1019 86 10000 8.2 160 20:46 21.12.2020
4612 Clear 4 1019 86 10000 8.2 160 20:25 21.12.2020
4613 Clear 3 1020 93 10000 7.7 160 19:56 21.12.2020
4614 Clear 3 1020 93 10000 7.2 160 19:37 21.12.2020
4615 Clear 3 1020 93 10000 7.2 160 19:18 21.12.2020
4616 Clouds 3 1021 86 10000 6.7 150 18:50 21.12.2020
4617 Clouds 3 1021 86 10000 6.7 150 18:32 21.12.2020
4618 Clear 3 1021 86 10000 6.2 150 17:43 21.12.2020
4619 Clear 3 1021 86 10000 6.2 150 17:24 21.12.2020
4620 Clear 3 1021 86 10000 6.7 150 16:47 21.12.2020
4621 Clear 3 1022 86 10000 5.1 150 16:26 21.12.2020
4622 Clear 4 1022 80 10000 5.1 140 15:47 21.12.2020
4623 Clear 4 1022 80 10000 5.1 140 15:29 21.12.2020
4624 Clear 4 1022 75 10000 5.7 150 14:56 21.12.2020
4625 Clear 5 1022 75 10000 4.6 150 14:21 21.12.2020
4626 Clear 5 1022 75 10000 4.6 150 13:43 21.12.2020
4627 Clear 5 1022 75 10000 4.6 150 13:24 21.12.2020
4628 Clear 6 1023 75 10000 3.6 130 12:44 21.12.2020
4629 Clear 6 1023 75 10000 3.6 130 12:44 21.12.2020
4630 Clear 6 1023 75 10000 3.6 130 12:25 21.12.2020
4631 Clear 6 1023 80 10000 3.6 140 11:58 21.12.2020
4632 Clear 5 1024 86 10000 3.1 150 11:39 21.12.2020
4633 Clouds 5 1024 86 10000 2.6 130 11:20 21.12.2020
4634 Clouds 4 1024 80 10000 3.1 140 10:48 21.12.2020
4635 Clouds 4 1024 80 10000 3.1 140 10:30 21.12.2020
4636 Clear 3 1024 93 10000 1.5 0 09:47 21.12.2020
4637 Clear 3 1024 93 10000 1.5 0 09:25 21.12.2020
4638 Clear 3 1024 93 10000 2.6 150 08:52 21.12.2020
4639 Clouds 3 1023 93 10000 3.1 0 07:56 21.12.2020
4640 Clouds 3 1023 86 10000 2.1 130 06:47 21.12.2020
4641 Clouds 3 1023 93 10000 5.1 150 04:58 21.12.2020
4642 Rain 3 1023 93 10000 3.6 150 02:31 21.12.2020
4643 Clouds 3 1023 78 10000 4.1 180 00:34 21.12.2020
4644 Clouds 2 1022 77 10000 6.7 160 23:37 20.12.2020
4645 Clear 2 1022 75 10000 6.7 160 23:19 20.12.2020
4646 Clear 2 1022 75 10000 6.7 160 22:42 20.12.2020
4647 Clear 2 1022 77 10000 6.7 160 22:22 20.12.2020
4648 Clear 2 1022 77 10000 6.7 160 21:40 20.12.2020
4649 Clear 2 1022 78 10000 6.7 160 21:22 20.12.2020
4650 Clear 2 1021 78 10000 6.7 150 20:53 20.12.2020
4651 Clear 2 1021 80 10000 7.2 150 20:26 20.12.2020
4652 Clear 2 1021 80 10000 7.2 150 20:26 20.12.2020
4653 Clear 2 1021 80 10000 6.2 150 19:58 20.12.2020
4654 Clear 2 1021 80 10000 6.2 150 19:38 20.12.2020
4655 Clear 2 1021 80 10000 6.2 150 19:20 20.12.2020
4656 Clear 1 1021 86 10000 6.7 150 18:42 20.12.2020
4657 Clear 1 1021 86 10000 6.7 150 18:42 20.12.2020
4658 Clear 1 1021 86 10000 6.7 150 18:23 20.12.2020
4659 Clear 2 1021 79 10000 7.2 150 17:46 20.12.2020
4660 Clear 1 1021 81 10000 7.2 150 17:28 20.12.2020
4661 Clear 2 1021 81 10000 6.2 150 16:47 20.12.2020
4662 Clear 2 1021 80 10000 6.2 150 16:28 20.12.2020
4663 Clouds 2 1021 80 10000 6.7 150 15:51 20.12.2020
4664 Clouds 3 1021 75 10000 6.2 160 15:27 20.12.2020
4665 Clear 3 1021 75 10000 7.2 150 14:56 20.12.2020
4666 Clear 3 1021 75 10000 5.7 150 14:35 20.12.2020
4667 Clear 4 1021 71 10000 7.7 150 13:56 20.12.2020
4668 Clear 4 1021 71 10000 8.2 150 13:36 20.12.2020
4669 Clear 4 1021 70 10000 8.2 150 13:18 20.12.2020
4670 Clear 4 1021 70 10000 8.7 150 12:44 20.12.2020
4671 Clear 4 1021 72 10000 8.7 150 12:21 20.12.2020
4672 Clear 4 1021 72 10000 7.7 150 11:45 20.12.2020
4673 Clear 3 1021 75 10000 7.7 150 11:26 20.12.2020
4674 Clear 3 1021 75 10000 9.3 150 10:49 20.12.2020
4675 Clear 3 1021 78 10000 9.3 150 10:21 20.12.2020
4676 Clear 2 1021 78 10000 8.2 150 09:47 20.12.2020
4677 Clear 2 1022 80 10000 8.2 150 09:29 20.12.2020
4678 Clouds 1 1021 86 10000 7.2 150 08:59 20.12.2020
4679 Clouds 1 1021 86 10000 6.2 150 08:40 20.12.2020
4680 Clouds 1 1021 86 10000 6.2 140 07:59 20.12.2020
4681 Clear 1 1021 86 10000 4.1 150 07:19 20.12.2020
4682 Clear 1 1021 81 10000 8.7 150 02:47 20.12.2020
4683 Clear 1 1021 80 10000 8.7 150 00:59 20.12.2020
4684 Clear 1 1021 80 10000 9.3 150 23:41 19.12.2020
4685 Clear 1 1021 79 10000 9.8 150 23:18 19.12.2020
4686 Clear 1 1021 79 10000 9.8 150 23:18 19.12.2020
4687 Clear 1 1021 79 10000 9.8 150 22:44 19.12.2020
4688 Clear 1 1021 78 10000 9.8 150 22:25 19.12.2020
4689 Clear 1 1021 78 10000 8.7 150 21:58 19.12.2020
4690 Clear 2 1021 78 10000 8.2 150 21:38 19.12.2020
4691 Clear 2 1021 78 10000 8.2 150 21:20 19.12.2020
4692 Clear 2 1021 78 10000 5.7 150 20:37 19.12.2020
4693 Clear 2 1021 77 10000 7.2 150 20:18 19.12.2020
4694 Clear 2 1021 77 10000 8.7 150 19:46 19.12.2020
4695 Clear 2 1021 78 10000 8.7 150 19:24 19.12.2020
4696 Clear 2 1021 80 10000 7.7 150 18:34 19.12.2020
4697 Clear 2 1021 79 10000 7.7 150 17:58 19.12.2020
4698 Clear 2 1021 79 10000 7.7 150 17:40 19.12.2020
4699 Clear 2 1021 78 10000 8.2 150 17:20 19.12.2020
4700 Clear 2 1021 78 10000 6.7 150 16:42 19.12.2020
4701 Clear 3 1021 76 10000 6.7 150 16:24 19.12.2020
4702 Clouds 3 1021 86 10000 6.2 150 15:54 19.12.2020
4703 Clouds 4 1021 80 10000 6.7 150 15:30 19.12.2020
4704 Clouds 4 1021 80 10000 6.2 150 14:40 19.12.2020
4705 Clouds 4 1021 80 10000 6.2 150 14:21 19.12.2020
4706 Clouds 5 1021 80 10000 5.7 140 13:41 19.12.2020
4707 Clouds 5 1021 80 10000 6.7 150 13:19 19.12.2020
4708 Clouds 4 1021 80 10000 7.2 150 12:44 19.12.2020
4709 Clouds 4 1021 80 10000 7.2 150 12:25 19.12.2020
4710 Clouds 4 1021 80 10000 8.7 150 11:57 19.12.2020
4711 Clouds 4 1021 86 10000 8.7 150 11:36 19.12.2020
4712 Clouds 3 1021 86 10000 9.3 150 10:43 19.12.2020
4713 Clouds 3 1021 86 10000 9.3 150 10:25 19.12.2020
4714 Clouds 3 1021 86 10000 9.3 150 09:56 19.12.2020
4715 Clouds 2 1021 93 10000 8.2 150 09:38 19.12.2020
4716 Clouds 2 1021 93 10000 8.2 150 08:36 19.12.2020
4717 Clouds 2 1021 93 10000 7.7 150 07:53 19.12.2020
4718 Clear 2 1021 93 10000 7.7 150 07:18 19.12.2020
4719 Clear 2 1021 93 10000 7.2 150 06:39 19.12.2020
4720 Clear 2 1021 86 10000 7.2 150 05:19 19.12.2020
4721 Clear 2 1022 93 10000 7.7 150 03:28 19.12.2020
4722 Clear 2 1023 93 10000 6.7 160 00:41 19.12.2020
4723 Clear 2 1023 93 10000 6.7 160 00:18 19.12.2020
4724 Clear 2 1023 93 10000 7.7 160 23:48 18.12.2020
4725 Clear 2 1023 93 10000 7.7 160 23:24 18.12.2020
4726 Clear 2 1024 93 10000 7.2 150 22:48 18.12.2020
4727 Clear 2 1024 93 10000 7.2 150 22:24 18.12.2020
4728 Clear 2 1024 93 10000 6.2 150 21:59 18.12.2020
4729 Clear 2 1024 93 10000 6.2 150 21:38 18.12.2020
4730 Clear 2 1024 93 10000 7.2 150 21:20 18.12.2020
4731 Clear 2 1024 93 10000 6.7 150 20:24 18.12.2020
4732 Clear 2 1024 93 10000 6.7 150 19:47 18.12.2020
4733 Clear 2 1024 93 10000 6.7 150 19:23 18.12.2020
4734 Clear 2 1025 93 10000 5.7 150 18:46 18.12.2020
4735 Clear 2 1025 93 10000 5.7 150 18:26 18.12.2020
4736 Clear 2 1025 93 10000 5.7 150 17:52 18.12.2020
4737 Clear 3 1025 86 10000 6.2 150 17:20 18.12.2020
4738 Clear 4 1025 80 10000 6.2 150 16:45 18.12.2020
4739 Clear 4 1025 80 10000 6.2 150 16:21 18.12.2020
4740 Clear 5 1025 80 10000 6.2 160 15:54 18.12.2020
4741 Clear 6 1025 70 10000 6.2 150 15:34 18.12.2020
4742 Clear 6 1024 75 10000 4.6 150 14:58 18.12.2020
4743 Clear 7 1025 70 10000 4.6 140 14:39 18.12.2020
4744 Clear 7 1025 70 10000 3.6 170 14:19 18.12.2020
4745 Clear 7 1025 70 10000 3.6 180 13:42 18.12.2020
4746 Clear 8 1025 70 10000 3.6 180 13:23 18.12.2020
4747 Clear 7 1025 70 10000 5.1 180 12:44 18.12.2020
4748 Clear 6 1026 80 10000 2.6 170 11:38 18.12.2020
4749 Clear 6 1026 86 10000 2.6 150 11:19 18.12.2020
4750 Clear 5 1026 93 10000 3.6 150 10:38 18.12.2020
4751 Clear 4 1026 93 10000 2.1 160 10:20 18.12.2020
4752 Clear 3 1026 93 10000 2.6 180 09:38 18.12.2020
4753 Clear 2 1026 93 10000 2.6 180 09:20 18.12.2020
4754 Clouds 2 1026 100 10000 1.5 190 08:52 18.12.2020
4755 Clouds 1 1026 100 10000 2.1 160 08:26 18.12.2020
4756 Clouds 2 1025 93 10000 1.5 170 07:36 18.12.2020
4757 Clouds 2 1025 93 10000 2.6 190 07:18 18.12.2020
4758 Clouds 2 1025 93 10000 3.6 180 06:41 18.12.2020
4759 Clouds 2 1025 93 10000 3.6 180 05:38 18.12.2020
4760 Clear 3 1025 86 10000 3.1 200 04:51 18.12.2020
4761 Clouds 3 1025 93 10000 3.6 210 01:57 18.12.2020
4762 Clouds 3 1024 86 10000 4.1 210 01:37 18.12.2020
4763 Clouds 3 1024 93 10000 3.6 210 23:58 17.12.2020
4764 Clouds 4 1024 86 10000 3.6 210 23:25 17.12.2020
4765 Clouds 4 1024 86 10000 4.1 210 22:52 17.12.2020
4766 Clear 4 1024 86 10000 3.6 220 22:29 17.12.2020
4767 Clear 4 1024 86 10000 3.1 230 21:57 17.12.2020
4768 Clear 4 1024 86 10000 3.1 210 21:37 17.12.2020
4769 Clouds 5 1023 86 10000 3.1 200 21:18 17.12.2020
4770 Clouds 5 1023 86 10000 3.1 200 20:41 17.12.2020
4771 Clouds 5 1023 86 10000 3.6 200 20:19 17.12.2020
4772 Clouds 5 1023 86 10000 2.6 180 19:48 17.12.2020
4773 Clouds 5 1023 86 10000 2.6 180 19:24 17.12.2020
4774 Clouds 5 1023 86 10000 4.1 190 18:42 17.12.2020
4775 Clouds 5 1023 86 10000 4.1 190 18:23 17.12.2020
4776 Clouds 5 1023 86 10000 4.1 190 18:23 17.12.2020
4777 Clouds 4 1022 86 10000 3.1 180 17:54 17.12.2020
4778 Clouds 4 1022 80 10000 2.6 150 17:33 17.12.2020
4779 Clear 4 1021 80 10000 2.6 160 16:46 17.12.2020
4780 Clear 5 1021 75 10000 6.2 150 16:28 17.12.2020
4781 Clear 5 1021 75 10000 6.2 150 15:57 17.12.2020
4782 Clear 5 1021 75 10000 5.1 150 15:39 17.12.2020
4783 Clear 6 1021 70 10000 4.6 150 15:18 17.12.2020
4784 Clear 6 1021 70 10000 4.6 150 14:47 17.12.2020
4785 Clear 6 1021 75 10000 5.1 170 13:59 17.12.2020
4786 Clear 6 1020 75 10000 6.7 150 13:41 17.12.2020
4787 Clear 5 1020 75 10000 6.2 150 12:58 17.12.2020
4788 Clear 5 1021 75 10000 6.7 150 12:38 17.12.2020
4789 Clear 5 1021 63 10000 6.2 150 12:20 17.12.2020
4790 Clear 5 1021 80 10000 4.6 150 11:40 17.12.2020
4791 Clear 4 1021 80 10000 4.6 150 11:20 17.12.2020
4792 Clear 4 1021 68 10000 5.7 150 10:40 17.12.2020
4793 Clear 3 1020 76 10000 5.7 150 09:36 17.12.2020
4794 Clear 3 1020 76 10000 5.7 150 08:50 17.12.2020
4795 Clear 3 1019 77 10000 8.2 150 07:42 17.12.2020
4796 Clear 2 1019 76 10000 8.2 150 07:21 17.12.2020
4797 Clear 2 1020 83 10000 7.7 150 06:47 17.12.2020
4798 Clear 2 1020 81 10000 7.7 150 06:29 17.12.2020
4799 Clear 2 1020 86 10000 6.7 150 03:30 17.12.2020
4800 Clear 3 1021 86 10000 4.6 150 00:27 17.12.2020
4801 Clear 3 1021 86 10000 4.6 140 23:42 16.12.2020
4802 Clear 3 1021 86 10000 4.1 150 23:19 16.12.2020
4803 Clear 3 1021 93 10000 4.1 140 22:49 16.12.2020
4804 Clear 3 1021 93 10000 4.1 140 22:31 16.12.2020
4805 Clear 3 1021 93 10000 2.1 150 21:45 16.12.2020
4806 Clear 3 1021 93 10000 2.1 150 21:25 16.12.2020
4807 Clear 3 1021 93 10000 4.1 150 20:52 16.12.2020
4808 Clear 3 1021 93 10000 4.1 140 20:20 16.12.2020
4809 Clear 3 1021 86 10000 4.1 150 19:43 16.12.2020
4810 Clear 3 1021 86 10000 4.1 150 19:43 16.12.2020
4811 Clear 3 1021 86 10000 5.1 150 19:18 16.12.2020
4812 Clear 3 1021 86 10000 6.2 150 18:51 16.12.2020
4813 Clear 3 1021 86 10000 6.2 150 18:26 16.12.2020
4814 Clear 3 1021 86 10000 6.2 150 18:26 16.12.2020
4815 Clear 3 1021 86 10000 4.1 130 17:42 16.12.2020
4816 Clouds 4 1021 80 10000 3.6 130 16:58 16.12.2020
4817 Clouds 5 1021 80 10000 3.6 130 16:38 16.12.2020
4818 Clouds 5 1020 81 10000 3.6 130 16:19 16.12.2020
4819 Clouds 6 1020 81 10000 3.6 130 15:48 16.12.2020
4820 Clouds 7 1020 75 10000 3.6 140 15:23 16.12.2020
4821 Clouds 7 1020 75 10000 5.1 140 14:46 16.12.2020
4822 Clouds 7 1020 75 10000 5.1 140 14:27 16.12.2020
4823 Clouds 7 1020 75 10000 3.6 140 13:42 16.12.2020
4824 Clouds 7 1020 81 10000 4.6 140 13:21 16.12.2020
4825 Clouds 6 1020 81 10000 4.1 150 12:46 16.12.2020
4826 Clouds 6 1020 75 10000 4.6 150 12:20 16.12.2020
4827 Clouds 6 1020 81 10000 3.1 150 11:38 16.12.2020
4828 Clouds 6 1020 81 10000 3.1 150 11:19 16.12.2020
4829 Clouds 6 1020 81 10000 2.6 150 10:41 16.12.2020
4830 Clouds 5 1020 86 10000 2.6 150 10:18 16.12.2020
4831 Clouds 5 1020 86 10000 2.1 150 09:34 16.12.2020
4832 Clouds 5 1019 86 10000 3.6 160 08:24 16.12.2020
4833 Clouds 5 1019 86 10000 3.6 150 07:48 16.12.2020
4834 Clouds 5 1019 86 10000 3.1 150 07:48 16.12.2020
4835 Clouds 5 1019 86 10000 3.1 150 07:30 16.12.2020
4836 Clouds 5 1018 86 10000 2.6 150 05:48 16.12.2020
4837 Clouds 6 1017 75 10000 5.7 160 02:24 16.12.2020
4838 Clouds 6 1016 75 10000 3.6 160 00:20 16.12.2020
4839 Clouds 6 1016 75 10000 6.2 160 23:42 15.12.2020
4840 Clouds 5 1015 80 10000 7.2 150 22:44 15.12.2020
4841 Clouds 5 1015 80 10000 7.2 150 22:24 15.12.2020
4842 Clouds 5 1016 75 10000 6.7 170 21:50 15.12.2020
4843 Clouds 5 1015 75 10000 7.7 160 21:24 15.12.2020
4844 Clouds 5 1015 75 10000 7.7 150 20:58 15.12.2020
4845 Rain 5 1015 75 10000 7.7 150 20:39 15.12.2020
4846 Clear 5 1015 75 10000 6.7 170 20:21 15.12.2020
4847 Clouds 5 1015 75 10000 8.7 160 19:41 15.12.2020
4848 Clouds 5 1015 75 10000 8.7 160 19:23 15.12.2020
4849 Clear 5 1014 75 10000 6.7 150 18:39 15.12.2020
4850 Clear 5 1014 75 10000 6.7 150 18:20 15.12.2020
4851 Clear 4 1014 80 10000 6.2 150 17:43 15.12.2020
4852 Clear 4 1014 80 10000 6.2 150 17:22 15.12.2020
4853 Clear 5 1014 75 10000 8.2 150 16:38 15.12.2020
4854 Clear 5 1013 75 10000 7.2 150 16:19 15.12.2020
4855 Clear 5 1013 75 10000 8.2 150 15:37 15.12.2020
4856 Clear 5 1013 75 10000 8.2 160 15:18 15.12.2020
4857 Clear 6 1013 70 10000 8.2 150 14:41 15.12.2020
4858 Clear 6 1013 75 10000 8.2 160 14:19 15.12.2020
4859 Clear 6 1013 75 10000 8.2 160 13:48 15.12.2020
4860 Clear 6 1013 75 10000 8.2 160 13:23 15.12.2020
4861 Clear 5 1012 75 10000 7.2 140 12:45 15.12.2020
4862 Clear 5 1013 75 10000 8.2 150 12:19 15.12.2020
4863 Clear 5 1013 75 10000 8.2 150 11:51 15.12.2020
4864 Clear 5 1013 75 10000 8.7 160 11:22 15.12.2020
4865 Clear 5 1013 80 10000 8.2 140 10:47 15.12.2020
4866 Rain 4 1013 80 10000 8.2 140 10:20 15.12.2020
4867 Clear 4 1013 80 10000 7.2 150 09:43 15.12.2020
4868 Clear 4 1013 80 10000 7.2 150 09:25 15.12.2020
4869 Clear 3 1013 86 10000 6.2 150 08:46 15.12.2020
4870 Clear 3 1013 86 10000 6.2 150 08:24 15.12.2020
4871 Clear 3 1013 80 10000 5.1 150 07:47 15.12.2020
4872 Clear 4 1013 80 10000 6.2 150 07:18 15.12.2020
4873 Clear 4 1013 80 10000 8.2 160 06:26 15.12.2020
4874 Clear 4 1014 86 10000 7.2 160 00:54 15.12.2020
4875 Clear 4 1014 80 10000 7.2 150 00:34 15.12.2020
4876 Clear 4 1014 80 10000 4.6 160 23:23 14.12.2020
4877 Clear 4 1014 80 10000 4.6 150 22:47 14.12.2020
4878 Clear 4 1014 80 10000 4.6 150 22:26 14.12.2020
4879 Clear 4 1014 80 10000 6.7 160 21:42 14.12.2020
4880 Clear 4 1014 80 10000 7.2 150 21:20 14.12.2020
4881 Clear 4 1013 80 10000 6.7 150 20:48 14.12.2020
4882 Clear 3 1013 80 10000 6.7 150 20:28 14.12.2020
4883 Clear 4 1014 80 10000 5.1 150 19:50 14.12.2020
4884 Clear 4 1014 86 10000 4.6 150 19:28 14.12.2020
4885 Clear 4 1014 80 10000 6.2 150 18:44 14.12.2020
4886 Clear 4 1014 80 10000 5.1 150 18:24 14.12.2020
4887 Clear 4 1014 80 10000 4.1 150 17:46 14.12.2020
4888 Clear 4 1014 80 10000 4.1 150 17:23 14.12.2020
4889 Clear 4 1014 80 10000 4.6 150 16:50 14.12.2020
4890 Clear 5 1014 80 10000 4.6 150 16:28 14.12.2020
4891 Clear 7 1013 75 10000 4.1 150 15:35 14.12.2020
4892 Clear 7 1013 75 10000 5.1 160 14:58 14.12.2020
4893 Clear 7 1014 70 10000 5.1 160 14:40 14.12.2020
4894 Clear 7 1014 70 10000 5.1 160 14:21 14.12.2020
4895 Clear 8 1014 70 10000 4.6 160 13:41 14.12.2020
4896 Clear 8 1014 70 10000 5.1 170 13:18 14.12.2020
4897 Clear 8 1014 70 10000 5.1 170 12:52 14.12.2020
4898 Clear 8 1014 70 10000 5.7 160 12:24 14.12.2020
4899 Clear 7 1014 81 10000 5.7 160 11:32 14.12.2020
4900 Clear 6 1014 86 10000 4.6 140 10:38 14.12.2020
4901 Clear 5 1014 86 10000 5.1 140 10:19 14.12.2020
4902 Clear 4 1014 86 10000 4.6 150 09:31 14.12.2020
4903 Clear 3 1014 93 10000 4.1 150 08:46 14.12.2020
4904 Clear 3 1014 93 10000 4.1 150 08:28 14.12.2020
4905 Clear 3 1014 93 10000 5.1 160 07:44 14.12.2020
4906 Clear 3 1014 93 10000 4.1 160 06:47 14.12.2020
4907 Clouds 2 1014 100 9000 3.6 150 05:21 14.12.2020
4908 Clouds 5 1014 93 9000 3.1 180 02:26 14.12.2020
4909 Clouds 5 1014 93 10000 2.1 190 00:56 14.12.2020
4910 Clouds 5 1014 93 10000 2.6 170 00:33 14.12.2020
4911 Clouds 5 1014 93 10000 2.1 210 23:50 13.12.2020
4912 Clouds 5 1014 93 10000 2.6 200 23:30 13.12.2020
4913 Clouds 5 1014 93 10000 2.1 220 22:47 13.12.2020
4914 Clouds 5 1014 93 10000 2.1 220 22:20 13.12.2020
4915 Clouds 5 1013 93 10000 2.6 190 21:47 13.12.2020
4916 Clouds 5 1013 93 10000 2.6 190 21:27 13.12.2020
4917 Clouds 5 1013 93 10000 3.1 200 20:38 13.12.2020
4918 Clouds 5 1013 93 10000 3.1 200 20:20 13.12.2020
4919 Clouds 5 1013 93 10000 2.1 200 19:42 13.12.2020
4920 Clouds 6 1013 93 10000 2.1 200 19:20 13.12.2020
4921 Clouds 6 1012 93 10000 1 170 18:43 13.12.2020
4922 Clouds 6 1012 93 10000 0.5 0 18:21 13.12.2020
4923 Clouds 6 1012 86 9000 1.5 160 17:47 13.12.2020
4924 Clouds 6 1012 86 9000 1.5 160 17:47 13.12.2020
4925 Clouds 6 1012 86 9000 1.5 160 17:21 13.12.2020
4926 Clouds 6 1012 93 10000 1.5 170 16:58 13.12.2020
4927 Clouds 6 1012 87 10000 0.5 0 16:38 13.12.2020
4928 Clouds 6 1011 87 10000 1.5 170 16:19 13.12.2020
4929 Clouds 6 1011 87 10000 1 0 15:42 13.12.2020
4930 Clouds 6 1011 87 10000 1 0 15:23 13.12.2020
4931 Clouds 6 1011 87 10000 1.5 230 14:44 13.12.2020
4932 Clouds 6 1011 87 10000 1.5 230 14:25 13.12.2020
4933 Clouds 6 1010 87 10000 1.5 250 13:44 13.12.2020
4934 Clouds 6 1010 81 10000 2.6 220 13:25 13.12.2020
4935 Clouds 6 1010 86 10000 2.1 200 12:51 13.12.2020
4936 Clouds 6 1010 86 10000 2.1 200 12:23 13.12.2020
4937 Clouds 6 1010 86 10000 2.1 190 11:43 13.12.2020
4938 Clouds 5 1010 86 10000 2.1 190 11:22 13.12.2020
4939 Clouds 5 1010 93 10000 2.6 190 10:40 13.12.2020
4940 Clouds 4 1009 93 10000 2.6 210 09:58 13.12.2020
4941 Clouds 4 1009 86 8000 2.6 210 09:31 13.12.2020
4942 Clouds 4 1008 86 10000 2.6 170 08:35 13.12.2020
4943 Clouds 4 1008 86 10000 2.6 180 07:52 13.12.2020
4944 Clouds 4 1007 93 8000 1.5 180 05:36 13.12.2020
4945 Clouds 4 1006 86 10000 3.1 180 02:42 13.12.2020
4946 Clouds 4 1006 80 10000 3.6 170 01:58 13.12.2020
4947 Clouds 4 1005 80 10000 2.6 160 01:19 13.12.2020
4948 Clouds 4 1005 80 10000 2.6 160 00:33 13.12.2020
4949 Clouds 4 1004 86 10000 2.6 170 23:33 12.12.2020
4950 Clouds 4 1004 80 10000 2.6 160 22:57 12.12.2020
4951 Clouds 4 1004 80 10000 3.6 170 22:27 12.12.2020
4952 Clouds 4 1004 80 10000 3.6 170 21:45 12.12.2020
4953 Clouds 4 1004 80 10000 3.6 170 21:18 12.12.2020
4954 Clouds 4 1003 80 10000 3.6 160 20:43 12.12.2020
4955 Clouds 4 1003 80 10000 4.1 160 20:19 12.12.2020
4956 Clouds 4 1003 80 10000 4.1 160 19:51 12.12.2020
4957 Clouds 4 1003 80 10000 4.1 160 19:33 12.12.2020
4958 Clouds 4 1003 80 10000 4.1 160 19:33 12.12.2020
4959 Clouds 4 1002 80 10000 3.1 170 18:52 12.12.2020
4960 Clouds 4 1002 80 10000 3.1 170 18:33 12.12.2020
4961 Clouds 4 1002 80 10000 4.1 170 17:59 12.12.2020
4962 Clouds 4 1002 80 10000 4.1 170 17:40 12.12.2020
4963 Clouds 4 1001 80 10000 2.6 140 16:30 12.12.2020
4964 Clouds 4 1000 86 10000 3.6 140 15:53 12.12.2020
4965 Clouds 4 1000 80 10000 3.6 140 15:35 12.12.2020
4966 Clouds 5 1000 75 10000 4.1 160 14:53 12.12.2020
4967 Rain 5 1000 75 10000 4.1 160 14:21 12.12.2020
4968 Clouds 5 999 75 10000 4.1 150 13:41 12.12.2020
4969 Clouds 5 999 75 10000 4.1 150 13:22 12.12.2020
4970 Clouds 5 999 80 10000 4.1 170 12:33 12.12.2020
4971 Rain 4 999 72 10000 6.2 150 11:20 12.12.2020
4972 Rain 4 999 72 10000 5.7 150 10:45 12.12.2020
4973 Rain 3 998 80 10000 5.1 150 09:24 12.12.2020
4974 Clear 2 998 81 10000 5.1 140 08:25 12.12.2020
4975 Clear 2 998 80 10000 6.2 160 01:41 12.12.2020
4976 Clear 2 998 80 10000 6.7 150 23:30 11.12.2020
4977 Clouds 3 999 81 10000 6.7 150 20:57 11.12.2020
4978 Clouds 3 999 80 10000 4.6 150 19:44 11.12.2020
4979 Clouds 4 1000 75 10000 4.1 130 16:59 11.12.2020
4980 Clouds 4 1000 80 10000 5.1 140 14:38 11.12.2020
4981 Clouds 5 1001 80 10000 4.1 150 13:46 11.12.2020
4982 Clouds 4 1002 80 10000 4.1 140 12:28 11.12.2020
4983 Clouds 4 1002 80 10000 3.6 140 11:55 11.12.2020
4984 Clouds 4 1003 86 10000 4.1 160 11:37 11.12.2020
4985 Clouds 3 1003 93 8000 4.6 140 10:40 11.12.2020
4986 Clouds 2 1003 89 10000 4.1 150 07:51 11.12.2020
4987 Clouds 1 1005 86 10000 1.5 90 05:36 11.12.2020
4988 Clouds 1 1005 84 8000 1 0 04:47 11.12.2020
4989 Clouds 0 1006 92 6000 1.5 100 00:59 11.12.2020
4990 Clouds 0 1006 92 6000 2.1 80 23:31 10.12.2020
4991 Clouds 0 1007 92 7000 2.6 80 21:59 10.12.2020
4992 Clouds 0 1007 92 7000 2.6 80 21:29 10.12.2020
4993 Mist 0 1007 92 5000 3.1 90 20:38 10.12.2020
4994 Clouds 0 1007 92 6000 2.1 70 19:33 10.12.2020
4995 Mist 0 1007 100 4000 2.1 70 18:50 10.12.2020
4996 Mist 0 1007 100 2700 2.6 60 17:36 10.12.2020
4997 Mist 1 1006 77 4500 3.1 50 16:24 10.12.2020
4998 Mist 1 1006 76 4500 3.1 60 15:24 10.12.2020
4999 Mist 1 1006 76 5000 2.6 60 14:47 10.12.2020
5000 Mist 1 1006 75 5000 3.1 60 14:24 10.12.2020
5001 Clouds 1 1006 74 6000 3.6 70 12:33 10.12.2020
5002 Mist 1 1007 76 5000 4.1 60 10:59 10.12.2020
5003 Mist 1 1007 81 4000 3.6 90 08:47 10.12.2020
5004 Mist 1 1007 83 4200 3.1 100 07:37 10.12.2020
5005 Drizzle 1 1007 84 4500 4.1 90 06:40 10.12.2020
5006 Clouds 2 1008 88 10000 4.1 90 02:51 10.12.2020
5007 Clouds 2 1009 88 10000 3.6 60 01:57 10.12.2020
5008 Clouds 2 1009 84 10000 3.6 60 23:50 09.12.2020
5009 Clouds 4 1009 86 10000 4.1 50 20:43 09.12.2020
5010 Clouds 5 1009 86 10000 4.1 50 20:24 09.12.2020
5011 Clouds 5 1009 80 10000 3.1 70 19:20 09.12.2020
5012 Clouds 6 1009 75 10000 2.6 120 17:39 09.12.2020
5013 Clouds 6 1009 75 10000 3.1 120 16:40 09.12.2020
5014 Clouds 6 1009 75 10000 5.1 130 16:20 09.12.2020
5015 Clouds 6 1008 75 10000 3.6 130 14:53 09.12.2020
5016 Rain 6 1009 75 10000 2.6 130 14:27 09.12.2020
5017 Clouds 6 1009 75 10000 2.1 150 13:51 09.12.2020
5018 Clouds 6 1009 75 10000 4.1 150 13:18 09.12.2020
5019 Clouds 6 1009 75 10000 5.1 150 12:43 09.12.2020
5020 Clouds 6 1009 75 10000 5.1 150 11:48 09.12.2020
5021 Clouds 6 1008 75 10000 3.6 130 10:31 09.12.2020
5022 Clouds 6 1008 75 10000 4.6 150 08:46 09.12.2020
5023 Clouds 6 1007 75 10000 3.6 130 07:43 09.12.2020
5024 Clouds 6 1007 75 10000 3.6 150 05:48 09.12.2020
5025 Clouds 5 1007 80 10000 4.1 120 03:26 09.12.2020
5026 Clouds 5 1007 80 10000 4.1 120 01:49 09.12.2020
5027 Rain 5 1006 80 10000 3.6 110 23:41 08.12.2020
5028 Clouds 5 1007 80 10000 3.1 100 22:43 08.12.2020
5029 Clear 5 1006 80 10000 3.6 140 20:54 08.12.2020
5030 Clear 4 1006 80 10000 3.6 120 19:32 08.12.2020
5031 Clear 4 1006 80 10000 3.6 130 18:58 08.12.2020
5032 Clear 4 1006 80 10000 3.6 100 17:33 08.12.2020
5033 Clouds 5 1005 70 10000 5.7 150 15:44 08.12.2020
5034 Clouds 6 1005 65 10000 6.7 150 14:26 08.12.2020
5035 Clouds 7 1005 65 10000 6.2 160 13:24 08.12.2020
5036 Clouds 7 1005 65 10000 7.2 170 12:26 08.12.2020
5037 Clouds 7 1005 70 10000 7.2 150 11:50 08.12.2020
5038 Clear 6 1005 75 10000 5.1 150 10:45 08.12.2020
5039 Clear 6 1005 75 10000 5.1 150 10:19 08.12.2020
5040 Clouds 4 1004 86 10000 2.6 110 08:39 08.12.2020
5041 Clouds 5 1004 81 10000 3.6 130 06:52 08.12.2020
5042 Clouds 5 1004 81 10000 3.6 130 06:52 08.12.2020
5043 Clouds 5 1003 81 10000 3.6 110 03:42 08.12.2020
5044 Clouds 5 1004 80 10000 2.6 50 00:47 08.12.2020
5045 Clouds 5 1004 86 10000 1 0 00:22 08.12.2020
5046 Clouds 4 1005 86 10000 1.5 20 22:40 07.12.2020
5047 Clouds 5 1005 80 10000 1.5 350 21:51 07.12.2020
5048 Clouds 5 1004 80 10000 0.5 0 20:31 07.12.2020
5049 Clouds 5 1004 86 10000 0.5 180 18:43 07.12.2020
5050 Clouds 5 1003 80 10000 3.1 190 17:28 07.12.2020
5051 Clouds 6 1003 75 10000 3.6 200 16:55 07.12.2020
5052 Clouds 7 1002 70 10000 4.6 170 15:47 07.12.2020
5053 Clouds 8 1002 70 10000 3.6 160 15:19 07.12.2020
5054 Clouds 9 1001 70 10000 3.1 150 14:19 07.12.2020
5055 Clouds 9 1001 75 10000 4.6 190 13:33 07.12.2020
5056 Clouds 8 1000 81 10000 5.1 170 11:45 07.12.2020
5057 Clouds 8 1000 76 10000 5.1 180 11:20 07.12.2020
5058 Clouds 9 999 76 10000 7.7 160 09:57 07.12.2020
5059 Clouds 9 999 76 10000 6.2 150 08:29 07.12.2020
5060 Clouds 9 997 71 10000 3.1 150 06:45 07.12.2020
5061 Clouds 10 996 71 10000 9.3 140 04:58 07.12.2020
5062 Clouds 10 996 71 10000 9.3 140 04:58 07.12.2020
5063 Clouds 10 997 71 10000 6.2 120 01:57 07.12.2020
5064 Clouds 10 998 71 10000 6.7 140 00:30 07.12.2020
5065 Clouds 10 997 71 10000 8.7 140 22:33 06.12.2020
5066 Clouds 10 998 71 10000 6.2 150 21:32 06.12.2020
5067 Clouds 9 999 76 10000 5.7 130 20:34 06.12.2020
5068 Clouds 10 999 71 10000 6.7 140 19:57 06.12.2020
5069 Clouds 10 999 76 10000 4.6 120 18:52 06.12.2020
5070 Clear 11 999 71 10000 7.7 150 17:23 06.12.2020
5071 Clear 11 998 71 10000 5.1 100 15:53 06.12.2020
5072 Clear 11 999 71 10000 4.1 140 14:21 06.12.2020
5073 Clear 12 999 66 10000 5.1 130 12:52 06.12.2020
5074 Clear 11 999 66 10000 5.1 150 12:27 06.12.2020
5075 Clear 11 999 66 10000 5.1 150 11:40 06.12.2020
5076 Clear 10 999 71 10000 6.2 140 11:21 06.12.2020
5077 Clear 10 1000 71 10000 5.1 140 10:31 06.12.2020
5078 Clear 8 1000 76 10000 3.6 160 08:50 06.12.2020
5079 Clear 8 999 81 10000 6.2 130 07:20 06.12.2020
5080 Clear 6 1000 81 10000 2.6 70 03:50 06.12.2020
5081 Clear 6 1001 81 10000 2.6 110 00:43 06.12.2020
5082 Clear 6 1001 81 10000 2.6 110 00:25 06.12.2020
5083 Clear 6 1002 81 10000 2.1 120 23:55 05.12.2020
5084 Clear 6 1002 81 10000 2.1 140 22:24 05.12.2020
5085 Clear 6 1002 81 10000 2.1 130 21:53 05.12.2020
5086 Clear 6 1002 81 10000 1 0 21:28 05.12.2020
5087 Clear 6 1002 81 10000 2.1 80 19:50 05.12.2020
5088 Clear 6 1003 81 10000 1.5 90 18:45 05.12.2020
5089 Clear 7 1002 70 10000 4.6 160 17:36 05.12.2020
5090 Clear 7 1003 75 10000 3.1 180 16:43 05.12.2020
5091 Clear 7 1003 70 10000 3.6 180 16:23 05.12.2020
5092 Clear 8 1002 70 10000 4.1 150 14:30 05.12.2020
5093 Clear 8 1001 70 10000 5.7 180 12:32 05.12.2020
5094 Clear 8 1000 65 10000 5.1 160 11:49 05.12.2020
5095 Clear 7 999 70 10000 4.1 200 10:34 05.12.2020
5096 Clear 6 995 75 10000 8.2 160 08:27 05.12.2020
5097 Clear 6 994 75 10000 10.8 160 07:47 05.12.2020
5098 Clear 5 993 75 10000 8.7 150 05:30 05.12.2020
5099 Clear 4 994 79 10000 8.7 150 23:59 04.12.2020
5100 Clear 4 994 79 10000 6.7 150 23:20 04.12.2020
5101 Clear 3 994 74 10000 7.2 140 20:39 04.12.2020
5102 Clear 3 994 74 10000 8.7 150 19:21 04.12.2020
5103 Clear 3 994 74 10000 8.7 150 18:30 04.12.2020
5104 Clear 3 994 74 10000 8.7 150 17:44 04.12.2020
5105 Clear 3 994 74 10000 8.2 170 16:32 04.12.2020
5106 Clear 3 994 74 10000 7.2 150 15:23 04.12.2020
5107 Clear 4 994 69 10000 8.2 150 13:36 04.12.2020
5108 Clear 4 994 69 10000 11.3 150 13:18 04.12.2020
5109 Clear 4 994 69 10000 9.8 160 12:22 04.12.2020
5110 Clouds 3 994 80 10000 7.7 150 10:37 04.12.2020
5111 Clouds 2 994 80 10000 8.7 160 09:24 04.12.2020
5112 Clouds 1 994 80 10000 11.3 160 06:40 04.12.2020
5113 Clouds 0 995 87 10000 10.8 170 04:53 04.12.2020
5114 Clear -1 997 80 10000 6.2 150 01:53 04.12.2020
5115 Clouds -2 1000 74 10000 3.1 160 22:51 03.12.2020
5116 Clouds -2 1002 79 10000 2.1 150 21:37 03.12.2020
5117 Clear -2 1002 74 10000 6.7 180 20:47 03.12.2020
5118 Clouds -1 1002 74 10000 7.2 170 19:25 03.12.2020
5119 Clouds -1 1003 74 10000 6.7 170 18:48 03.12.2020
5120 Clouds 0 1004 90 10000 6.7 190 17:21 03.12.2020
5121 Clouds 0 1004 90 10000 6.7 190 16:43 03.12.2020
5122 Clouds 0 1005 90 10000 6.7 190 15:33 03.12.2020
5123 Clouds 0 1005 86 10000 5.1 180 14:49 03.12.2020
5124 Clouds 0 1005 84 10000 5.7 170 14:19 03.12.2020
5125 Clouds 0 1006 81 10000 5.1 170 12:55 03.12.2020
5126 Clouds 0 1006 82 10000 5.1 170 12:25 03.12.2020
5127 Clouds -1 1007 80 10000 4.6 170 11:22 03.12.2020
5128 Snow -2 1009 92 3500 3.6 170 08:49 03.12.2020
5129 Clear -2 1011 79 10000 3.6 170 04:44 03.12.2020
5130 Clouds -2 1012 79 10000 2.1 120 02:22 03.12.2020
5131 Clear -3 1013 79 10000 1 0 00:42 03.12.2020
5132 Clear -3 1013 79 10000 1.5 120 22:47 02.12.2020
5133 Clear -3 1014 79 10000 3.1 130 21:58 02.12.2020
5134 Clear -3 1014 86 10000 1.5 90 20:55 02.12.2020
5135 Clear -3 1015 86 10000 2.1 60 20:37 02.12.2020
5136 Clear -3 1015 86 10000 2.1 110 20:18 02.12.2020
5137 Clear -3 1015 86 10000 2.1 90 18:33 02.12.2020
5138 Clear -3 1015 86 10000 1.5 90 17:38 02.12.2020
5139 Clear -2 1016 79 10000 2.1 110 17:19 02.12.2020
5140 Clouds -1 1017 85 10000 4.6 140 15:18 02.12.2020
5141 Clouds 0 1018 80 10000 4.6 140 12:45 02.12.2020
5142 Clear 0 1019 89 10000 4.1 140 10:29 02.12.2020
5143 Clear -2 1020 80 10000 3.1 130 09:22 02.12.2020
5144 Clear -2 1020 80 10000 2.1 140 04:25 02.12.2020
5145 Clear -1 1020 86 10000 4.1 160 22:21 01.12.2020
5146 Clear 0 1020 90 10000 3.6 160 21:41 01.12.2020
5147 Clear 0 1019 87 10000 3.1 140 19:35 01.12.2020
5148 Clear 0 1018 87 10000 3.1 130 18:18 01.12.2020
5149 Clear 1 1017 80 10000 4.1 150 16:37 01.12.2020
5150 Clear 2 1016 74 10000 5.1 160 13:54 01.12.2020
5151 Clouds 2 1015 80 10000 4.6 160 12:26 01.12.2020
5152 Clouds 1 1015 80 10000 6.2 160 11:27 01.12.2020
5153 Clouds 1 1015 80 10000 5.1 150 10:44 01.12.2020
5154 Clouds 1 1015 80 10000 5.1 150 10:25 01.12.2020
5155 Snow 0 1014 84 6000 5.1 150 07:19 01.12.2020
5156 Clear 1 1016 69 10000 4.1 150 01:56 01.12.2020
5157 Clear 1 1016 69 10000 4.1 150 00:57 01.12.2020
5158 Clear 1 1018 69 10000 4.1 170 23:22 30.11.2020
5159 Clear 1 1018 74 10000 3.6 160 22:45 30.11.2020
5160 Clear 1 1018 74 10000 3.6 160 22:26 30.11.2020
5161 Clear 1 1018 74 10000 3.6 160 21:56 30.11.2020
5162 Clear -1 1020 86 10000 4.1 170 19:45 30.11.2020
5163 Clear -1 1021 86 10000 4.1 170 18:44 30.11.2020
5164 Clear -1 1021 86 10000 4.6 170 18:21 30.11.2020
5165 Clouds -1 1021 86 10000 3.6 170 17:43 30.11.2020
5166 Clouds -1 1021 86 10000 3.6 170 17:43 30.11.2020
5167 Clouds 1 1022 69 10000 4.6 180 16:44 30.11.2020
5168 Clouds 2 1023 69 10000 4.6 190 14:47 30.11.2020
5169 Clouds 2 1024 69 10000 5.1 210 13:55 30.11.2020
5170 Clouds 2 1025 74 10000 3.1 200 12:57 30.11.2020
5171 Clouds 2 1025 86 10000 3.1 190 12:25 30.11.2020
5172 Clouds 1 1026 86 10000 3.1 190 10:59 30.11.2020
5173 Clouds 0 1026 80 10000 2.1 210 10:21 30.11.2020
5174 Clouds 0 1026 82 10000 3.1 220 08:52 30.11.2020
5175 Clouds 1 1025 91 10000 1 0 01:25 30.11.2020
5176 Clouds 2 1025 100 10000 2.1 290 23:26 29.11.2020
5177 Clouds 2 1025 100 10000 2.6 310 21:44 29.11.2020
5178 Clouds 2 1025 100 10000 2.6 310 21:25 29.11.2020
5179 Clouds 1 1025 100 10000 2.6 330 19:19 29.11.2020
5180 Clouds 2 1024 93 10000 2.6 300 17:34 29.11.2020
5181 Clouds 3 1024 93 10000 3.6 320 14:22 29.11.2020
5182 Drizzle 2 1024 93 8000 3.6 310 12:45 29.11.2020
5183 Clouds 3 1025 93 10000 2.6 320 11:37 29.11.2020
5184 Clouds 0 1024 89 10000 1.5 290 08:54 29.11.2020
5185 Clouds 0 1024 89 10000 0.5 0 08:34 29.11.2020
5186 Clouds 1 1024 92 10000 0.5 0 02:31 29.11.2020
5187 Clouds 2 1025 80 10000 1 350 22:59 28.11.2020
5188 Clouds 2 1025 80 10000 0.5 330 22:26 28.11.2020
5189 Clouds 2 1024 69 10000 1 40 19:59 28.11.2020
5190 Clouds 2 1024 69 10000 2.1 60 19:28 28.11.2020
5191 Clouds 2 1024 69 10000 1 0 18:57 28.11.2020
5192 Clouds 2 1024 69 10000 1.5 50 18:21 28.11.2020
5193 Clouds 2 1023 74 10000 0.5 0 16:57 28.11.2020
5194 Clouds 3 1023 74 10000 3.6 70 14:59 28.11.2020
5195 Clouds 3 1023 69 10000 2.6 70 13:54 28.11.2020
5196 Clouds 3 1023 74 10000 3.6 80 11:28 28.11.2020
5197 Clouds 2 1023 93 6000 1 0 09:26 28.11.2020
5198 Mist 1 1021 100 2300 2.6 200 03:44 28.11.2020
5199 Fog 1 1022 100 1800 1.5 150 01:54 28.11.2020
5200 Fog 2 1022 100 300 1.5 170 23:22 27.11.2020
5201 Fog 2 1022 100 200 2.6 180 22:38 27.11.2020
5202 Fog 1 1022 78 600 2.6 160 20:41 27.11.2020
5203 Fog 1 1022 79 600 2.6 160 20:23 27.11.2020
5204 Fog 1 1021 78 4500 1.5 110 19:19 27.11.2020
5205 Clear 2 1021 93 10000 3.1 150 16:58 27.11.2020
5206 Clear 4 1021 80 10000 1.5 190 14:45 27.11.2020
5207 Clouds 4 1021 80 10000 1.5 190 13:21 27.11.2020
5208 Clouds 4 1021 80 10000 2.1 170 12:47 27.11.2020
5209 Clouds 3 1022 86 10000 2.1 90 11:34 27.11.2020
5210 Clouds 3 1022 86 9000 1.5 110 10:49 27.11.2020
5211 Clouds 3 1021 93 8000 1 0 09:53 27.11.2020
5212 Clouds 2 1020 79 9000 1 0 05:47 27.11.2020
5213 Clouds 3 982 97 10000 1.57 211 22:27 26.11.2020
5214 Clouds 3 1021 67 10000 3.1 180 21:56 26.11.2020
5215 Clouds 3 1021 67 10000 3.1 180 20:50 26.11.2020
5216 Clouds 4 1021 68 10000 3.1 180 18:37 26.11.2020
5217 Clouds 4 1021 66 10000 3.1 170 17:50 26.11.2020
5218 Clouds 4 1021 80 10000 3.6 150 14:49 26.11.2020
5219 Clouds 4 1021 80 10000 3.1 220 13:20 26.11.2020
5220 Clouds 6 1021 80 10000 3.6 200 12:42 26.11.2020
5221 Clouds 6 1022 56 10000 3.1 180 11:36 26.11.2020
5222 Clouds 3 1021 86 10000 3.6 170 10:33 26.11.2020
5223 Clouds 2 1022 64 10000 2.1 170 09:46 26.11.2020
5224 Clouds 2 1022 72 10000 2.1 170 09:27 26.11.2020
5225 Clear 1 1021 92 10000 4.1 170 08:38 26.11.2020
5226 Clear 0 1021 92 10000 4.6 170 04:42 26.11.2020
5227 Clear 1 1020 86 10000 5.7 150 22:42 25.11.2020
5228 Clear 0 1020 86 10000 5.1 160 20:42 25.11.2020
5229 Clear 1 1020 86 10000 7.2 160 19:46 25.11.2020
5230 Clear 1 1020 86 10000 7.2 150 18:28 25.11.2020
5231 Clear 2 1019 80 10000 6.7 150 16:43 25.11.2020
5232 Clear 3 1019 73 10000 7.7 150 15:38 25.11.2020
5233 Clear 5 1019 63 10000 7.7 150 13:57 25.11.2020
5234 Clear 5 1020 63 10000 6.2 150 13:38 25.11.2020
5235 Clear 4 1020 69 10000 4.6 150 11:58 25.11.2020
5236 Clear 3 1020 74 10000 4.1 160 11:18 25.11.2020
5237 Clear 1 1020 80 10000 4.1 150 09:19 25.11.2020
5238 Clear 0 1020 81 10000 5.1 150 08:44 25.11.2020
5239 Clear -1 1020 92 10000 4.6 140 03:59 25.11.2020
5240 Clear 0 1021 85 10000 4.1 150 02:53 25.11.2020
5241 Clear 0 1022 81 10000 3.1 140 00:28 25.11.2020
5242 Clear 0 1022 86 10000 3.6 140 23:55 24.11.2020
5243 Clear 1 1022 86 10000 2.6 140 23:34 24.11.2020
5244 Clear 1 1023 80 10000 4.6 160 21:52 24.11.2020
5245 Clear 1 1023 80 10000 3.1 150 21:31 24.11.2020
5246 Clear 1 1023 86 10000 3.6 160 20:45 24.11.2020
5247 Clear 1 1023 86 10000 3.6 150 19:21 24.11.2020
5248 Clear 2 1024 75 10000 3.6 140 17:31 24.11.2020
5249 Clear 3 1024 72 10000 4.1 140 16:56 24.11.2020
5250 Clear 4 1024 75 10000 2.6 110 16:36 24.11.2020
5251 Clear 5 1024 70 10000 2.6 120 15:55 24.11.2020
5252 Clear 6 1025 65 10000 2.6 140 15:19 24.11.2020
5253 Clear 6 1025 61 10000 2.6 180 14:43 24.11.2020
5254 Clear 6 1026 65 10000 3.1 180 12:58 24.11.2020
5255 Clear 6 1026 65 10000 3.6 170 12:38 24.11.2020
5256 Clear 6 1027 70 10000 3.6 180 11:59 24.11.2020
5257 Clear 5 1027 60 10000 3.1 170 11:22 24.11.2020
5258 Clear 3 1027 66 10000 3.6 170 10:25 24.11.2020
5259 Clear 1 1027 66 10000 2.6 150 09:38 24.11.2020
5260 Clear 0 1027 100 10000 2.6 160 08:57 24.11.2020
5261 Clear 0 1027 86 10000 4.1 180 04:51 24.11.2020
5262 Clear 1 1030 77 10000 3.1 210 00:41 24.11.2020
5263 Clear 2 1029 86 10000 2.1 230 22:24 23.11.2020
5264 Clear 3 1029 86 10000 2.6 230 21:29 23.11.2020
5265 Clouds 4 1029 80 10000 3.6 240 20:29 23.11.2020
5266 Clouds 4 1029 75 10000 3.6 240 19:56 23.11.2020
5267 Clouds 5 1028 75 10000 2.6 260 17:53 23.11.2020
5268 Clouds 6 1027 75 10000 3.1 260 16:56 23.11.2020
5269 Clouds 8 1026 75 10000 4.6 280 15:18 23.11.2020
5270 Clouds 8 1026 75 10000 5.1 280 14:37 23.11.2020
5271 Clouds 8 1026 70 10000 5.1 300 12:41 23.11.2020
5272 Clouds 8 1026 75 10000 5.1 290 12:20 23.11.2020
5273 Clouds 8 1026 81 10000 5.1 280 11:42 23.11.2020
5274 Clouds 7 1025 87 10000 3.6 290 10:22 23.11.2020
5275 Clouds 6 1025 87 10000 3.6 290 09:31 23.11.2020
5276 Clouds 6 1024 93 10000 3.6 270 08:36 23.11.2020
5277 Clouds 6 1023 87 10000 3.6 250 06:57 23.11.2020
5278 Clouds 6 1024 87 10000 2.6 230 00:21 23.11.2020
5279 Clouds 6 1024 87 10000 3.1 240 22:45 22.11.2020
5280 Clouds 7 1024 87 10000 3.6 220 21:26 22.11.2020
5281 Clouds 7 1024 87 10000 3.6 220 20:43 22.11.2020
5282 Clouds 7 1024 87 10000 3.6 230 19:52 22.11.2020
5283 Clouds 7 1024 93 10000 4.1 220 18:40 22.11.2020
5284 Clouds 8 1024 81 10000 3.6 240 16:50 22.11.2020
5285 Clouds 9 1023 76 10000 4.6 260 15:33 22.11.2020
5286 Clouds 9 1023 76 10000 5.1 250 14:28 22.11.2020
5287 Clouds 9 1024 70 10000 5.7 250 12:49 22.11.2020
5288 Clouds 9 1024 66 10000 6.2 240 11:56 22.11.2020
5289 Clouds 9 1024 70 10000 4.1 240 11:20 22.11.2020
5290 Clouds 8 1024 65 10000 5.1 240 10:39 22.11.2020
5291 Clouds 6 1024 65 10000 6.2 210 08:51 22.11.2020
5292 Clouds 4 1026 56 10000 5.7 220 01:48 22.11.2020
5293 Clouds 4 1028 52 10000 3.1 240 23:35 21.11.2020
5294 Clouds 3 1028 60 10000 4.6 200 21:57 21.11.2020
5295 Clouds 3 1028 64 10000 4.6 200 21:24 21.11.2020
5296 Clouds 3 1028 69 10000 5.1 200 20:34 21.11.2020
5297 Clear 2 1029 69 10000 5.1 190 19:54 21.11.2020
5298 Clear 2 1029 80 10000 5.7 180 19:33 21.11.2020
5299 Clear 2 1029 80 10000 4.1 180 18:27 21.11.2020
5300 Clear 3 1030 69 10000 4.6 190 16:49 21.11.2020
5301 Clear 4 1030 69 10000 4.1 200 16:26 21.11.2020
5302 Clear 5 1031 56 10000 5.7 220 15:22 21.11.2020
5303 Clear 6 1031 56 10000 4.6 220 14:43 21.11.2020
5304 Clear 6 1031 52 10000 5.7 220 14:21 21.11.2020
5305 Clear 6 1033 60 10000 5.1 190 12:29 21.11.2020
5306 Clear 6 1033 60 10000 4.6 190 11:58 21.11.2020
5307 Clear 4 1034 63 10000 5.1 190 10:51 21.11.2020
5308 Clear 3 1034 80 10000 5.1 190 10:26 21.11.2020
5309 Clear 0 1034 100 10000 3.1 190 08:51 21.11.2020
5310 Clouds 0 1034 84 10000 4.1 180 06:35 21.11.2020
5311 Clouds 1 1035 86 10000 3.1 210 04:39 21.11.2020
5312 Clouds 0 1035 86 10000 3.1 200 01:32 21.11.2020
5313 Clouds 1 1035 85 10000 2.1 260 23:59 20.11.2020
5314 Clear 1 1034 85 10000 2.1 250 22:26 20.11.2020
5315 Clouds 2 1034 93 10000 2.1 250 21:42 20.11.2020
5316 Clouds 2 1034 93 10000 2.1 250 21:21 20.11.2020
5317 Clouds 3 1034 86 10000 1.5 270 19:46 20.11.2020
5318 Clouds 3 1033 86 10000 2.1 280 18:53 20.11.2020
5319 Clouds 3 1032 86 10000 1.5 270 17:53 20.11.2020
5320 Clouds 3 1032 86 10000 1 0 17:28 20.11.2020
5321 Clouds 4 1031 80 10000 2.6 280 16:40 20.11.2020
5322 Clouds 4 1031 86 10000 3.6 290 15:59 20.11.2020
5323 Clouds 4 1031 80 10000 4.6 300 15:27 20.11.2020
5324 Clouds 4 1031 86 10000 4.6 290 13:47 20.11.2020
5325 Clouds 4 1030 86 10000 4.6 300 13:19 20.11.2020
5326 Rain 4 1030 86 10000 4.6 290 12:36 20.11.2020
5327 Rain 4 1030 80 10000 5.1 290 11:45 20.11.2020
5328 Clouds 4 1030 80 10000 4.1 290 11:20 20.11.2020
5329 Clouds 3 1029 86 10000 3.1 260 09:31 20.11.2020
5330 Clouds 2 1028 78 10000 3.1 250 08:26 20.11.2020
5331 Clouds 2 1028 78 10000 3.1 260 07:34 20.11.2020
5332 Clouds 3 1027 86 10000 3.6 280 03:45 20.11.2020
5333 Clouds 6 1024 81 10000 5.7 300 23:25 19.11.2020
5334 Clouds 6 1023 81 10000 3.6 310 22:27 19.11.2020
5335 Clouds 7 1023 93 10000 4.1 320 21:49 19.11.2020
5336 Rain 8 1021 81 10000 5.7 280 20:37 19.11.2020
5337 Rain 8 1020 75 10000 6.7 270 20:18 19.11.2020
5338 Rain 8 1020 75 10000 5.7 260 19:25 19.11.2020
5339 Clouds 8 1019 66 10000 4.6 250 17:50 19.11.2020
5340 Clouds 9 1019 66 10000 4.6 250 17:18 19.11.2020
5341 Clouds 9 1018 70 10000 5.1 260 15:59 19.11.2020
5342 Clouds 9 1018 76 10000 6.2 280 15:28 19.11.2020
5343 Clouds 10 1017 93 10000 4.6 280 13:47 19.11.2020
5344 Clouds 9 1017 93 10000 4.6 280 13:25 19.11.2020
5345 Rain 9 1017 93 6000 5.1 290 12:51 19.11.2020
5346 Rain 10 1016 76 10000 5.7 260 12:25 19.11.2020
5347 Clouds 10 1016 76 10000 3.1 230 11:40 19.11.2020
5348 Clouds 10 1016 76 10000 3.1 230 11:20 19.11.2020
5349 Clouds 9 1016 76 10000 3.1 190 10:29 19.11.2020
5350 Clouds 9 1016 76 10000 2.1 180 09:45 19.11.2020
5351 Clouds 9 1016 76 10000 2.1 180 09:26 19.11.2020
5352 Clear 8 1015 75 10000 4.1 150 08:20 19.11.2020
5353 Clear 8 1015 75 10000 4.6 160 07:30 19.11.2020
5354 Clear 9 1018 66 10000 2.1 120 01:46 19.11.2020
5355 Clear 9 1019 66 10000 4.1 150 00:32 19.11.2020
5356 Clear 9 1020 71 10000 4.6 160 23:31 18.11.2020
5357 Clear 8 1020 71 10000 6.7 170 22:58 18.11.2020
5358 Clear 8 1020 76 10000 4.1 160 22:27 18.11.2020
5359 Clear 8 1021 76 10000 5.7 170 21:43 18.11.2020
5360 Clear 9 1021 76 10000 5.7 170 21:24 18.11.2020
5361 Clear 8 1022 76 10000 6.7 160 20:31 18.11.2020
5362 Clear 9 1022 76 10000 6.7 170 19:37 18.11.2020
5363 Clear 8 1022 76 10000 6.7 170 18:58 18.11.2020
5364 Clear 8 1022 76 10000 5.7 170 18:39 18.11.2020
5365 Clear 9 1023 76 10000 5.7 170 17:41 18.11.2020
5366 Clear 10 1023 76 10000 2.1 150 16:26 18.11.2020
5367 Clear 11 1024 81 10000 2.6 140 15:58 18.11.2020
5368 Clouds 12 1025 71 10000 1.5 180 14:41 18.11.2020
5369 Clouds 12 1025 71 10000 2.1 190 13:47 18.11.2020
5370 Clouds 12 1026 76 10000 2.1 220 13:21 18.11.2020
5371 Clouds 12 1026 76 10000 3.6 230 12:42 18.11.2020
5372 Clouds 11 1027 71 10000 3.1 230 11:42 18.11.2020
5373 Clouds 11 1027 71 10000 4.1 220 10:54 18.11.2020
5374 Clouds 10 1027 76 10000 4.1 210 10:27 18.11.2020
5375 Clouds 9 1027 87 10000 3.1 190 08:33 18.11.2020
5376 Clouds 9 1027 87 10000 3.1 210 06:48 18.11.2020
5377 Clouds 10 1027 81 10000 4.1 220 03:48 18.11.2020
5378 Clouds 10 1027 81 10000 4.1 240 00:18 18.11.2020
5379 Clouds 10 1027 81 10000 3.1 230 23:24 17.11.2020
5380 Clouds 10 1027 81 10000 3.6 240 22:44 17.11.2020
5381 Clouds 10 1027 81 10000 3.6 240 22:25 17.11.2020
5382 Clouds 10 1027 87 10000 3.6 230 21:46 17.11.2020
5383 Clouds 10 1027 87 10000 3.6 230 21:18 17.11.2020
5384 Clouds 10 1026 87 10000 2.6 240 20:42 17.11.2020
5385 Clouds 10 1026 87 10000 2.6 240 20:22 17.11.2020
5386 Clouds 10 1026 100 10000 3.6 220 18:56 17.11.2020
5387 Clouds 10 1025 100 5000 4.6 220 18:22 17.11.2020
5388 Clouds 10 1026 100 4000 3.1 240 17:27 17.11.2020
5389 Rain 11 1025 87 10000 3.1 250 16:30 17.11.2020
5390 Rain 11 1025 81 10000 4.1 250 15:53 17.11.2020
5391 Clouds 11 1025 76 10000 4.1 240 15:34 17.11.2020
5392 Rain 12 1025 76 10000 4.1 230 14:57 17.11.2020
5393 Clouds 11 1025 76 10000 5.1 220 14:28 17.11.2020
5394 Clouds 12 1025 71 10000 5.1 220 13:41 17.11.2020
5395 Clouds 12 1025 71 10000 5.1 220 13:20 17.11.2020
5396 Clouds 11 1025 71 10000 5.1 230 12:41 17.11.2020
5397 Clouds 12 1025 71 10000 5.1 230 11:44 17.11.2020
5398 Clouds 11 1025 66 10000 5.7 220 10:56 17.11.2020
5399 Clouds 11 1025 76 10000 5.1 220 10:33 17.11.2020
5400 Clouds 11 1025 76 10000 4.6 220 09:51 17.11.2020
5401 Clouds 9 1025 81 10000 4.1 210 09:29 17.11.2020
5402 Clouds 8 1024 81 10000 2.1 230 08:24 17.11.2020
5403 Clouds 9 1024 76 10000 3.1 250 07:46 17.11.2020
5404 Clouds 9 1024 76 10000 3.1 250 06:54 17.11.2020
5405 Clouds 9 1022 81 10000 4.6 230 04:20 17.11.2020
5406 Clear 10 1022 81 10000 4.6 240 02:54 17.11.2020
5407 Clear 9 1022 81 10000 3.6 230 01:26 17.11.2020
5408 Clear 9 1022 81 10000 3.6 240 00:56 17.11.2020
5409 Clouds 9 1021 81 10000 3.1 240 23:50 16.11.2020
5410 Clouds 9 1021 81 10000 3.6 240 23:29 16.11.2020
5411 Clouds 9 1020 81 10000 3.6 250 22:48 16.11.2020
5412 Clouds 9 1020 81 10000 3.6 250 22:21 16.11.2020
5413 Clouds 9 1020 81 10000 3.6 240 21:48 16.11.2020
5414 Clear 9 1019 76 10000 4.1 240 21:25 16.11.2020
5415 Rain 9 1019 76 10000 4.1 240 20:54 16.11.2020
5416 Clouds 9 1019 76 10000 4.1 240 20:25 16.11.2020
5417 Clouds 9 1019 76 10000 4.1 230 19:42 16.11.2020
5418 Clouds 9 1019 76 10000 4.1 230 19:24 16.11.2020
5419 Clouds 9 1018 76 10000 4.6 220 18:42 16.11.2020
5420 Clouds 10 1017 76 10000 4.6 220 17:53 16.11.2020
5421 Clouds 10 1017 71 10000 4.1 240 17:25 16.11.2020
5422 Clouds 10 1017 66 10000 3.6 240 16:57 16.11.2020
5423 Clouds 11 1016 66 10000 3.6 240 16:38 16.11.2020
5424 Clouds 11 1016 66 10000 3.6 240 16:18 16.11.2020
5425 Clouds 11 1016 62 10000 4.6 260 15:41 16.11.2020
5426 Clouds 12 1016 62 10000 4.6 260 15:21 16.11.2020
5427 Clouds 11 1015 62 10000 5.1 250 14:39 16.11.2020
5428 Clouds 12 1014 66 10000 4.6 250 13:34 16.11.2020
5429 Clouds 11 1014 66 10000 5.7 260 12:34 16.11.2020
5430 Clouds 11 1014 71 10000 4.1 260 11:55 16.11.2020
5431 Clouds 11 1014 71 10000 3.6 250 11:37 16.11.2020
5432 Clear 10 1014 81 10000 3.6 210 11:18 16.11.2020
5433 Clear 9 1013 81 10000 3.1 160 10:40 16.11.2020
5434 Clear 9 1013 81 10000 3.1 160 10:22 16.11.2020
5435 Clouds 6 1013 87 10000 2.6 180 09:41 16.11.2020
5436 Clear 7 1012 87 10000 4.1 170 09:19 16.11.2020
5437 Clear 7 1012 87 10000 4.1 170 08:38 16.11.2020
5438 Clear 7 1011 93 10000 5.1 170 07:44 16.11.2020
5439 Clouds 7 1010 93 10000 4.6 150 06:49 16.11.2020
5440 Clouds 7 1010 93 10000 5.1 160 05:57 16.11.2020
5441 Rain 7 1010 87 10000 7.2 160 04:37 16.11.2020
5442 Rain 7 1009 81 10000 8.2 170 02:29 16.11.2020
5443 Clear 7 1010 81 10000 10.3 160 01:41 16.11.2020
5444 Clear 6 1009 87 10000 10.8 160 23:54 15.11.2020
5445 Clear 7 1010 81 10000 11.3 160 23:22 15.11.2020
5446 Clear 7 1010 81 10000 10.8 160 22:50 15.11.2020
5447 Clear 7 1011 81 10000 11.3 160 22:22 15.11.2020
5448 Clear 7 1011 81 10000 11.3 160 21:45 15.11.2020
5449 Clear 7 1011 81 10000 11.3 160 21:24 15.11.2020
5450 Clouds 7 1011 81 10000 10.8 160 20:44 15.11.2020
5451 Clouds 7 1011 81 10000 10.8 160 20:22 15.11.2020
5452 Clear 7 1012 81 10000 10.3 160 19:48 15.11.2020
5453 Clear 7 1012 81 10000 10.3 160 19:22 15.11.2020
5454 Clear 7 1012 81 10000 11.3 160 18:58 15.11.2020
5455 Clear 7 1013 81 10000 10.3 160 18:40 15.11.2020
5456 Clear 7 1013 81 10000 10.3 160 18:20 15.11.2020
5457 Clear 7 1013 87 10000 10.8 160 17:46 15.11.2020
5458 Clear 6 1013 87 10000 10.8 160 17:24 15.11.2020
5459 Clouds 7 1013 87 10000 8.7 150 16:51 15.11.2020
5460 Clouds 7 1013 87 10000 10.3 160 16:21 15.11.2020
5461 Clouds 7 1013 81 10000 10.3 160 15:56 15.11.2020
5462 Clouds 7 1014 81 10000 9.8 150 15:37 15.11.2020
5463 Clouds 6 1014 81 10000 9.8 150 15:19 15.11.2020
5464 Clear 7 1014 81 10000 9.8 150 14:36 15.11.2020
5465 Clear 8 1014 75 10000 7.2 150 14:18 15.11.2020
5466 Clear 8 1015 76 10000 6.7 150 13:39 15.11.2020
5467 Clear 9 1015 76 10000 7.7 150 12:52 15.11.2020
5468 Clear 9 1016 76 10000 7.2 150 12:26 15.11.2020
5469 Clear 9 1016 81 10000 7.7 150 11:58 15.11.2020
5470 Clear 8 1017 81 10000 6.7 150 11:40 15.11.2020
5471 Clear 8 1017 75 10000 6.7 150 11:18 15.11.2020
5472 Clear 8 1017 81 10000 6.7 150 10:46 15.11.2020
5473 Clear 8 1017 81 10000 6.7 150 10:27 15.11.2020
5474 Clear 8 1017 81 10000 6.2 150 09:45 15.11.2020
5475 Clear 7 1017 81 10000 6.2 150 09:22 15.11.2020
5476 Clear 7 1017 87 10000 6.7 150 08:53 15.11.2020
5477 Clear 7 1017 87 10000 5.7 150 08:30 15.11.2020
5478 Clear 6 1017 87 10000 5.1 140 07:43 15.11.2020
5479 Clear 8 1017 87 10000 5.1 160 05:30 15.11.2020
5480 Clear 7 1017 87 10000 6.7 150 04:50 15.11.2020
5481 Clear 10 1018 87 10000 4.6 150 00:56 15.11.2020
5482 Clear 9 1018 87 10000 4.6 150 00:29 15.11.2020
5483 Clear 9 1018 87 10000 3.1 140 23:39 14.11.2020
5484 Clear 10 1018 87 10000 5.1 150 22:50 14.11.2020
5485 Clear 10 1019 87 10000 5.1 150 22:31 14.11.2020
5486 Clear 10 1019 87 10000 4.1 150 21:44 14.11.2020
5487 Clear 10 1019 87 10000 4.1 150 21:23 14.11.2020
5488 Clear 10 1019 87 10000 3.6 150 20:59 14.11.2020
5489 Clear 10 1019 87 10000 3.6 150 20:30 14.11.2020
5490 Clear 10 1019 87 10000 3.6 150 20:30 14.11.2020
5491 Clear 10 1019 87 10000 3.6 150 19:58 14.11.2020
5492 Clear 10 1019 87 10000 4.1 150 19:36 14.11.2020
5493 Clear 10 1018 87 10000 3.6 140 18:55 14.11.2020
5494 Clear 10 1019 87 10000 5.1 160 18:37 14.11.2020
5495 Clear 10 1019 87 10000 5.1 160 18:19 14.11.2020
5496 Clear 11 1019 87 10000 3.6 150 17:42 14.11.2020
5497 Clear 11 1019 87 10000 3.6 150 17:23 14.11.2020
5498 Clear 12 1019 81 10000 3.1 150 16:51 14.11.2020
5499 Clear 13 1019 76 10000 2.6 160 16:26 14.11.2020
5500 Clear 13 1019 71 10000 1.5 200 15:53 14.11.2020
5501 Clear 14 1019 72 10000 2.1 180 15:30 14.11.2020
5502 Clear 14 1019 72 10000 3.1 200 14:54 14.11.2020
5503 Clear 15 1019 67 10000 2.6 190 14:29 14.11.2020
5504 Clear 15 1019 72 10000 2.6 190 13:51 14.11.2020
5505 Clear 14 1019 72 10000 3.6 200 13:29 14.11.2020
5506 Clouds 14 1019 82 10000 3.1 200 12:49 14.11.2020
5507 Clouds 14 1019 82 10000 3.1 200 12:30 14.11.2020
5508 Clouds 14 1020 76 10000 2.6 180 11:55 14.11.2020
5509 Clouds 13 1020 81 10000 3.1 180 11:36 14.11.2020
5510 Clouds 12 1020 87 10000 2.6 180 10:59 14.11.2020
5511 Clouds 12 1020 87 10000 3.6 170 10:38 14.11.2020
5512 Clouds 11 1020 93 10000 4.1 170 10:19 14.11.2020
5513 Clouds 11 1020 93 10000 2.1 180 09:43 14.11.2020
5514 Clouds 10 1020 93 10000 2.1 180 09:23 14.11.2020
5515 Clouds 10 1020 93 10000 3.1 160 08:40 14.11.2020
5516 Clouds 10 1020 93 10000 2.6 160 08:20 14.11.2020
5517 Clouds 10 1020 93 10000 3.6 190 07:41 14.11.2020
5518 Clouds 10 1019 100 10000 3.6 180 06:51 14.11.2020
5519 Clouds 10 1020 87 10000 2.6 210 06:20 14.11.2020
5520 Clouds 10 1019 87 10000 3.6 220 04:53 14.11.2020
5521 Clouds 10 1019 76 10000 4.1 200 01:48 14.11.2020
5522 Clouds 10 1019 81 10000 3.1 170 00:25 14.11.2020
5523 Clouds 10 1019 71 10000 5.1 200 23:35 13.11.2020
5524 Clouds 9 1019 76 10000 4.1 180 22:59 13.11.2020
5525 Clear 9 1019 76 10000 4.6 180 22:41 13.11.2020
5526 Clouds 9 1019 76 10000 5.1 190 22:21 13.11.2020
5527 Clouds 9 1019 76 10000 5.1 190 21:49 13.11.2020
5528 Clouds 9 1019 76 10000 4.6 180 21:27 13.11.2020
5529 Clouds 9 1019 76 10000 5.1 190 20:51 13.11.2020
5530 Clear 8 1019 81 10000 4.6 190 20:32 13.11.2020
5531 Clear 8 1019 76 10000 4.6 190 19:58 13.11.2020
5532 Clear 8 1019 76 10000 5.7 190 19:40 13.11.2020
5533 Clear 8 1019 76 10000 5.7 190 19:22 13.11.2020
5534 Clouds 8 1019 81 10000 3.6 180 18:44 13.11.2020
5535 Clouds 9 1019 81 10000 4.6 170 17:47 13.11.2020
5536 Clouds 9 1019 76 10000 3.6 170 17:24 13.11.2020
5537 Clouds 10 1019 76 10000 3.1 160 16:59 13.11.2020
5538 Clear 10 1019 66 10000 2.6 130 16:40 13.11.2020
5539 Clear 10 1019 66 10000 2.6 130 16:20 13.11.2020
5540 Clouds 12 1019 66 10000 0.5 0 15:41 13.11.2020
5541 Clouds 12 1019 66 10000 0.5 0 15:21 13.11.2020
5542 Clear 12 1019 62 10000 3.6 220 14:39 13.11.2020
5543 Clear 12 1019 62 10000 3.1 210 14:19 13.11.2020
5544 Clear 12 1019 62 10000 3.1 210 14:19 13.11.2020
5545 Clear 12 1020 66 10000 3.1 190 13:37 13.11.2020
5546 Clear 12 1020 66 10000 3.1 200 13:18 13.11.2020
5547 Clear 11 1020 66 10000 3.1 180 12:43 13.11.2020
5548 Clear 11 1020 66 10000 3.1 180 12:24 13.11.2020
5549 Clear 10 1021 71 10000 3.6 180 11:47 13.11.2020
5550 Clear 10 1021 76 10000 3.6 170 11:24 13.11.2020
5551 Clear 9 1021 81 10000 2.6 160 10:54 13.11.2020
5552 Clear 8 1021 87 10000 3.6 160 10:34 13.11.2020
5553 Clear 7 1021 87 10000 2.1 0 09:56 13.11.2020
5554 Clear 6 1021 87 10000 1.5 170 09:32 13.11.2020
5555 Clear 7 1021 87 10000 1.5 170 09:32 13.11.2020
5556 Clear 5 1021 93 10000 4.1 150 08:57 13.11.2020
5557 Clear 4 1021 93 10000 2.1 160 08:33 13.11.2020
5558 Clear 4 1021 93 10000 1 0 07:55 13.11.2020
5559 Clear 4 1021 100 10000 1.5 170 07:37 13.11.2020
5560 Clear 4 1021 100 10000 1.5 170 07:18 13.11.2020
5561 Clear 4 1021 100 10000 2.6 180 06:41 13.11.2020
5562 Clear 4 1021 93 10000 2.6 170 05:42 13.11.2020
5563 Clear 4 1021 93 10000 2.1 190 04:39 13.11.2020
5564 Clear 5 1021 93 10000 3.1 200 01:43 13.11.2020
5565 Clear 6 1021 93 10000 3.6 220 00:37 13.11.2020
5566 Clear 6 1021 93 10000 3.6 220 00:18 13.11.2020
5567 Clouds 6 1021 93 10000 1.5 200 23:37 12.11.2020
5568 Clouds 6 1021 93 10000 1.5 200 23:18 12.11.2020
5569 Clouds 7 1021 87 10000 3.1 180 22:42 12.11.2020
5570 Clouds 7 1021 87 10000 3.1 180 22:22 12.11.2020
5571 Clouds 7 1021 87 10000 3.6 190 21:42 12.11.2020
5572 Clouds 6 1021 87 10000 3.6 190 21:24 12.11.2020
5573 Clouds 6 1021 87 10000 3.6 200 20:58 12.11.2020
5574 Clouds 6 1021 87 10000 3.1 190 20:39 12.11.2020
5575 Rain 6 1021 93 10000 4.6 180 20:19 12.11.2020
5576 Clouds 5 1021 86 10000 4.6 180 19:44 12.11.2020
5577 Clouds 5 1021 86 10000 4.6 180 19:26 12.11.2020
5578 Clear 5 1021 86 10000 2.6 190 18:48 12.11.2020
5579 Clear 5 1020 86 10000 1.5 220 18:23 12.11.2020
5580 Clear 6 1020 81 10000 4.1 160 17:45 12.11.2020
5581 Clear 6 1020 81 10000 4.1 160 17:26 12.11.2020
5582 Clear 7 1020 81 10000 4.1 150 16:47 12.11.2020
5583 Clear 7 1020 81 10000 4.1 150 16:26 12.11.2020
5584 Clear 8 1020 75 10000 3.1 140 15:57 12.11.2020
5585 Clear 8 1020 70 10000 2.6 140 15:39 12.11.2020
5586 Clear 9 1020 70 10000 2.6 140 15:20 12.11.2020
5587 Clouds 9 1020 66 10000 2.6 120 14:43 12.11.2020
5588 Clouds 9 1020 66 10000 2.6 120 14:25 12.11.2020
5589 Clear 10 1020 66 10000 1.5 170 13:49 12.11.2020
5590 Clouds 9 1020 65 10000 3.1 160 13:21 12.11.2020
5591 Clouds 9 1020 65 10000 3.1 160 12:59 12.11.2020
5592 Clouds 8 1021 70 10000 5.1 160 12:39 12.11.2020
5593 Clouds 8 1021 70 10000 6.7 160 12:18 12.11.2020
5594 Clouds 7 1021 75 10000 5.1 160 11:45 12.11.2020
5595 Clouds 7 1021 75 10000 5.1 160 11:22 12.11.2020
5596 Clouds 6 1021 75 10000 6.7 170 10:41 12.11.2020
5597 Clouds 6 1021 75 10000 6.7 170 10:23 12.11.2020
5598 Clouds 6 1022 80 10000 6.7 170 09:42 12.11.2020
5599 Clouds 6 1022 80 10000 6.7 170 09:22 12.11.2020
5600 Clouds 6 1021 80 10000 6.7 170 08:56 12.11.2020
5601 Clouds 5 1022 80 10000 7.7 170 08:37 12.11.2020
5602 Clouds 5 1022 80 10000 6.7 170 08:19 12.11.2020
5603 Clouds 5 1021 80 10000 5.7 170 07:42 12.11.2020
5604 Clouds 5 1021 80 10000 6.7 170 07:18 12.11.2020
5605 Clouds 5 1021 80 10000 6.7 170 06:47 12.11.2020
5606 Clouds 5 1021 86 10000 5.7 150 05:23 12.11.2020
5607 Clouds 6 1022 86 10000 5.1 160 03:21 12.11.2020
5608 Clouds 6 1023 81 10000 5.1 150 01:33 12.11.2020
5609 Clouds 6 1023 87 10000 4.6 150 23:58 11.11.2020
5610 Clouds 6 1024 93 10000 4.6 140 23:25 11.11.2020
5611 Clouds 6 1024 93 10000 4.1 140 22:58 11.11.2020
5612 Clouds 6 1024 93 10000 3.6 140 22:39 11.11.2020
5613 Drizzle 6 1024 93 9000 3.1 140 22:20 11.11.2020
5614 Drizzle 6 1024 87 9000 3.1 150 21:43 11.11.2020
5615 Drizzle 6 1024 87 9000 3.1 150 21:25 11.11.2020
5616 Drizzle 6 1024 87 10000 3.1 150 20:58 11.11.2020
5617 Clouds 6 1024 87 10000 4.1 150 20:40 11.11.2020
5618 Clouds 6 1024 87 10000 4.1 150 20:21 11.11.2020
5619 Clouds 6 1024 87 10000 3.6 150 19:49 11.11.2020
5620 Clouds 6 1024 87 10000 3.6 150 19:31 11.11.2020
5621 Clouds 6 1024 87 10000 4.6 150 18:54 11.11.2020
5622 Clouds 6 1024 93 10000 5.1 150 18:33 11.11.2020
5623 Clouds 6 1024 93 10000 3.1 140 17:43 11.11.2020
5624 Clouds 6 1024 93 10000 3.1 140 17:23 11.11.2020
5625 Clouds 6 1024 93 10000 3.1 140 16:55 11.11.2020
5626 Clouds 6 1025 87 8000 3.1 150 16:34 11.11.2020
5627 Drizzle 6 1025 93 8000 3.1 150 15:52 11.11.2020
5628 Drizzle 6 1025 93 8000 3.1 150 15:27 11.11.2020
5629 Clouds 6 1025 87 10000 3.6 150 14:59 11.11.2020
5630 Clouds 7 1025 81 10000 2.1 140 14:38 11.11.2020
5631 Clouds 7 1025 81 10000 2.1 140 14:18 11.11.2020
5632 Clouds 7 1026 81 10000 3.1 150 13:43 11.11.2020
5633 Clouds 7 1026 75 10000 3.6 170 12:55 11.11.2020
5634 Clouds 7 1026 81 10000 4.1 160 12:21 11.11.2020
5635 Clouds 7 1026 81 10000 4.1 170 11:51 11.11.2020
5636 Clouds 6 1026 81 10000 3.6 160 11:33 11.11.2020
5637 Clouds 5 1027 86 10000 4.1 170 10:45 11.11.2020
5638 Clouds 5 1027 86 10000 4.1 170 10:27 11.11.2020
5639 Clouds 5 1027 86 10000 3.6 160 09:55 11.11.2020
5640 Clouds 4 1027 93 10000 3.6 150 09:37 11.11.2020
5641 Clouds 4 1027 93 10000 3.6 150 09:19 11.11.2020
5642 Clouds 3 1027 93 10000 3.6 150 08:43 11.11.2020
5643 Clouds 3 1027 93 10000 3.6 150 08:24 11.11.2020
5644 Clouds 2 1027 76 8000 1.5 190 07:43 11.11.2020
5645 Clouds 2 1027 100 9000 2.6 160 06:32 11.11.2020
5646 Clouds 2 1027 77 7000 2.6 160 05:44 11.11.2020
5647 Clouds 3 1028 100 9000 0.5 0 01:47 11.11.2020
5648 Fog 3 1028 100 9000 0.5 0 00:57 11.11.2020
5649 Clouds 3 1028 93 9000 1 240 00:24 11.11.2020
5650 Clear 3 1028 93 10000 2.1 180 23:40 10.11.2020
5651 Clear 3 1028 93 10000 2.1 180 23:22 10.11.2020
5652 Clear 3 1028 93 10000 1.5 180 22:50 10.11.2020
5653 Clear 3 1028 93 10000 1.5 170 22:26 10.11.2020
5654 Clear 3 1028 93 10000 1.5 170 22:26 10.11.2020
5655 Clouds 3 1028 86 10000 2.1 160 21:42 10.11.2020
5656 Clouds 4 1028 86 10000 2.1 160 21:23 10.11.2020
5657 Clouds 4 1028 80 10000 2.6 150 20:58 10.11.2020
5658 Clouds 4 1028 80 10000 2.6 150 20:40 10.11.2020
5659 Clouds 4 1028 80 10000 2.6 150 20:22 10.11.2020
5660 Clouds 4 1028 80 10000 2.6 140 19:46 10.11.2020
5661 Clouds 5 1028 75 10000 3.6 140 19:25 10.11.2020
5662 Clouds 5 1028 75 10000 3.6 140 18:56 10.11.2020
5663 Clouds 5 1028 81 10000 3.1 150 18:37 10.11.2020
5664 Clouds 6 1028 75 10000 4.6 140 18:18 10.11.2020
5665 Clouds 6 1028 81 10000 5.1 150 17:42 10.11.2020
5666 Clouds 6 1028 81 10000 5.1 150 17:24 10.11.2020
5667 Clouds 6 1028 81 10000 4.1 150 16:42 10.11.2020
5668 Clouds 6 1028 81 10000 4.1 150 16:24 10.11.2020
5669 Clouds 6 1028 81 10000 3.6 140 15:55 10.11.2020
5670 Clouds 6 1027 81 10000 5.1 140 15:37 10.11.2020
5671 Clouds 6 1027 81 10000 5.1 140 15:19 10.11.2020
5672 Clouds 7 1027 75 10000 5.7 130 14:41 10.11.2020
5673 Clouds 7 1027 75 10000 5.7 130 14:20 10.11.2020
5674 Clouds 8 1028 75 10000 4.6 140 13:41 10.11.2020
5675 Clouds 8 1028 75 10000 4.6 140 13:22 10.11.2020
5676 Clouds 8 1028 81 10000 4.1 160 12:56 10.11.2020
5677 Clouds 8 1028 87 10000 3.6 140 12:38 10.11.2020
5678 Clouds 7 1028 87 10000 3.6 140 12:19 10.11.2020
5679 Clouds 6 1028 93 10000 3.1 150 11:38 10.11.2020
5680 Clouds 6 1028 93 10000 3.1 150 11:19 10.11.2020
5681 Clouds 6 1028 93 10000 1 0 10:42 10.11.2020
5682 Clouds 6 1028 93 10000 1 0 10:23 10.11.2020
5683 Clouds 6 1028 93 10000 2.1 170 09:49 10.11.2020
5684 Clouds 5 1028 93 10000 1 0 09:26 10.11.2020
5685 Fog 2 1028 100 8000 0.5 260 08:57 10.11.2020
5686 Fog 2 1028 71 8000 0.5 0 08:30 10.11.2020
5687 Fog 1 1027 100 10000 0.5 360 07:47 10.11.2020
5688 Fog 2 1027 100 10000 0.5 360 07:27 10.11.2020
5689 Fog 2 1027 78 10000 0.5 0 06:58 10.11.2020
5690 Fog 2 1027 75 10000 0.5 0 06:37 10.11.2020
5691 Clear 1 1027 73 10000 1 0 05:27 10.11.2020
5692 Clear 1 1027 93 10000 2.1 120 02:59 10.11.2020
5693 Clear 1 1027 93 10000 2.6 130 01:41 10.11.2020
5694 Clear 1 1027 93 10000 2.6 140 00:30 10.11.2020
5695 Clouds 1 1027 100 10000 2.6 130 23:42 09.11.2020
5696 Clouds 3 1026 100 10000 2.6 130 22:58 09.11.2020
5697 Clouds 3 1027 100 10000 2.6 130 22:40 09.11.2020
5698 Clouds 3 1027 100 10000 2.6 130 22:20 09.11.2020
5699 Clouds 3 1026 93 10000 2.6 110 21:43 09.11.2020
5700 Clouds 3 1026 93 10000 2.6 110 21:25 09.11.2020
5701 Clouds 3 1026 93 10000 2.6 110 21:25 09.11.2020
5702 Clouds 3 1026 93 10000 2.6 130 20:42 09.11.2020
5703 Clouds 3 1026 93 10000 2.6 120 20:22 09.11.2020
5704 Clouds 3 1026 93 10000 2.6 110 19:48 09.11.2020
5705 Clouds 3 1026 93 10000 2.6 110 19:24 09.11.2020
5706 Clouds 3 1026 93 10000 2.6 110 19:24 09.11.2020
5707 Clouds 2 1026 93 10000 2.6 120 18:58 09.11.2020
5708 Clouds 2 1026 93 10000 1.5 110 18:39 09.11.2020
5709 Clouds 3 1026 93 10000 3.1 110 18:19 09.11.2020
5710 Clouds 3 1026 93 10000 3.1 120 17:44 09.11.2020
5711 Clouds 3 1026 93 10000 3.1 120 17:25 09.11.2020
5712 Clouds 3 1026 86 10000 4.6 120 16:44 09.11.2020
5713 Clouds 5 1026 80 10000 3.6 110 16:23 09.11.2020
5714 Clear 6 1026 75 10000 5.1 110 15:47 09.11.2020
5715 Clear 6 1026 75 10000 5.1 110 15:28 09.11.2020
5716 Clear 7 1026 75 10000 5.1 110 14:51 09.11.2020
5717 Clear 8 1026 70 10000 4.1 120 14:29 09.11.2020
5718 Clear 8 1026 70 10000 4.6 100 13:57 09.11.2020
5719 Clear 8 1026 70 10000 3.6 110 13:37 09.11.2020
5720 Clear 8 1026 75 10000 4.1 110 13:18 09.11.2020
5721 Clear 7 1026 75 10000 4.6 100 12:41 09.11.2020
5722 Clear 8 1026 70 10000 3.6 100 12:21 09.11.2020
5723 Clear 8 1026 70 10000 3.1 100 11:43 09.11.2020
5724 Clear 8 1026 70 10000 3.1 100 11:24 09.11.2020
5725 Clear 7 1026 75 10000 2.6 110 10:58 09.11.2020
5726 Clear 5 1026 80 10000 2.6 100 10:39 09.11.2020
5727 Clear 5 1026 80 10000 2.6 100 10:21 09.11.2020
5728 Clear 4 1026 86 10000 1 80 09:30 09.11.2020
5729 Clear 4 1026 57 10000 0.5 110 08:54 09.11.2020
5730 Clear 3 1026 60 10000 0.5 110 08:28 09.11.2020
5731 Clear 2 1025 60 10000 1 110 07:55 09.11.2020
5732 Clear 2 1025 60 10000 1.5 120 07:23 09.11.2020
5733 Clear 2 1025 60 10000 1.5 130 06:55 09.11.2020
5734 Clear 2 1025 59 10000 1.5 120 04:55 09.11.2020
5735 Clear 2 1025 57 10000 2.1 150 01:59 09.11.2020
5736 Clear 2 1025 57 10000 3.1 150 01:40 09.11.2020
5737 Clear 2 1025 55 10000 2.1 140 00:55 09.11.2020
5738 Clear 2 1025 54 10000 1.5 140 23:47 08.11.2020
5739 Clear 2 1025 54 10000 1.5 140 23:28 08.11.2020
5740 Clear 2 1025 54 10000 1.5 130 22:43 08.11.2020
5741 Clear 2 1025 53 10000 2.1 140 22:22 08.11.2020
5742 Clear 2 1025 53 10000 2.1 140 21:47 08.11.2020
5743 Clear 2 1025 52 10000 2.1 130 21:23 08.11.2020
5744 Clear 2 1025 52 10000 3.1 140 20:57 08.11.2020
5745 Clear 4 1025 93 10000 2.1 140 20:38 08.11.2020
5746 Clear 2 1025 93 10000 2.6 140 20:20 08.11.2020
5747 Clear 2 1025 93 10000 3.1 140 19:45 08.11.2020
5748 Clear 2 1025 93 10000 3.1 140 19:45 08.11.2020
5749 Clear 2 1025 93 10000 3.1 140 19:23 08.11.2020
5750 Clear 3 1025 86 10000 2.1 140 18:58 08.11.2020
5751 Clear 3 1025 86 10000 2.6 150 18:39 08.11.2020
5752 Clear 3 1025 86 10000 2.6 150 18:20 08.11.2020
5753 Clear 4 1025 80 10000 2.1 150 17:56 08.11.2020
5754 Clear 4 1025 86 10000 2.6 150 17:36 08.11.2020
5755 Clear 5 1024 80 10000 3.6 150 17:18 08.11.2020
5756 Clear 6 1024 75 10000 3.1 160 16:38 08.11.2020
5757 Clear 6 1024 75 10000 3.1 160 16:20 08.11.2020
5758 Clear 7 1024 75 10000 3.1 150 15:46 08.11.2020
5759 Clear 9 1024 66 10000 2.6 160 15:27 08.11.2020
5760 Clear 9 1025 66 10000 2.6 160 14:44 08.11.2020
5761 Clear 9 1025 66 10000 2.6 160 14:24 08.11.2020
5762 Clear 9 1025 70 10000 3.1 170 13:57 08.11.2020
5763 Clear 9 1025 70 10000 2.1 140 13:39 08.11.2020
5764 Clear 9 1025 70 10000 2.1 140 13:20 08.11.2020
5765 Clear 9 1025 75 10000 2.1 190 12:41 08.11.2020
5766 Clear 9 1025 75 10000 2.1 190 12:23 08.11.2020
5767 Clear 9 1025 75 10000 2.6 180 11:56 08.11.2020
5768 Clear 9 1025 81 10000 3.1 180 11:38 08.11.2020
5769 Clear 8 1025 81 10000 3.1 180 11:19 08.11.2020
5770 Clear 7 1025 86 10000 3.1 170 10:47 08.11.2020
5771 Clear 6 1025 86 10000 3.6 160 10:18 08.11.2020
5772 Clear 6 1025 100 10000 2.6 160 09:42 08.11.2020
5773 Clear 5 1025 100 10000 2.6 160 09:24 08.11.2020
5774 Clear 1 1025 100 10000 3.1 190 08:49 08.11.2020
5775 Clear 2 1025 61 10000 2.6 180 08:30 08.11.2020
5776 Clear 3 1024 61 10000 2.6 170 07:53 08.11.2020
5777 Clouds 3 1024 61 9000 3.1 180 07:33 08.11.2020
5778 Clear 3 1024 62 10000 2.1 150 06:50 08.11.2020
5779 Clear 3 1024 100 10000 2.1 180 05:55 08.11.2020
5780 Clear 3 1024 100 10000 3.1 190 05:26 08.11.2020
5781 Clear 3 1024 100 10000 3.6 180 03:46 08.11.2020
5782 Clear 3 1024 100 10000 3.1 180 01:49 08.11.2020
5783 Clear 4 1024 93 10000 2.6 180 01:18 08.11.2020
5784 Clear 4 1024 93 10000 2.6 190 00:24 08.11.2020
5785 Clear 5 1024 93 10000 2.6 140 23:45 07.11.2020
5786 Clear 5 1024 93 10000 2.6 140 23:27 07.11.2020
5787 Clear 5 1025 93 10000 2.1 170 22:41 07.11.2020
5788 Clear 5 1025 93 10000 2.1 170 22:23 07.11.2020
5789 Clear 5 1025 93 10000 1.5 200 21:45 07.11.2020
5790 Clear 5 1025 86 10000 1.5 170 21:22 07.11.2020
5791 Clear 5 1025 86 10000 3.1 190 20:50 07.11.2020
5792 Clear 6 1025 75 10000 3.6 150 20:32 07.11.2020
5793 Clear 7 1025 75 10000 3.6 150 19:59 07.11.2020
5794 Clear 7 1025 70 10000 4.1 160 19:39 07.11.2020
5795 Clear 7 1025 70 10000 4.1 160 19:19 07.11.2020
5796 Clear 8 1025 66 10000 6.2 150 18:39 07.11.2020
5797 Clear 8 1025 66 10000 6.2 150 18:20 07.11.2020
5798 Clear 9 1025 57 10000 5.7 150 17:45 07.11.2020
5799 Clear 9 1025 57 10000 5.7 150 17:25 07.11.2020
5800 Clear 10 1025 62 10000 5.1 140 16:43 07.11.2020
5801 Clear 11 1025 62 10000 5.1 140 16:24 07.11.2020
5802 Clear 12 1026 54 10000 4.1 140 15:47 07.11.2020
5803 Clear 12 1026 54 10000 4.1 140 15:24 07.11.2020
5804 Clear 13 1026 54 10000 2.6 130 14:56 07.11.2020
5805 Clear 13 1026 54 10000 3.1 130 14:38 07.11.2020
5806 Clear 13 1026 54 10000 3.1 130 14:19 07.11.2020
5807 Clear 13 1027 47 10000 2.6 130 13:39 07.11.2020
5808 Clear 13 1027 47 10000 2.6 130 13:21 07.11.2020
5809 Clear 12 1028 58 10000 1 0 12:35 07.11.2020
5810 Clear 11 1028 66 10000 1.5 140 11:46 07.11.2020
5811 Clear 10 1028 66 10000 1.5 140 11:25 07.11.2020
5812 Clear 9 1028 75 10000 2.6 140 10:59 07.11.2020
5813 Clear 9 1029 75 10000 3.6 150 10:40 07.11.2020
5814 Clear 9 1029 75 10000 3.6 150 10:22 07.11.2020
5815 Clear 8 1029 81 10000 2.6 140 09:48 07.11.2020
5816 Clear 5 1029 86 10000 3.6 150 09:23 07.11.2020
5817 Clear 3 1029 93 10000 2.6 150 08:49 07.11.2020
5818 Clear 4 1029 55 10000 3.6 160 08:30 07.11.2020
5819 Clear 3 1029 61 10000 2.6 140 07:48 07.11.2020
5820 Clear 4 1029 93 10000 2.6 130 06:54 07.11.2020
5821 Clear 3 1029 63 10000 1.5 150 05:55 07.11.2020
5822 Clear 3 1030 100 10000 1 0 04:22 07.11.2020
5823 Clear 4 1031 86 10000 2.6 110 02:46 07.11.2020
5824 Clear 4 1031 86 10000 0.5 0 01:27 07.11.2020
5825 Clear 4 1031 86 10000 1.5 100 00:38 07.11.2020
5826 Clear 5 1032 93 10000 2.1 70 23:45 06.11.2020
5827 Clear 4 1032 100 10000 1.5 70 23:18 06.11.2020
5828 Clear 4 1032 100 10000 2.1 60 22:40 06.11.2020
5829 Clear 4 1032 100 10000 3.1 170 22:18 06.11.2020
5830 Clear 5 1032 93 10000 1 0 21:43 06.11.2020
5831 Clear 6 1032 93 10000 1 0 21:21 06.11.2020
5832 Clear 5 1032 93 10000 1.5 180 20:48 06.11.2020
5833 Clear 6 1033 93 10000 1 140 20:20 06.11.2020
5834 Clear 6 1033 93 10000 1.5 150 19:47 06.11.2020
5835 Clear 6 1033 93 10000 1.5 150 19:29 06.11.2020
5836 Clear 6 1033 87 10000 0.5 0 18:59 06.11.2020
5837 Clear 7 1033 87 10000 1 140 18:40 06.11.2020
5838 Clear 7 1033 87 10000 1 140 18:22 06.11.2020
5839 Clouds 7 1033 93 10000 1 350 17:48 06.11.2020
5840 Clouds 8 1033 93 10000 1 350 17:25 06.11.2020
5841 Clouds 9 1033 81 10000 2.1 10 16:47 06.11.2020
5842 Clouds 10 1033 81 10000 2.1 10 16:24 06.11.2020
5843 Clouds 10 1033 76 10000 2.1 300 15:47 06.11.2020
5844 Clouds 11 1033 76 10000 2.1 300 15:28 06.11.2020
5845 Clouds 11 1034 76 10000 2.1 250 14:53 06.11.2020
5846 Clouds 11 1034 76 10000 2.1 250 14:25 06.11.2020
5847 Clouds 11 1034 76 10000 2.1 250 13:45 06.11.2020
5848 Clouds 11 1034 76 10000 2.1 250 13:24 06.11.2020
5849 Clouds 10 1034 76 10000 2.6 240 12:45 06.11.2020
5850 Clouds 10 1035 76 10000 2.6 270 12:23 06.11.2020
5851 Clouds 9 1035 76 10000 3.6 260 11:49 06.11.2020
5852 Clouds 9 1035 81 10000 3.6 260 11:28 06.11.2020
5853 Clouds 7 1035 81 10000 2.6 230 10:46 06.11.2020
5854 Clouds 7 1035 87 10000 2.6 230 10:25 06.11.2020
5855 Clouds 5 1035 86 10000 3.1 220 09:49 06.11.2020
5856 Clouds 4 1035 86 10000 3.1 220 09:22 06.11.2020
5857 Clouds 5 1035 86 10000 3.1 220 09:22 06.11.2020
5858 Clouds 4 1035 93 10000 3.1 220 08:51 06.11.2020
5859 Clouds 3 1035 93 10000 3.1 220 08:29 06.11.2020
5860 Clouds 3 1035 93 10000 3.1 220 08:29 06.11.2020
5861 Clear 2 1035 93 10000 3.6 220 07:54 06.11.2020
5862 Clear 2 1035 93 10000 3.1 220 07:34 06.11.2020
5863 Clear 1 1035 93 10000 3.6 220 06:58 06.11.2020
5864 Clear 1 1035 93 10000 3.6 220 06:24 06.11.2020
5865 Clear 1 1035 93 10000 3.6 220 05:36 06.11.2020
5866 Clear 3 1035 86 10000 3.1 220 01:23 06.11.2020
5867 Clear 2 1036 93 10000 3.1 210 00:23 06.11.2020
5868 Clear 2 1036 93 10000 3.1 210 23:39 05.11.2020
5869 Clear 3 1036 93 10000 2.6 220 22:59 05.11.2020
5870 Clear 3 1036 93 10000 2.6 220 22:41 05.11.2020
5871 Clear 2 1036 93 10000 3.1 220 22:22 05.11.2020
5872 Clear 2 1036 93 10000 3.1 220 21:44 05.11.2020
5873 Clear 2 1036 93 10000 3.1 220 21:24 05.11.2020
5874 Clear 2 1036 93 10000 3.1 220 20:59 05.11.2020
5875 Clear 3 1036 93 10000 3.1 220 20:41 05.11.2020
5876 Clear 3 1036 93 10000 3.1 220 20:21 05.11.2020
5877 Clear 4 1036 86 10000 2.1 230 19:43 05.11.2020
5878 Clear 4 1036 86 10000 2.1 230 19:25 05.11.2020
5879 Clear 4 1036 86 10000 2.6 230 18:55 05.11.2020
5880 Clear 4 1036 81 10000 2.1 250 18:37 05.11.2020
5881 Clear 5 1036 75 10000 1.5 260 18:18 05.11.2020
5882 Clear 5 1036 75 10000 1.5 260 17:41 05.11.2020
5883 Clear 6 1036 75 10000 1.5 260 17:23 05.11.2020
5884 Clouds 7 1036 70 10000 2.1 270 16:43 05.11.2020
5885 Clouds 7 1036 70 10000 2.1 270 16:24 05.11.2020
5886 Clouds 8 1036 70 10000 2.6 270 15:50 05.11.2020
5887 Clouds 9 1037 66 10000 3.6 260 15:26 05.11.2020
5888 Clouds 9 1037 75 10000 3.6 300 14:50 05.11.2020
5889 Clouds 9 1037 75 10000 3.6 300 14:50 05.11.2020
5890 Clouds 9 1037 70 10000 4.1 280 14:31 05.11.2020
5891 Clouds 9 1037 70 10000 4.1 280 14:31 05.11.2020
5892 Clouds 9 1037 75 10000 3.6 280 13:59 05.11.2020
5893 Clouds 9 1037 81 10000 3.1 270 13:39 05.11.2020
5894 Clouds 9 1037 81 10000 3.6 260 12:54 05.11.2020
5895 Clouds 9 1037 76 10000 4.1 270 12:30 05.11.2020
5896 Clouds 9 1038 76 10000 3.1 280 11:59 05.11.2020
5897 Clouds 9 1038 81 10000 3.1 260 11:41 05.11.2020
5898 Clouds 9 1038 81 10000 3.1 260 11:22 05.11.2020
5899 Clouds 8 1038 81 10000 2.6 230 10:47 05.11.2020
5900 Clouds 7 1038 87 10000 3.1 220 10:26 05.11.2020
5901 Clouds 6 1037 86 10000 2.6 220 09:48 05.11.2020
5902 Clouds 6 1037 86 10000 2.6 220 09:24 05.11.2020
5903 Clouds 5 1037 93 10000 2.6 230 08:49 05.11.2020
5904 Clouds 4 1037 93 10000 2.1 240 08:30 05.11.2020
5905 Clouds 4 1037 93 10000 1.5 240 07:46 05.11.2020
5906 Clouds 3 1037 93 10000 1.5 240 07:27 05.11.2020
5907 Clouds 3 1037 100 10000 2.6 230 06:42 05.11.2020
5908 Clouds 2 1036 100 10000 3.1 220 05:55 05.11.2020
5909 Clear 2 1036 93 10000 1.5 250 02:42 05.11.2020
5910 Clear 3 1035 93 10000 1.5 240 00:35 05.11.2020
5911 Clear 3 1035 86 10000 1.5 260 23:51 04.11.2020
5912 Clear 4 1035 86 10000 2.1 250 23:27 04.11.2020
5913 Clear 4 1035 81 10000 2.1 260 22:57 04.11.2020
5914 Clear 4 1035 81 10000 2.1 260 22:38 04.11.2020
5915 Clear 5 1035 81 10000 2.1 260 22:19 04.11.2020
5916 Clear 5 1034 87 10000 2.1 270 21:46 04.11.2020
5917 Clear 5 1034 87 10000 2.1 270 21:27 04.11.2020
5918 Clear 6 1034 81 10000 2.1 270 20:53 04.11.2020
5919 Clear 7 1034 81 10000 1.5 280 20:35 04.11.2020
5920 Clear 7 1033 81 10000 1.5 290 19:59 04.11.2020
5921 Clear 7 1033 81 10000 2.1 260 19:40 04.11.2020
5922 Clear 7 1033 81 10000 2.1 260 19:40 04.11.2020
5923 Clear 7 1033 81 10000 2.1 260 19:22 04.11.2020
5924 Clear 7 1032 75 10000 1.5 250 18:41 04.11.2020
5925 Clear 7 1032 75 10000 1 270 18:22 04.11.2020
5926 Clear 8 1032 75 10000 1 270 17:47 04.11.2020
5927 Clear 8 1031 70 10000 1.5 270 17:27 04.11.2020
5928 Clouds 8 1031 70 10000 2.6 280 16:46 04.11.2020
5929 Clouds 9 1031 70 10000 2.6 280 16:27 04.11.2020
5930 Clouds 9 1031 70 10000 2.1 310 15:59 04.11.2020
5931 Clouds 9 1031 70 10000 3.1 310 15:41 04.11.2020
5932 Clouds 9 1031 70 10000 3.1 310 15:23 04.11.2020
5933 Clouds 10 1031 70 10000 3.1 330 14:45 04.11.2020
5934 Clouds 10 1030 70 10000 3.6 320 14:25 04.11.2020
5935 Clouds 10 1030 66 10000 3.6 320 13:52 04.11.2020
5936 Clouds 10 1030 71 10000 3.6 320 13:22 04.11.2020
5937 Clouds 11 1030 66 10000 3.6 320 12:59 04.11.2020
5938 Clouds 10 1030 71 10000 3.6 310 12:41 04.11.2020
5939 Clouds 11 1030 71 10000 3.6 310 12:22 04.11.2020
5940 Clouds 10 1030 70 10000 4.6 300 11:46 04.11.2020
5941 Clouds 10 1030 70 10000 4.6 300 11:23 04.11.2020
5942 Clouds 10 1030 71 10000 4.6 310 10:51 04.11.2020
5943 Clouds 10 1029 71 10000 4.1 290 10:24 04.11.2020
5944 Clouds 10 1029 76 10000 3.1 290 10:24 04.11.2020
5945 Clouds 10 1029 76 10000 3.1 290 09:56 04.11.2020
5946 Clouds 10 1029 76 10000 3.6 270 09:29 04.11.2020
5947 Clear 9 1029 76 10000 3.6 280 08:58 04.11.2020
5948 Clear 9 1028 81 10000 3.1 290 08:39 04.11.2020
5949 Clear 9 1028 81 10000 3.1 290 08:18 04.11.2020
5950 Clear 9 1027 76 10000 2.6 280 07:42 04.11.2020
5951 Clear 9 1027 76 10000 2.6 280 07:23 04.11.2020
5952 Clear 9 1027 81 10000 2.6 300 06:41 04.11.2020
5953 Clear 10 1026 76 10000 2.1 290 05:39 04.11.2020
5954 Clear 10 1025 71 10000 2.1 260 02:31 04.11.2020
5955 Clear 10 1024 71 10000 3.1 280 01:39 04.11.2020
5956 Clear 11 1024 76 10000 3.1 250 00:27 04.11.2020
5957 Clouds 11 1024 76 10000 2.6 220 23:33 03.11.2020
5958 Clear 10 1024 87 10000 2.1 210 22:59 03.11.2020
5959 Clear 10 1023 87 10000 2.1 210 22:40 03.11.2020
5960 Rain 10 1023 87 10000 2.1 210 22:20 03.11.2020
5961 Rain 10 1023 87 10000 1.5 230 21:55 03.11.2020
5962 Clouds 10 1023 87 10000 1.5 250 21:36 03.11.2020
5963 Clouds 10 1023 87 10000 1.5 250 21:18 03.11.2020
5964 Clouds 11 1023 81 10000 1.5 150 20:41 03.11.2020
5965 Clouds 10 1023 81 10000 0.5 0 20:19 03.11.2020
5966 Clouds 10 1023 81 10000 0.5 0 19:42 03.11.2020
5967 Clouds 10 1023 81 10000 0.5 0 19:19 03.11.2020
5968 Clear 10 1022 76 10000 1 340 18:41 03.11.2020
5969 Clear 11 1022 71 10000 0.5 360 18:20 03.11.2020
5970 Clear 11 1022 71 10000 0.5 360 17:54 03.11.2020
5971 Clear 11 1022 71 10000 0.5 320 17:36 03.11.2020
5972 Clear 12 1022 71 10000 1.5 210 16:54 03.11.2020
5973 Clouds 12 1022 66 10000 1 0 16:36 03.11.2020
5974 Clouds 13 1022 66 10000 1 0 16:18 03.11.2020
5975 Clouds 14 1022 66 10000 0.5 0 15:41 03.11.2020
5976 Clouds 14 1022 66 10000 0.5 0 15:22 03.11.2020
5977 Clouds 14 1022 62 10000 0.5 0 14:46 03.11.2020
5978 Clouds 14 1023 66 10000 1.5 240 14:27 03.11.2020
5979 Clouds 14 1023 67 10000 1.5 320 13:44 03.11.2020
5980 Clouds 14 1023 67 10000 1.5 320 13:23 03.11.2020
5981 Clouds 13 1023 71 10000 1 0 12:49 03.11.2020
5982 Clouds 13 1023 66 10000 2.6 340 12:28 03.11.2020
5983 Clouds 13 1023 66 10000 2.6 310 11:59 03.11.2020
5984 Clouds 13 1023 71 10000 2.6 310 11:40 03.11.2020
5985 Clouds 13 1023 71 10000 4.1 310 11:18 03.11.2020
5986 Clouds 13 1023 66 10000 4.1 300 10:39 03.11.2020
5987 Clouds 13 1023 66 10000 4.1 300 10:39 03.11.2020
5988 Clouds 13 1023 76 10000 4.1 280 10:20 03.11.2020
5989 Clouds 12 1023 76 10000 4.1 280 09:49 03.11.2020
5990 Clouds 12 1022 81 10000 3.1 280 09:31 03.11.2020
5991 Clouds 12 1022 87 10000 3.1 280 08:55 03.11.2020
5992 Clouds 12 1022 87 10000 2.1 260 08:34 03.11.2020
5993 Clouds 12 1021 81 10000 2.6 250 07:49 03.11.2020
5994 Clouds 12 1021 81 10000 2.1 240 07:22 03.11.2020
5995 Clouds 12 1020 87 10000 2.1 230 06:45 03.11.2020
5996 Drizzle 13 1019 87 10000 2.6 310 05:38 03.11.2020
5997 Clouds 15 1016 82 10000 3.6 210 02:20 03.11.2020
5998 Clear 15 1015 77 10000 3.6 210 00:41 03.11.2020
5999 Clear 16 1015 72 10000 4.6 230 23:52 02.11.2020
6000 Clear 16 1014 72 10000 4.6 220 23:33 02.11.2020
6001 Clear 16 1014 72 10000 3.1 240 22:54 02.11.2020
6002 Clear 16 1014 72 10000 3.6 230 22:35 02.11.2020
6003 Clear 16 1014 77 10000 3.6 220 21:59 02.11.2020
6004 Clear 16 1014 77 10000 4.6 220 21:38 02.11.2020
6005 Clear 16 1014 72 10000 4.1 210 21:19 02.11.2020
6006 Clear 17 1013 72 10000 4.6 220 20:40 02.11.2020
6007 Clear 16 1013 72 10000 5.1 230 20:20 02.11.2020
6008 Clear 17 1013 72 10000 5.1 230 19:48 02.11.2020
6009 Clear 17 1013 72 10000 5.1 230 19:48 02.11.2020
6010 Clear 17 1013 72 10000 5.1 220 19:27 02.11.2020
6011 Clear 16 1013 72 10000 5.7 230 18:56 02.11.2020
6012 Clear 16 1013 72 10000 6.2 220 18:38 02.11.2020
6013 Clear 17 1013 72 10000 5.7 220 18:19 02.11.2020
6014 Clear 17 1013 72 10000 5.1 220 17:42 02.11.2020
6015 Clear 18 1013 72 10000 5.1 220 17:24 02.11.2020
6016 Clear 18 1013 68 10000 5.7 220 16:54 02.11.2020
6017 Clear 18 1013 72 10000 5.7 230 16:36 02.11.2020
6018 Clear 19 1012 72 10000 6.2 220 16:18 02.11.2020
6019 Clear 19 1012 72 10000 5.7 220 15:39 02.11.2020
6020 Clear 19 1012 72 10000 5.7 220 15:20 02.11.2020
6021 Clouds 19 1013 72 10000 6.2 220 14:49 02.11.2020
6022 Clouds 19 1013 72 10000 5.1 220 14:19 02.11.2020
6023 Clouds 19 1013 72 10000 5.1 220 13:51 02.11.2020
6024 Clouds 19 1013 72 10000 4.6 240 13:22 02.11.2020
6025 Clouds 19 1013 72 10000 4.1 230 12:54 02.11.2020
6026 Clouds 18 1013 77 10000 4.6 230 12:29 02.11.2020
6027 Clouds 17 1013 77 10000 4.1 230 11:56 02.11.2020
6028 Clouds 16 1013 82 10000 3.6 220 11:37 02.11.2020
6029 Clouds 16 1013 87 10000 4.1 210 11:18 02.11.2020
6030 Clouds 16 1013 87 10000 5.1 210 10:39 02.11.2020
6031 Clouds 15 1013 93 10000 4.6 220 10:18 02.11.2020
6032 Clouds 15 1013 93 10000 2.6 220 09:42 02.11.2020
6033 Clouds 15 1013 87 10000 3.1 220 09:23 02.11.2020
6034 Clouds 14 1012 93 10000 2.6 200 08:40 02.11.2020
6035 Rain 14 1012 87 10000 1.5 200 08:20 02.11.2020
6036 Rain 14 1012 87 10000 3.6 160 07:49 02.11.2020
6037 Clouds 13 1012 87 10000 3.6 170 06:48 02.11.2020
6038 Clouds 14 1012 87 10000 3.6 170 06:23 02.11.2020
6039 Clouds 13 1013 87 10000 4.1 200 01:40 02.11.2020
6040 Clouds 13 1014 87 10000 2.6 220 00:44 02.11.2020
6041 Clouds 13 1014 87 10000 2.6 220 00:25 02.11.2020
6042 Clouds 13 1013 87 10000 5.1 200 23:41 01.11.2020
6043 Clouds 13 1013 87 10000 5.1 200 23:23 01.11.2020
6044 Clouds 13 1013 93 10000 5.1 190 22:45 01.11.2020
6045 Clouds 13 1013 93 10000 5.1 190 22:25 01.11.2020
6046 Clouds 13 1013 87 10000 4.6 190 21:58 01.11.2020
6047 Clouds 13 1013 87 10000 5.7 190 21:38 01.11.2020
6048 Clouds 13 1014 87 10000 4.6 180 21:20 01.11.2020
6049 Clouds 13 1014 87 10000 3.1 170 20:40 01.11.2020
6050 Clouds 13 1014 87 10000 3.1 170 20:20 01.11.2020
6051 Clouds 13 1014 87 10000 1.5 150 19:41 01.11.2020
6052 Clouds 13 1014 87 10000 1.5 150 19:23 01.11.2020
6053 Drizzle 13 1014 87 10000 4.1 180 18:43 01.11.2020
6054 Drizzle 13 1014 87 10000 4.1 180 18:20 01.11.2020
6055 Clouds 13 1014 82 10000 5.1 180 18:20 01.11.2020
6056 Clouds 13 1014 82 10000 5.1 180 18:20 01.11.2020
6057 Clouds 13 1014 82 10000 5.1 180 17:58 01.11.2020
6058 Clouds 13 1014 82 10000 4.6 200 17:40 01.11.2020
6059 Clouds 13 1015 87 10000 4.6 180 17:21 01.11.2020
6060 Clear 13 1015 87 10000 5.1 180 16:41 01.11.2020
6061 Clear 13 1015 87 10000 3.6 170 16:19 01.11.2020
6062 Clear 13 1015 87 10000 5.1 180 16:19 01.11.2020
6063 Clear 13 1015 87 10000 3.6 170 15:54 01.11.2020
6064 Clouds 13 1015 87 10000 3.6 200 15:36 01.11.2020
6065 Clouds 13 1015 87 10000 3.6 200 15:18 01.11.2020
6066 Rain 14 1015 87 10000 3.6 170 14:43 01.11.2020
6067 Clouds 13 1016 87 10000 3.1 190 14:21 01.11.2020
6068 Clouds 13 1016 87 10000 3.1 190 13:49 01.11.2020
6069 Clouds 13 1016 87 10000 3.6 200 13:31 01.11.2020
6070 Clouds 13 1016 93 10000 2.6 190 12:44 01.11.2020
6071 Clouds 13 1016 93 10000 2.6 190 12:44 01.11.2020
6072 Clouds 12 1016 93 10000 2.6 190 12:26 01.11.2020
6073 Rain 12 1016 93 10000 3.6 190 11:55 01.11.2020
6074 Rain 12 1016 93 10000 3.1 180 11:37 01.11.2020
6075 Rain 12 1017 87 10000 2.1 180 11:18 01.11.2020
6076 Rain 12 1017 93 10000 2.6 190 10:40 01.11.2020
6077 Rain 12 1017 93 10000 2.6 190 10:22 01.11.2020
6078 Rain 12 1017 93 10000 0.5 0 09:46 01.11.2020
6079 Clouds 11 1017 93 10000 2.1 190 08:50 01.11.2020
6080 Clouds 11 1017 93 10000 2.1 190 08:24 01.11.2020
6081 Clouds 10 1017 93 10000 2.1 170 07:45 01.11.2020
6082 Clouds 10 1017 87 10000 1 0 06:22 01.11.2020
6083 Clear 9 1018 93 10000 4.1 170 01:53 01.11.2020
6084 Clear 9 1018 100 10000 3.1 170 00:55 01.11.2020
6085 Mist 9 1018 100 1700 0.5 0 23:42 31.10.2020
6086 Mist 10 1018 100 1700 0.5 0 23:19 31.10.2020
6087 Fog 10 1019 100 900 2.6 200 22:43 31.10.2020
6088 Fog 10 1019 100 900 2.6 200 22:23 31.10.2020
6089 Clear 10 1019 100 10000 2.1 210 21:46 31.10.2020
6090 Clear 10 1019 93 10000 2.1 180 21:21 31.10.2020
6091 Clear 11 1019 100 10000 1.5 130 20:41 31.10.2020
6092 Clouds 11 1020 93 10000 1.5 120 20:20 31.10.2020
6093 Clouds 11 1020 100 10000 1.5 110 19:44 31.10.2020
6094 Clouds 12 1020 100 10000 1.5 110 19:24 31.10.2020
6095 Clouds 12 1020 100 10000 1.5 130 18:59 31.10.2020
6096 Clouds 13 1020 93 10000 2.6 120 18:40 31.10.2020
6097 Clouds 13 1021 100 10000 1 0 17:47 31.10.2020
6098 Clouds 13 1021 100 10000 1 130 17:26 31.10.2020
6099 Clouds 13 1021 100 10000 1.5 190 16:56 31.10.2020
6100 Clouds 13 1021 100 10000 1.5 240 16:37 31.10.2020
6101 Clouds 14 1021 100 10000 1.5 240 15:56 31.10.2020
6102 Clouds 14 1022 100 9000 2.6 220 15:26 31.10.2020
6103 Clouds 14 1022 100 10000 1 0 14:58 31.10.2020
6104 Clouds 14 1022 93 10000 1 0 14:37 31.10.2020
6105 Clouds 13 1022 100 10000 2.1 270 14:18 31.10.2020
6106 Clouds 14 1022 100 10000 2.6 280 13:43 31.10.2020
6107 Clouds 14 1022 100 10000 3.1 290 13:20 31.10.2020
6108 Clouds 14 1023 93 6000 3.1 270 12:27 31.10.2020
6109 Clouds 13 1023 93 5000 3.1 260 11:47 31.10.2020
6110 Clouds 13 1023 93 5000 3.1 260 11:28 31.10.2020
6111 Clouds 13 1023 100 4800 2.6 270 10:54 31.10.2020
6112 Clouds 12 1023 100 4500 2.6 280 10:33 31.10.2020
6113 Clouds 12 1023 100 4400 3.6 280 09:42 31.10.2020
6114 Clouds 12 1023 100 4400 3.6 280 09:21 31.10.2020
6115 Rain 12 1022 100 4000 3.1 270 08:30 31.10.2020
6116 Clouds 12 1022 100 3300 3.1 280 07:50 31.10.2020
6117 Clouds 12 1022 100 3300 3.1 280 07:27 31.10.2020
6118 Drizzle 12 1022 100 5000 3.1 270 06:39 31.10.2020
6119 Drizzle 12 1022 100 6000 4.6 280 04:51 31.10.2020
6120 Rain 12 1021 93 5000 3.6 270 03:45 31.10.2020
6121 Clouds 12 1021 93 6000 5.1 270 01:29 31.10.2020
6122 Rain 12 1021 93 10000 4.6 270 00:46 31.10.2020
6123 Clouds 12 1021 100 6000 5.7 270 23:51 30.10.2020
6124 Clouds 12 1020 100 9000 5.7 270 23:24 30.10.2020
6125 Rain 12 1020 100 10000 6.2 260 22:46 30.10.2020
6126 Rain 13 1020 93 10000 4.6 270 22:24 30.10.2020
6127 Rain 12 1020 100 10000 5.1 270 21:56 30.10.2020
6128 Rain 12 1020 100 9000 6.2 270 21:38 30.10.2020
6129 Rain 12 1020 100 9000 6.2 270 21:19 30.10.2020
6130 Rain 12 1019 100 9000 6.2 260 20:42 30.10.2020
6131 Rain 12 1019 100 9000 6.2 260 20:23 30.10.2020
6132 Rain 13 1019 93 10000 5.7 270 19:49 30.10.2020
6133 Clouds 13 1019 93 10000 5.7 270 19:19 30.10.2020
6134 Clouds 13 1018 93 10000 6.2 270 18:50 30.10.2020
6135 Clouds 13 1018 93 10000 6.2 270 18:28 30.10.2020
6136 Clouds 12 1018 100 8000 6.2 270 17:54 30.10.2020
6137 Rain 12 1018 100 4700 5.7 260 17:36 30.10.2020
6138 Clouds 12 1017 100 9000 5.7 250 17:18 30.10.2020
6139 Rain 12 1017 100 10000 4.6 260 16:48 30.10.2020
6140 Rain 12 1017 100 9000 5.7 260 16:19 30.10.2020
6141 Rain 12 1017 100 6000 5.7 260 15:41 30.10.2020
6142 Rain 12 1017 100 6000 5.7 260 15:20 30.10.2020
6143 Rain 12 1017 100 5000 5.1 260 14:45 30.10.2020
6144 Rain 12 1017 100 5000 5.1 260 14:26 30.10.2020
6145 Rain 13 1017 87 10000 6.2 260 13:47 30.10.2020
6146 Rain 13 1017 87 10000 6.2 260 13:23 30.10.2020
6147 Rain 12 1017 87 10000 6.2 260 12:58 30.10.2020
6148 Rain 12 1017 87 10000 6.7 260 12:23 30.10.2020
6149 Rain 12 1017 82 10000 5.7 260 11:59 30.10.2020
6150 Clouds 12 1017 87 10000 5.1 250 11:40 30.10.2020
6151 Clouds 12 1017 87 10000 4.1 250 11:19 30.10.2020
6152 Rain 11 1017 93 10000 3.6 250 10:47 30.10.2020
6153 Rain 11 1017 93 10000 3.6 250 10:23 30.10.2020
6154 Rain 10 1017 100 2500 4.1 250 09:45 30.10.2020
6155 Rain 10 1017 100 2500 4.1 250 09:24 30.10.2020
6156 Rain 9 1016 100 9000 4.1 210 08:46 30.10.2020
6157 Rain 9 1016 100 9000 4.1 210 08:26 30.10.2020
6158 Rain 9 1016 93 6000 4.1 210 07:50 30.10.2020
6159 Rain 9 1016 100 10000 3.6 200 07:31 30.10.2020
6160 Rain 8 1016 100 10000 2.6 170 06:40 30.10.2020
6161 Rain 8 1017 93 10000 3.1 170 05:22 30.10.2020
6162 Rain 8 1018 87 10000 3.6 220 02:28 30.10.2020
6163 Clouds 8 1019 81 10000 3.1 230 00:43 30.10.2020
6164 Clouds 8 1019 81 10000 3.1 230 23:54 29.10.2020
6165 Clouds 8 1019 75 10000 2.6 230 23:36 29.10.2020
6166 Clear 7 1019 75 10000 2.1 230 23:18 29.10.2020
6167 Clouds 7 1019 75 10000 3.1 230 22:41 29.10.2020
6168 Clouds 7 1019 75 10000 3.1 230 22:23 29.10.2020
6169 Clear 7 1019 75 10000 2.6 230 21:40 29.10.2020
6170 Clear 7 1019 75 10000 2.6 230 21:20 29.10.2020
6171 Clear 7 1018 75 10000 3.1 240 20:42 29.10.2020
6172 Clear 7 1018 70 10000 4.1 250 20:20 29.10.2020
6173 Clear 8 1018 70 10000 3.6 260 19:43 29.10.2020
6174 Clear 8 1018 70 10000 3.6 260 19:22 29.10.2020
6175 Clear 8 1017 70 10000 3.1 250 18:58 29.10.2020
6176 Clear 8 1017 70 10000 3.1 250 18:39 29.10.2020
6177 Clear 8 1017 70 10000 3.1 250 18:20 29.10.2020
6178 Clear 8 1017 70 10000 3.1 270 17:41 29.10.2020
6179 Clear 8 1016 66 10000 4.1 270 17:21 29.10.2020
6180 Clear 9 1016 66 10000 4.1 270 16:48 29.10.2020
6181 Rain 9 1016 62 10000 4.1 260 16:22 29.10.2020
6182 Rain 10 1016 62 10000 4.1 260 15:57 29.10.2020
6183 Rain 10 1015 66 10000 3.6 290 15:38 29.10.2020
6184 Clouds 11 1015 66 10000 5.7 270 15:20 29.10.2020
6185 Clouds 11 1015 66 10000 5.7 270 14:46 29.10.2020
6186 Clouds 11 1015 66 10000 5.7 270 14:24 29.10.2020
6187 Clouds 10 1014 71 10000 4.1 280 13:48 29.10.2020
6188 Clouds 10 1014 76 10000 5.7 260 13:28 29.10.2020
6189 Clouds 10 1014 81 10000 4.6 240 12:59 29.10.2020
6190 Clouds 9 1014 87 10000 4.6 240 12:39 29.10.2020
6191 Clouds 8 1014 81 10000 4.1 260 12:19 29.10.2020
6192 Rain 10 1013 87 7000 5.1 270 11:44 29.10.2020
6193 Rain 10 1013 87 7000 5.1 270 11:24 29.10.2020
6194 Rain 11 1012 93 10000 3.6 270 10:37 29.10.2020
6195 Rain 11 1012 87 10000 4.6 270 10:19 29.10.2020
6196 Clouds 11 1012 87 10000 4.6 270 09:51 29.10.2020
6197 Clouds 12 1011 71 10000 5.1 260 09:28 29.10.2020
6198 Clouds 11 1011 71 10000 5.1 260 08:55 29.10.2020
6199 Rain 11 1011 71 10000 5.1 230 08:33 29.10.2020
6200 Clouds 11 1011 71 10000 6.7 230 07:54 29.10.2020
6201 Rain 11 1010 76 10000 4.6 210 07:35 29.10.2020
6202 Clouds 10 1010 76 10000 6.2 190 06:57 29.10.2020
6203 Rain 10 1010 76 10000 5.7 190 04:52 29.10.2020
6204 Rain 9 1011 76 10000 6.7 180 03:58 29.10.2020
6205 Clouds 9 1012 86 10000 4.54 220 01:24 29.10.2020
6206 Clouds 9 1013 86 10000 5 214 00:31 29.10.2020
6207 Clouds 9 1013 86 10000 5.15 221 23:48 28.10.2020
6208 Rain 8 975 86 10000 1.34 214 23:22 28.10.2020
6209 Rain 8 1013 87 10000 3.1 150 22:45 28.10.2020
6210 Clouds 8 1013 87 10000 3.1 150 22:26 28.10.2020
6211 Clouds 8 1013 87 10000 3.1 150 21:59 28.10.2020
6212 Clear 8 1013 87 10000 2.6 140 21:40 28.10.2020
6213 Clear 9 1013 76 10000 2.6 210 21:20 28.10.2020
6214 Clear 9 1013 81 10000 1.5 0 20:42 28.10.2020
6215 Clear 9 1013 81 10000 1.5 0 20:22 28.10.2020
6216 Clear 9 1012 87 10000 3.1 140 19:51 28.10.2020
6217 Clear 10 1012 87 10000 3.6 150 19:29 28.10.2020
6218 Clouds 9 1012 87 10000 4.6 160 18:49 28.10.2020
6219 Clouds 10 1012 87 10000 4.1 160 18:22 28.10.2020
6220 Clouds 10 1012 93 10000 3.1 130 17:57 28.10.2020
6221 Clouds 10 1012 87 10000 3.6 130 17:39 28.10.2020
6222 Clouds 10 1012 81 10000 3.6 140 17:18 28.10.2020
6223 Clouds 11 1012 81 10000 3.1 150 16:44 28.10.2020
6224 Clouds 11 1012 87 10000 3.6 160 16:22 28.10.2020
6225 Rain 11 1012 87 10000 4.1 170 15:38 28.10.2020
6226 Clouds 11 1012 79 10000 4.43 199 15:19 28.10.2020
6227 Clouds 11 1011 71 10000 3.6 170 14:43 28.10.2020
6228 Clouds 12 1011 71 10000 3.6 170 14:24 28.10.2020
6229 Clouds 11 1012 74 10000 0.45 232 12:49 28.10.2020
6230 Clouds 11 1012 74 10000 0.45 257 12:27 28.10.2020
6231 Clouds 11 974 84 10000 2.68 150 11:58 28.10.2020
6232 Clouds 11 974 84 10000 1.34 226 11:39 28.10.2020
6233 Clouds 11 1012 74 10000 3.85 198 11:19 28.10.2020
6234 Clouds 10 1011 76 10000 5.1 160 10:48 28.10.2020
6235 Clouds 10 1011 76 10000 5.1 160 10:29 28.10.2020
6236 Clouds 9 1011 76 10000 6.2 170 09:45 28.10.2020
6237 Clouds 9 1011 76 10000 6.2 170 09:24 28.10.2020
6238 Clouds 9 1010 70 10000 4.6 160 08:51 28.10.2020
6239 Clouds 8 1010 75 10000 5.7 170 08:32 28.10.2020
6240 Clouds 8 1010 75 10000 5.7 160 07:55 28.10.2020
6241 Clouds 8 1010 75 10000 3.1 150 07:37 28.10.2020
6242 Rain 7 1010 75 10000 3.1 150 07:19 28.10.2020
6243 Clear 7 1009 81 10000 4.6 160 06:39 28.10.2020
6244 Clear 7 1010 87 10000 3.6 150 05:44 28.10.2020
6245 Clear 6 1010 87 10000 3.1 140 04:51 28.10.2020
6246 Clear 6 1010 87 10000 3.1 140 04:20 28.10.2020
6247 Clear 6 1011 87 10000 4.1 140 02:25 28.10.2020
6248 Clear 7 1012 75 10000 5.1 170 00:36 28.10.2020
6249 Clear 7 1012 75 10000 6.2 180 23:51 27.10.2020
6250 Clear 7 1011 75 10000 6.2 180 23:22 27.10.2020
6251 Clear 7 1012 81 10000 6.2 180 22:45 27.10.2020
6252 Clear 7 1012 81 10000 6.2 180 22:22 27.10.2020
6253 Clear 7 1012 81 10000 6.2 180 21:57 27.10.2020
6254 Clear 6 1012 87 10000 6.2 180 21:38 27.10.2020
6255 Clear 6 1012 87 10000 5.1 170 21:20 27.10.2020
6256 Clear 6 1012 87 10000 5.1 170 20:54 27.10.2020
6257 Clear 6 1012 87 10000 4.6 170 20:36 27.10.2020
6258 Clear 6 1012 87 10000 4.6 170 20:18 27.10.2020
6259 Clear 6 1012 87 10000 4.6 170 20:18 27.10.2020
6260 Clear 7 1012 81 10000 4.6 180 19:39 27.10.2020
6261 Clear 7 1012 81 10000 4.6 180 19:20 27.10.2020
6262 Clouds 7 1011 81 10000 5.7 180 18:55 27.10.2020
6263 Clouds 8 1011 70 10000 5.1 180 18:37 27.10.2020
6264 Clouds 9 1011 66 10000 4.1 190 18:18 27.10.2020
6265 Clouds 9 1011 66 10000 4.1 210 17:40 27.10.2020
6266 Clouds 10 1011 62 10000 4.1 220 17:20 27.10.2020
6267 Clouds 11 1011 58 10000 4.6 220 16:48 27.10.2020
6268 Clouds 11 1011 58 10000 4.6 220 16:25 27.10.2020
6269 Clouds 11 1011 58 10000 4.6 220 15:48 27.10.2020
6270 Clouds 11 1010 58 10000 4.1 220 15:30 27.10.2020
6271 Clouds 12 1010 58 10000 4.1 230 14:55 27.10.2020
6272 Clouds 12 1010 58 10000 4.1 230 14:37 27.10.2020
6273 Clouds 12 1010 58 10000 6.2 210 14:19 27.10.2020
6274 Clouds 12 1010 62 10000 5.7 200 13:33 27.10.2020
6275 Clouds 12 1010 62 10000 4.1 190 12:59 27.10.2020
6276 Clouds 12 1010 62 10000 5.1 190 12:39 27.10.2020
6277 Clouds 12 1010 62 10000 5.1 200 12:20 27.10.2020
6278 Clouds 12 1010 62 10000 4.6 230 11:42 27.10.2020
6279 Clouds 11 1010 62 10000 4.6 230 11:22 27.10.2020
6280 Clear 12 1010 62 10000 5.7 210 10:47 27.10.2020
6281 Clear 12 1010 62 10000 5.7 210 10:47 27.10.2020
6282 Clear 11 1010 66 10000 7.2 210 10:26 27.10.2020
6283 Clear 10 1009 76 10000 5.1 200 09:46 27.10.2020
6284 Clear 10 1009 76 10000 5.1 200 09:25 27.10.2020
6285 Clear 8 1009 81 10000 4.1 180 08:39 27.10.2020
6286 Clear 8 1009 81 10000 3.6 200 08:20 27.10.2020
6287 Clear 8 1009 81 10000 1.5 210 07:45 27.10.2020
6288 Clear 8 1009 81 10000 1.5 210 07:45 27.10.2020
6289 Clear 8 1009 81 10000 1.5 210 07:45 27.10.2020
6290 Clear 8 1009 81 10000 1.5 210 07:26 27.10.2020
6291 Clear 8 1008 81 10000 3.6 210 06:38 27.10.2020
6292 Rain 8 1008 81 10000 3.6 210 06:19 27.10.2020
6293 Rain 9 1008 76 10000 3.1 220 05:41 27.10.2020
6294 Clear 9 1008 76 10000 2.6 220 04:50 27.10.2020
6295 Rain 9 1008 81 10000 4.1 200 02:35 27.10.2020
6296 Rain 9 1007 76 10000 2.6 240 00:58 27.10.2020
6297 Rain 9 1007 81 10000 3.6 240 23:53 26.10.2020
6298 Rain 9 1007 81 10000 3.1 240 23:32 26.10.2020
6299 Clear 10 1006 81 10000 3.6 230 22:52 26.10.2020
6300 Rain 10 1006 87 10000 4.1 230 22:28 26.10.2020
6301 Clouds 10 1006 87 10000 2.6 230 21:50 26.10.2020
6302 Clouds 10 1006 87 10000 3.1 220 21:21 26.10.2020
6303 Clouds 10 1006 87 10000 3.1 220 20:58 26.10.2020
6304 Clouds 10 1006 87 10000 2.1 230 20:40 26.10.2020
6305 Rain 10 1006 87 10000 2.1 230 20:22 26.10.2020
6306 Rain 10 1005 87 10000 2.6 270 19:48 26.10.2020
6307 Rain 10 1005 93 10000 1.5 240 19:26 26.10.2020
6308 Rain 11 1005 87 10000 1.5 250 18:55 26.10.2020
6309 Rain 11 1005 87 10000 2.1 260 18:36 26.10.2020
6310 Rain 11 1004 87 10000 3.1 280 18:18 26.10.2020
6311 Rain 12 1004 76 10000 4.6 280 17:40 26.10.2020
6312 Rain 12 1004 76 10000 4.6 280 17:22 26.10.2020
6313 Clouds 12 1003 76 10000 2.6 280 16:44 26.10.2020
6314 Clouds 12 1003 76 10000 2.6 280 16:22 26.10.2020
6315 Clouds 13 1003 76 10000 3.6 230 15:45 26.10.2020
6316 Clouds 13 1003 76 10000 3.6 230 15:26 26.10.2020
6317 Clouds 13 1003 71 10000 3.1 220 14:59 26.10.2020
6318 Clouds 13 1002 71 10000 4.1 210 14:38 26.10.2020
6319 Clouds 14 1002 71 10000 2.6 190 13:58 26.10.2020
6320 Clouds 14 1002 76 10000 2.1 110 13:36 26.10.2020
6321 Clouds 14 1002 76 10000 2.1 110 13:18 26.10.2020
6322 Clouds 13 1003 76 10000 2.1 260 12:42 26.10.2020
6323 Clouds 13 1003 76 10000 2.1 260 12:42 26.10.2020
6324 Clouds 13 1003 76 10000 2.1 260 12:23 26.10.2020
6325 Clouds 13 1003 76 10000 3.1 170 11:47 26.10.2020
6326 Clouds 13 1003 76 10000 3.1 170 11:47 26.10.2020
6327 Clouds 13 1003 76 10000 3.1 170 11:25 26.10.2020
6328 Clouds 13 1003 76 10000 3.6 170 10:58 26.10.2020
6329 Clouds 13 1003 81 10000 3.1 170 10:40 26.10.2020
6330 Clouds 12 1003 81 10000 4.1 180 10:19 26.10.2020
6331 Clouds 12 1003 81 10000 4.1 170 09:42 26.10.2020
6332 Clouds 12 1003 87 10000 5.7 150 09:19 26.10.2020
6333 Rain 11 1004 87 10000 7.7 170 08:29 26.10.2020
6334 Clouds 11 1004 81 10000 6.7 170 07:52 26.10.2020
6335 Clouds 10 1004 87 10000 7.2 160 07:33 26.10.2020
6336 Clouds 10 1004 87 10000 7.7 160 06:37 26.10.2020
6337 Clear 10 1004 87 10000 7.2 150 04:22 26.10.2020
6338 Clear 9 1005 87 10000 6.7 150 03:33 26.10.2020
6339 Clear 10 1005 87 10000 6.7 150 01:38 26.10.2020
6340 Clear 10 1006 87 10000 6.2 160 00:57 26.10.2020
6341 Clear 10 1006 87 10000 7.2 160 00:32 26.10.2020
6342 Clear 11 1006 87 10000 5.1 160 23:41 25.10.2020
6343 Clear 11 1006 87 10000 5.1 160 23:21 25.10.2020
6344 Clear 10 1006 87 10000 5.1 170 22:40 25.10.2020
6345 Clear 11 1006 87 10000 5.1 170 22:20 25.10.2020
6346 Clear 11 1006 87 10000 3.6 160 21:41 25.10.2020
6347 Clear 11 1006 87 10000 3.6 160 21:22 25.10.2020
6348 Clear 10 1006 87 10000 3.6 170 20:56 25.10.2020
6349 Clear 10 1007 87 10000 2.6 180 20:37 25.10.2020
6350 Clear 11 1006 76 10000 3.6 160 20:18 25.10.2020
6351 Clear 10 1006 76 10000 4.1 150 19:48 25.10.2020
6352 Clear 11 1006 76 10000 4.1 150 19:22 25.10.2020
6353 Clear 11 1006 76 10000 4.6 150 18:55 25.10.2020
6354 Clear 11 1007 76 10000 4.6 150 18:36 25.10.2020
6355 Clear 11 1007 71 10000 4.1 150 18:18 25.10.2020
6356 Clear 12 1007 71 10000 3.6 150 17:39 25.10.2020
6357 Clear 12 1007 67 10000 4.1 140 17:21 25.10.2020
6358 Clear 13 1007 67 10000 4.1 140 16:57 25.10.2020
6359 Clear 13 1007 62 10000 4.1 150 16:38 25.10.2020
6360 Clear 14 1008 62 10000 4.6 140 16:18 25.10.2020
6361 Clear 15 1008 62 10000 5.1 150 15:45 25.10.2020
6362 Clear 15 1008 62 10000 5.1 150 15:25 25.10.2020
6363 Clear 15 1008 62 10000 5.1 150 14:43 25.10.2020
6364 Clear 15 1008 62 10000 5.1 150 14:24 25.10.2020
6365 Clear 16 1009 59 10000 6.7 170 13:43 25.10.2020
6366 Clear 16 1009 59 10000 6.7 170 13:21 25.10.2020
6367 Clear 16 1009 59 10000 6.7 160 12:47 25.10.2020
6368 Clear 16 1010 63 10000 5.7 160 12:26 25.10.2020
6369 Clear 15 1010 67 10000 4.6 160 11:55 25.10.2020
6370 Clear 15 1011 71 10000 5.1 160 11:37 25.10.2020
6371 Clear 14 1010 71 10000 4.1 150 11:18 25.10.2020
6372 Clear 14 1011 76 10000 5.1 150 10:44 25.10.2020
6373 Clear 14 1011 76 10000 5.1 150 10:25 25.10.2020
6374 Clear 13 1011 76 10000 5.1 150 09:48 25.10.2020
6375 Clear 12 1011 81 10000 4.1 150 09:20 25.10.2020
6376 Clear 11 1011 87 10000 4.6 150 08:47 25.10.2020
6377 Clear 10 1011 87 10000 4.6 150 08:29 25.10.2020
6378 Clear 9 1011 93 10000 6.2 150 07:53 25.10.2020
6379 Clear 9 1011 93 10000 5.7 150 07:34 25.10.2020
6380 Clear 9 1012 93 10000 5.1 150 06:51 25.10.2020
6381 Clear 8 1012 93 10000 4.1 150 06:19 25.10.2020
6382 Clear 8 1012 93 10000 5.1 150 04:53 25.10.2020
6383 Clear 8 1013 93 10000 4.1 150 03:53 25.10.2020
6384 Clear 9 1014 81 10000 2.6 150 02:19 25.10.2020
6385 Clear 10 1014 81 10000 5.1 200 00:49 25.10.2020
6386 Clear 10 1014 81 10000 5.1 200 00:49 25.10.2020
6387 Clear 10 1014 81 10000 5.1 200 00:20 25.10.2020
6388 Clear 10 1015 81 10000 4.6 190 23:54 24.10.2020
6389 Clear 11 1015 81 10000 5.1 220 23:26 24.10.2020
6390 Clear 11 1015 81 10000 4.6 200 22:57 24.10.2020
6391 Clear 11 1015 76 10000 4.6 200 22:38 24.10.2020
6392 Clear 11 1015 76 10000 4.6 200 22:20 24.10.2020
6393 Clear 11 1015 76 10000 4.1 210 21:43 24.10.2020
6394 Clear 12 1015 76 10000 4.1 210 21:21 24.10.2020
6395 Clear 12 1015 76 10000 4.1 210 21:21 24.10.2020
6396 Clear 11 1015 81 10000 3.6 190 20:49 24.10.2020
6397 Clear 12 1015 76 10000 2.6 190 20:25 24.10.2020
6398 Clear 11 1015 76 10000 3.1 210 19:58 24.10.2020
6399 Clear 11 1015 81 10000 2.6 220 19:40 24.10.2020
6400 Clear 11 1015 81 10000 2.6 220 19:22 24.10.2020
6401 Clouds 12 1014 71 10000 3.1 230 18:46 24.10.2020
6402 Clouds 13 1014 71 10000 3.1 230 18:26 24.10.2020
6403 Clouds 14 1015 63 10000 3.6 240 17:42 24.10.2020
6404 Clouds 15 1015 63 10000 3.6 240 17:22 24.10.2020
6405 Clouds 16 1015 63 10000 4.1 240 16:47 24.10.2020
6406 Clouds 17 1015 59 10000 4.6 260 16:28 24.10.2020
6407 Clouds 17 1015 63 10000 3.6 260 15:42 24.10.2020
6408 Clouds 17 1015 63 10000 3.6 260 15:20 24.10.2020
6409 Clouds 17 1015 63 10000 4.6 250 14:57 24.10.2020
6410 Clouds 17 1015 63 10000 5.7 260 14:29 24.10.2020
6411 Clouds 17 1015 63 10000 3.1 260 13:50 24.10.2020
6412 Clouds 16 1015 67 10000 4.6 260 13:32 24.10.2020
6413 Clouds 16 1016 72 10000 4.6 280 12:59 24.10.2020
6414 Clouds 16 1016 67 10000 5.1 260 12:37 24.10.2020
6415 Clouds 16 1016 67 10000 5.1 260 12:19 24.10.2020
6416 Clouds 15 1015 77 10000 4.1 260 11:45 24.10.2020
6417 Clouds 15 1015 77 10000 4.1 260 11:20 24.10.2020
6418 Clouds 15 1015 82 10000 3.6 220 10:43 24.10.2020
6419 Clouds 14 1015 82 10000 3.6 220 10:25 24.10.2020
6420 Clouds 12 1014 87 10000 2.6 220 09:45 24.10.2020
6421 Clouds 12 1014 87 10000 2.6 220 09:45 24.10.2020
6422 Clouds 11 1014 87 10000 2.6 220 09:26 24.10.2020
6423 Clouds 11 1014 87 10000 2.1 240 08:56 24.10.2020
6424 Clouds 11 1014 93 10000 2.6 210 08:19 24.10.2020
6425 Clouds 11 1014 93 10000 2.1 240 07:51 24.10.2020
6426 Clouds 12 1013 93 10000 1 0 07:20 24.10.2020
6427 Clouds 12 1013 87 10000 1.5 260 06:50 24.10.2020
6428 Clouds 12 1013 87 10000 3.1 270 05:46 24.10.2020
6429 Clouds 13 1012 87 10000 3.1 250 02:26 24.10.2020
6430 Clouds 14 1012 93 10000 2.6 250 00:57 24.10.2020
6431 Clouds 14 1012 93 10000 2.6 250 00:37 24.10.2020
6432 Clouds 14 1012 93 10000 2.6 250 00:37 24.10.2020
6433 Clouds 14 1012 93 10000 2.6 240 00:19 24.10.2020
6434 Rain 14 1011 82 10000 4.1 230 23:43 23.10.2020
6435 Clouds 14 1011 82 10000 4.1 230 23:22 23.10.2020
6436 Rain 14 1011 87 10000 3.6 200 22:42 23.10.2020
6437 Clouds 14 1011 87 10000 3.6 200 22:22 23.10.2020
6438 Clouds 14 1011 87 10000 3.6 200 22:22 23.10.2020
6439 Clouds 14 1011 87 10000 4.6 190 21:59 23.10.2020
6440 Clouds 14 1011 87 10000 3.6 180 21:39 23.10.2020
6441 Clouds 14 1011 87 10000 3.6 180 21:20 23.10.2020
6442 Rain 14 1011 87 10000 4.1 180 20:39 23.10.2020
6443 Clouds 14 1011 87 10000 4.1 180 20:20 23.10.2020
6444 Clouds 14 1011 87 10000 4.1 170 19:48 23.10.2020
6445 Clouds 14 1011 87 10000 3.6 190 19:29 23.10.2020
6446 Clouds 14 1011 87 10000 3.1 170 18:49 23.10.2020
6447 Clear 14 1011 87 10000 1.5 150 18:30 23.10.2020
6448 Clouds 14 1011 87 10000 2.6 140 17:47 23.10.2020
6449 Clouds 15 1011 87 10000 2.6 150 17:22 23.10.2020
6450 Clouds 15 1011 82 10000 2.6 140 16:56 23.10.2020
6451 Clouds 15 1011 82 10000 2.6 140 16:56 23.10.2020
6452 Clouds 15 1011 82 10000 2.6 140 16:56 23.10.2020
6453 Clouds 15 1011 82 10000 2.6 140 16:56 23.10.2020
6454 Clouds 15 1011 87 10000 3.1 150 16:35 23.10.2020
6455 Clouds 15 1012 87 10000 2.1 140 15:59 23.10.2020
6456 Clouds 15 1012 87 10000 3.6 150 15:41 23.10.2020
6457 Clouds 15 1012 87 10000 3.6 150 15:23 23.10.2020
6458 Clouds 15 1012 87 10000 2.6 150 14:50 23.10.2020
6459 Clouds 15 1012 87 10000 2.6 160 14:32 23.10.2020
6460 Clouds 14 1013 93 10000 3.1 170 13:55 23.10.2020
6461 Clouds 14 1013 93 10000 3.1 160 13:36 23.10.2020
6462 Clouds 14 1013 93 10000 2.1 170 13:18 23.10.2020
6463 Clouds 14 1013 93 10000 2.6 170 12:42 23.10.2020
6464 Clouds 13 1013 93 10000 2.6 160 12:23 23.10.2020
6465 Clouds 13 1013 93 10000 3.1 160 11:42 23.10.2020
6466 Clouds 13 1013 93 10000 3.1 160 11:20 23.10.2020
6467 Rain 13 1013 93 10000 3.1 150 10:43 23.10.2020
6468 Clouds 13 1013 93 10000 3.1 150 10:23 23.10.2020
6469 Rain 12 1014 93 10000 1.5 150 09:43 23.10.2020
6470 Rain 12 1014 93 10000 1.5 150 09:23 23.10.2020
6471 Rain 12 1013 93 10000 2.6 150 08:52 23.10.2020
6472 Clouds 12 1013 87 10000 3.1 170 08:28 23.10.2020
6473 Clouds 12 1013 87 10000 3.6 200 07:30 23.10.2020
6474 Clouds 12 1013 87 10000 3.6 180 06:54 23.10.2020
6475 Clear 13 1013 87 10000 4.6 180 06:20 23.10.2020
6476 Clear 13 1013 93 10000 4.1 180 04:45 23.10.2020
6477 Clouds 13 1014 82 10000 6.2 190 02:32 23.10.2020
6478 Rain 14 1014 72 10000 4.6 180 01:22 23.10.2020
6479 Clear 13 1014 76 10000 5.1 170 00:33 23.10.2020
6480 Clear 13 1014 76 10000 5.1 170 23:40 22.10.2020
6481 Rain 13 1014 76 10000 5.1 170 23:22 22.10.2020
6482 Clear 14 1014 76 10000 5.1 180 22:48 22.10.2020
6483 Clear 14 1014 76 10000 5.1 180 22:26 22.10.2020
6484 Rain 13 1014 82 10000 4.6 170 21:58 22.10.2020
6485 Clear 13 1015 82 10000 3.1 170 21:40 22.10.2020
6486 Clear 13 1014 82 10000 3.6 150 21:20 22.10.2020
6487 Clear 12 1015 82 10000 5.1 160 20:44 22.10.2020
6488 Clear 12 1015 82 10000 5.1 160 20:25 22.10.2020
6489 Clear 13 1015 76 10000 5.1 150 19:58 22.10.2020
6490 Clear 13 1015 76 10000 4.6 150 19:39 22.10.2020
6491 Clear 14 1015 82 10000 5.1 150 19:18 22.10.2020
6492 Clear 14 1015 77 10000 2.6 140 18:41 22.10.2020
6493 Clear 14 1015 77 10000 3.1 160 18:19 22.10.2020
6494 Clear 15 1014 72 10000 4.1 150 17:45 22.10.2020
6495 Clear 16 1015 67 10000 4.1 140 17:22 22.10.2020
6496 Clear 16 1015 67 10000 4.1 140 16:46 22.10.2020
6497 Clear 17 1015 63 10000 4.1 150 16:25 22.10.2020
6498 Clear 17 1015 63 10000 4.1 150 16:25 22.10.2020
6499 Clouds 17 1015 63 10000 5.1 160 15:56 22.10.2020
6500 Clouds 18 1015 63 10000 4.1 200 15:38 22.10.2020
6501 Clouds 18 1015 63 10000 4.1 200 15:19 22.10.2020
6502 Clouds 18 1015 56 10000 4.1 240 14:42 22.10.2020
6503 Clouds 19 1015 56 10000 4.1 240 14:23 22.10.2020
6504 Clouds 19 1015 63 10000 4.1 190 13:45 22.10.2020
6505 Clouds 19 1015 63 10000 4.1 190 13:23 22.10.2020
6506 Clouds 18 1016 68 10000 3.1 110 12:47 22.10.2020
6507 Clouds 17 1016 67 10000 1.5 180 12:23 22.10.2020
6508 Clouds 15 1015 72 10000 3.1 160 11:48 22.10.2020
6509 Clouds 14 1015 72 10000 2.1 150 11:20 22.10.2020
6510 Clouds 13 1015 76 10000 1.5 0 10:49 22.10.2020
6511 Clouds 13 1015 76 10000 1.5 0 10:27 22.10.2020
6512 Clouds 12 1015 81 10000 3.6 170 09:46 22.10.2020
6513 Clouds 11 1014 81 10000 3.1 170 09:28 22.10.2020
6514 Clouds 11 1014 81 10000 0.5 0 08:49 22.10.2020
6515 Clouds 11 1014 81 10000 0.5 0 08:28 22.10.2020
6516 Clouds 11 1013 76 10000 5.1 170 07:57 22.10.2020
6517 Clouds 11 1013 76 10000 6.2 180 07:34 22.10.2020
6518 Clouds 12 1013 71 10000 4.6 190 06:58 22.10.2020
6519 Clouds 12 1013 71 10000 6.7 180 06:26 22.10.2020
6520 Clouds 12 1012 67 10000 5.1 200 05:41 22.10.2020
6521 Clouds 15 1012 62 10000 6.2 190 05:18 22.10.2020
6522 Clouds 13 1012 62 10000 7.2 180 01:46 22.10.2020
6523 Clouds 12 1011 66 10000 6.2 180 00:26 22.10.2020
6524 Clouds 12 1011 66 10000 6.7 180 23:51 21.10.2020
6525 Clouds 12 1011 66 10000 6.7 180 23:32 21.10.2020
6526 Clouds 12 1011 66 10000 7.7 170 22:43 21.10.2020
6527 Clouds 12 1011 66 10000 7.7 170 22:20 21.10.2020
6528 Clouds 12 1010 66 10000 7.2 170 21:56 21.10.2020
6529 Clouds 12 1010 66 10000 7.2 170 21:56 21.10.2020
6530 Clouds 12 1010 66 10000 4.6 160 21:38 21.10.2020
6531 Clouds 12 1010 66 10000 4.6 160 21:18 21.10.2020
6532 Clouds 12 1011 66 10000 6.7 160 20:48 21.10.2020
6533 Clouds 12 1010 66 10000 7.2 160 20:19 21.10.2020
6534 Clouds 12 1010 66 10000 7.2 160 19:56 21.10.2020
6535 Clouds 12 1010 66 10000 6.7 160 19:36 21.10.2020
6536 Clouds 12 1010 66 10000 8.2 160 19:18 21.10.2020
6537 Clouds 12 1009 66 10000 8.2 160 18:45 21.10.2020
6538 Clouds 12 1009 66 10000 8.2 160 18:21 21.10.2020
6539 Clouds 12 1010 62 10000 8.2 160 17:42 21.10.2020
6540 Clouds 12 1010 66 10000 8.2 150 17:19 21.10.2020
6541 Clouds 13 1010 66 10000 8.2 150 16:41 21.10.2020
6542 Clouds 13 1010 66 10000 8.2 150 16:21 21.10.2020
6543 Clouds 13 1010 66 10000 6.7 150 15:57 21.10.2020
6544 Clouds 13 1010 66 10000 6.7 150 15:38 21.10.2020
6545 Clouds 13 1010 62 10000 7.2 150 15:19 21.10.2020
6546 Clouds 13 1010 66 10000 6.2 150 14:44 21.10.2020
6547 Clouds 12 1011 66 10000 5.1 150 14:26 21.10.2020
6548 Clouds 13 1011 66 10000 4.1 150 13:45 21.10.2020
6549 Clouds 13 1011 66 10000 3.1 150 13:26 21.10.2020
6550 Clouds 12 1011 66 10000 8.2 160 12:48 21.10.2020
6551 Clouds 12 1011 71 10000 7.7 150 12:24 21.10.2020
6552 Clouds 12 1011 71 10000 7.2 150 11:59 21.10.2020
6553 Rain 11 1011 71 10000 7.2 150 11:40 21.10.2020
6554 Rain 11 1011 71 10000 7.2 150 11:40 21.10.2020
6555 Clouds 12 1011 71 10000 7.2 140 11:19 21.10.2020
6556 Rain 11 1011 76 10000 6.7 150 10:44 21.10.2020
6557 Rain 10 1011 76 10000 6.7 150 10:25 21.10.2020
6558 Rain 10 1012 76 10000 5.7 150 09:52 21.10.2020
6559 Rain 10 1012 76 10000 5.7 150 09:33 21.10.2020
6560 Clouds 9 1011 81 10000 6.7 140 08:56 21.10.2020
6561 Rain 9 1011 81 10000 6.7 140 08:38 21.10.2020
6562 Rain 10 1012 76 10000 4.1 160 08:19 21.10.2020
6563 Rain 10 1012 76 10000 5.1 150 07:37 21.10.2020
6564 Clouds 10 1012 76 10000 5.7 150 06:52 21.10.2020
6565 Clouds 9 1012 76 10000 6.2 150 06:27 21.10.2020
6566 Rain 10 1012 81 10000 7.7 160 04:47 21.10.2020
6567 Rain 10 1014 76 10000 6.7 150 00:51 21.10.2020
6568 Rain 10 1014 71 10000 6.2 150 23:49 20.10.2020
6569 Rain 10 1014 71 10000 4.6 160 22:54 20.10.2020
6570 Clouds 10 1014 71 10000 6.2 160 22:29 20.10.2020
6571 Clouds 10 1014 71 10000 3.6 170 21:50 20.10.2020
6572 Clouds 10 1014 71 10000 4.1 170 21:21 20.10.2020
6573 Clouds 10 1014 71 10000 5.1 170 20:57 20.10.2020
6574 Clouds 10 1014 71 10000 5.1 170 20:38 20.10.2020
6575 Clouds 9 1014 71 10000 5.7 160 20:20 20.10.2020
6576 Clouds 10 1013 71 10000 5.7 160 19:44 20.10.2020
6577 Clouds 10 1013 71 10000 6.2 150 19:22 20.10.2020
6578 Clouds 10 1014 71 10000 5.7 150 18:55 20.10.2020
6579 Clouds 10 1014 71 10000 6.7 160 18:36 20.10.2020
6580 Clouds 10 1014 71 10000 6.7 160 17:50 20.10.2020
6581 Clouds 10 1014 71 10000 7.2 160 17:31 20.10.2020
6582 Clouds 10 1014 71 10000 7.7 160 16:49 20.10.2020
6583 Clouds 10 1015 71 10000 8.7 160 16:31 20.10.2020
6584 Clouds 11 1015 66 10000 7.7 160 15:59 20.10.2020
6585 Clouds 11 1015 66 10000 7.7 160 15:41 20.10.2020
6586 Clouds 11 1015 66 10000 7.2 160 15:22 20.10.2020
6587 Rain 11 1016 66 10000 7.7 170 14:44 20.10.2020
6588 Clouds 11 1016 66 10000 7.2 160 14:24 20.10.2020
6589 Clouds 10 1016 71 10000 7.2 170 13:56 20.10.2020
6590 Clouds 10 1016 71 10000 7.2 170 13:37 20.10.2020
6591 Clouds 10 1017 71 10000 6.7 160 13:19 20.10.2020
6592 Clouds 10 1017 76 10000 7.7 150 12:40 20.10.2020
6593 Clouds 9 1017 81 10000 7.2 150 12:22 20.10.2020
6594 Clouds 9 1018 81 10000 6.2 160 11:45 20.10.2020
6595 Clouds 9 1018 75 10000 6.7 160 11:27 20.10.2020
6596 Clouds 8 1018 81 10000 6.7 160 10:40 20.10.2020
6597 Clouds 7 1018 81 10000 5.7 160 10:22 20.10.2020
6598 Clouds 7 1018 87 10000 5.7 170 09:44 20.10.2020
6599 Clouds 6 1018 87 10000 5.1 150 09:19 20.10.2020
6600 Clouds 5 1018 86 10000 4.6 160 08:39 20.10.2020
6601 Clouds 3 1019 93 10000 4.1 150 07:54 20.10.2020
6602 Clouds 4 1019 93 10000 3.6 150 07:26 20.10.2020
6603 Clouds 4 1019 93 10000 3.6 140 06:57 20.10.2020
6604 Clouds 4 1020 93 10000 2.6 160 06:19 20.10.2020
6605 Clouds 4 1020 93 10000 2.6 120 04:26 20.10.2020
6606 Clouds 5 1021 93 10000 3.1 150 02:30 20.10.2020
6607 Clouds 5 1022 87 10000 3.6 160 01:22 20.10.2020
6608 Clouds 5 1022 87 10000 3.6 160 00:51 20.10.2020
6609 Clouds 5 1022 87 10000 3.6 160 00:26 20.10.2020
6610 Clouds 5 1022 87 10000 3.6 150 23:51 19.10.2020
6611 Clouds 6 1022 87 10000 2.6 160 23:25 19.10.2020
6612 Clouds 6 1022 87 10000 3.6 150 22:54 19.10.2020
6613 Clouds 7 1022 81 10000 2.6 160 22:26 19.10.2020
6614 Clouds 7 1022 81 10000 2.6 170 21:55 19.10.2020
6615 Clouds 8 1022 81 10000 2.6 170 21:37 19.10.2020
6616 Clouds 8 1022 81 10000 2.1 160 21:18 19.10.2020
6617 Clouds 9 1022 76 10000 3.6 170 20:42 19.10.2020
6618 Clouds 9 1023 76 10000 2.6 180 20:24 19.10.2020
6619 Clouds 9 1023 76 10000 2.6 180 19:45 19.10.2020
6620 Clouds 9 1023 76 10000 1.5 180 19:19 19.10.2020
6621 Clouds 9 1022 76 10000 0.5 180 18:50 19.10.2020
6622 Clouds 9 1022 76 10000 1 170 18:24 19.10.2020
6623 Clouds 10 1022 76 10000 1 0 17:47 19.10.2020
6624 Clouds 10 1022 76 10000 2.1 240 17:27 19.10.2020
6625 Clouds 11 1022 71 10000 2.6 230 16:54 19.10.2020
6626 Clouds 11 1022 71 10000 2.6 240 16:29 19.10.2020
6627 Clouds 11 1023 73 10000 2.81 279 15:48 19.10.2020
6628 Clouds 11 1023 76 10000 3.63 272 15:26 19.10.2020
6629 Clouds 11 1023 76 10000 3.62 271 14:57 19.10.2020
6630 Clouds 11 1023 79 10000 3.63 272 14:38 19.10.2020
6631 Clouds 11 1023 78 10000 4.15 267 14:19 19.10.2020
6632 Clouds 10 1023 82 10000 3.82 259 13:42 19.10.2020
6633 Clouds 10 1023 79 10000 4.41 258 13:22 19.10.2020
6634 Clouds 10 1023 79 10000 4.41 258 12:45 19.10.2020
6635 Clouds 10 1023 79 10000 4.55 260 12:25 19.10.2020
6636 Clouds 10 1023 81 10000 3.6 240 11:49 19.10.2020
6637 Clouds 9 1023 81 10000 3.6 240 11:22 19.10.2020
6638 Clouds 9 1023 87 10000 2.6 240 10:45 19.10.2020
6639 Clouds 9 1023 87 10000 2.6 240 10:25 19.10.2020
6640 Clouds 9 1023 87 10000 3.6 220 09:58 19.10.2020
6641 Clouds 8 1023 87 10000 2.1 230 09:37 19.10.2020
6642 Clouds 8 1022 87 10000 2.1 230 09:18 19.10.2020
6643 Clouds 8 1022 87 10000 2.1 240 08:44 19.10.2020
6644 Clouds 7 1022 87 10000 2.1 240 08:21 19.10.2020
6645 Clouds 7 1022 87 10000 2.6 250 07:21 19.10.2020
6646 Clouds 8 1022 81 10000 3.1 250 06:45 19.10.2020
6647 Clouds 8 1021 81 10000 2.6 260 05:36 19.10.2020
6648 Clouds 8 1021 81 10000 3.1 250 03:46 19.10.2020
6649 Clouds 8 1021 81 10000 3.1 260 01:43 19.10.2020
6650 Clouds 8 1020 81 10000 3.1 250 00:43 19.10.2020
6651 Clouds 8 1020 81 10000 3.1 250 23:59 18.10.2020
6652 Clouds 8 1020 81 10000 3.1 260 23:40 18.10.2020
6653 Clouds 8 1020 81 10000 3.1 260 23:20 18.10.2020
6654 Clouds 8 1020 76 10000 3.1 260 22:45 18.10.2020
6655 Clouds 8 1020 76 10000 3.1 260 22:19 18.10.2020
6656 Clouds 8 1020 81 10000 3.1 250 21:48 18.10.2020
6657 Clouds 8 1020 70 10000 3.6 260 21:29 18.10.2020
6658 Clouds 8 1020 81 10000 2.6 250 20:47 18.10.2020
6659 Clouds 8 1020 76 10000 3.1 250 20:24 18.10.2020
6660 Clouds 9 1020 76 10000 3.6 260 19:56 18.10.2020
6661 Clouds 9 1019 70 10000 3.1 260 19:38 18.10.2020
6662 Clouds 9 1019 76 10000 3.1 260 19:19 18.10.2020
6663 Clouds 9 1018 70 10000 5.1 240 18:46 18.10.2020
6664 Clouds 9 1018 70 10000 5.1 240 18:24 18.10.2020
6665 Clouds 10 1018 66 10000 5.1 270 17:41 18.10.2020
6666 Clouds 10 1018 66 10000 5.1 270 17:22 18.10.2020
6667 Clouds 10 1018 66 10000 6.7 270 16:44 18.10.2020
6668 Clouds 10 1018 66 10000 6.7 270 16:44 18.10.2020
6669 Clouds 10 1018 66 10000 6.7 270 16:25 18.10.2020
6670 Clouds 10 1018 71 10000 6.7 260 15:55 18.10.2020
6671 Clouds 10 1018 66 10000 7.7 270 15:36 18.10.2020
6672 Clouds 10 1018 66 10000 7.7 270 15:18 18.10.2020
6673 Clouds 10 1019 71 10000 7.2 270 14:43 18.10.2020
6674 Clouds 10 1019 71 10000 7.2 270 14:25 18.10.2020
6675 Clouds 10 1019 76 10000 6.2 260 13:45 18.10.2020
6676 Clouds 10 1019 76 10000 6.2 260 13:26 18.10.2020
6677 Clouds 10 1019 76 10000 6.2 260 12:57 18.10.2020
6678 Clouds 10 1019 81 10000 5.7 270 12:39 18.10.2020
6679 Clouds 9 1019 81 10000 5.7 260 12:19 18.10.2020
6680 Clouds 9 1019 81 10000 5.1 260 11:40 18.10.2020
6681 Clouds 9 1019 81 10000 5.1 260 11:22 18.10.2020
6682 Clouds 8 1019 87 10000 4.6 260 10:40 18.10.2020
6683 Clouds 8 1019 87 10000 4.6 260 10:20 18.10.2020
6684 Clouds 8 1019 87 10000 4.6 260 09:49 18.10.2020
6685 Clouds 8 1018 87 10000 4.1 260 09:21 18.10.2020
6686 Clouds 8 1018 87 10000 4.1 260 08:56 18.10.2020
6687